# Wetter Temperatur Luftdruck Luftfeuchtigkeit Sichtweite Windgeschwindigkeit Windrichtung Zeit
1 Clouds 15 1012 62 10000 6 240 19:42 17.10.2019
2 Clouds 15 1012 59 10000 4 220 19:20 17.10.2019
3 Clear 15 1012 55 10000 4 220 18:59 17.10.2019
4 Clouds 15 1012 55 10000 4 210 18:39 17.10.2019
5 Clouds 15 1012 55 10000 4 210 18:20 17.10.2019
6 Clouds 15 1012 59 10000 4 210 17:44 17.10.2019
7 Clouds 16 1012 63 10000 4 210 17:25 17.10.2019
8 Clouds 17 1012 55 10000 4 200 16:59 17.10.2019
9 Clouds 17 1012 59 10000 5 200 16:41 17.10.2019
10 Clouds 17 1012 59 10000 5 200 16:19 17.10.2019
11 Clouds 17 1012 59 10000 5 200 16:19 17.10.2019
12 Clouds 18 1012 55 10000 4 200 15:57 17.10.2019
13 Clouds 19 1012 55 10000 4 210 15:39 17.10.2019
14 Clouds 19 1012 55 10000 4 210 15:20 17.10.2019
15 Clouds 19 1013 55 10000 4 210 14:57 17.10.2019
16 Clouds 19 1013 55 10000 4 190 14:38 17.10.2019
17 Clouds 19 1013 55 10000 4 190 14:20 17.10.2019
18 Clouds 19 1013 55 10000 4 190 13:41 17.10.2019
19 Clouds 19 1013 55 10000 4 190 13:21 17.10.2019
20 Clouds 18 1014 59 10000 5 190 12:58 17.10.2019
21 Clouds 18 1014 59 10000 4 210 12:39 17.10.2019
22 Clear 18 1014 59 10000 4 210 12:19 17.10.2019
23 Clear 17 1014 63 10000 5 220 11:56 17.10.2019
24 Clear 16 1014 67 10000 5 210 11:38 17.10.2019
25 Clear 16 1014 67 10000 5 210 11:18 17.10.2019
26 Clear 14 1015 71 10000 4 220 10:42 17.10.2019
27 Clear 14 1015 71 10000 4 220 10:20 17.10.2019
28 Clear 13 1014 76 10000 5 210 09:57 17.10.2019
29 Clear 13 1014 76 10000 5 210 09:57 17.10.2019
30 Clear 12 1015 81 10000 5 220 09:38 17.10.2019
31 Clear 12 1015 81 10000 5 220 09:38 17.10.2019
32 Clouds 12 1015 81 10000 5 220 09:20 17.10.2019
33 Clouds 11 1015 81 10000 5 220 08:57 17.10.2019
34 -273 0 0 0 0 0 08:57 17.10.2019
35 Clouds 11 1015 87 10000 5 220 08:38 17.10.2019
36 Clouds 10 1015 93 10000 5 210 08:18 17.10.2019
37 Clouds 10 1015 93 10000 5 210 07:48 17.10.2019
38 Clouds 9 1015 93 10000 5 220 07:21 17.10.2019
39 Clouds 8 1015 93 10000 4 210 06:58 17.10.2019
40 -273 0 0 0 0 0 06:39 17.10.2019
41 Clouds 8 1015 93 10000 4 230 06:19 17.10.2019
42 Clouds 8 1015 93 10000 5 210 05:41 17.10.2019
43 Clouds 8 1015 93 10000 5 210 05:21 17.10.2019
44 Clouds 8 1015 87 10000 5 210 04:50 17.10.2019
45 Clouds 7 1016 93 10000 4 210 03:50 17.10.2019
46 Clouds 8 1017 81 10000 4 200 02:35 17.10.2019
47 Clouds 8 1018 81 10000 4 190 00:44 17.10.2019
48 Clouds 7 1018 81 10000 4 190 00:22 17.10.2019
49 Clouds 7 1018 81 10000 3 190 23:59 16.10.2019
50 Clouds 7 1018 76 10000 4 190 23:41 16.10.2019
51 Clouds 7 1018 76 10000 4 190 23:20 16.10.2019
52 Clouds 8 1018 76 10000 5 190 22:55 16.10.2019
53 Clouds 7 1018 81 10000 5 180 22:36 16.10.2019
54 Clouds 7 1018 81 10000 5 180 22:18 16.10.2019
55 Clouds 8 1018 76 10000 5 180 21:55 16.10.2019
56 Clouds 8 1019 70 10000 4 180 21:37 16.10.2019
57 Clouds 8 1019 70 10000 4 180 21:18 16.10.2019
58 Clouds 8 1019 70 10000 4 180 21:18 16.10.2019
59 Clouds 7 1019 75 10000 5 170 20:56 16.10.2019
60 Clouds 8 1019 75 10000 5 160 20:38 16.10.2019
61 Clouds 8 1019 75 10000 5 160 20:20 16.10.2019
62 Clouds 8 1019 75 10000 5 160 20:20 16.10.2019
63 Clouds 8 1020 70 10000 4 160 19:56 16.10.2019
64 Clouds 8 1020 70 10000 4 150 19:38 16.10.2019
65 Clouds 8 1020 70 10000 4 150 19:19 16.10.2019
66 Clouds 8 1021 70 10000 4 160 18:39 16.10.2019
67 Clouds 8 1021 70 10000 4 160 18:19 16.10.2019
68 Clouds 8 1021 70 10000 4 170 17:56 16.10.2019
69 Clouds 8 1021 70 10000 4 160 17:38 16.10.2019
70 Clouds 8 1021 70 10000 4 160 17:38 16.10.2019
71 Clouds 8 1021 70 10000 4 160 17:19 16.10.2019
72 Clouds 8 1021 70 10000 4 160 17:19 16.10.2019
73 Clouds 8 1021 70 10000 5 150 16:58 16.10.2019
74 Rain 8 1022 70 10000 5 150 16:39 16.10.2019
75 Rain 8 1022 70 10000 5 150 16:20 16.10.2019
76 Clouds 8 1022 65 10000 5 140 15:56 16.10.2019
77 Clouds 8 1022 65 10000 5 140 15:55 16.10.2019
78 Clouds 8 1002 62 0 6.192 170 15:36 16.10.2019
79 Clouds 8 1024 61 10000 4 150 15:18 16.10.2019
80 Clouds 8 1024 61 10000 4 150 14:55 16.10.2019
81 Clouds 8 1024 61 10000 4 150 14:36 16.10.2019
82 Clouds 8 1024 61 10000 4 150 14:18 16.10.2019
83 Clouds 8 1025 65 10000 5 150 13:55 16.10.2019
84 Clouds 8 1025 65 10000 5 130 13:36 16.10.2019
85 Clouds 8 1025 65 10000 5 130 13:18 16.10.2019
86 Clouds 8 1026 63 10000 4 150 12:40 16.10.2019
87 Clouds 8 1026 67 10000 4 150 12:18 16.10.2019
88 Clouds 7 1026 67 10000 4 170 11:42 16.10.2019
89 Clouds 6 1027 67 10000 4 130 11:18 16.10.2019
90 Clouds 7 1026 67 10000 4 160 11:18 16.10.2019
91 Clouds 6 1027 60 10000 3 160 10:39 16.10.2019
92 Clouds 6 1027 60 10000 3 160 10:20 16.10.2019
93 Clouds 5 1027 67 10000 4 150 09:55 16.10.2019
94 Clouds 4 1027 69 10000 3 130 09:37 16.10.2019
95 Clouds 4 1027 69 10000 3 130 09:19 16.10.2019
96 Clouds 3 1027 74 10000 3 130 08:42 16.10.2019
97 Clouds 2 1027 74 10000 3 140 08:24 16.10.2019
98 Clouds 2 1028 80 10000 2 140 07:45 16.10.2019
99 Clouds 2 1028 80 10000 2 140 07:45 16.10.2019
100 -273 0 0 0 0 0 07:25 16.10.2019
101 Clouds 0 1027 86 10000 3 120 06:58 16.10.2019
102 Clouds 0 1027 86 10000 3 120 06:39 16.10.2019
103 Clouds 0 1028 79 10000 3 90 05:48 16.10.2019
104 Clouds 0 1027 80 10000 3 110 03:24 16.10.2019
105 Clouds 0 1027 76 10000 3 100 02:47 16.10.2019
106 Clouds 1 1027 86 10000 3 80 01:19 16.10.2019
107 Clouds 2 1027 86 10000 3 80 00:49 16.10.2019
108 Clouds 2 1026 86 10000 3 80 00:27 16.10.2019
109 Clouds 3 1026 80 10000 3 70 23:41 15.10.2019
110 Clouds 3 1026 80 10000 3 70 23:22 15.10.2019
111 Clouds 3 1026 78 10000 2 60 22:56 15.10.2019
112 Clouds 3 1026 78 10000 2 60 22:38 15.10.2019
113 Clouds 3 1026 78 10000 2 60 22:20 15.10.2019
114 Clouds 4 1026 69 10000 1 0 21:56 15.10.2019
115 Clouds 4 1026 69 10000 1 0 21:55 15.10.2019
116 Clouds 4 1026 69 10000 2 360 21:37 15.10.2019
117 Clouds 4 1026 69 10000 2 360 21:19 15.10.2019
118 Clouds 5 1026 82 10000 1 0 20:56 15.10.2019
119 Clouds 5 1026 82 10000 1 0 20:37 15.10.2019
120 Clouds 5 1026 82 10000 2 350 20:19 15.10.2019
121 Clouds 5 1025 82 10000 3 350 19:56 15.10.2019
122 Clouds 5 1025 82 10000 3 350 19:56 15.10.2019
123 Clouds 5 1025 82 10000 2 350 19:37 15.10.2019
124 Clouds 5 1025 82 10000 3 350 19:37 15.10.2019
125 Clouds 5 1025 82 10000 2 350 19:19 15.10.2019
126 Clouds 5 1025 82 10000 3 20 18:44 15.10.2019
127 Clouds 5 1024 80 10000 4 360 18:26 15.10.2019
128 Clouds 6 1024 75 10000 4 350 17:56 15.10.2019
129 Clouds 6 1024 75 10000 4 350 17:38 15.10.2019
130 Clouds 6 1024 75 10000 4 350 17:19 15.10.2019
131 Clouds 6 1023 80 10000 3 320 16:45 15.10.2019
132 Clouds 6 1023 75 10000 4 360 16:45 15.10.2019
133 Clouds 6 1023 80 10000 3 320 16:22 15.10.2019
134 Clouds 6 1023 80 10000 4 320 15:58 15.10.2019
135 Clouds 6 1023 80 10000 4 320 15:58 15.10.2019
136 Clouds 7 1023 70 10000 4 330 15:40 15.10.2019
137 Clouds 7 1023 70 10000 4 330 15:40 15.10.2019
138 Clouds 7 1023 70 10000 4 330 15:20 15.10.2019
139 Clouds 7 1022 75 10000 3 330 14:57 15.10.2019
140 Clouds 7 1022 75 10000 4 340 14:37 15.10.2019
141 Clouds 7 1022 75 10000 4 340 14:19 15.10.2019
142 Clouds 8 1021 81 10000 4 360 13:44 15.10.2019
143 Clouds 8 1021 81 10000 4 360 13:21 15.10.2019
144 Clouds 8 1020 81 10000 4 340 12:59 15.10.2019
145 Clouds 8 1020 81 10000 4 340 12:59 15.10.2019
146 Clouds 8 1020 81 10000 5 340 12:39 15.10.2019
147 Clouds 8 1020 81 10000 5 340 12:20 15.10.2019
148 Clouds 9 1020 81 10000 6 350 11:55 15.10.2019
149 Clouds 9 1019 75 10000 6 10 11:37 15.10.2019
150 Clouds 9 1019 75 10000 6 10 11:18 15.10.2019
151 Clouds 10 1018 75 10000 5 360 10:42 15.10.2019
152 Clouds 10 1018 75 10000 5 360 10:19 15.10.2019
153 Clouds 11 1017 81 10000 6 340 09:57 15.10.2019
154 Rain 11 1016 87 10000 7 340 09:37 15.10.2019
155 Rain 10 1016 87 10000 7 340 09:19 15.10.2019
156 Clouds 11 1015 87 10000 5 350 08:42 15.10.2019
157 Rain 11 1014 81 10000 5 340 08:22 15.10.2019
158 Rain 12 1013 81 10000 7 320 07:56 15.10.2019
159 Clouds 13 1012 87 10000 8 310 07:38 15.10.2019
160 Clouds 13 1012 87 10000 8 310 07:19 15.10.2019
161 Clouds 13 1011 76 10000 6 290 06:44 15.10.2019
162 Clouds 13 1011 76 10000 6 290 06:26 15.10.2019
163 Clouds 13 1010 76 10000 6 280 05:41 15.10.2019
164 Clouds 13 1010 76 10000 5 280 05:23 15.10.2019
165 Clear 14 1009 76 10000 5 280 04:32 15.10.2019
166 Clouds 14 1009 76 10000 4 290 03:37 15.10.2019
167 Clouds 14 1009 76 10000 4 290 03:37 15.10.2019
168 -273 0 0 0 0 0 02:29 15.10.2019
169 Clouds 15 1008 67 10000 7 290 01:48 15.10.2019
170 Clouds 15 1008 67 10000 7 290 01:19 15.10.2019
171 Clouds 16 1007 67 10000 9 290 00:49 15.10.2019
172 Clouds 15 1007 82 10000 5 260 00:22 15.10.2019
173 Clouds 16 1007 82 10000 5 240 23:45 14.10.2019
174 Clouds 17 1007 82 10000 4 250 23:20 14.10.2019
175 Clouds 17 1007 82 10000 4 250 23:20 14.10.2019
176 Clouds 17 1007 82 10000 4 310 22:58 14.10.2019
177 Clouds 17 1006 77 10000 6 260 22:38 14.10.2019
178 Clouds 17 1006 77 10000 6 250 22:18 14.10.2019
179 Clouds 17 1006 77 10000 6 260 22:18 14.10.2019
180 Clouds 17 1006 77 10000 6 250 21:56 14.10.2019
181 Clouds 17 1006 77 10000 8 240 21:37 14.10.2019
182 Clouds 17 1006 77 10000 8 240 21:19 14.10.2019
183 Clouds 17 1006 77 10000 8 240 20:55 14.10.2019
184 Clouds 17 1006 77 10000 8 240 20:36 14.10.2019
185 Clouds 17 1006 77 10000 8 240 20:18 14.10.2019
186 Rain 16 1006 82 9000 8 230 19:42 14.10.2019
187 Clouds 15 1006 77 10000 7 230 19:23 14.10.2019
188 Clouds 14 1007 87 10000 5 220 18:59 14.10.2019
189 Clouds 14 1007 82 10000 5 220 18:39 14.10.2019
190 Clouds 14 1007 82 10000 5 220 18:19 14.10.2019
191 Clouds 14 1007 82 10000 5 220 18:19 14.10.2019
192 Clouds 14 1007 82 10000 5 220 18:19 14.10.2019
193 Clouds 13 1007 82 10000 3 200 17:57 14.10.2019
194 Clouds 13 1007 82 10000 3 200 17:57 14.10.2019
195 Clouds 13 1008 81 10000 2 160 17:38 14.10.2019
196 Clouds 13 1009 81 10000 2 160 17:20 14.10.2019
197 Rain 12 1009 76 10000 2 170 16:44 14.10.2019
198 Rain 12 1009 76 10000 2 170 16:21 14.10.2019
199 Rain 12 1010 81 10000 2 200 15:54 14.10.2019
200 Rain 12 1010 81 10000 5 170 15:36 14.10.2019
201 Rain 11 1011 81 10000 4 170 15:18 14.10.2019
202 Rain 11 1012 81 10000 3 170 14:43 14.10.2019
203 Rain 11 1012 81 10000 3 170 14:23 14.10.2019
204 Rain 11 1014 81 10000 3 180 13:45 14.10.2019
205 Rain 11 1014 81 10000 3 180 13:22 14.10.2019
206 Rain 11 1015 81 10000 2 190 12:59 14.10.2019
207 Rain 11 1015 76 10000 3 190 12:40 14.10.2019
208 Clear 11 1016 81 10000 4 230 12:19 14.10.2019
209 Clear 11 1016 81 10000 4 230 11:46 14.10.2019
210 Clear 11 1016 81 10000 3 240 11:27 14.10.2019
211 Clear 11 1017 87 10000 3 220 10:58 14.10.2019
212 Clear 11 1017 87 10000 3 220 10:58 14.10.2019
213 Clouds 10 1017 87 10000 3 230 10:39 14.10.2019
214 Clouds 11 1017 87 10000 3 230 10:20 14.10.2019
215 Clear 10 1017 87 10000 4 240 09:55 14.10.2019
216 Clouds 9 1017 87 10000 3 260 09:36 14.10.2019
217 Clouds 9 1017 87 10000 3 260 09:18 14.10.2019
218 Clouds 8 1017 93 10000 5 250 08:43 14.10.2019
219 Clouds 8 1017 93 10000 5 250 08:22 14.10.2019
220 Clear 7 1016 93 10000 5 250 07:42 14.10.2019
221 Clear 6 1016 100 10000 4 250 07:19 14.10.2019
222 Clear 6 1016 100 10000 4 250 06:48 14.10.2019
223 Clear 7 1016 100 10000 4 260 06:20 14.10.2019
224 Clear 7 1016 100 10000 4 260 05:49 14.10.2019
225 Clear 7 1015 93 10000 4 260 04:43 14.10.2019
226 Clear 7 1015 93 10000 5 250 03:27 14.10.2019
227 Clear 9 1015 87 10000 4 270 02:42 14.10.2019
228 Clear 9 1014 81 10000 4 260 01:23 14.10.2019
229 Clear 9 1014 81 10000 4 260 00:56 14.10.2019
230 Clear 10 1014 87 10000 4 260 00:20 14.10.2019
231 Clear 10 1013 87 10000 5 260 23:45 13.10.2019
232 Clear 10 1013 81 10000 6 260 23:20 13.10.2019
233 Clouds 10 1013 81 10000 5 250 22:58 13.10.2019
234 -273 0 0 0 0 0 22:40 13.10.2019
235 Clear 10 1013 81 10000 5 250 22:21 13.10.2019
236 Clear 10 1013 87 10000 5 260 21:58 13.10.2019
237 Clear 10 1013 87 10000 5 260 21:58 13.10.2019
238 Clear 10 1012 87 10000 4 250 21:37 13.10.2019
239 Clear 10 1012 87 10000 4 250 21:19 13.10.2019
240 Clouds 10 1012 87 10000 6 250 20:57 13.10.2019
241 Clouds 10 1012 87 10000 6 250 20:57 13.10.2019
242 Clear 10 1012 87 10000 6 250 20:39 13.10.2019
243 Clear 10 1012 87 10000 6 250 20:21 13.10.2019
244 Clear 10 1012 81 10000 6 260 19:58 13.10.2019
245 Clear 10 1011 81 10000 6 260 19:39 13.10.2019
246 Clear 10 1011 81 10000 6 260 19:21 13.10.2019
247 Clouds 10 1011 81 10000 6 260 18:57 13.10.2019
248 Clouds 10 1011 81 10000 6 260 18:56 13.10.2019
249 Clouds 10 1011 81 10000 6 260 18:56 13.10.2019
250 Clouds 10 1011 87 10000 5 250 18:36 13.10.2019
251 Clouds 10 1011 87 10000 5 250 18:36 13.10.2019
252 Clouds 10 1011 87 10000 5 250 18:18 13.10.2019
253 Clear 11 1010 81 10000 6 250 17:54 13.10.2019
254 Clouds 11 1010 81 10000 6 250 17:36 13.10.2019
255 Clouds 11 1010 81 10000 6 250 17:18 13.10.2019
256 -273 0 0 0 0 0 16:41 13.10.2019
257 Clouds 11 1009 76 10000 6 250 16:18 13.10.2019
258 Clouds 11 1009 71 10000 7 250 15:56 13.10.2019
259 Clouds 11 1009 71 10000 7 250 15:56 13.10.2019
260 Clouds 11 1009 71 10000 7 250 15:56 13.10.2019
261 Clouds 12 1009 71 10000 8 250 15:37 13.10.2019
262 Clouds 12 1009 71 10000 8 250 15:37 13.10.2019
263 Clouds 12 1009 71 10000 8 250 15:18 13.10.2019
264 Clouds 12 1009 71 10000 8 250 15:18 13.10.2019
265 Clear 12 1009 71 10000 9 260 14:56 13.10.2019
266 Clear 12 1009 71 10000 8 250 14:38 13.10.2019
267 Clear 12 1009 71 10000 8 250 14:18 13.10.2019
268 Clouds 12 1008 66 10000 8 260 13:41 13.10.2019
269 Clouds 12 1008 66 10000 8 260 13:22 13.10.2019
270 Clouds 12 1008 71 10000 8 260 12:59 13.10.2019
271 Clouds 12 1008 76 10000 8 250 12:39 13.10.2019
272 Clouds 11 1008 76 10000 8 260 12:20 13.10.2019
273 Clouds 11 1008 76 10000 8 260 11:58 13.10.2019
274 Clouds 11 1008 76 10000 6 260 11:39 13.10.2019
275 Clouds 11 1008 76 10000 6 260 11:20 13.10.2019
276 Clouds 11 1008 81 10000 7 260 10:56 13.10.2019
277 Clouds 10 1007 81 10000 8 260 10:38 13.10.2019
278 Clouds 10 1007 81 10000 8 260 10:19 13.10.2019
279 Clouds 10 1007 87 10000 7 250 09:39 13.10.2019
280 Clouds 10 1007 87 10000 7 250 09:21 13.10.2019
281 Clouds 9 1006 93 10000 7 250 08:44 13.10.2019
282 Clouds 9 1006 93 10000 7 250 08:26 13.10.2019
283 Clouds 9 1006 93 10000 7 250 07:52 13.10.2019
284 Clouds 9 1006 93 10000 6 250 07:33 13.10.2019
285 Clouds 9 1006 93 10000 6 250 07:33 13.10.2019
286 Clouds 9 1006 87 10000 6 250 06:54 13.10.2019
287 Clouds 9 1006 87 10000 6 250 06:54 13.10.2019
288 Clouds 8 1005 93 10000 6 250 06:24 13.10.2019
289 Clouds 8 1005 93 10000 6 250 06:24 13.10.2019
290 Clouds 8 1005 93 10000 6 250 06:24 13.10.2019
291 Clear 8 1006 87 10000 7 240 05:27 13.10.2019
292 Clouds 8 1005 93 10000 5 250 04:35 13.10.2019
293 Clouds 8 1004 93 10000 6 250 03:34 13.10.2019
294 Clouds 8 1004 93 10000 6 260 02:32 13.10.2019
295 Rain 9 1003 93 10000 6 250 01:37 13.10.2019
296 Rain 9 1003 93 10000 6 250 01:18 13.10.2019
297 Rain 9 1003 93 10000 6 250 00:42 13.10.2019
298 Rain 9 1003 93 10000 6 250 00:42 13.10.2019
299 Rain 9 1003 93 10000 6 250 00:19 13.10.2019
300 Rain 9 1003 93 10000 6 220 23:42 12.10.2019
301 Rain 9 1003 93 10000 6 220 23:23 12.10.2019
302 Rain 9 1003 93 10000 5 230 22:59 12.10.2019
303 Rain 9 1003 93 10000 6 250 22:40 12.10.2019
304 Rain 10 1003 93 10000 6 250 22:22 12.10.2019
305 Rain 11 1003 93 9000 6 260 21:59 12.10.2019
306 Rain 11 1003 93 10000 6 270 21:40 12.10.2019
307 Rain 11 1003 93 10000 6 270 21:22 12.10.2019
308 Rain 11 1003 93 9000 8 280 20:56 12.10.2019
309 Rain 11 1002 93 8000 8 230 20:37 12.10.2019
310 Rain 11 1002 93 8000 8 230 20:19 12.10.2019
311 Rain 11 1002 87 10000 9 220 19:36 12.10.2019
312 Rain 11 1002 87 10000 9 220 19:18 12.10.2019
313 Rain 11 1002 87 10000 8 220 18:44 12.10.2019
314 Rain 11 1002 87 10000 8 220 18:26 12.10.2019
315 Rain 11 1002 87 10000 7 220 17:55 12.10.2019
316 Rain 11 1002 87 10000 7 210 17:37 12.10.2019
317 Rain 11 1002 87 10000 7 210 17:18 12.10.2019
318 Rain 11 1003 81 10000 7 210 16:40 12.10.2019
319 Clouds 11 1003 81 10000 6 210 16:21 12.10.2019
320 Rain 11 1003 93 10000 6 200 15:57 12.10.2019
321 Rain 11 1003 93 10000 6 200 15:57 12.10.2019
322 Rain 10 1003 93 10000 8 210 15:38 12.10.2019
323 Rain 10 1003 93 10000 8 210 15:18 12.10.2019
324 Rain 10 1005 93 9000 8 200 14:40 12.10.2019
325 Rain 10 1005 87 10000 8 200 14:20 12.10.2019
326 Rain 10 1005 87 10000 8 200 13:51 12.10.2019
327 Rain 10 1005 93 8000 7 190 13:32 12.10.2019
328 Rain 10 1006 87 9000 6 190 12:57 12.10.2019
329 Rain 11 1007 87 9000 6 200 12:38 12.10.2019
330 Rain 11 1007 87 9000 6 200 12:20 12.10.2019
331 Rain 11 1007 81 10000 6 200 11:47 12.10.2019
332 Clouds 12 1008 76 10000 6 200 11:24 12.10.2019
333 Clouds 11 1008 81 10000 5 190 10:58 12.10.2019
334 Clouds 11 1009 87 10000 5 190 10:40 12.10.2019
335 Clouds 11 1009 87 10000 5 190 10:20 12.10.2019
336 Rain 10 1009 87 10000 5 180 09:57 12.10.2019
337 Clouds 10 1010 81 10000 5 190 09:38 12.10.2019
338 Clouds 9 1010 81 10000 5 190 09:20 12.10.2019
339 Clouds 9 1010 81 10000 5 190 09:20 12.10.2019
340 Clouds 9 1010 81 10000 5 190 08:55 12.10.2019
341 Clouds 9 1011 87 10000 6 200 08:36 12.10.2019
342 Clouds 9 1011 87 10000 6 200 08:18 12.10.2019
343 Clouds 8 1011 87 10000 4 200 07:32 12.10.2019
344 Clouds 8 1011 93 10000 5 220 06:38 12.10.2019
345 Clouds 8 1011 93 10000 4 220 05:44 12.10.2019
346 Clouds 8 1012 100 10000 4 220 04:43 12.10.2019
347 Clouds 8 1012 100 10000 3 220 03:56 12.10.2019
348 Clouds 8 1012 93 10000 3 220 02:54 12.10.2019
349 Clouds 8 1012 100 10000 4 230 01:35 12.10.2019
350 Clouds 8 1012 100 10000 4 230 00:58 12.10.2019
351 Clouds 8 1012 100 10000 4 230 00:39 12.10.2019
352 Clear 9 1011 93 10000 5 240 23:56 11.10.2019
353 Clear 9 1011 93 10000 3 230 23:37 11.10.2019
354 Clear 9 1011 93 10000 3 230 23:19 11.10.2019
355 Clouds 8 1011 93 10000 3 240 22:39 11.10.2019
356 Clouds 8 1011 93 10000 3 240 22:21 11.10.2019
357 Clouds 8 1011 100 10000 3 220 21:55 11.10.2019
358 Clouds 9 1011 93 10000 4 230 21:36 11.10.2019
359 Clouds 9 1011 93 10000 4 230 21:18 11.10.2019
360 Clouds 9 1011 93 10000 4 230 20:43 11.10.2019
361 Clouds 9 1011 93 10000 4 230 20:25 11.10.2019
362 Rain 9 1011 93 10000 4 220 19:56 11.10.2019
363 Rain 9 1011 93 10000 3 220 19:38 11.10.2019
364 Rain 9 1011 93 10000 3 220 19:18 11.10.2019
365 Clear 9 1010 87 10000 4 220 18:58 11.10.2019
366 Clouds 9 1010 93 10000 3 220 18:37 11.10.2019
367 Clouds 9 1010 93 10000 3 220 18:37 11.10.2019
368 Clouds 10 1010 93 10000 3 220 18:19 11.10.2019
369 Clear 10 1010 87 10000 4 230 17:58 11.10.2019
370 Clear 10 1010 87 10000 4 230 17:37 11.10.2019
371 Clear 10 1010 87 10000 4 230 17:19 11.10.2019
372 Clouds 10 1010 87 10000 5 220 16:55 11.10.2019
373 Clouds 10 1010 87 10000 4 220 16:37 11.10.2019
374 Clouds 10 1010 87 10000 4 220 16:18 11.10.2019
375 Rain 10 1009 87 10000 4 240 15:39 11.10.2019
376 Rain 11 1009 87 10000 4 240 15:19 11.10.2019
377 Clouds 11 1009 87 10000 5 220 14:49 11.10.2019
378 Rain 11 1009 87 10000 6 250 14:30 11.10.2019
379 Rain 11 1009 87 9000 4 240 13:58 11.10.2019
380 Clouds 11 1009 87 10000 5 250 13:40 11.10.2019
381 Clouds 11 1009 87 10000 5 250 13:22 11.10.2019
382 Rain 11 1009 81 9000 6 250 12:56 11.10.2019
383 Clouds 11 1008 81 10000 6 240 12:38 11.10.2019
384 Clouds 11 1008 81 10000 6 240 12:20 11.10.2019
385 Clouds 10 1008 81 10000 7 230 11:55 11.10.2019
386 Clouds 10 1008 81 10000 7 230 11:55 11.10.2019
387 Clouds 10 1008 87 10000 5 250 11:36 11.10.2019
388 Clouds 10 1008 87 10000 5 250 11:18 11.10.2019
389 Clouds 10 1008 87 10000 5 250 10:41 11.10.2019
390 Clouds 10 1008 93 10000 5 250 10:23 11.10.2019
391 Clouds 10 1008 93 10000 5 250 09:59 11.10.2019
392 Clouds 9 1007 93 10000 5 260 09:40 11.10.2019
393 Clouds 9 1007 93 10000 5 260 09:20 11.10.2019
394 Rain 9 1007 100 8000 4 260 08:56 11.10.2019
395 Rain 8 1007 100 8000 5 240 08:37 11.10.2019
396 Rain 8 1007 100 10000 5 240 08:19 11.10.2019
397 Rain 8 1007 100 10000 5 240 07:51 11.10.2019
398 Rain 8 1006 93 9000 4 240 07:33 11.10.2019
399 Rain 8 1006 93 10000 4 250 06:49 11.10.2019
400 Rain 8 1006 93 10000 4 250 06:24 11.10.2019
401 Clouds 8 1005 93 10000 5 250 05:41 11.10.2019
402 Clouds 8 1005 93 10000 5 250 05:23 11.10.2019
403 Clouds 8 1005 100 10000 4 250 04:47 11.10.2019
404 Clouds 7 1004 93 10000 5 270 02:59 11.10.2019
405 Clouds 8 1002 100 9000 6 260 00:54 11.10.2019
406 Clouds 8 1002 93 10000 7 250 00:30 11.10.2019
407 Clouds 8 1001 93 10000 6 250 23:57 10.10.2019
408 Clouds 8 1001 93 10000 6 250 23:38 10.10.2019
409 Clouds 8 1001 93 10000 6 250 23:18 10.10.2019
410 Clouds 8 1001 93 10000 7 260 22:54 10.10.2019
411 Clouds 8 1000 93 10000 7 260 22:36 10.10.2019
412 Clouds 8 1000 93 10000 7 260 22:18 10.10.2019
413 Rain 9 1001 93 10000 8 240 21:42 10.10.2019
414 Clouds 9 1000 93 10000 6 240 21:22 10.10.2019
415 Rain 9 1000 93 10000 5 220 20:58 10.10.2019
416 Rain 9 1000 100 9000 4 210 20:39 10.10.2019
417 Rain 9 1000 100 5000 3 180 20:19 10.10.2019
418 Rain 9 1000 100 5000 3 180 19:56 10.10.2019
419 Rain 8 1000 93 4200 3 150 19:38 10.10.2019
420 Rain 8 1000 93 4200 3 150 19:19 10.10.2019
421 Rain 8 1001 100 6000 5 130 18:42 10.10.2019
422 Rain 8 1001 100 6000 5 130 18:21 10.10.2019
423 Rain 7 1002 100 6000 4 130 17:58 10.10.2019
424 Rain 7 1002 100 7000 5 140 17:39 10.10.2019
425 Rain 7 1002 100 7000 5 140 17:18 10.10.2019
426 Rain 7 1004 100 8000 4 120 16:56 10.10.2019
427 Rain 7 1004 93 9000 5 120 16:37 10.10.2019
428 Rain 8 1005 93 7000 4 110 16:18 10.10.2019
429 Rain 8 1005 93 7000 4 110 15:40 10.10.2019
430 Rain 8 1005 93 7000 4 110 15:22 10.10.2019
431 Rain 8 1005 93 7000 4 110 15:22 10.10.2019
432 Rain 8 1006 93 9000 3 140 14:58 10.10.2019
433 Rain 8 1007 93 9000 4 160 14:37 10.10.2019
434 Rain 8 1007 93 9000 4 160 14:19 10.10.2019
435 Rain 8 1007 93 9000 4 160 13:58 10.10.2019
436 Rain 8 1008 93 9000 4 170 13:39 10.10.2019
437 Rain 8 1008 93 10000 4 170 13:18 10.10.2019
438 Rain 8 1008 93 10000 4 170 12:42 10.10.2019
439 Rain 8 1008 93 10000 4 160 12:21 10.10.2019
440 Rain 8 1009 100 10000 4 170 11:58 10.10.2019
441 Rain 8 1009 93 9000 4 170 11:40 10.10.2019
442 Rain 8 1009 93 9000 4 170 11:19 10.10.2019
443 Rain 8 1010 93 10000 4 170 10:57 10.10.2019
444 Rain 8 1010 87 10000 3 170 10:39 10.10.2019
445 Rain 8 1010 87 10000 3 170 10:20 10.10.2019
446 Drizzle 8 1011 87 10000 3 170 09:41 10.10.2019
447 Drizzle 8 1011 87 10000 3 170 09:23 10.10.2019
448 Drizzle 8 1011 87 10000 3 160 08:59 10.10.2019
449 Rain 7 1011 87 10000 2 150 08:40 10.10.2019
450 Rain 7 1011 87 10000 2 150 08:21 10.10.2019
451 Rain 7 1011 93 10000 2 150 07:48 10.10.2019
452 Clouds 7 1011 93 10000 2 160 07:26 10.10.2019
453 Clouds 6 1011 93 10000 2 170 06:56 10.10.2019
454 Clouds 5 1011 100 10000 2 190 06:38 10.10.2019
455 Clouds 6 1011 93 10000 2 170 05:56 10.10.2019
456 Clouds 6 1011 93 10000 1.98 222.356 05:21 10.10.2019
457 Clouds 6 1011 93 10000 2 260 04:36 10.10.2019
458 Clouds 6 1010 100 10000 3 260 02:42 10.10.2019
459 Rain 7 1010 100 10000 4 270 01:38 10.10.2019
460 Rain 7 1010 100 10000 4 270 01:18 10.10.2019
461 Rain 7 1009 93 5000 5 260 00:39 10.10.2019
462 Rain 7 1009 93 8000 4 240 23:57 09.10.2019
463 Rain 6 1008 93 7000 3 240 23:36 09.10.2019
464 Rain 6 1008 93 7000 3 240 23:18 09.10.2019
465 Rain 6 1008 93 5000 3 220 22:42 09.10.2019
466 Rain 6 1008 93 5000 3 220 22:23 09.10.2019
467 Rain 5 1008 93 4400 3 210 21:58 09.10.2019
468 Rain 5 1008 93 4700 3 210 21:39 09.10.2019
469 Rain 5 1008 93 4700 3 210 21:19 09.10.2019
470 Drizzle 5 1007 100 7000 3 220 20:55 09.10.2019
471 Drizzle 5 1007 93 8000 3 220 20:37 09.10.2019
472 Drizzle 5 1007 93 8000 3 220 20:18 09.10.2019
473 Rain 4 1007 93 10000 4 220 19:45 09.10.2019
474 Rain 4 1007 93 10000 4 220 19:23 09.10.2019
475 Drizzle 4 1007 100 10000 4 220 18:58 09.10.2019
476 Drizzle 4 1007 100 10000 4 210 18:37 09.10.2019
477 Drizzle 4 1007 100 10000 4 210 18:18 09.10.2019
478 Rain 3 1007 93 10000 4 210 17:55 09.10.2019
479 Rain 3 1007 100 10000 5 210 17:36 09.10.2019
480 Rain 3 1007 100 10000 5 210 17:18 09.10.2019
481 Rain 3 1007 100 10000 5 200 16:40 09.10.2019
482 Rain 3 1007 100 10000 5 200 16:22 09.10.2019
483 Rain 4 1007 93 9000 5 190 15:58 09.10.2019
484 Rain 4 1007 93 9000 5 190 15:39 09.10.2019
485 Rain 4 1007 93 9000 5 190 15:39 09.10.2019
486 Rain 4 1007 93 9000 5 190 15:20 09.10.2019
487 Rain 4 1007 93 10000 5 180 14:58 09.10.2019
488 Rain 4 1007 93 9000 5 170 14:39 09.10.2019
489 Rain 4 1007 93 9000 5 170 14:18 09.10.2019
490 Rain 4 1007 93 10000 4 170 13:40 09.10.2019
491 Rain 4 1007 93 10000 4 170 13:21 09.10.2019
492 Rain 4 1008 93 9000 5 180 12:59 09.10.2019
493 Rain 4 1008 93 9000 5 180 12:59 09.10.2019
494 Rain 5 1008 80 10000 5 180 12:40 09.10.2019
495 Rain 5 1008 80 10000 5 180 12:21 09.10.2019
496 Rain 5 1009 80 10000 5 190 11:55 09.10.2019
497 Rain 5 1009 75 10000 4 180 11:37 09.10.2019
498 Clouds 5 1009 75 10000 6 200 11:19 09.10.2019
499 Clouds 5 1009 75 10000 5 180 10:44 09.10.2019
500 Clouds 5 1009 75 10000 5 180 10:21 09.10.2019
501 Rain 4 1010 80 10000 4 180 09:59 09.10.2019
502 Clear 4 1010 86 10000 3 180 09:40 09.10.2019
503 Clear 4 1010 86 10000 3 180 09:40 09.10.2019
504 Clear 4 1010 86 10000 3 180 09:40 09.10.2019
505 Clear 4 1010 86 10000 3 180 09:40 09.10.2019
506 Clear 4 1010 86 10000 3 180 09:19 09.10.2019
507 Clouds 3 1011 86 10000 4 190 08:41 09.10.2019
508 Clouds 3 1011 86 10000 4 190 08:23 09.10.2019
509 Clouds 3 1011 93 10000 4 200 07:58 09.10.2019
510 Clouds 3 1011 93 10000 4 200 07:37 09.10.2019
511 Clouds 3 1011 93 10000 4 200 07:19 09.10.2019
512 Clouds 2 1011 93 10000 4 210 06:51 09.10.2019
513 Rain 2 1011 93 10000 4 210 05:56 09.10.2019
514 Rain 2 1011 93 10000 3 200 05:37 09.10.2019
515 Rain 2 1012 93 10000 4 210 04:25 09.10.2019
516 Snow 2 1012 87 10000 5 210 02:52 09.10.2019
517 Snow 2 1012 87 10000 3 210 01:43 09.10.2019
518 Snow 2 1012 88 10000 4 210 01:20 09.10.2019
519 Snow 2 1012 88 10000 4 210 00:57 09.10.2019
520 Snow 2 1013 74 10000 5 210 00:38 09.10.2019
521 Snow 2 1013 74 10000 5 210 00:20 09.10.2019
522 Clouds 2 1013 69 10000 4 200 23:39 08.10.2019
523 Clear 2 1013 69 10000 4 200 23:19 08.10.2019
524 Clear 2 1013 69 10000 4 200 22:57 08.10.2019
525 Clouds 2 1013 69 10000 4 200 22:38 08.10.2019
526 Clouds 2 1013 69 10000 4 200 22:19 08.10.2019
527 Clouds 2 1013 69 10000 4 200 21:57 08.10.2019
528 Clouds 2 1013 64 10000 4 210 21:39 08.10.2019
529 Clouds 2 1013 64 10000 4 210 21:19 08.10.2019
530 Snow 3 1013 60 10000 4 210 20:56 08.10.2019
531 Snow 3 1013 60 10000 4 210 20:56 08.10.2019
532 Snow 3 1013 60 10000 4 200 20:37 08.10.2019
533 Snow 3 1014 60 10000 4 200 20:19 08.10.2019
534 Snow 3 1014 60 10000 4 200 19:58 08.10.2019
535 Snow 3 1014 60 10000 4 200 19:39 08.10.2019
536 Clouds 3 1014 60 10000 4 200 19:20 08.10.2019
537 Clouds 3 1014 60 10000 4 200 18:54 08.10.2019
538 Clear 3 1014 60 10000 4 210 18:36 08.10.2019
539 Clouds 3 1014 55 10000 4 210 18:18 08.10.2019
540 Clouds 3 1013 55 10000 4 200 17:40 08.10.2019
541 Clear 4 1013 55 10000 4 210 17:20 08.10.2019
542 Clear 4 1013 55 10000 4 210 16:58 08.10.2019
543 Clouds 4 1013 55 10000 5 220 16:39 08.10.2019
544 Clouds 4 1013 55 10000 5 220 16:21 08.10.2019
545 Clouds 5 1013 52 10000 6 210 15:41 08.10.2019
546 Clouds 5 1013 52 10000 6 210 15:41 08.10.2019
547 Clouds 5 1013 52 10000 6 210 15:21 08.10.2019
548 Rain 5 1013 52 10000 6 230 14:58 08.10.2019
549 Rain 6 1013 52 10000 6 230 14:58 08.10.2019
550 Clouds 5 1013 56 10000 6 230 14:39 08.10.2019
551 Clouds 5 1013 56 10000 6 230 14:21 08.10.2019
552 Clouds 5 1013 56 10000 6 220 13:57 08.10.2019
553 Clouds 5 1013 56 10000 7 230 13:38 08.10.2019
554 Clouds 5 1013 56 10000 6 220 13:19 08.10.2019
555 Clouds 5 1013 56 10000 6 220 12:58 08.10.2019
556 Clouds 5 1013 60 10000 7 210 12:38 08.10.2019
557 Clouds 5 1013 60 10000 7 210 12:18 08.10.2019
558 Clouds 4 1013 69 10000 6 220 11:42 08.10.2019
559 Clouds 4 1013 69 10000 6 220 11:24 08.10.2019
560 Clouds 4 1013 69 10000 6 220 11:24 08.10.2019
561 Clouds 3 1013 69 10000 6 240 10:58 08.10.2019
562 Clouds 3 1013 69 10000 6 220 10:37 08.10.2019
563 Clouds 3 1013 69 10000 6 220 10:19 08.10.2019
564 Clouds 2 1013 69 10000 7 230 09:56 08.10.2019
565 Clouds 2 1013 80 10000 7 230 09:37 08.10.2019
566 Clouds 2 1013 80 10000 7 230 09:19 08.10.2019
567 Clouds 1 1012 86 10000 6 220 08:42 08.10.2019
568 Clouds 1 1012 86 10000 6 220 08:23 08.10.2019
569 Clouds 1 1012 86 10000 6 220 08:23 08.10.2019
570 Clouds 1 1012 86 10000 6 220 08:23 08.10.2019
571 Clouds 0 1012 76 10000 7 230 07:45 08.10.2019
572 Clouds 0 1012 76 10000 7 230 07:21 08.10.2019
573 Clouds 0 1011 76 10000 6 230 06:53 08.10.2019
574 Clouds 0 1011 88 10000 5 230 06:29 08.10.2019
575 Clouds 0 1011 88 10000 5 230 05:55 08.10.2019
576 Clouds 0 1011 88 10000 5 230 05:55 08.10.2019
577 Snow 0 1011 88 10000 5 220 05:36 08.10.2019
578 Snow 0 1010 88 9000 5 230 04:33 08.10.2019
579 Snow 0 1010 88 10000 5 240 03:29 08.10.2019
580 Snow 0 1010 86 10000 5 240 02:39 08.10.2019
581 Snow 0 1009 86 10000 5 240 01:49 08.10.2019
582 Snow 0 1009 86 10000 5 240 01:31 08.10.2019
583 Snow 0 1009 86 10000 5 240 00:50 08.10.2019
584 Snow 1 1009 86 10000 5 240 00:21 08.10.2019
585 Clouds 1 1009 86 10000 5 250 23:41 07.10.2019
586 Clouds 1 1009 86 10000 5 250 23:20 07.10.2019
587 Clouds 1 1009 86 10000 5 250 23:20 07.10.2019
588 Clouds 1 1009 86 10000 6 230 22:58 07.10.2019
589 Clouds 1 1009 86 10000 5 250 22:40 07.10.2019
590 Clouds 1 1009 86 10000 5 250 22:20 07.10.2019
591 Clouds 1 1009 80 10000 6 240 21:57 07.10.2019
592 Clouds 1 1009 80 10000 5 220 21:39 07.10.2019
593 Clouds 2 1009 80 10000 5 220 21:20 07.10.2019
594 Clouds 2 1009 74 10000 5 220 20:58 07.10.2019
595 Clouds 2 1009 74 10000 5 250 20:39 07.10.2019
596 Clouds 2 1009 80 10000 4 250 20:20 07.10.2019
597 Clouds 2 1009 80 10000 4 250 19:58 07.10.2019
598 Clouds 2 1009 74 10000 5 260 19:40 07.10.2019
599 Clouds 2 1009 74 10000 5 260 19:19 07.10.2019
600 Clouds 2 1009 69 10000 6 270 18:57 07.10.2019
601 Clouds 2 1009 74 10000 5 260 18:38 07.10.2019
602 Clouds 2 1009 74 10000 5 260 18:18 07.10.2019
603 Clouds 2 1009 80 10000 4 270 17:43 07.10.2019
604 Clouds 2 1009 80 10000 4 270 17:43 07.10.2019
605 Clouds 2 1009 80 10000 4 270 17:22 07.10.2019
606 Clouds 3 1009 80 10000 5 280 16:58 07.10.2019
607 Clouds 3 1008 74 10000 5 270 16:39 07.10.2019
608 Clouds 3 1008 74 10000 5 270 16:20 07.10.2019
609 Clouds 3 1008 74 10000 6 280 15:45 07.10.2019
610 Clouds 3 1008 74 10000 6 280 15:26 07.10.2019
611 Clouds 3 1008 74 10000 6 280 15:26 07.10.2019
612 Clouds 3 1008 74 10000 6 280 15:26 07.10.2019
613 Clouds 3 1008 74 10000 7 270 14:57 07.10.2019
614 Clouds 3 1008 72 10000 7 280 14:38 07.10.2019
615 Clouds 3 1008 72 10000 7 280 14:20 07.10.2019
616 Snow 3 1007 93 10000 6 280 13:43 07.10.2019
617 Snow 3 1007 93 10000 6 280 13:21 07.10.2019
618 Clouds 3 1007 74 10000 7 290 12:57 07.10.2019
619 Clouds 3 1007 71 10000 5 280 12:39 07.10.2019
620 Clouds 3 1007 75 10000 6 290 12:19 07.10.2019
621 Clouds 3 1007 75 10000 6 290 11:57 07.10.2019
622 Clouds 3 1007 75 10000 8 270 11:38 07.10.2019
623 Clouds 3 1007 75 10000 8 270 11:20 07.10.2019
624 Clouds 2 1007 75 10000 7 290 10:42 07.10.2019
625 Clouds 2 1007 75 10000 7 290 10:21 07.10.2019
626 Clouds 2 1007 75 10000 7 290 09:55 07.10.2019
627 -273 0 0 0 0 0 09:54 07.10.2019
628 Snow 2 1007 75 10000 7 290 09:36 07.10.2019
629 Snow 2 1007 86 10000 6 300 09:18 07.10.2019
630 Snow 1 1007 88 10000 5 290 08:41 07.10.2019
631 Snow 1 1007 88 10000 5 290 08:20 07.10.2019
632 Snow 1 1007 88 10000 6 290 07:44 07.10.2019
633 Rain 1 1006 88 10000 6 300 07:25 07.10.2019
634 Clouds 1 1006 88 7000 6 300 06:56 07.10.2019
635 Rain 1 1006 88 8000 5 300 06:37 07.10.2019
636 Snow 1 1006 91 10000 5 300 05:54 07.10.2019
637 Snow 1 1006 91 10000 6 300 05:25 07.10.2019
638 Snow 1 1006 91 10000 5 300 04:44 07.10.2019
639 Rain 1 1006 91 10000 6 310 03:45 07.10.2019
640 Rain 1 1006 91 10000 6 310 03:45 07.10.2019
641 Rain 1 1006 94 10000 6 310 03:23 07.10.2019
642 Clouds 1 1006 94 10000 5 310 02:23 07.10.2019
643 Clouds 1 1006 94 10000 5 310 02:23 07.10.2019
644 Rain 1 1005 94 10000 5 320 01:58 07.10.2019
645 Rain 1 1005 100 10000 5 320 01:23 07.10.2019
646 Snow 1 1005 100 10000 5 320 00:45 07.10.2019
647 Snow 1 1005 100 10000 5 320 00:23 07.10.2019
648 Snow 1 1005 100 6000 5 330 23:59 06.10.2019
649 Snow 1 1005 100 2500 5 320 23:39 06.10.2019
650 Snow 1 1005 100 2500 5 320 23:18 06.10.2019
651 -273 0 0 0 0 0 22:54 06.10.2019
652 Snow 1 1006 100 2500 4 330 22:36 06.10.2019
653 Snow 1 1006 100 6000 5 340 22:18 06.10.2019
654 Snow 1 1006 100 6000 5 340 21:54 06.10.2019
655 Snow 1 1006 100 3200 5 340 21:36 06.10.2019
656 Snow 1 1006 100 3200 5 340 21:36 06.10.2019
657 Snow 1 1006 100 3200 5 340 21:18 06.10.2019
658 Snow 1 1006 100 3400 5 340 20:54 06.10.2019
659 Snow 1 1006 100 3400 5 340 20:54 06.10.2019
660 Snow 1 1006 100 3200 6 340 20:36 06.10.2019
661 Snow 1 1006 100 3200 6 340 20:18 06.10.2019
662 Snow 1 1006 95 2600 7 350 19:54 06.10.2019
663 Snow 1 1006 100 10000 6 340 19:36 06.10.2019
664 Snow 1 1006 100 10000 6 340 19:18 06.10.2019
665 Snow 1 1007 100 10000 7 350 18:54 06.10.2019
666 Snow 1 1007 100 10000 7 350 18:54 06.10.2019
667 Rain 1 1007 100 10000 7 350 18:36 06.10.2019
668 Rain 1 1007 100 10000 7 350 18:18 06.10.2019
669 Snow 2 1007 100 10000 6 350 17:42 06.10.2019
670 Snow 2 1007 93 10000 7 350 17:20 06.10.2019
671 Snow 2 1007 93 9000 6 350 16:55 06.10.2019
672 Snow 2 1007 93 9000 6 350 16:55 06.10.2019
673 Snow 1 1007 100 9000 7 350 16:37 06.10.2019
674 Snow 1 1007 100 8000 6 360 16:18 06.10.2019
675 Snow 1 1007 93 8000 6 350 15:42 06.10.2019
676 Snow 1 1007 93 8000 6 350 15:21 06.10.2019
677 Snow 1 1008 93 9000 5 350 14:44 06.10.2019
678 Snow 1 1008 93 9000 5 350 14:26 06.10.2019
679 Rain 1 1008 93 9000 6 360 13:59 06.10.2019
680 Rain 2 1008 93 10000 6 360 13:40 06.10.2019
681 Rain 2 1008 93 10000 6 360 13:22 06.10.2019
682 Rain 2 1008 93 9000 6 360 12:58 06.10.2019
683 Rain 2 1008 93 10000 6 10 12:39 06.10.2019
684 Rain 2 1008 93 10000 6 10 12:21 06.10.2019
685 Rain 2 1008 93 10000 5 10 11:59 06.10.2019
686 Rain 2 1009 100 10000 5 360 11:40 06.10.2019
687 Rain 2 1009 100 10000 5 360 11:21 06.10.2019
688 Rain 2 1009 100 10000 5 10 10:55 06.10.2019
689 Rain 2 1009 100 10000 5 10 10:37 06.10.2019
690 Rain 2 1009 100 10000 5 10 10:19 06.10.2019
691 Rain 2 1010 93 10000 4 360 09:41 06.10.2019
692 Rain 2 1010 93 10000 5 20 09:19 06.10.2019
693 Snow 2 1010 93 10000 5 20 08:48 06.10.2019
694 Rain 3 1011 93 10000 6 30 08:21 06.10.2019
695 Rain 3 1011 93 10000 6 30 07:57 06.10.2019
696 Drizzle 3 1011 86 10000 5 30 07:39 06.10.2019
697 Drizzle 3 1011 86 10000 5 20 06:49 06.10.2019
698 Rain 4 1011 93 10000 5 30 05:40 06.10.2019
699 Rain 5 1011 93 10000 5 30 04:32 06.10.2019
700 Rain 5 1012 86 10000 4 30 02:52 06.10.2019
701 Rain 6 1011 80 10000 6 30 02:29 06.10.2019
702 Clouds 6 1011 80 10000 5 20 01:46 06.10.2019
703 Clouds 6 1012 80 10000 6 30 01:28 06.10.2019
704 Clouds 5 1013 86 10000 4 20 00:59 06.10.2019
705 Clouds 6 1013 86 10000 5 10 00:31 06.10.2019
706 Clouds 6 1013 93 10000 5 10 23:54 05.10.2019
707 Clouds 6 1014 86 10000 5 10 23:36 05.10.2019
708 Clouds 6 1014 86 10000 5 10 23:18 05.10.2019
709 -273 0 0 0 0 0 22:54 05.10.2019
710 Clouds 7 1014 86 10000 5 20 22:54 05.10.2019
711 Clouds 7 1013 86 10000 5 20 22:36 05.10.2019
712 Clouds 7 1013 86 10000 5 20 22:18 05.10.2019
713 Clear 7 1013 86 10000 4 10 21:40 05.10.2019
714 Clear 7 1013 86 10000 4 10 21:21 05.10.2019
715 Clear 7 1013 70 10000 5 20 20:57 05.10.2019
716 Clear 7 1014 86 10000 4 360 20:39 05.10.2019
717 Clear 8 1014 87 10000 2 330 20:19 05.10.2019
718 Clouds 8 1013 87 9000 2 350 19:41 05.10.2019
719 Clouds 8 1013 87 9000 2 350 19:22 05.10.2019
720 Clouds 8 1013 87 9000 3 330 18:58 05.10.2019
721 Clear 8 1013 87 10000 1 0 18:39 05.10.2019
722 Clear 8 1013 87 10000 1 0 18:21 05.10.2019
723 Clear 8 1013 81 10000 2 350 17:59 05.10.2019
724 Clear 9 1012 81 10000 3 350 17:40 05.10.2019
725 Clear 9 1012 81 10000 3 350 17:21 05.10.2019
726 Clear 9 1012 70 10000 4 330 16:42 05.10.2019
727 Clouds 9 1011 66 10000 4 320 16:23 05.10.2019
728 Clouds 10 1011 66 10000 4 320 15:59 05.10.2019
729 Clear 10 1011 57 10000 2 270 15:40 05.10.2019
730 Clear 10 1011 57 10000 2 270 15:21 05.10.2019
731 Clouds 10 1011 66 10000 2 290 14:59 05.10.2019
732 Clouds 10 1011 70 10000 3 300 14:41 05.10.2019
733 Clouds 10 1011 70 10000 3 300 14:41 05.10.2019
734 Clouds 10 1011 70 10000 3 300 14:41 05.10.2019
735 Clouds 10 1011 70 10000 3 300 14:20 05.10.2019
736 Clouds 10 1011 70 10000 3 260 13:43 05.10.2019
737 Clouds 10 1011 70 10000 3 250 13:24 05.10.2019
738 Clouds 10 1011 70 10000 3 290 12:57 05.10.2019
739 Clouds 10 1011 66 10000 3 280 12:39 05.10.2019
740 Clouds 10 1011 66 10000 3 280 12:18 05.10.2019
741 Clouds 10 1010 76 10000 4 290 11:39 05.10.2019
742 Clouds 10 1010 76 10000 4 290 11:20 05.10.2019
743 Clouds 9 1010 76 10000 2 240 10:55 05.10.2019
744 Clouds 9 1010 76 10000 3 220 10:37 05.10.2019
745 Clouds 8 1010 76 10000 3 230 10:18 05.10.2019
746 Clouds 8 1009 75 10000 3 240 09:40 05.10.2019
747 Clouds 8 1009 75 10000 3 240 09:22 05.10.2019
748 Clouds 7 1009 81 10000 3 210 08:42 05.10.2019
749 Clouds 7 1009 81 10000 3 210 08:22 05.10.2019
750 Clouds 6 1009 87 10000 2 220 07:59 05.10.2019
751 Clouds 6 1009 87 10000 2 190 07:38 05.10.2019
752 Clouds 6 1009 87 10000 2 190 07:19 05.10.2019
753 Clouds 5 1008 87 10000 1 0 06:50 05.10.2019
754 Clouds 5 1008 86 10000 1 0 06:18 05.10.2019
755 Clouds 4 1008 93 10000 2 210 04:44 05.10.2019
756 Clear 5 1008 93 10000 3 110 03:30 05.10.2019
757 Clouds 5 1008 86 10000 0.78 345.354 02:25 05.10.2019
758 Clouds 6 1008 86 10000 2 330 01:25 05.10.2019
759 Clouds 6 1009 86 10000 3 320 00:46 05.10.2019
760 Clouds 6 1009 86 10000 3 320 00:27 05.10.2019
761 Clear 6 1008 81 10000 3 310 23:55 04.10.2019
762 Clear 6 1008 86 10000 2 330 23:37 04.10.2019
763 Clear 6 1008 86 10000 2 330 23:18 04.10.2019
764 Clouds 7 1008 81 10000 3 270 22:41 04.10.2019
765 Clouds 7 1008 81 10000 3 270 22:23 04.10.2019
766 Clouds 7 1008 75 10000 4 270 21:58 04.10.2019
767 Clouds 7 1009 81 10000 3 270 21:40 04.10.2019
768 Clouds 7 1009 81 10000 3 270 21:22 04.10.2019
769 Clouds 7 1009 81 10000 3 270 20:58 04.10.2019
770 Clouds 7 1008 81 10000 2 260 20:39 04.10.2019
771 Clouds 7 1008 81 10000 2 260 20:39 04.10.2019
772 -273 0 0 0 0 0 20:21 04.10.2019
773 Clouds 7 1008 75 10000 3 280 19:55 04.10.2019
774 Clouds 8 1008 81 10000 3 280 19:37 04.10.2019
775 Clouds 8 1008 81 10000 4 290 19:18 04.10.2019
776 Clouds 8 1008 81 10000 3 270 18:40 04.10.2019
777 Clouds 9 1008 81 10000 3 270 18:20 04.10.2019
778 Clouds 9 1008 81 10000 3 270 18:20 04.10.2019
779 Clouds 9 1008 81 10000 4 280 17:58 04.10.2019
780 Clouds 9 1008 81 10000 3 300 17:39 04.10.2019
781 Clouds 9 1008 81 10000 3 300 17:20 04.10.2019
782 Clouds 9 1007 76 10000 4 290 16:55 04.10.2019
783 Clouds 9 1007 81 10000 4 280 16:37 04.10.2019
784 Clouds 10 1007 81 10000 4 280 16:18 04.10.2019
785 Clouds 10 1007 81 10000 6 290 15:55 04.10.2019
786 Clouds 10 1007 81 10000 6 290 15:55 04.10.2019
787 Clouds 10 1007 81 10000 5 270 15:37 04.10.2019
788 Clouds 10 1007 81 10000 5 270 15:19 04.10.2019
789 Clouds 10 1007 81 10000 5 270 15:19 04.10.2019
790 Clouds 10 1006 76 10000 6 280 14:54 04.10.2019
791 Clouds 10 1006 87 10000 6 290 14:36 04.10.2019
792 Clouds 10 1006 87 10000 6 290 14:18 04.10.2019
793 Clouds 10 1006 81 10000 6 280 13:43 04.10.2019
794 Clouds 10 1006 81 10000 6 280 13:20 04.10.2019
795 Rain 10 1005 93 10000 6 280 12:46 04.10.2019
796 Rain 10 1005 93 10000 6 280 12:46 04.10.2019
797 Rain 10 1005 93 10000 6 280 12:28 04.10.2019
798 Rain 10 1004 93 10000 5 280 11:59 04.10.2019
799 Rain 10 1004 93 9000 5 280 11:40 04.10.2019
800 Rain 10 1004 93 9000 5 280 11:40 04.10.2019
801 Rain 10 1004 93 9000 5 280 11:40 04.10.2019
802 Rain 10 1004 93 9000 5 280 11:20 04.10.2019
803 Rain 11 1003 93 10000 5 290 10:40 04.10.2019
804 Rain 11 1003 93 10000 5 290 10:21 04.10.2019
805 Rain 12 1002 93 9000 8 280 09:48 04.10.2019
806 Rain 12 1002 93 9000 8 280 09:30 04.10.2019
807 Rain 13 1001 93 8000 4 210 08:57 04.10.2019
808 Rain 13 1000 93 9000 4 200 08:38 04.10.2019
809 Rain 13 1000 93 9000 4 200 08:20 04.10.2019
810 Rain 14 1001 93 9000 4 190 07:45 04.10.2019
811 Rain 14 1001 87 7000 5 180 07:22 04.10.2019
812 Rain 13 1000 76 9000 3 180 06:47 04.10.2019
813 Clear 13 1000 67 10000 5 180 06:27 04.10.2019
814 Clear 13 1000 72 10000 4 180 05:52 04.10.2019
815 Clear 13 1000 72 10000 4 180 05:19 04.10.2019
816 Clear 13 1001 67 10000 4 160 03:50 04.10.2019
817 Rain 14 1002 67 10000 4 180 02:54 04.10.2019
818 Rain 14 1002 67 10000 4 180 02:54 04.10.2019
819 Clear 15 1002 67 10000 4 180 02:18 04.10.2019
820 Clear 14 1002 62 10000 5 180 01:42 04.10.2019
821 Clear 14 1002 62 10000 5 180 01:23 04.10.2019
822 Clear 13 1003 58 10000 3 180 23:59 03.10.2019
823 Clear 14 1003 58 10000 4 180 23:37 03.10.2019
824 Clear 14 1003 58 10000 4 180 23:18 03.10.2019
825 Clear 14 1004 58 10000 4 180 22:57 03.10.2019
826 Clear 15 1004 55 10000 5 180 22:38 03.10.2019
827 Clear 15 1004 55 10000 5 180 22:38 03.10.2019
828 Clear 15 1004 55 10000 5 180 22:20 03.10.2019
829 Clear 15 1004 55 10000 5 180 21:56 03.10.2019
830 Clear 15 1004 51 10000 5 180 21:37 03.10.2019
831 Clear 15 1004 51 10000 5 180 21:19 03.10.2019
832 Clear 15 1005 51 10000 5 180 20:56 03.10.2019
833 Clear 15 1005 51 10000 5 180 20:56 03.10.2019
834 Clear 15 1005 51 10000 5 180 20:37 03.10.2019
835 Clear 15 1005 51 10000 5 180 20:37 03.10.2019
836 Clear 15 1005 51 10000 5 180 20:19 03.10.2019
837 Clear 15 1005 55 10000 6 170 19:55 03.10.2019
838 -273 0 0 0 0 0 19:55 03.10.2019
839 Clear 15 1005 51 10000 5 180 19:36 03.10.2019
840 Clear 15 1005 51 10000 5 180 19:18 03.10.2019
841 Clear 16 1005 48 10000 6 170 18:40 03.10.2019
842 Clear 17 1005 48 10000 6 170 18:19 03.10.2019
843 Clear 17 1005 48 10000 6 170 17:59 03.10.2019
844 Clear 18 1005 48 10000 5 170 17:41 03.10.2019
845 Clear 18 1005 48 10000 5 170 17:20 03.10.2019
846 Clear 19 1005 48 10000 5 170 16:54 03.10.2019
847 Clear 19 1005 45 10000 4 170 16:36 03.10.2019
848 Clear 19 1005 45 10000 4 170 16:18 03.10.2019
849 Clear 20 1005 37 10000 6 190 15:41 03.10.2019
850 Clear 20 1005 37 10000 6 190 15:23 03.10.2019
851 Clear 21 1006 37 10000 7 180 14:54 03.10.2019
852 Clear 21 1006 37 10000 7 200 14:36 03.10.2019
853 Clear 21 1006 37 10000 7 200 14:18 03.10.2019
854 Clear 21 1006 45 10000 6 190 13:41 03.10.2019
855 Clear 21 1006 45 10000 6 180 13:19 03.10.2019
856 Clear 21 1006 45 10000 6 180 12:58 03.10.2019
857 Clear 20 1006 52 10000 6 170 12:39 03.10.2019
858 Clear 20 1007 52 10000 6 180 12:19 03.10.2019
859 Clear 20 1007 52 10000 6 180 12:19 03.10.2019
860 Clear 20 1007 52 10000 6 180 11:55 03.10.2019
861 Clear 19 1007 55 10000 5 170 11:37 03.10.2019
862 Clear 18 1007 55 10000 5 170 11:18 03.10.2019
863 Clear 17 1007 63 10000 4 180 10:41 03.10.2019
864 Clear 17 1007 63 10000 4 180 10:19 03.10.2019
865 Clear 16 1007 63 10000 5 180 09:59 03.10.2019
866 Clear 16 1007 67 10000 5 190 09:40 03.10.2019
867 Clear 15 1007 67 10000 5 190 09:22 03.10.2019
868 Clear 14 1007 71 10000 5 190 08:59 03.10.2019
869 Clear 14 1007 71 10000 5 190 08:40 03.10.2019
870 Clear 14 1007 71 10000 5 190 08:22 03.10.2019
871 Clear 13 1007 76 10000 3 180 07:41 03.10.2019
872 Clear 12 1007 82 10000 3 180 07:19 03.10.2019
873 Clear 12 1007 82 10000 3 180 06:51 03.10.2019
874 Clear 11 1007 81 10000 2 170 06:25 03.10.2019
875 Clear 11 1007 87 10000 2 160 05:47 03.10.2019
876 Clear 11 1007 87 10000 2 160 05:25 03.10.2019
877 Clear 12 1007 82 10000 2 140 04:39 03.10.2019
878 Clear 13 1008 76 10000 2 140 03:30 03.10.2019
879 Clouds 13 1008 87 10000 1 0 02:45 03.10.2019
880 Clouds 14 1008 82 10000 1 0 02:20 03.10.2019
881 Clouds 14 1008 87 10000 1 0 01:37 03.10.2019
882 Clear 14 1008 87 10000 1 0 00:52 03.10.2019
883 Clouds 14 1008 87 10000 2 240 00:28 03.10.2019
884 Clouds 15 1007 82 10000 2 220 23:44 02.10.2019
885 Clouds 15 1007 82 10000 2 220 23:24 02.10.2019
886 Clouds 15 1007 77 10000 2 220 22:57 02.10.2019
887 Clear 15 1007 77 10000 2 230 22:38 02.10.2019
888 Rain 15 1006 77 10000 4 220 22:18 02.10.2019
889 Rain 15 1006 77 10000 4 220 21:55 02.10.2019
890 Rain 15 1006 77 10000 4 220 21:54 02.10.2019
891 Rain 15 1006 77 10000 4 220 21:54 02.10.2019
892 -273 0 0 0 0 0 21:54 02.10.2019
893 Clear 15 1006 77 10000 4 210 21:36 02.10.2019
894 Clear 15 1006 77 10000 4 210 21:18 02.10.2019
895 Clear 15 1006 77 10000 3 210 20:54 02.10.2019
896 Rain 15 1006 77 10000 4 220 20:36 02.10.2019
897 Rain 15 1006 77 10000 4 220 20:18 02.10.2019
898 Rain 15 1006 77 10000 4 220 20:18 02.10.2019
899 Clear 15 1006 72 10000 5 210 19:42 02.10.2019
900 Clouds 15 1006 72 10000 4 220 19:21 02.10.2019
901 Clouds 15 1006 72 10000 4 220 18:57 02.10.2019
902 Clear 16 1005 72 10000 5 210 18:38 02.10.2019
903 Clear 15 1005 72 10000 5 210 18:20 02.10.2019
904 Clear 15 1005 72 10000 4 210 17:57 02.10.2019
905 Clouds 16 1005 72 10000 5 210 17:38 02.10.2019
906 Clouds 16 1005 72 10000 4 210 17:19 02.10.2019
907 Clouds 16 1004 72 10000 5 210 16:42 02.10.2019
908 Clouds 16 1004 72 10000 5 210 16:22 02.10.2019
909 Clouds 16 1004 72 10000 5 210 15:59 02.10.2019
910 Clouds 16 1004 67 10000 6 210 15:40 02.10.2019
911 Clouds 16 1004 67 10000 6 210 15:22 02.10.2019
912 Clouds 16 1004 67 10000 5 210 14:57 02.10.2019
913 Clouds 16 1004 71 10000 5 210 14:39 02.10.2019
914 Clouds 16 1004 71 10000 5 210 14:39 02.10.2019
915 Clouds 16 1004 71 10000 5 210 14:20 02.10.2019
916 Clouds 15 1003 71 10000 6 200 13:45 02.10.2019
917 Clouds 14 1003 71 10000 6 200 13:26 02.10.2019
918 Clouds 14 1003 76 10000 6 210 12:59 02.10.2019
919 Clouds 14 1003 71 10000 7 210 12:39 02.10.2019
920 Clouds 14 1003 71 10000 7 210 12:20 02.10.2019
921 Clouds 13 1003 76 10000 8 210 11:45 02.10.2019
922 Clouds 12 1003 71 10000 6 210 11:23 02.10.2019
923 Clouds 12 1003 71 10000 6 210 10:55 02.10.2019
924 Clouds 12 1003 76 10000 7 200 10:36 02.10.2019
925 Clouds 12 1003 76 10000 7 200 10:18 02.10.2019
926 Rain 10 1003 71 10000 6 190 09:39 02.10.2019
927 Rain 10 1003 71 10000 6 190 09:20 02.10.2019
928 Rain 10 1003 76 10000 5 200 08:55 02.10.2019
929 Clouds 10 1004 76 10000 6 190 08:36 02.10.2019
930 Rain 9 1004 81 10000 6 190 08:18 02.10.2019
931 Clouds 9 1004 81 10000 5 190 07:39 02.10.2019
932 Rain 8 1004 81 10000 5 190 07:20 02.10.2019
933 Rain 8 1004 81 10000 5 190 07:20 02.10.2019
934 Rain 8 1004 81 10000 5 190 06:46 02.10.2019
935 Clear 7 1004 81 10000 4 200 05:56 02.10.2019
936 Clear 7 1004 81 10000 4 190 05:25 02.10.2019
937 Clear 7 1004 81 10000 4 190 04:53 02.10.2019
938 Clear 6 1005 87 10000 3 190 03:52 02.10.2019
939 Clear 6 1005 87 10000 3 210 02:47 02.10.2019
940 -273 0 0 0 0 0 02:24 02.10.2019
941 Clear 6 1005 87 10000 3 220 01:46 02.10.2019
942 Clear 6 1004 87 10000 3 240 00:51 02.10.2019
943 Clear 6 1004 87 10000 3 240 00:27 02.10.2019
944 Clear 7 1003 93 10000 2 190 23:45 01.10.2019
945 Clear 7 1003 93 10000 2 190 23:26 01.10.2019
946 Clear 7 1003 93 10000 4 250 22:59 01.10.2019
947 Clear 7 1003 87 10000 3 250 22:41 01.10.2019
948 Clear 8 1003 87 10000 3 250 22:20 01.10.2019
949 Clear 8 1002 87 10000 4 260 21:58 01.10.2019
950 Clear 8 1002 87 10000 4 260 21:40 01.10.2019
951 Clear 8 1002 87 10000 4 260 21:22 01.10.2019
952 Clear 9 1002 93 10000 4 260 20:57 01.10.2019
953 Clear 10 1001 87 10000 4 270 20:38 01.10.2019
954 Clear 10 1001 87 10000 3 280 20:20 01.10.2019
955 Clear 10 1001 87 10000 3 280 19:56 01.10.2019
956 Clear 10 1000 87 10000 4 280 19:38 01.10.2019
957 Clear 11 1000 81 10000 4 280 19:19 01.10.2019
958 Clear 11 999 81 10000 6 290 18:41 01.10.2019
959 Clear 11 999 81 10000 6 290 18:22 01.10.2019
960 Clouds 12 997 93 10000 6 250 17:59 01.10.2019
961 Clouds 12 997 93 10000 6 250 17:40 01.10.2019
962 Clouds 12 997 93 10000 6 250 17:20 01.10.2019
963 Clouds 12 997 93 10000 6 250 17:20 01.10.2019
964 Clouds 12 996 93 10000 6 260 16:58 01.10.2019
965 Rain 12 996 93 10000 7 260 16:40 01.10.2019
966 Rain 12 995 93 10000 8 270 16:21 01.10.2019
967 Rain 13 995 93 10000 8 270 15:47 01.10.2019
968 Rain 14 994 87 6000 8 270 15:24 01.10.2019
969 Clouds 15 993 93 10000 7 220 14:58 01.10.2019
970 Rain 16 993 82 10000 8 220 14:37 01.10.2019
971 Rain 16 993 82 10000 8 220 14:19 01.10.2019
972 Clouds 16 992 87 10000 7 220 13:55 01.10.2019
973 Clouds 16 992 87 10000 7 220 13:55 01.10.2019
974 Clouds 16 992 87 10000 7 220 13:55 01.10.2019
975 Clouds 16 992 87 10000 7 220 13:55 01.10.2019
976 Clouds 16 992 87 10000 7 220 13:36 01.10.2019
977 Clouds 16 992 87 10000 7 220 13:18 01.10.2019
978 Rain 16 992 82 10000 7 230 12:42 01.10.2019
979 Clouds 16 992 77 10000 6 230 12:21 01.10.2019
980 Clouds 16 992 77 10000 6 230 11:58 01.10.2019
981 Rain 16 992 87 10000 6 210 11:39 01.10.2019
982 Rain 16 992 87 10000 6 210 11:19 01.10.2019
983 Clouds 16 992 87 10000 6 220 10:59 01.10.2019
984 Clouds 15 992 87 10000 7 220 10:41 01.10.2019
985 Clouds 15 992 87 10000 7 220 10:23 01.10.2019
986 Clouds 15 991 87 10000 5 200 09:43 01.10.2019
987 Clouds 15 991 87 10000 5 200 09:25 01.10.2019
988 Rain 14 991 93 10000 5 200 08:43 01.10.2019
989 Rain 14 991 93 10000 5 200 08:25 01.10.2019
990 Rain 14 991 93 10000 5 200 07:49 01.10.2019
991 Rain 14 991 93 10000 5 190 07:26 01.10.2019
992 Clouds 14 991 93 9000 6 190 06:51 01.10.2019
993 Clouds 14 991 93 10000 5 180 06:25 01.10.2019
994 Rain 14 991 93 6000 5 180 05:50 01.10.2019
995 Rain 14 991 93 6000 5 180 05:20 01.10.2019
996 Clouds 14 991 93 10000 5 170 04:35 01.10.2019
997 Clouds 14 992 93 9000 4 160 03:32 01.10.2019
998 Rain 13 992 87 10000 5 180 02:19 01.10.2019
999 Rain 14 993 87 10000 5 170 01:51 01.10.2019
1000 Rain 14 994 93 9000 4 170 00:44 01.10.2019
1001 -273 0 0 0 0 0 00:24 01.10.2019
1002 -273 0 0 0 0 0 00:24 01.10.2019
1003 Clouds 14 995 93 10000 5 180 23:42 30.09.2019
1004 Clouds 14 995 93 10000 5 180 23:22 30.09.2019
1005 Clouds 13 995 93 10000 6 180 22:55 30.09.2019
1006 Clouds 13 995 93 10000 5 190 22:37 30.09.2019
1007 Clouds 13 995 93 10000 5 190 22:19 30.09.2019
1008 -273 0 0 0 0 0 21:55 30.09.2019
1009 Rain 13 996 93 10000 5 180 21:36 30.09.2019
1010 Rain 13 996 100 6000 5 190 21:18 30.09.2019
1011 Rain 12 996 100 6000 5 190 20:54 30.09.2019
1012 Rain 13 996 93 9000 6 190 20:36 30.09.2019
1013 Rain 13 996 93 9000 6 190 20:36 30.09.2019
1014 Rain 13 996 93 7000 6 180 20:18 30.09.2019
1015 Rain 13 996 93 7000 6 180 20:18 30.09.2019
1016 Rain 13 997 93 9000 5 180 19:42 30.09.2019
1017 Rain 12 997 93 8000 6 180 19:20 30.09.2019
1018 Rain 12 997 93 8000 6 180 18:59 30.09.2019
1019 Rain 12 997 100 5000 5 180 18:41 30.09.2019
1020 Rain 13 997 93 4100 5 180 18:21 30.09.2019
1021 Rain 13 997 93 4100 5 180 17:57 30.09.2019
1022 Rain 13 997 87 9000 6 190 17:39 30.09.2019
1023 Rain 13 997 87 9000 6 190 17:19 30.09.2019
1024 Rain 13 998 87 10000 5 170 16:54 30.09.2019
1025 -273 0 0 0 0 0 16:36 30.09.2019
1026 Rain 13 998 87 9000 5 180 16:18 30.09.2019
1027 Rain 13 999 93 10000 5 180 15:39 30.09.2019
1028 Rain 13 999 93 10000 5 180 15:39 30.09.2019
1029 Rain 13 999 93 10000 5 180 15:20 30.09.2019
1030 Rain 14 999 93 9000 5 170 14:58 30.09.2019
1031 Rain 14 1000 93 10000 5 170 14:38 30.09.2019
1032 Rain 13 1000 93 10000 4 180 14:19 30.09.2019
1033 Rain 14 1000 93 10000 4 180 13:59 30.09.2019
1034 Rain 13 1000 87 9000 4 180 13:41 30.09.2019
1035 Rain 13 1000 87 9000 4 180 13:22 30.09.2019
1036 Rain 13 1001 82 10000 5 180 12:57 30.09.2019
1037 Clouds 13 1001 87 10000 5 190 12:38 30.09.2019
1038 Clouds 13 1001 87 10000 5 190 12:18 30.09.2019
1039 Clouds 13 1001 87 10000 4 200 11:43 30.09.2019
1040 Clouds 13 1001 87 10000 4 200 11:22 30.09.2019
1041 Clouds 12 1001 93 10000 4 200 10:58 30.09.2019
1042 Clouds 12 1001 87 10000 4 200 10:38 30.09.2019
1043 Clouds 12 1002 100 10000 4 200 10:18 30.09.2019
1044 Clouds 12 1002 100 10000 3 220 09:58 30.09.2019
1045 Drizzle 11 1002 93 5000 5 200 09:39 30.09.2019
1046 Drizzle 11 1002 93 5000 5 200 09:19 30.09.2019
1047 Mist 11 1002 93 6000 4 180 08:46 30.09.2019
1048 Mist 11 1002 93 6000 4 180 08:27 30.09.2019
1049 Mist 10 1002 100 3700 5 190 07:44 30.09.2019
1050 Mist 10 1002 100 3700 5 190 07:44 30.09.2019
1051 Mist 10 1002 100 3700 5 190 07:25 30.09.2019
1052 Mist 10 1002 100 5000 3 190 06:50 30.09.2019
1053 Mist 10 1002 100 5000 3 190 06:31 30.09.2019
1054 Mist 10 1002 100 4500 3 190 05:46 30.09.2019
1055 Mist 9 1003 100 2200 2 190 03:33 30.09.2019
1056 Mist 9 1003 100 2200 2 210 02:45 30.09.2019
1057 Mist 9 1004 100 2800 3 180 01:33 30.09.2019
1058 Mist 9 1004 100 2600 2 170 00:42 30.09.2019
1059 Mist 9 1004 100 2600 2 170 00:21 30.09.2019
1060 Mist 9 1004 100 3600 3 170 23:44 29.09.2019
1061 Mist 9 1004 100 3600 3 170 23:22 29.09.2019
1062 Mist 9 1005 100 4000 2 170 22:55 29.09.2019
1063 Rain 9 1005 100 3700 2 170 22:37 29.09.2019
1064 Rain 9 1005 100 3700 2 170 22:19 29.09.2019
1065 Rain 9 1005 100 3700 2 180 21:56 29.09.2019
1066 Rain 9 1005 100 5000 2 170 21:37 29.09.2019
1067 Rain 9 1005 100 5000 2 170 21:19 29.09.2019
1068 Rain 9 1006 100 4300 3 170 20:44 29.09.2019
1069 Rain 9 1006 100 4200 2 180 20:20 29.09.2019
1070 Rain 9 1006 100 4200 2 180 19:59 29.09.2019
1071 Rain 9 1006 100 3600 3 180 19:37 29.09.2019
1072 Rain 9 1007 100 3900 3 190 19:19 29.09.2019
1073 Rain 9 1007 100 3900 3 190 18:56 29.09.2019
1074 Drizzle 9 1007 93 5000 3 190 18:38 29.09.2019
1075 Drizzle 9 1007 93 5000 3 190 18:19 29.09.2019
1076 Rain 9 1007 93 6000 3 180 17:58 29.09.2019
1077 Rain 9 1007 93 7000 3 170 17:40 29.09.2019
1078 Rain 9 1007 93 7000 3 170 17:19 29.09.2019
1079 Rain 10 1007 93 8000 4 170 16:58 29.09.2019
1080 Rain 9 1007 93 10000 4 160 16:40 29.09.2019
1081 Rain 9 1007 93 10000 4 160 16:19 29.09.2019
1082 Rain 9 1007 93 9000 4 180 15:57 29.09.2019
1083 Mist 9 1007 93 9000 4 180 15:36 29.09.2019
1084 Mist 9 1007 93 9000 4 180 15:18 29.09.2019
1085 Rain 9 1008 93 8000 4 180 14:55 29.09.2019
1086 Rain 9 1008 93 8000 4 180 14:36 29.09.2019
1087 Rain 9 1008 93 8000 4 180 14:18 29.09.2019
1088 Rain 9 1008 81 8000 4 180 13:42 29.09.2019
1089 Rain 9 1008 81 8000 4 180 13:19 29.09.2019
1090 Rain 9 1008 71 10000 5 160 12:58 29.09.2019
1091 Rain 9 1008 71 10000 4 140 12:40 29.09.2019
1092 Rain 9 1008 71 10000 4 140 12:22 29.09.2019
1093 Rain 9 1008 71 10000 4 150 11:59 29.09.2019
1094 Rain 10 1009 71 10000 4 160 11:40 29.09.2019
1095 Rain 11 1009 71 10000 4 160 11:19 29.09.2019
1096 Rain 10 1009 71 10000 4 160 10:57 29.09.2019
1097 Rain 10 1009 66 10000 3 140 10:38 29.09.2019
1098 Rain 10 1009 66 10000 3 140 10:19 29.09.2019
1099 Rain 10 1009 66 10000 4 170 09:56 29.09.2019
1100 Rain 10 1009 66 10000 4 170 09:56 29.09.2019
1101 Clear 10 1010 71 10000 3 150 09:38 29.09.2019
1102 Clear 10 1010 71 10000 3 150 09:18 29.09.2019
1103 Clear 9 1010 76 10000 4 140 08:42 29.09.2019
1104 Clear 9 1010 81 10000 4 120 08:21 29.09.2019
1105 Clear 9 1011 81 10000 3 110 07:43 29.09.2019
1106 Clear 8 1011 87 10000 3 90 07:25 29.09.2019
1107 Clear 8 1011 81 10000 2 100 06:49 29.09.2019
1108 Clear 8 1011 81 10000 2 110 05:55 29.09.2019
1109 Clear 8 1011 81 10000 2 110 05:54 29.09.2019
1110 Clear 8 1012 81 10000 2 130 04:42 29.09.2019
1111 Clear 8 1012 81 10000 2 130 04:23 29.09.2019
1112 Clear 8 1013 81 10000 2 120 02:58 29.09.2019
1113 Clear 8 1014 81 10000 2 120 02:19 29.09.2019
1114 Clear 8 1014 81 10000 2 110 01:40 29.09.2019
1115 Clear 8 1015 81 10000 2 120 00:55 29.09.2019
1116 Clear 8 1015 81 10000 3 100 00:36 29.09.2019
1117 Clear 8 1015 81 10000 3 100 00:18 29.09.2019
1118 Clear 8 1015 76 10000 2 100 23:37 28.09.2019
1119 Rain 8 1015 76 10000 2 120 23:19 28.09.2019
1120 Rain 8 1016 87 10000 2 130 22:40 28.09.2019
1121 Rain 8 1016 87 10000 2 130 22:21 28.09.2019
1122 Rain 9 1016 81 10000 2 130 22:21 28.09.2019
1123 Rain 9 1016 81 10000 2 130 21:58 28.09.2019
1124 Rain 9 1016 81 10000 2 120 21:40 28.09.2019
1125 Clear 9 1016 81 10000 2 130 21:21 28.09.2019
1126 Clear 9 1016 81 10000 2 130 20:58 28.09.2019
1127 Clear 9 1016 81 10000 2 130 20:58 28.09.2019
1128 Clear 9 1016 87 10000 2 130 20:39 28.09.2019
1129 Rain 9 1016 81 10000 2 140 20:20 28.09.2019
1130 Rain 9 1016 81 10000 2 140 19:57 28.09.2019
1131 Smoke 9 1016 81 10000 2 130 19:38 28.09.2019
1132 Smoke 10 1017 76 10000 3 130 19:20 28.09.2019
1133 Smoke 10 1017 76 10000 3 130 18:57 28.09.2019
1134 Clouds 9 1017 81 10000 2 130 18:39 28.09.2019
1135 Clear 10 1017 81 10000 2 140 18:20 28.09.2019
1136 Clear 10 1017 81 10000 2 140 17:56 28.09.2019
1137 Clear 10 1017 71 10000 2 140 17:37 28.09.2019
1138 Clear 10 1017 71 10000 2 140 17:19 28.09.2019
1139 Clear 11 1017 66 10000 1 0 16:43 28.09.2019
1140 Clouds 11 1017 66 10000 2 150 16:25 28.09.2019
1141 Clear 11 1017 66 10000 2 170 15:42 28.09.2019
1142 Clear 11 1017 66 10000 2 170 15:42 28.09.2019
1143 Clear 11 1017 66 10000 2 170 15:42 28.09.2019
1144 Clouds 11 1017 66 10000 2 200 15:23 28.09.2019
1145 Clear 11 1017 66 10000 2 170 15:23 28.09.2019
1146 Clouds 11 1017 66 10000 2 200 14:58 28.09.2019
1147 Rain 11 1018 76 10000 2 230 14:40 28.09.2019
1148 Rain 11 1018 76 10000 2 230 14:21 28.09.2019
1149 Clouds 11 1018 71 10000 1 0 13:57 28.09.2019
1150 Clouds 11 1018 66 10000 2 290 13:38 28.09.2019
1151 Clouds 11 1018 66 10000 2 290 13:20 28.09.2019
1152 Clouds 11 1018 66 10000 2 290 13:20 28.09.2019
1153 Clouds 11 1018 71 10000 1 0 12:45 28.09.2019
1154 Clouds 11 1018 71 10000 1 0 12:20 28.09.2019
1155 Clouds 11 1018 71 10000 1 0 12:20 28.09.2019
1156 Clouds 11 1018 71 10000 1 0 11:59 28.09.2019
1157 Clouds 11 1018 71 10000 1 0 11:39 28.09.2019
1158 Clouds 11 1018 71 10000 1 0 11:18 28.09.2019
1159 Clouds 11 1018 62 10000 3 200 10:43 28.09.2019
1160 Clouds 11 1018 62 10000 3 200 10:21 28.09.2019
1161 Clouds 10 1018 76 10000 2 250 09:58 28.09.2019
1162 Clouds 10 1018 76 10000 2 210 09:40 28.09.2019
1163 Clouds 10 1018 76 10000 2 210 09:40 28.09.2019
1164 Clouds 9 1018 71 10000 1 0 09:18 28.09.2019
1165 Mist 8 1018 87 10000 1 0 08:46 28.09.2019
1166 Mist 7 1018 87 10000 1 0 08:28 28.09.2019
1167 Mist 6 1018 93 9000 2 240 07:46 28.09.2019
1168 Mist 6 1018 93 9000 2 240 07:24 28.09.2019
1169 Fog 5 1018 93 9000 2 250 06:56 28.09.2019
1170 Fog 4 1017 93 9000 2.01 322.661 06:33 28.09.2019
1171 Fog 4 1018 100 9000 2.01 322.661 05:59 28.09.2019
1172 Fog 5 1017 93 10000 2.01 322.661 05:24 28.09.2019
1173 Clouds 6 1017 93 10000 2.01 322.661 04:44 28.09.2019
1174 Clouds 6 1017 93 10000 2.01 322.661 04:21 28.09.2019
1175 Clouds 6 1017 93 10000 2.01 322.661 03:33 28.09.2019
1176 Clouds 7 1017 93 10000 1 0 02:57 28.09.2019
1177 Clouds 7 1017 93 10000 1 0 02:37 28.09.2019
1178 Clouds 7 1017 93 10000 2 10 02:18 28.09.2019
1179 Clouds 8 1017 93 10000 2 340 01:41 28.09.2019
1180 Clouds 8 1017 93 10000 1 0 01:19 28.09.2019
1181 Clouds 8 1017 93 10000 1 0 00:44 28.09.2019
1182 Clouds 8 1017 93 10000 1 0 00:26 28.09.2019
1183 Clouds 8 1016 93 10000 3 10 23:39 27.09.2019
1184 Clouds 8 1016 93 10000 3 10 23:21 27.09.2019
1185 Clouds 8 1016 93 10000 2 330 22:49 27.09.2019
1186 Clouds 8 1016 93 10000 3 300 22:21 27.09.2019
1187 Clouds 8 1016 87 10000 3 290 21:59 27.09.2019
1188 Clouds 8 1016 87 10000 3 290 21:59 27.09.2019
1189 Clouds 8 1016 93 10000 3 290 21:40 27.09.2019
1190 Clouds 8 1016 87 10000 3 280 21:20 27.09.2019
1191 Clouds 8 1016 93 10000 3 290 21:20 27.09.2019
1192 Clouds 8 1016 87 10000 3 280 20:58 27.09.2019
1193 Clouds 8 1015 87 10000 3 300 20:40 27.09.2019
1194 Clouds 9 1015 87 10000 3 300 20:20 27.09.2019
1195 Clouds 9 1015 87 10000 3 300 19:57 27.09.2019
1196 Clouds 9 1015 87 10000 3 300 19:39 27.09.2019
1197 Clouds 9 1015 87 10000 3 290 19:20 27.09.2019
1198 Clouds 9 1015 87 10000 3 300 18:42 27.09.2019
1199 Clouds 9 1015 87 10000 3 300 18:24 27.09.2019
1200 Clouds 9 1015 87 10000 4 300 17:57 27.09.2019
1201 Clouds 9 1015 87 10000 4 300 17:38 27.09.2019
1202 Clouds 10 1015 81 10000 4 300 17:20 27.09.2019
1203 Clouds 10 1015 81 10000 4 300 16:57 27.09.2019
1204 Clouds 10 1015 81 10000 4 280 16:38 27.09.2019
1205 Clouds 10 1015 81 10000 4 280 16:18 27.09.2019
1206 Clouds 10 1015 76 10000 4 280 15:47 27.09.2019
1207 Clouds 11 1015 66 10000 4 280 15:21 27.09.2019
1208 Clouds 11 1015 66 10000 4 280 14:59 27.09.2019
1209 Clouds 11 1015 66 10000 4 280 14:41 27.09.2019
1210 Clouds 11 1015 66 10000 4 290 14:22 27.09.2019
1211 Clouds 11 1015 66 10000 4 290 13:58 27.09.2019
1212 Clouds 12 1015 61 10000 5 300 13:40 27.09.2019
1213 Clouds 12 1015 54 10000 6 320 13:21 27.09.2019
1214 Clouds 12 1015 61 10000 5 300 12:56 27.09.2019
1215 Clouds 12 1015 61 10000 4 280 12:37 27.09.2019
1216 Clouds 12 1015 50 10000 5 280 12:18 27.09.2019
1217 Clear 11 1015 61 10000 4 290 11:39 27.09.2019
1218 Clear 11 1015 61 10000 4 290 11:39 27.09.2019
1219 Clear 11 1015 66 10000 4 310 11:20 27.09.2019
1220 Clouds 11 1015 61 10000 4 290 10:55 27.09.2019
1221 Clouds 11 1015 61 10000 4 290 10:37 27.09.2019
1222 Clouds 11 1015 61 10000 4 290 10:37 27.09.2019
1223 Clouds 11 1015 61 10000 4 290 10:18 27.09.2019
1224 Clear 9 1015 75 10000 1 230 09:41 27.09.2019
1225 Clear 9 1015 75 10000 1 230 09:20 27.09.2019
1226 Clear 8 1015 75 10000 1 220 08:57 27.09.2019
1227 Clear 6 1015 86 10000 1 0 08:37 27.09.2019
1228 Clear 6 1015 86 10000 1 0 08:19 27.09.2019
1229 Mist 3 1015 93 10000 2 250 07:45 27.09.2019
1230 Mist 1 1015 93 10000 2 250 07:22 27.09.2019
1231 Fog 1 1015 80 10000 2 250 06:42 27.09.2019
1232 Mist 1 1015 100 9000 2 260 06:23 27.09.2019
1233 Mist 1 1015 89 9000 2 260 05:49 27.09.2019
1234 Mist 1 1015 89 9000 2 260 05:31 27.09.2019
1235 Mist 2 1015 89 10000 2 250 03:54 27.09.2019
1236 Mist 3 1015 93 9000 2 270 01:59 27.09.2019
1237 Mist 3 1015 86 10000 1 0 01:37 27.09.2019
1238 Mist 3 1015 86 10000 1 0 00:59 27.09.2019
1239 Clear 4 1015 86 10000 1 0 00:19 27.09.2019
1240 Clear 3 1015 86 10000 1 0 23:55 26.09.2019
1241 Clear 3 1015 86 10000 1 0 23:55 26.09.2019
1242 Clear 4 1015 86 10000 1 310 23:37 26.09.2019
1243 Clear 4 1015 86 10000 1 310 23:18 26.09.2019
1244 Clear 4 1015 80 10000 1 0 22:55 26.09.2019
1245 Clear 4 1015 80 9000 1 320 22:37 26.09.2019
1246 Clear 4 1015 80 9000 1 320 22:18 26.09.2019
1247 Clear 4 1015 80 9000 1 320 22:18 26.09.2019
1248 Clear 4 1015 75 10000 1 320 21:55 26.09.2019
1249 Clear 5 1015 70 10000 2 250 21:36 26.09.2019
1250 Clear 5 1015 70 10000 2 250 21:18 26.09.2019
1251 Clear 5 1015 70 10000 2 250 21:18 26.09.2019
1252 Clear 5 1015 70 10000 2 250 21:18 26.09.2019
1253 Clear 6 1015 70 10000 1 0 20:55 26.09.2019
1254 Clear 6 1015 70 10000 2 340 20:37 26.09.2019
1255 Clear 6 1015 70 10000 2 340 20:37 26.09.2019
1256 Clear 6 1015 71 10000 1 280 20:19 26.09.2019
1257 Clear 6 1015 71 10000 1 280 20:19 26.09.2019
1258 Clear 7 1015 71 10000 2 330 19:40 26.09.2019
1259 Clear 8 1015 71 10000 2 320 19:19 26.09.2019
1260 Clear 8 1015 71 10000 2 320 18:58 26.09.2019
1261 Clear 8 1015 71 10000 2 320 18:58 26.09.2019
1262 Clear 8 1015 71 10000 2 300 18:39 26.09.2019
1263 Clear 8 1015 71 10000 2 300 18:39 26.09.2019
1264 Clear 9 1015 63 10000 2 300 18:21 26.09.2019
1265 Clear 9 1015 63 10000 2 300 17:56 26.09.2019
1266 Clear 10 1015 49 10000 3 270 17:36 26.09.2019
1267 Clear 11 1015 63 10000 3 260 17:18 26.09.2019
1268 Clear 12 1015 40 10000 2 240 16:40 26.09.2019
1269 Clear 12 1015 63 10000 3 230 16:21 26.09.2019
1270 Clear 12 1015 63 10000 3 230 15:58 26.09.2019
1271 Clear 12 1015 63 10000 4 220 15:38 26.09.2019
1272 Clear 12 1015 40 10000 4 250 15:20 26.09.2019
1273 Clear 12 1015 43 10000 5 260 14:57 26.09.2019
1274 Clear 12 1016 40 10000 5 260 14:38 26.09.2019
1275 Clear 12 1016 40 10000 5 260 14:38 26.09.2019
1276 Clear 13 1016 40 10000 5 260 14:20 26.09.2019
1277 Clear 12 1016 43 10000 5 260 13:41 26.09.2019
1278 Clear 12 1016 43 10000 5 260 13:20 26.09.2019
1279 Clear 12 1016 43 10000 5 260 13:20 26.09.2019
1280 Clear 12 1016 48 10000 4 270 12:59 26.09.2019
1281 Clouds 12 1016 48 10000 5 250 12:41 26.09.2019
1282 Clouds 12 1016 48 10000 5 250 12:41 26.09.2019
1283 Clouds 12 1016 56 10000 5 250 12:21 26.09.2019
1284 -273 0 0 0 0 0 11:54 26.09.2019
1285 Clouds 11 1017 57 10000 4 240 11:36 26.09.2019
1286 Clear 10 1017 66 10000 3 260 11:18 26.09.2019
1287 Clear 9 1017 75 10000 3 230 10:41 26.09.2019
1288 Clear 9 1017 75 10000 3 230 10:23 26.09.2019
1289 Clear 8 1017 81 10000 3 240 09:57 26.09.2019
1290 Clear 7 1017 87 10000 3 250 09:39 26.09.2019
1291 Clear 6 1017 87 10000 3 230 09:18 26.09.2019
1292 Clear 5 1017 93 10000 2 230 08:47 26.09.2019
1293 Clear 5 1017 93 10000 2 230 08:29 26.09.2019
1294 Clear 4 1017 86 10000 3 220 07:45 26.09.2019
1295 Clear 4 1017 86 10000 4 230 07:22 26.09.2019
1296 Clear 4 1017 93 10000 2 210 06:50 26.09.2019
1297 Clear 4 1017 93 10000 2 210 06:28 26.09.2019
1298 Clear 4 1017 93 10000 2 210 05:52 26.09.2019
1299 Clear 4 1017 93 10000 2 210 05:26 26.09.2019
1300 Clouds 4 1017 100 10000 2 250 03:27 26.09.2019
1301 Clouds 5 1017 100 10000 2 220 02:19 26.09.2019
1302 Clouds 5 1017 93 10000 1 0 01:40 26.09.2019
1303 Clouds 5 1017 93 10000 1 0 01:22 26.09.2019
1304 Clouds 5 1018 93 10000 1 270 00:45 26.09.2019
1305 Clouds 5 1018 93 10000 1 270 00:25 26.09.2019
1306 Clear 5 1017 93 10000 1 0 23:43 25.09.2019
1307 Clear 5 1017 93 10000 1 0 23:22 25.09.2019
1308 Clouds 5 1017 93 10000 2 280 22:55 25.09.2019
1309 Clouds 5 1017 93 10000 2 280 22:55 25.09.2019
1310 Clouds 5 1017 93 10000 2 280 22:55 25.09.2019
1311 Clouds 5 1017 93 10000 3 270 22:36 25.09.2019
1312 Rain 5 1017 93 10000 2 300 22:18 25.09.2019
1313 Rain 5 1017 93 10000 2 300 21:55 25.09.2019
1314 Rain 5 1017 93 10000 3 270 21:36 25.09.2019
1315 Rain 5 1017 93 10000 2 280 21:18 25.09.2019
1316 Rain 5 1017 93 10000 2 280 20:55 25.09.2019
1317 Clouds 5 1017 93 10000 2 280 20:37 25.09.2019
1318 Clouds 5 1017 93 10000 2 280 20:18 25.09.2019
1319 Rain 6 1018 93 10000 1 0 19:39 25.09.2019
1320 Rain 6 1017 87 10000 1 230 19:21 25.09.2019
1321 Rain 6 1018 81 10000 1 280 18:56 25.09.2019
1322 Rain 6 1018 81 10000 1 280 18:38 25.09.2019
1323 Rain 6 1018 81 10000 1 280 18:19 25.09.2019
1324 Rain 6 1017 86 10000 4 300 17:40 25.09.2019
1325 Rain 6 1017 86 10000 4 300 17:21 25.09.2019
1326 Rain 6 1018 93 10000 4 280 16:58 25.09.2019
1327 Rain 6 1018 86 10000 6 260 16:40 25.09.2019
1328 Rain 7 1018 65 10000 2 300 16:22 25.09.2019
1329 Rain 7 1018 86 10000 2 300 15:56 25.09.2019
1330 Clouds 7 1018 86 10000 4 260 15:38 25.09.2019
1331 Clouds 7 1018 54 10000 2 260 15:19 25.09.2019
1332 Clouds 7 1018 54 10000 4 290 14:42 25.09.2019
1333 Clouds 7 1018 54 10000 4 290 14:22 25.09.2019
1334 Rain 7 1018 54 10000 5 240 13:58 25.09.2019
1335 Rain 7 1018 60 10000 5 260 13:39 25.09.2019
1336 Rain 8 1018 56 10000 6 260 13:20 25.09.2019
1337 Rain 8 1018 48 10000 6 260 12:56 25.09.2019
1338 Rain 8 1018 48 10000 6 260 12:37 25.09.2019
1339 Clouds 8 1018 48 10000 4 270 12:18 25.09.2019
1340 Clear 8 1018 48 10000 5 270 11:40 25.09.2019
1341 Clouds 8 1018 56 10000 4 260 11:20 25.09.2019
1342 Clouds 7 1018 56 10000 3 270 10:47 25.09.2019
1343 Clouds 7 1018 56 10000 3 270 10:27 25.09.2019
1344 Clouds 7 1018 56 10000 3 270 10:27 25.09.2019
1345 Clouds 7 1018 58 10000 3 240 09:59 25.09.2019
1346 Clouds 7 1018 58 10000 3 240 09:59 25.09.2019
1347 Clouds 7 1018 58 10000 3 240 09:59 25.09.2019
1348 Clear 6 1018 75 10000 2 230 09:41 25.09.2019
1349 Clear 6 1018 75 10000 2 230 09:23 25.09.2019
1350 Clear 5 1018 80 10000 2 230 08:57 25.09.2019
1351 Clear 5 1018 86 10000 1 250 08:39 25.09.2019
1352 Clear 4 1018 86 10000 2 260 08:19 25.09.2019
1353 Rain 4 1018 93 8000 3 260 07:40 25.09.2019
1354 Clouds 3 1018 93 10000 2 270 07:22 25.09.2019
1355 Clouds 3 1018 93 10000 2 250 06:55 25.09.2019
1356 Clouds 3 1018 93 10000 2 250 06:34 25.09.2019
1357 Clear 3 1018 93 10000 2 250 05:43 25.09.2019
1358 Clear 3 1018 93 10000 2 250 05:19 25.09.2019
1359 Clear 3 1017 88 10000 1 240 03:21 25.09.2019
1360 Clear 3 1017 88 10000 2 280 01:36 25.09.2019
1361 Clear 4 1017 69 10000 3 280 00:41 25.09.2019
1362 Clear 4 1017 69 10000 3 280 00:22 25.09.2019
1363 Clear 4 1017 69 10000 3 280 23:43 24.09.2019
1364 Clear 4 1017 69 10000 3 280 23:22 24.09.2019
1365 Clear 4 1017 69 10000 3 290 22:58 24.09.2019
1366 Clear 4 1017 86 10000 3 270 22:38 24.09.2019
1367 Clear 4 1017 86 10000 3 270 22:19 24.09.2019
1368 Clear 4 1017 69 10000 3 280 21:55 24.09.2019
1369 Clear 4 1017 69 10000 3 280 21:55 24.09.2019
1370 Clear 4 1017 69 10000 2 300 21:37 24.09.2019
1371 Clear 4 1017 84 10000 3 310 21:18 24.09.2019
1372 Clear 4 1017 84 10000 3 310 20:56 24.09.2019
1373 Clear 4 1017 84 10000 3 300 20:38 24.09.2019
1374 Clear 4 1017 84 10000 3 310 20:19 24.09.2019
1375 Clear 4 1017 80 10000 2 320 19:43 24.09.2019
1376 Clear 4 1017 80 10000 2 320 19:21 24.09.2019
1377 Clear 4 1017 84 10000 3 260 18:58 24.09.2019
1378 Clear 5 1017 80 10000 1 240 18:39 24.09.2019
1379 Clear 5 1016 75 10000 2 250 18:21 24.09.2019
1380 Clear 5 1016 71 10000 3 280 17:57 24.09.2019
1381 Clear 5 1016 71 10000 3 280 17:38 24.09.2019
1382 Clear 5 1016 71 10000 3 280 17:38 24.09.2019
1383 Clear 6 1016 71 10000 3 290 17:20 24.09.2019
1384 Clear 6 1016 71 10000 3 290 16:55 24.09.2019
1385 Clear 6 1016 71 10000 3 330 16:37 24.09.2019
1386 Clear 6 1016 71 10000 3 330 16:18 24.09.2019
1387 Clear 6 1016 75 10000 4 240 15:41 24.09.2019
1388 Clear 6 1016 75 10000 4 240 15:23 24.09.2019
1389 Clouds 7 1017 75 10000 3 260 14:43 24.09.2019
1390 Clouds 7 1017 75 10000 3 260 14:20 24.09.2019
1391 Clouds 7 1017 75 10000 7 300 13:56 24.09.2019
1392 Clouds 7 1016 63 10000 4 280 13:37 24.09.2019
1393 Clouds 7 1016 70 10000 4 260 13:19 24.09.2019
1394 Rain 6 1016 70 10000 4 260 12:40 24.09.2019
1395 Clouds 6 1016 75 10000 4 270 12:20 24.09.2019
1396 Clouds 6 1017 75 10000 4 280 11:43 24.09.2019
1397 Clouds 6 1017 75 10000 4 280 11:43 24.09.2019
1398 Clouds 6 1017 75 10000 4 260 11:22 24.09.2019
1399 Clouds 6 1017 75 10000 4 260 11:22 24.09.2019
1400 Clouds 6 1017 75 10000 4 260 10:59 24.09.2019
1401 Clouds 5 1017 80 10000 4 250 10:39 24.09.2019
1402 Rain 5 1017 80 10000 3 250 10:21 24.09.2019
1403 Rain 5 1017 80 10000 3 250 09:55 24.09.2019
1404 Rain 5 1017 86 10000 3 280 09:37 24.09.2019
1405 Rain 5 1017 86 10000 2 280 09:18 24.09.2019
1406 Snow 4 1017 93 10000 3 280 08:41 24.09.2019
1407 Snow 4 1017 93 10000 3 280 08:23 24.09.2019
1408 Snow 3 1017 86 10000 3 290 07:58 24.09.2019
1409 Clouds 3 1017 86 10000 3 280 07:39 24.09.2019
1410 Clouds 3 1016 86 10000 3 270 07:21 24.09.2019
1411 Clouds 2 1016 93 10000 3 280 06:38 24.09.2019
1412 Clear 2 1016 93 10000 3 280 06:19 24.09.2019
1413 Clear 2 1016 93 10000 4 270 05:22 24.09.2019
1414 Clear 1 1016 86 10000 3 260 03:46 24.09.2019
1415 Clear 1 1016 86 10000 3 260 03:25 24.09.2019
1416 Clear 1 1016 86 10000 3 290 02:44 24.09.2019
1417 Clear 2 1016 80 10000 3 280 01:42 24.09.2019
1418 Clear 2 1016 80 10000 4 270 00:42 24.09.2019
1419 Clear 2 1016 80 10000 4 270 00:23 24.09.2019
1420 Clear 3 1016 74 10000 3 290 23:43 23.09.2019
1421 Clear 3 1016 74 10000 3 290 23:43 23.09.2019
1422 Clear 3 1016 74 10000 3 290 23:23 23.09.2019
1423 Clear 3 1016 74 10000 3 290 23:23 23.09.2019
1424 Clear 3 1016 74 10000 4 280 22:56 23.09.2019
1425 Clear 3 1016 69 10000 4 280 22:37 23.09.2019
1426 Clear 4 1016 69 10000 5 290 22:19 23.09.2019
1427 Clear 4 1016 69 10000 5 290 21:56 23.09.2019
1428 Clouds 4 1016 65 10000 5 280 21:37 23.09.2019
1429 Clouds 4 1016 65 10000 5 280 21:18 23.09.2019
1430 Rain 5 1016 75 10000 5 280 20:40 23.09.2019
1431 Clear 6 1015 75 10000 5 280 20:19 23.09.2019
1432 Clear 6 1015 75 10000 5 280 19:56 23.09.2019
1433 Clear 5 1015 80 10000 3 300 19:38 23.09.2019
1434 Clear 6 1015 75 10000 6 300 19:20 23.09.2019
1435 Clouds 6 1015 60 10000 4 290 18:42 23.09.2019
1436 Clouds 6 1015 60 10000 5 300 18:21 23.09.2019
1437 Clouds 6 1015 60 10000 5 300 17:59 23.09.2019
1438 Rain 6 1014 67 10000 5 290 17:39 23.09.2019
1439 Clouds 7 1014 67 10000 4 290 17:21 23.09.2019
1440 Clouds 7 1014 67 10000 4 290 16:58 23.09.2019
1441 Clouds 7 1014 70 10000 5 300 16:38 23.09.2019
1442 Rain 7 1014 67 9000 10 300 16:19 23.09.2019
1443 Rain 7 1014 67 9000 10 300 15:57 23.09.2019
1444 Clouds 7 1014 52 10000 7 280 15:39 23.09.2019
1445 Clouds 7 1014 52 10000 7 280 15:39 23.09.2019
1446 Clouds 8 1014 52 10000 7 280 15:19 23.09.2019
1447 Rain 7 1013 45 10000 7 310 14:57 23.09.2019
1448 Clouds 8 1013 52 10000 8 300 14:36 23.09.2019
1449 Clouds 8 1013 49 10000 7 280 14:18 23.09.2019
1450 Clouds 8 1013 45 10000 7 300 13:39 23.09.2019
1451 Clouds 8 1013 49 10000 6 300 13:19 23.09.2019
1452 Clouds 8 1013 49 10000 6 300 12:59 23.09.2019
1453 Clouds 8 1013 52 10000 8 300 12:40 23.09.2019
1454 Clouds 7 1013 60 10000 8 290 12:21 23.09.2019
1455 Clouds 7 1013 56 10000 8 310 11:45 23.09.2019
1456 Clouds 7 1013 56 10000 8 310 11:45 23.09.2019
1457 Clouds 7 1013 56 10000 8 310 11:26 23.09.2019
1458 Clouds 5 1013 70 10000 6 300 10:57 23.09.2019
1459 Clouds 5 1013 75 10000 7 300 10:39 23.09.2019
1460 Clouds 5 1013 80 10000 6 300 10:20 23.09.2019
1461 Clouds 4 1013 86 10000 5 300 09:40 23.09.2019
1462 Clouds 4 1013 86 10000 5 300 09:21 23.09.2019
1463 Rain 4 1013 86 10000 5 300 08:58 23.09.2019
1464 Clouds 4 1012 93 10000 5 300 08:38 23.09.2019
1465 Clouds 3 1012 93 10000 5 300 08:18 23.09.2019
1466 Rain 3 1012 93 10000 5 300 07:33 23.09.2019
1467 Rain 3 1011 93 9000 6 300 06:53 23.09.2019
1468 Drizzle 3 1011 86 10000 5 310 06:20 23.09.2019
1469 Clouds 3 1010 86 10000 6 310 05:23 23.09.2019
1470 Clouds 3 1010 86 10000 7 300 04:56 23.09.2019
1471 Clouds 3 1010 86 10000 5 310 03:59 23.09.2019
1472 Clouds 4 1009 80 10000 5 310 01:25 23.09.2019
1473 Clouds 4 1008 86 10000 5 310 00:26 23.09.2019
1474 Clouds 4 1008 86 10000 5 310 23:58 22.09.2019
1475 Clouds 4 1007 86 10000 5 320 23:40 22.09.2019
1476 Clouds 4 1007 86 10000 5 320 23:21 22.09.2019
1477 Clouds 4 1007 86 10000 5 320 22:55 22.09.2019
1478 Clouds 4 1007 86 10000 5 320 22:37 22.09.2019
1479 Clouds 4 1007 86 10000 5 320 22:18 22.09.2019
1480 Rain 4 1006 86 10000 6 330 21:42 22.09.2019
1481 Clouds 4 1006 86 10000 7 320 21:20 22.09.2019
1482 Rain 4 1005 86 10000 6 320 20:45 22.09.2019
1483 Rain 4 1005 86 10000 6 320 20:27 22.09.2019
1484 Rain 4 1005 86 10000 6 320 19:59 22.09.2019
1485 Rain 4 1005 86 10000 7 320 19:40 22.09.2019
1486 Rain 4 1005 86 10000 7 320 19:40 22.09.2019
1487 Rain 4 1004 86 10000 5 320 19:20 22.09.2019
1488 Clouds 4 1004 86 10000 6 310 18:57 22.09.2019
1489 Clouds 4 1004 86 10000 6 310 18:57 22.09.2019
1490 Clouds 4 1004 86 10000 6 310 18:38 22.09.2019
1491 Rain 4 1003 86 10000 7 310 18:18 22.09.2019
1492 Rain 4 1003 86 10000 7 300 17:47 22.09.2019
1493 Rain 4 1003 86 10000 7 300 17:27 22.09.2019
1494 Rain 5 1003 93 10000 7 310 16:58 22.09.2019
1495 Rain 5 1003 93 10000 7 310 16:58 22.09.2019
1496 Rain 5 1002 86 9000 7 310 16:40 22.09.2019
1497 Rain 6 1001 65 10000 8 320 16:20 22.09.2019
1498 Clouds 6 1001 68 10000 9 310 15:46 22.09.2019
1499 Clouds 6 1001 64 10000 9 310 15:26 22.09.2019
1500 Rain 6 1001 65 10000 7 310 14:57 22.09.2019
1501 Rain 6 1000 81 10000 7 310 14:39 22.09.2019
1502 Rain 6 1000 81 10000 7 310 14:21 22.09.2019
1503 Clouds 7 1000 81 10000 7 320 13:45 22.09.2019
1504 Clouds 6 1000 81 10000 7 320 13:26 22.09.2019
1505 Snow 6 1000 86 7000 10 320 12:58 22.09.2019
1506 Rain 6 999 86 10000 6 320 12:40 22.09.2019
1507 Rain 6 999 81 9000 7 310 12:21 22.09.2019
1508 Rain 7 999 81 9000 7 310 12:21 22.09.2019
1509 Rain 7 999 81 9000 7 310 11:56 22.09.2019
1510 Clouds 6 999 81 10000 8 320 11:38 22.09.2019
1511 Rain 6 998 81 10000 7 320 11:19 22.09.2019
1512 Rain 7 998 81 10000 8 320 10:43 22.09.2019
1513 Clouds 7 998 87 10000 7 330 10:20 22.09.2019
1514 Clouds 6 998 87 10000 7 330 09:56 22.09.2019
1515 Rain 6 998 87 10000 7 310 09:37 22.09.2019
1516 Rain 6 997 87 10000 5 300 09:19 22.09.2019
1517 Rain 6 997 87 10000 7 300 08:42 22.09.2019
1518 Rain 6 997 87 10000 7 300 08:22 22.09.2019
1519 Rain 6 997 93 10000 7 290 07:49 22.09.2019
1520 Rain 6 997 93 10000 6 290 07:31 22.09.2019
1521 Rain 6 997 93 10000 6 290 06:59 22.09.2019
1522 Drizzle 6 997 93 10000 6 290 06:38 22.09.2019
1523 Drizzle 5 998 100 10000 5 290 05:19 22.09.2019
1524 Drizzle 5 1000 100 3300 3 220 02:45 22.09.2019
1525 Drizzle 5 1000 100 3300 3 220 02:25 22.09.2019
1526 Rain 5 1001 93 8000 3 210 01:45 22.09.2019
1527 Rain 5 1002 93 10000 4 210 00:55 22.09.2019
1528 Rain 5 1002 93 8000 4 200 00:32 22.09.2019
1529 Rain 5 1003 93 9000 4 210 23:56 21.09.2019
1530 Rain 5 1004 93 10000 4 200 23:38 21.09.2019
1531 Rain 5 1004 93 10000 5 200 22:57 21.09.2019
1532 Rain 5 1005 93 10000 4 200 22:36 21.09.2019
1533 Rain 5 1006 93 10000 4 200 22:18 21.09.2019
1534 Rain 6 1007 87 10000 5 220 21:41 21.09.2019
1535 Rain 6 1007 87 10000 5 220 21:19 21.09.2019
1536 Rain 6 1007 87 10000 5 220 20:56 21.09.2019
1537 Rain 6 1008 81 10000 3 210 20:37 21.09.2019
1538 Rain 6 1008 81 10000 4 230 20:18 21.09.2019
1539 Rain 6 1009 75 10000 7 250 19:46 21.09.2019
1540 Clear 7 1009 74 10000 6 250 19:22 21.09.2019
1541 Clear 7 1009 74 10000 7 240 18:42 21.09.2019
1542 Clear 7 1009 52 10000 4 210 18:22 21.09.2019
1543 Clear 8 1009 49 10000 3 210 17:56 21.09.2019
1544 Clear 8 1009 49 10000 3 210 17:38 21.09.2019
1545 Clear 8 1010 49 10000 4 220 17:19 21.09.2019
1546 Clear 8 1010 52 10000 5 250 16:42 21.09.2019
1547 Clear 8 1010 52 10000 5 250 16:42 21.09.2019
1548 Clear 8 1010 52 10000 5 250 16:24 21.09.2019
1549 Clear 8 1011 45 10000 7 240 15:48 21.09.2019
1550 Clear 8 1011 45 10000 5 250 15:25 21.09.2019
1551 Clouds 9 1012 52 10000 8 250 14:50 21.09.2019
1552 Clouds 9 1012 52 10000 8 250 14:32 21.09.2019
1553 Rain 8 1012 49 10000 5 250 13:58 21.09.2019
1554 Clouds 9 1013 49 10000 5 240 13:40 21.09.2019
1555 Clouds 9 1013 49 10000 6 260 13:22 21.09.2019
1556 Clouds 8 1013 49 10000 6 260 12:56 21.09.2019
1557 Clouds 9 1013 49 10000 4 280 12:38 21.09.2019
1558 Clouds 9 1013 52 10000 4 280 12:20 21.09.2019
1559 Clouds 9 1013 52 10000 3 320 11:44 21.09.2019
1560 Clouds 8 1014 65 10000 4 270 11:24 21.09.2019
1561 Clouds 8 1014 65 10000 4 270 10:55 21.09.2019
1562 Clouds 8 1014 65 10000 4 270 10:37 21.09.2019
1563 Clouds 7 1014 75 10000 3 240 10:18 21.09.2019
1564 Clouds 6 1014 75 10000 2 240 09:40 21.09.2019
1565 Clouds 6 1014 75 10000 2 240 09:21 21.09.2019
1566 Clouds 5 1014 86 10000 2 230 08:59 21.09.2019
1567 Clouds 4 1014 100 10000 3 280 08:40 21.09.2019
1568 Clouds 4 1015 93 10000 3 270 07:55 21.09.2019
1569 Clouds 4 1015 93 10000 3 270 07:55 21.09.2019
1570 Clouds 3 1014 100 10000 2 270 07:37 21.09.2019
1571 Clouds 3 1014 100 9000 3 300 07:18 21.09.2019
1572 Clouds 3 1014 100 9000 2 270 06:35 21.09.2019
1573 Fog 3 1014 100 9000 3 310 05:51 21.09.2019
1574 Clear 3 1014 100 10000 3 300 04:39 21.09.2019
1575 Clear 3 1014 100 10000 3 300 04:39 21.09.2019
1576 Clear 3 1014 93 10000 3 320 03:25 21.09.2019
1577 Clear 4 1014 93 10000 3 310 02:23 21.09.2019
1578 Mist 4 1014 93 10000 3 310 01:47 21.09.2019
1579 Mist 4 1014 93 10000 3 310 01:23 21.09.2019
1580 Clear 5 1014 86 10000 3 330 00:23 21.09.2019
1581 Clear 5 1013 86 10000 3 320 23:49 20.09.2019
1582 Mist 5 1013 93 10000 3 310 23:30 20.09.2019
1583 Clear 5 1013 93 10000 3 300 22:55 20.09.2019
1584 Clear 5 1013 93 10000 3 300 22:55 20.09.2019
1585 Mist 6 1013 93 10000 2 310 22:36 20.09.2019
1586 Mist 6 1013 93 10000 2 310 22:18 20.09.2019
1587 Clear 6 1013 93 10000 3 310 21:54 20.09.2019
1588 Clear 6 1013 87 10000 3 310 21:36 20.09.2019
1589 Clear 6 1013 87 10000 3 290 21:18 20.09.2019
1590 Rain 6 1013 87 9000 2 280 20:41 20.09.2019
1591 Rain 6 1013 87 9000 2 280 20:20 20.09.2019
1592 Rain 6 1013 93 8000 1 0 19:56 20.09.2019
1593 Rain 6 1013 86 10000 1 270 19:37 20.09.2019
1594 Clear 6 1013 81 10000 1 0 19:19 20.09.2019
1595 Clouds 7 1012 81 10000 1 0 18:39 20.09.2019
1596 Rain 7 1013 81 10000 3 320 18:20 20.09.2019
1597 Rain 7 1013 81 10000 3 320 17:57 20.09.2019
1598 Rain 8 1012 81 10000 3 310 17:38 20.09.2019
1599 Rain 8 1012 81 10000 3 310 17:18 20.09.2019
1600 Clouds 9 1012 75 10000 3 250 16:41 20.09.2019
1601 Clouds 9 1012 70 10000 4 250 16:19 20.09.2019
1602 Clouds 9 1012 61 10000 1 0 15:43 20.09.2019
1603 Clouds 9 1012 61 10000 1 0 15:43 20.09.2019
1604 Clouds 9 1012 61 10000 1 0 15:23 20.09.2019
1605 Rain 9 1012 81 10000 5 200 14:58 20.09.2019
1606 Rain 9 1012 81 10000 5 200 14:38 20.09.2019
1607 Rain 11 991 54 0 1.74 352.183 14:18 20.09.2019
1608 Clouds 9 1012 81 10000 3 290 13:47 20.09.2019
1609 Clouds 9 1012 81 10000 3 290 13:27 20.09.2019
1610 Clouds 9 1012 81 10000 3 270 12:57 20.09.2019
1611 Clouds 9 1012 81 10000 3 270 12:36 20.09.2019
1612 Clouds 9 1012 81 10000 2 250 12:18 20.09.2019
1613 Rain 8 1012 81 10000 3 300 11:48 20.09.2019
1614 Rain 8 1012 81 10000 3 300 11:20 20.09.2019
1615 Clouds 8 1012 75 10000 2 280 10:43 20.09.2019
1616 Clouds 9 1012 75 10000 2 280 10:24 20.09.2019
1617 Clouds 8 1012 81 10000 2 220 09:55 20.09.2019
1618 Rain 8 1012 81 10000 2 200 09:36 20.09.2019
1619 Clouds 7 1012 87 10000 2 200 09:18 20.09.2019
1620 Clear 7 1012 87 10000 1 0 08:41 20.09.2019
1621 Clear 7 1012 87 10000 1 0 08:41 20.09.2019
1622 Clear 7 1012 87 10000 1 0 08:22 20.09.2019
1623 Mist 5 1012 93 10000 1 0 07:47 20.09.2019
1624 Mist 4 1012 100 10000 1 0 07:26 20.09.2019
1625 Mist 4 1012 93 9000 2 210 06:44 20.09.2019
1626 Mist 4 1012 93 9000 2 210 06:44 20.09.2019
1627 Mist 3 1012 93 9000 2 210 06:22 20.09.2019
1628 Mist 3 1012 93 9000 2 250 05:44 20.09.2019
1629 Clouds 4 1012 100 9000 1 0 03:42 20.09.2019
1630 Clouds 4 1012 100 9000 1 0 03:19 20.09.2019
1631 Clear 5 1012 100 10000 1 0 01:44 20.09.2019
1632 Clear 6 1012 93 10000 2 310 00:53 20.09.2019
1633 Clear 6 1012 93 10000 2 310 00:25 20.09.2019
1634 Rain 6 1012 93 10000 3 320 23:44 19.09.2019
1635 Rain 7 1012 93 10000 3 310 23:20 19.09.2019
1636 Rain 7 1012 93 10000 3 310 22:57 19.09.2019
1637 Clear 7 1012 87 10000 3 310 22:37 19.09.2019
1638 Clear 7 1012 87 10000 3 300 22:19 19.09.2019
1639 Rain 7 1012 81 10000 2 340 21:56 19.09.2019
1640 Rain 7 1012 81 10000 2 340 21:37 19.09.2019
1641 Rain 7 1012 81 10000 2 340 21:18 19.09.2019
1642 Clouds 7 1012 87 10000 2 20 20:43 19.09.2019
1643 Clouds 7 1012 87 10000 2 20 20:22 19.09.2019
1644 Clouds 7 1011 93 10000 2 320 19:56 19.09.2019
1645 Clouds 8 1011 93 10000 2 320 19:38 19.09.2019
1646 Rain 8 1011 87 10000 3 310 19:19 19.09.2019
1647 Rain 8 1011 81 8000 4 310 18:43 19.09.2019
1648 Clouds 9 1011 81 10000 2 330 18:24 19.09.2019
1649 Clouds 9 1011 81 10000 2 330 17:57 19.09.2019
1650 Clouds 10 1010 61 10000 3 330 17:39 19.09.2019
1651 Rain 10 1010 76 10000 5 320 17:21 19.09.2019
1652 Rain 10 1010 76 10000 5 320 16:57 19.09.2019
1653 Clouds 10 1010 70 10000 4 290 16:38 19.09.2019
1654 Clouds 10 1010 70 10000 4 290 16:18 19.09.2019
1655 Clouds 12 1009 62 10000 5 290 15:38 19.09.2019
1656 Clouds 11 1009 66 10000 5 290 15:18 19.09.2019
1657 Rain 11 1009 71 10000 5 300 14:42 19.09.2019
1658 Rain 11 1009 71 10000 5 300 14:23 19.09.2019
1659 Clouds 11 1009 81 10000 4 320 13:59 19.09.2019
1660 Clouds 11 1009 76 10000 3 330 13:39 19.09.2019
1661 Clouds 11 1008 62 10000 5 270 13:19 19.09.2019
1662 Clouds 11 1008 71 10000 6 270 12:40 19.09.2019
1663 Clouds 11 1008 66 10000 6 250 12:19 19.09.2019
1664 Clouds 11 1008 62 10000 5 270 11:57 19.09.2019
1665 Clouds 11 1008 62 10000 5 270 11:39 19.09.2019
1666 Clouds 11 1008 62 10000 5 270 11:19 19.09.2019
1667 Clouds 10 1007 71 10000 6 270 10:41 19.09.2019
1668 Clouds 10 1007 71 10000 5 300 10:22 19.09.2019
1669 Clouds 10 1007 71 10000 5 300 09:59 19.09.2019
1670 Clouds 9 1007 81 10000 5 300 09:41 19.09.2019
1671 Clouds 9 1007 81 10000 5 300 09:21 19.09.2019
1672 Clouds 9 1007 81 10000 5 290 08:56 19.09.2019
1673 Clouds 8 1006 87 10000 5 300 08:29 19.09.2019
1674 Clouds 8 1006 87 10000 6 310 07:57 19.09.2019
1675 Clouds 8 1005 87 10000 5 300 07:38 19.09.2019
1676 Clouds 8 1005 87 10000 5 300 07:38 19.09.2019
1677 Clouds 7 1005 93 10000 4 290 07:20 19.09.2019
1678 Clouds 7 1004 93 10000 3 300 06:45 19.09.2019
1679 Clouds 7 1004 93 10000 3 300 06:45 19.09.2019
1680 Clouds 7 1004 93 10000 4 300 06:25 19.09.2019
1681 Clouds 7 1003 93 10000 3 300 05:51 19.09.2019
1682 Clouds 7 1003 93 10000 4 300 04:43 19.09.2019
1683 Rain 7 1002 93 10000 4 290 03:51 19.09.2019
1684 Rain 7 1001 93 10000 3 310 02:27 19.09.2019
1685 Clouds 6 1001 93 10000 3 300 01:22 19.09.2019
1686 Clouds 6 1000 87 10000 3 300 00:49 19.09.2019
1687 Clouds 6 1000 87 10000 3 300 00:25 19.09.2019
1688 Clouds 6 1000 87 10000 3 300 00:25 19.09.2019
1689 Clouds 6 999 87 10000 3 310 23:42 18.09.2019
1690 Clouds 6 999 87 10000 3 310 23:21 18.09.2019
1691 Clouds 6 999 87 10000 3 300 22:47 18.09.2019
1692 Clear 7 999 81 10000 3 330 22:23 18.09.2019
1693 Clear 7 999 81 10000 3 330 21:59 18.09.2019
1694 Clear 7 999 81 10000 3 330 21:59 18.09.2019
1695 Clouds 7 999 87 10000 3 340 21:41 18.09.2019
1696 Clouds 7 998 81 10000 3 350 21:19 18.09.2019
1697 Clouds 7 998 81 10000 3 350 20:59 18.09.2019
1698 Clear 8 998 81 10000 3 340 20:40 18.09.2019
1699 Clouds 8 998 81 10000 3 330 20:22 18.09.2019
1700 Clouds 8 998 81 10000 3 330 19:59 18.09.2019
1701 Clouds 8 998 76 10000 3 320 19:41 18.09.2019
1702 Clear 9 998 71 10000 2 320 19:20 18.09.2019
1703 Clear 9 998 71 10000 2 320 19:20 18.09.2019
1704 Clear 9 998 71 10000 2 320 18:56 18.09.2019
1705 Rain 9 998 71 10000 2 340 18:38 18.09.2019
1706 Rain 9 998 71 10000 2 340 18:38 18.09.2019
1707 Rain 9 997 71 10000 1 360 18:19 18.09.2019
1708 Rain 9 997 71 10000 1 360 17:59 18.09.2019
1709 Clear 10 997 66 10000 2 350 17:40 18.09.2019
1710 Rain 10 997 62 10000 3 330 17:19 18.09.2019
1711 Rain 10 997 62 10000 3 330 16:56 18.09.2019
1712 Rain 10 997 66 10000 2 360 16:38 18.09.2019
1713 Rain 10 997 62 10000 3 360 16:19 18.09.2019
1714 Rain 10 997 62 10000 3 360 15:56 18.09.2019
1715 Rain 10 997 62 10000 3 20 15:37 18.09.2019
1716 Rain 10 997 62 10000 3 10 15:19 18.09.2019
1717 Rain 10 997 62 10000 3 10 14:57 18.09.2019
1718 Rain 10 997 62 10000 3 20 14:39 18.09.2019
1719 Rain 10 997 62 10000 3 20 14:21 18.09.2019
1720 Rain 11 997 58 10000 1 0 13:54 18.09.2019
1721 Rain 11 997 58 10000 3 250 13:36 18.09.2019
1722 Rain 11 997 58 10000 2 210 13:18 18.09.2019
1723 Rain 11 997 62 10000 1 0 12:37 18.09.2019
1724 Rain 12 997 66 10000 1 0 12:19 18.09.2019
1725 Clouds 12 997 76 10000 2 260 11:40 18.09.2019
1726 Clouds 11 997 76 10000 2 220 11:20 18.09.2019
1727 Clouds 11 997 76 10000 2 220 10:56 18.09.2019
1728 Clouds 11 997 81 10000 3 220 10:37 18.09.2019
1729 Clouds 11 997 81 10000 3 220 10:18 18.09.2019
1730 Clouds 10 997 87 10000 4 250 09:42 18.09.2019
1731 Clouds 10 997 87 10000 4 250 09:22 18.09.2019
1732 Clouds 10 997 87 10000 4 250 09:22 18.09.2019
1733 Clouds 10 997 87 10000 4 230 08:58 18.09.2019
1734 Clouds 9 997 87 10000 3 250 08:39 18.09.2019
1735 Clouds 9 997 87 10000 3 250 08:21 18.09.2019
1736 Clouds 8 997 93 10000 4 250 07:44 18.09.2019
1737 Clouds 8 997 93 10000 3 230 07:23 18.09.2019
1738 Clouds 8 997 100 10000 3 210 06:46 18.09.2019
1739 Clouds 8 997 100 10000 3 210 06:24 18.09.2019
1740 Rain 7 997 100 10000 3 220 05:27 18.09.2019
1741 Clouds 7 997 93 10000 5 250 03:42 18.09.2019
1742 Clouds 7 997 100 10000 3 230 02:40 18.09.2019
1743 Clouds 7 997 100 10000 2 240 01:50 18.09.2019
1744 Clouds 7 998 93 10000 4 240 00:56 18.09.2019
1745 Clear 7 997 93 10000 3 230 00:33 18.09.2019
1746 Clouds 7 998 93 10000 5 260 23:48 17.09.2019
1747 Clouds 7 998 93 10000 5 260 23:48 17.09.2019
1748 Clouds 7 998 93 10000 5 260 23:25 17.09.2019
1749 Clouds 8 998 93 10000 5 250 22:59 17.09.2019
1750 Clouds 8 998 93 10000 5 250 22:41 17.09.2019
1751 Clouds 8 998 93 10000 5 250 22:22 17.09.2019
1752 Clouds 8 998 93 10000 5 250 21:54 17.09.2019
1753 Clouds 8 998 93 10000 5 250 21:36 17.09.2019
1754 Clouds 8 998 93 10000 5 250 21:18 17.09.2019
1755 Clouds 8 998 93 10000 5 250 21:18 17.09.2019
1756 Clouds 8 998 93 10000 5 250 21:18 17.09.2019
1757 Rain 8 998 93 10000 6 250 20:56 17.09.2019
1758 Clouds 8 998 93 10000 5 260 20:38 17.09.2019
1759 Rain 8 997 87 10000 5 260 20:19 17.09.2019
1760 Rain 8 997 87 10000 5 260 19:57 17.09.2019
1761 Rain 9 998 87 9000 6 270 19:38 17.09.2019
1762 Rain 10 997 81 9000 6 250 19:18 17.09.2019
1763 Rain 10 997 76 10000 6 250 18:43 17.09.2019
1764 Clouds 11 997 76 10000 7 240 18:22 17.09.2019
1765 Clouds 11 997 76 10000 5 250 17:56 17.09.2019
1766 Clouds 11 997 76 10000 5 250 17:38 17.09.2019
1767 Clouds 11 997 71 10000 7 250 17:19 17.09.2019
1768 Clouds 11 997 71 10000 7 250 16:54 17.09.2019
1769 Rain 12 997 76 10000 8 250 16:36 17.09.2019
1770 Rain 12 997 76 10000 8 250 16:18 17.09.2019
1771 Clouds 12 996 66 10000 8 250 15:38 17.09.2019
1772 Clouds 12 996 66 10000 8 240 15:19 17.09.2019
1773 Clouds 12 996 66 10000 8 240 14:56 17.09.2019
1774 Clouds 12 996 66 10000 9 250 14:37 17.09.2019
1775 Clouds 12 996 66 10000 9 250 14:19 17.09.2019
1776 Clouds 12 996 66 10000 7 270 13:43 17.09.2019
1777 Clouds 12 996 66 10000 7 270 13:25 17.09.2019
1778 Clouds 12 996 66 10000 7 270 13:25 17.09.2019
1779 Rain 11 996 76 10000 8 250 12:56 17.09.2019
1780 Rain 11 996 76 10000 8 250 12:38 17.09.2019
1781 Rain 11 996 76 10000 9 250 12:18 17.09.2019
1782 Rain 11 996 76 10000 8 250 11:43 17.09.2019
1783 Rain 11 996 76 10000 8 250 11:25 17.09.2019
1784 Rain 10 997 93 10000 6 260 10:56 17.09.2019
1785 Rain 10 997 93 10000 6 260 10:38 17.09.2019
1786 Rain 10 996 81 10000 9 250 10:20 17.09.2019
1787 Rain 10 996 81 10000 8 250 09:42 17.09.2019
1788 Rain 10 995 81 10000 8 250 09:23 17.09.2019
1789 Rain 10 995 81 10000 8 250 08:57 17.09.2019
1790 Rain 10 995 81 10000 8 250 08:38 17.09.2019
1791 Rain 10 995 81 10000 8 250 08:19 17.09.2019
1792 Clouds 10 995 81 10000 7 240 07:42 17.09.2019
1793 Clouds 10 995 81 10000 7 240 07:24 17.09.2019
1794 Clouds 10 995 87 10000 7 240 06:51 17.09.2019
1795 Clouds 9 995 87 10000 7 240 06:25 17.09.2019
1796 Clouds 9 995 87 10000 7 240 05:51 17.09.2019
1797 Clouds 9 995 87 10000 6 250 04:32 17.09.2019
1798 Clouds 9 995 87 10000 7 250 03:34 17.09.2019
1799 Clouds 9 995 87 10000 7 250 02:39 17.09.2019
1800 Clouds 10 995 87 10000 7 240 01:34 17.09.2019
1801 Clouds 10 996 87 10000 7 240 00:45 17.09.2019
1802 Clear 10 996 87 10000 6 250 23:41 16.09.2019
1803 Clouds 10 996 87 10000 7 240 23:20 16.09.2019
1804 Clouds 10 996 87 10000 7 240 22:58 16.09.2019
1805 Clouds 10 996 87 10000 7 230 22:40 16.09.2019
1806 Clear 11 996 81 10000 8 240 22:21 16.09.2019
1807 Clear 11 996 81 10000 8 240 22:21 16.09.2019
1808 Clear 11 996 81 10000 8 240 21:56 16.09.2019
1809 Clouds 11 996 81 10000 8 240 21:38 16.09.2019
1810 Clouds 11 996 81 10000 9 240 21:19 16.09.2019
1811 Clouds 11 996 81 10000 6 230 20:42 16.09.2019
1812 Clear 11 996 81 10000 6 230 20:23 16.09.2019
1813 Clear 11 996 81 10000 6 230 19:58 16.09.2019
1814 Clear 11 997 76 10000 6 230 19:40 16.09.2019
1815 Clouds 11 997 76 10000 6 230 19:20 16.09.2019
1816 Clouds 11 997 81 10000 6 240 18:56 16.09.2019
1817 Clouds 11 997 81 10000 6 240 18:37 16.09.2019
1818 Clouds 12 996 87 10000 5 240 18:18 16.09.2019
1819 Clouds 13 996 81 9000 8 250 17:43 16.09.2019
1820 Clouds 13 996 81 9000 8 250 17:24 16.09.2019
1821 Rain 14 996 62 10000 9 240 16:58 16.09.2019
1822 Rain 14 996 62 10000 9 240 16:39 16.09.2019
1823 Rain 14 996 62 10000 9 240 16:20 16.09.2019
1824 Rain 14 996 67 10000 8 240 15:56 16.09.2019
1825 Rain 14 996 67 10000 8 240 15:56 16.09.2019
1826 Clouds 14 996 62 10000 10 250 15:37 16.09.2019
1827 Clouds 14 996 58 10000 11 240 15:19 16.09.2019
1828 Rain 14 996 54 10000 9 240 14:44 16.09.2019
1829 Rain 14 996 54 10000 9 240 14:24 16.09.2019
1830 Rain 14 996 58 10000 9 260 13:59 16.09.2019
1831 Clouds 14 996 62 10000 9 250 13:39 16.09.2019
1832 Clouds 14 996 71 10000 7 260 13:21 16.09.2019
1833 Rain 13 996 87 10000 5 270 12:46 16.09.2019
1834 Rain 12 996 87 10000 5 270 12:27 16.09.2019
1835 Rain 13 996 76 9000 8 260 11:58 16.09.2019
1836 Rain 13 996 66 10000 9 250 11:40 16.09.2019
1837 Clouds 14 996 67 10000 8 250 11:21 16.09.2019
1838 Clouds 13 996 71 10000 8 250 10:40 16.09.2019
1839 Clouds 13 996 71 10000 8 250 10:40 16.09.2019
1840 Clouds 13 996 71 10000 8 250 10:21 16.09.2019
1841 Rain 13 996 76 10000 10 250 09:58 16.09.2019
1842 Rain 13 996 71 10000 9 240 09:40 16.09.2019
1843 Rain 13 996 71 10000 9 240 09:40 16.09.2019
1844 Rain 13 996 71 10000 9 240 09:20 16.09.2019
1845 Rain 12 996 81 10000 8 240 08:47 16.09.2019
1846 Rain 12 996 81 10000 8 240 08:28 16.09.2019
1847 Rain 11 997 81 10000 8 240 07:57 16.09.2019
1848 Clouds 11 997 87 10000 7 240 07:39 16.09.2019
1849 Clouds 11 997 87 10000 6 230 07:20 16.09.2019
1850 Clouds 10 997 87 10000 7 230 06:48 16.09.2019
1851 Clouds 10 997 87 10000 7 230 06:30 16.09.2019
1852 Clouds 10 997 93 10000 7 230 05:54 16.09.2019
1853 Clouds 10 997 93 10000 7 230 05:35 16.09.2019
1854 Rain 10 997 93 10000 7 230 04:55 16.09.2019
1855 Rain 10 998 93 10000 7 230 03:33 16.09.2019
1856 Rain 9 1001 93 10000 7 210 00:44 16.09.2019
1857 Rain 9 1001 93 10000 7 210 00:26 16.09.2019
1858 Rain 9 1001 93 8000 6 210 23:56 15.09.2019
1859 Rain 9 1002 93 10000 6 210 23:37 15.09.2019
1860 Rain 9 1003 93 10000 4 200 23:18 15.09.2019
1861 Rain 9 1003 87 10000 4 230 22:38 15.09.2019
1862 Rain 9 1003 87 10000 4 230 22:19 15.09.2019
1863 Rain 9 1005 93 5000 8 230 21:56 15.09.2019
1864 Rain 9 1005 93 5000 8 230 21:38 15.09.2019
1865 Rain 9 1005 93 5000 8 230 21:38 15.09.2019
1866 Rain 9 1005 93 9000 5 200 21:19 15.09.2019
1867 Rain 9 1006 93 7000 6 210 20:45 15.09.2019
1868 Rain 9 1006 93 7000 6 210 20:26 15.09.2019
1869 Rain 9 1007 93 8000 5 200 19:56 15.09.2019
1870 Rain 9 1008 93 10000 4 210 19:38 15.09.2019
1871 Rain 9 1008 93 10000 4 210 19:38 15.09.2019
1872 Rain 10 1008 81 9000 6 220 19:19 15.09.2019
1873 Rain 11 1009 66 9000 6 220 18:40 15.09.2019
1874 Rain 11 1009 54 10000 5 210 18:22 15.09.2019
1875 Clear 12 1010 54 10000 4 200 17:43 15.09.2019
1876 Clear 12 1010 54 10000 4 200 17:23 15.09.2019
1877 Clear 12 1010 54 10000 4 210 16:59 15.09.2019
1878 Clear 12 1011 54 10000 4 220 16:41 15.09.2019
1879 Clear 12 1011 54 10000 4 220 16:22 15.09.2019
1880 Clouds 13 1012 54 10000 5 220 15:57 15.09.2019
1881 Clouds 13 1012 54 10000 6 240 15:38 15.09.2019
1882 Clouds 13 1013 54 10000 7 240 15:19 15.09.2019
1883 Clouds 13 1013 54 10000 7 240 15:19 15.09.2019
1884 Clouds 13 1013 58 10000 6 230 14:55 15.09.2019
1885 Clouds 13 1013 54 10000 7 240 14:55 15.09.2019
1886 Clouds 13 1013 54 10000 7 240 14:55 15.09.2019
1887 Clouds 13 1013 58 10000 6 230 14:37 15.09.2019
1888 Clouds 13 1013 58 10000 6 250 14:19 15.09.2019
1889 Clouds 12 1014 58 10000 6 250 13:43 15.09.2019
1890 Clouds 13 1014 58 10000 6 250 13:22 15.09.2019
1891 Clouds 12 1014 58 10000 6 250 13:22 15.09.2019
1892 Clouds 12 1014 62 10000 6 280 12:43 15.09.2019
1893 Clouds 12 1015 66 10000 6 260 12:25 15.09.2019
1894 Clouds 12 1015 66 10000 6 260 12:25 15.09.2019
1895 Clouds 12 1015 66 10000 6 260 11:59 15.09.2019
1896 Clouds 11 1015 71 10000 6 250 11:41 15.09.2019
1897 Clouds 11 1015 71 10000 6 250 11:21 15.09.2019
1898 Clouds 11 1015 76 10000 7 250 10:47 15.09.2019
1899 Clouds 10 1015 81 10000 5 250 10:23 15.09.2019
1900 Clouds 10 1015 81 10000 5 250 09:59 15.09.2019
1901 Clouds 9 1015 76 10000 4 280 09:39 15.09.2019
1902 Clouds 9 1015 76 10000 5 270 09:19 15.09.2019
1903 Clouds 8 1015 87 10000 4 280 08:46 15.09.2019
1904 Clouds 8 1015 87 10000 4 280 08:27 15.09.2019
1905 Clouds 8 1015 87 10000 4 280 07:49 15.09.2019
1906 Clouds 7 1015 93 10000 4 270 07:28 15.09.2019
1907 Clouds 7 1015 100 10000 4 250 06:43 15.09.2019
1908 Clear 7 1015 87 10000 4 270 03:31 15.09.2019
1909 Clear 7 1015 93 10000 3 260 02:41 15.09.2019
1910 Clear 7 1015 93 10000 4 260 01:41 15.09.2019
1911 Clear 7 1015 87 10000 5 250 01:19 15.09.2019
1912 Clear 7 1015 87 10000 4 250 00:43 15.09.2019
1913 Clear 7 1015 81 10000 3 270 00:22 15.09.2019
1914 Clear 7 1015 81 10000 3 270 23:58 14.09.2019
1915 Clear 8 1015 81 10000 5 260 23:40 14.09.2019
1916 Clear 8 1016 81 10000 4 270 23:21 14.09.2019
1917 Clear 8 1016 81 10000 4 270 22:59 14.09.2019
1918 Clear 8 1016 76 10000 5 280 22:40 14.09.2019
1919 Clear 8 1016 76 10000 5 280 22:21 14.09.2019
1920 Rain 9 1015 76 10000 5 270 21:57 14.09.2019
1921 Clear 9 1015 66 10000 5 280 21:39 14.09.2019
1922 Rain 10 1015 66 10000 4 280 21:19 14.09.2019
1923 Clear 10 1015 76 10000 3 260 20:55 14.09.2019
1924 Clear 10 1015 76 10000 3 260 20:36 14.09.2019
1925 Clear 10 1016 70 10000 4 260 20:18 14.09.2019
1926 Clouds 11 1016 66 10000 4 270 19:44 14.09.2019
1927 Clouds 11 1016 71 10000 4 260 19:21 14.09.2019
1928 Clouds 11 1016 71 10000 4 260 18:55 14.09.2019
1929 Clouds 12 1016 57 10000 4 260 18:37 14.09.2019
1930 Clouds 12 1015 57 10000 4 290 18:18 14.09.2019
1931 Clouds 13 1016 54 10000 5 310 17:42 14.09.2019
1932 Rain 14 1015 54 10000 5 300 17:22 14.09.2019
1933 Clouds 15 1015 47 10000 8 290 16:47 14.09.2019
1934 Clouds 14 1015 47 10000 8 290 16:26 14.09.2019
1935 Rain 15 1015 44 10000 9 280 15:58 14.09.2019
1936 Clouds 16 1014 44 10000 8 270 15:40 14.09.2019
1937 Clouds 16 1014 44 10000 8 270 15:20 14.09.2019
1938 Rain 16 1014 44 9000 9 290 14:44 14.09.2019
1939 Clear 16 1014 41 10000 6 290 14:19 14.09.2019
1940 Clear 16 1014 41 10000 6 290 13:55 14.09.2019
1941 Clear 16 1014 39 10000 6 290 13:37 14.09.2019
1942 Clouds 16 1014 36 10000 7 280 13:18 14.09.2019
1943 Clear 15 1013 44 10000 7 290 12:40 14.09.2019
1944 Clouds 15 1013 50 10000 8 300 12:18 14.09.2019
1945 Clouds 14 1013 47 10000 7 300 11:40 14.09.2019
1946 Clouds 14 1013 51 10000 6 290 11:20 14.09.2019
1947 Rain 14 1012 62 10000 7 290 10:39 14.09.2019
1948 Rain 14 1012 62 10000 7 290 10:21 14.09.2019
1949 Clouds 14 1012 71 10000 4 280 09:58 14.09.2019
1950 Clouds 13 1012 81 10000 6 270 09:39 14.09.2019
1951 Rain 14 1012 71 10000 8 270 09:19 14.09.2019
1952 Clouds 13 1011 71 10000 9 270 08:47 14.09.2019
1953 Clouds 14 1011 71 10000 9 270 08:25 14.09.2019
1954 Clouds 13 1010 71 10000 7 270 07:48 14.09.2019
1955 Clouds 13 1010 71 10000 7 270 07:29 14.09.2019
1956 Clouds 13 1010 71 10000 9 260 06:53 14.09.2019
1957 Clouds 13 1010 71 10000 9 260 06:31 14.09.2019
1958 Clear 14 1009 71 10000 9 270 05:27 14.09.2019
1959 Rain 16 1008 72 10000 8 230 03:47 14.09.2019
1960 Rain 16 1008 67 10000 6 230 02:55 14.09.2019
1961 Rain 16 1008 67 10000 6 230 02:55 14.09.2019
1962 Rain 16 1009 63 10000 6 220 01:59 14.09.2019
1963 Clouds 16 1009 67 10000 5 210 01:39 14.09.2019
1964 Rain 16 1010 72 10000 6 210 01:18 14.09.2019
1965 Clear 16 1011 63 10000 4 210 00:39 14.09.2019
1966 Clear 16 1011 63 10000 5 220 00:21 14.09.2019
1967 Clear 16 1011 63 10000 5 220 00:21 14.09.2019
1968 Clear 16 1012 59 10000 6 230 23:38 13.09.2019
1969 Clear 16 1012 59 10000 6 230 23:38 13.09.2019
1970 Clear 17 1012 59 10000 4 220 23:20 13.09.2019
1971 Clear 17 1012 59 10000 4 220 22:59 13.09.2019
1972 Clear 17 1013 59 10000 4 220 22:39 13.09.2019
1973 Clear 17 1013 59 10000 4 220 22:20 13.09.2019
1974 Clear 17 1013 59 10000 4 220 21:56 13.09.2019
1975 Clear 17 1014 59 10000 4 220 21:37 13.09.2019
1976 Clear 17 1014 59 10000 4 220 21:19 13.09.2019
1977 Clear 17 1014 59 10000 4 220 20:55 13.09.2019
1978 Clear 18 1015 55 10000 3 220 20:36 13.09.2019
1979 Clear 18 1015 52 10000 4 240 20:18 13.09.2019
1980 Clear 18 1015 52 10000 5 240 19:42 13.09.2019
1981 Clear 19 1016 55 10000 4 250 19:21 13.09.2019
1982 Clear 19 1016 55 10000 4 260 18:58 13.09.2019
1983 Clear 19 1016 55 10000 4 260 18:37 13.09.2019
1984 Clear 19 1016 55 10000 4 260 18:37 13.09.2019
1985 Clear 20 1016 48 10000 5 260 18:19 13.09.2019
1986 Clear 20 1016 48 10000 5 260 17:43 13.09.2019
1987 Clear 21 1017 42 10000 8 270 17:20 13.09.2019
1988 Clear 21 1017 42 10000 8 270 16:55 13.09.2019
1989 Clear 21 1017 42 10000 8 270 16:55 13.09.2019
1990 Clear 22 1017 45 10000 8 260 16:37 13.09.2019
1991 Clear 22 1017 37 10000 7 250 16:18 13.09.2019
1992 Clear 22 1017 37 10000 7 250 16:18 13.09.2019
1993 Clear 22 1017 43 10000 8 250 15:41 13.09.2019
1994 Clear 23 1018 40 10000 8 250 15:23 13.09.2019
1995 Clear 23 1018 40 10000 8 260 14:44 13.09.2019
1996 Clear 23 1018 40 10000 8 260 14:23 13.09.2019
1997 Clear 23 1018 46 10000 7 270 13:59 13.09.2019
1998 Clouds 23 1018 43 10000 7 270 13:40 13.09.2019
1999 Clouds 23 1018 43 10000 7 270 13:40 13.09.2019
2000 Clouds 23 1018 40 10000 8 250 13:21 13.09.2019
2001 Clouds 23 1018 43 10000 8 250 12:45 13.09.2019
2002 Clouds 23 1018 43 10000 8 250 12:24 13.09.2019
2003 Clear 23 1019 43 10000 6 240 11:57 13.09.2019
2004 Clear 23 1019 43 10000 6 240 11:20 13.09.2019
2005 Clear 22 1020 49 10000 1 190 10:54 13.09.2019
2006 Clear 22 1020 49 10000 1 190 10:36 13.09.2019
2007 Clear 21 1020 49 10000 4 250 10:18 13.09.2019
2008 Clear 19 1020 52 10000 4 240 09:42 13.09.2019
2009 Clear 19 1020 52 10000 4 240 09:19 13.09.2019
2010 Clear 17 1020 55 10000 3 230 08:42 13.09.2019
2011 Clear 17 1020 55 10000 3 230 08:21 13.09.2019
2012 Clear 17 1020 55 10000 3 230 08:21 13.09.2019
2013 Clear 17 1020 55 10000 3 230 08:21 13.09.2019
2014 Clear 16 1020 59 10000 3 220 07:59 13.09.2019
2015 Clear 15 1020 58 10000 4 220 07:40 13.09.2019
2016 Clear 12 1020 62 10000 3 220 06:55 13.09.2019
2017 Clear 12 1020 62 10000 3 220 06:37 13.09.2019
2018 Clear 12 1021 66 10000 2 190 05:32 13.09.2019
2019 Clear 14 1022 54 10000 2 220 03:48 13.09.2019
2020 Clear 14 1022 54 10000 2 220 03:24 13.09.2019
2021 Clear 15 1022 48 10000 3 230 02:19 13.09.2019
2022 Clear 15 1022 54 10000 3 240 01:36 13.09.2019
2023 Clear 15 1022 51 10000 4 240 00:59 13.09.2019
2024 Clear 16 1022 48 10000 3 220 00:34 13.09.2019
2025 Clear 16 1023 48 10000 3 220 23:48 12.09.2019
2026 Clear 16 1023 48 10000 3 220 23:25 12.09.2019
2027 Clear 16 1023 45 10000 3 220 22:58 12.09.2019
2028 Clear 16 1023 45 10000 4 210 22:39 12.09.2019
2029 Clear 16 1023 45 10000 3 220 22:21 12.09.2019
2030 Clear 16 1023 45 10000 3 220 21:55 12.09.2019
2031 Clear 17 1023 42 10000 4 210 21:37 12.09.2019
2032 Clear 17 1024 37 10000 4 210 21:18 12.09.2019
2033 Clear 18 1024 35 10000 3 200 20:44 12.09.2019
2034 Clear 18 1024 35 10000 3 200 20:22 12.09.2019
2035 Clear 19 1024 30 10000 3 190 19:57 12.09.2019
2036 Clear 20 1024 30 10000 3 190 19:39 12.09.2019
2037 Clear 20 1024 30 10000 3 200 19:19 12.09.2019
2038 Clear 20 1024 30 10000 3 200 18:56 12.09.2019
2039 Clear 21 1024 30 10000 3 200 18:36 12.09.2019
2040 Clear 22 1024 27 10000 3 200 18:18 12.09.2019
2041 Clear 23 1024 25 10000 4 210 17:40 12.09.2019
2042 Clear 24 1024 23 10000 5 220 17:20 12.09.2019
2043 Clear 24 1024 23 10000 5 220 16:56 12.09.2019
2044 Clear 25 1025 22 10000 6 220 16:38 12.09.2019
2045 Clear 25 1025 22 10000 6 220 16:19 12.09.2019
2046 Clear 26 1025 21 10000 6 220 15:41 12.09.2019
2047 Clear 26 1025 19 10000 7 210 15:23 12.09.2019
2048 Clear 26 1026 21 10000 5 230 14:46 12.09.2019
2049 Clear 26 1026 21 10000 5 230 14:22 12.09.2019
2050 Clear 26 1026 22 10000 5 230 13:58 12.09.2019
2051 Clear 27 1026 22 10000 6 240 13:38 12.09.2019
2052 Clear 27 1026 22 10000 6 240 13:19 12.09.2019
2053 Clear 26 1027 22 10000 5 220 12:45 12.09.2019
2054 Clear 25 1027 25 10000 4 220 12:19 12.09.2019
2055 Clear 25 1027 25 10000 4 220 12:19 12.09.2019
2056 Clear 25 1027 25 10000 4 220 11:57 12.09.2019
2057 Clear 24 1027 29 10000 3 210 11:39 12.09.2019
2058 Clear 24 1027 33 10000 3 210 11:19 12.09.2019
2059 Clear 23 1027 37 10000 3 230 10:45 12.09.2019
2060 Clear 23 1027 37 10000 3 230 10:26 12.09.2019
2061 Clear 21 1027 37 10000 3 220 09:45 12.09.2019
2062 -273 0 0 0 0 0 09:25 12.09.2019
2063 Clear 19 1028 45 10000 3 210 08:59 12.09.2019
2064 Clear 18 1028 52 10000 3 210 08:40 12.09.2019
2065 Clear 18 1028 52 10000 3 210 08:22 12.09.2019
2066 Clear 15 1028 59 10000 2 220 07:44 12.09.2019
2067 Clear 14 1028 59 10000 2 220 07:20 12.09.2019
2068 Clear 12 1028 62 10000 1 0 06:51 12.09.2019
2069 Clear 12 1028 62 10000 1 0 06:29 12.09.2019
2070 Clouds 12 1028 67 9000 1 0 05:51 12.09.2019
2071 Clouds 12 1028 67 9000 1 0 05:33 12.09.2019
2072 Clouds 13 1028 62 9000 2 210 04:41 12.09.2019
2073 Clear 14 1028 67 10000 1 310 02:59 12.09.2019
2074 Clear 15 1028 59 10000 1 220 01:38 12.09.2019
2075 Clear 15 1028 59 10000 1 0 01:19 12.09.2019
2076 Clear 15 1028 59 10000 1 330 00:45 12.09.2019
2077 Clear 15 1028 59 10000 1 330 00:25 12.09.2019
2078 Clear 15 1028 55 10000 1 0 23:43 11.09.2019
2079 Clear 15 1028 55 10000 1 0 23:24 11.09.2019
2080 Mist 16 1028 55 10000 1 0 22:57 11.09.2019
2081 Mist 16 1028 55 10000 1 0 22:38 11.09.2019
2082 Mist 16 1028 55 10000 1 330 22:19 11.09.2019
2083 Mist 16 1028 55 10000 1 330 21:55 11.09.2019
2084 Clear 17 1028 52 10000 1 330 21:36 11.09.2019
2085 Clear 18 1028 37 10000 2 200 21:18 11.09.2019
2086 Clear 18 1028 37 10000 2 200 20:54 11.09.2019
2087 Clear 18 1028 37 10000 2 200 20:36 11.09.2019
2088 Clear 19 1028 37 10000 2 190 20:18 11.09.2019
2089 Clear 20 1028 35 10000 2 190 19:42 11.09.2019
2090 Clear 20 1028 33 10000 3 190 19:22 11.09.2019
2091 Clear 20 1028 33 10000 3 190 18:59 11.09.2019
2092 Clear 20 1028 33 10000 3 190 18:59 11.09.2019
2093 Clear 22 1028 35 10000 2 180 18:40 11.09.2019
2094 Clear 23 1028 31 10000 2 200 18:22 11.09.2019
2095 Clear 24 1028 29 10000 3 200 17:57 11.09.2019
2096 Clear 24 1028 29 10000 3 200 17:38 11.09.2019
2097 Clear 24 1028 29 10000 3 200 17:20 11.09.2019
2098 Clear 25 1028 27 10000 4 210 16:54 11.09.2019
2099 Clear 25 1028 27 10000 4 210 16:36 11.09.2019
2100 Clear 26 1028 24 10000 4 230 16:18 11.09.2019
2101 Clear 26 1029 24 10000 5 220 15:43 11.09.2019
2102 Clear 26 1029 24 10000 5 220 15:20 11.09.2019
2103 Clear 26 1029 24 10000 5 220 14:57 11.09.2019
2104 Clear 26 1029 24 10000 5 210 14:37 11.09.2019
2105 Clear 26 1029 24 10000 4 210 14:18 11.09.2019
2106 Clear 27 1029 26 10000 5 210 13:40 11.09.2019
2107 Clear 26 1029 26 10000 5 210 13:21 11.09.2019
2108 Clear 26 1029 29 10000 5 180 12:59 11.09.2019
2109 Clear 26 1029 29 10000 5 180 12:59 11.09.2019
2110 Clear 26 1029 31 10000 4 220 12:38 11.09.2019
2111 Clear 26 1029 31 10000 4 220 12:20 11.09.2019
2112 Clear 26 1029 31 10000 4 220 12:20 11.09.2019
2113 Clear 25 1029 38 10000 3 180 11:41 11.09.2019
2114 Clear 25 1029 38 10000 3 180 11:22 11.09.2019
2115 Clear 24 1030 41 10000 3 210 10:59 11.09.2019
2116 Clear 22 1030 46 10000 3 190 10:40 11.09.2019
2117 Clear 22 1030 46 10000 3 190 10:40 11.09.2019
2118 Clear 22 1030 49 10000 3 200 10:20 11.09.2019
2119 Clear 20 1030 56 10000 2 210 09:40 11.09.2019
2120 Clear 20 1030 56 10000 2 210 09:20 11.09.2019
2121 Clear 19 1029 64 10000 1 0 08:59 11.09.2019
2122 Clear 18 1029 72 10000 2 170 08:39 11.09.2019
2123 Clouds 17 1029 72 9000 1 0 08:20 11.09.2019
2124 Clouds 16 1029 82 8000 1 0 07:41 11.09.2019
2125 Clouds 15 1029 87 7000 1 0 07:22 11.09.2019
2126 Clouds 14 1029 93 6000 2 110 06:50 11.09.2019
2127 Clouds 14 1029 93 6000 2 110 06:32 11.09.2019
2128 Mist 13 1029 100 5000 1 90 05:42 11.09.2019
2129 Mist 13 1029 100 5000 1 90 05:23 11.09.2019
2130 Clouds 13 1029 100 6000 1 0 04:42 11.09.2019
2131 Clouds 13 1029 93 6000 2 70 03:33 11.09.2019
2132 Mist 14 1029 100 8000 2 80 02:46 11.09.2019
2133 Mist 14 1029 100 7000 2 80 02:18 11.09.2019
2134 Mist 15 1028 93 9000 2 70 00:52 11.09.2019
2135 Clouds 15 1028 87 9000 2 90 00:26 11.09.2019
2136 Clouds 15 1028 87 9000 2 90 23:56 10.09.2019
2137 Mist 15 1028 87 9000 2 90 23:37 10.09.2019
2138 Clouds 16 1028 82 9000 2 80 23:19 10.09.2019
2139 Clouds 16 1028 82 9000 2 80 23:19 10.09.2019
2140 Mist 16 1028 82 9000 1 0 22:41 10.09.2019
2141 Mist 16 1028 82 9000 1 0 22:20 10.09.2019
2142 Mist 16 1028 87 8000 2 120 21:56 10.09.2019
2143 Mist 17 1028 77 10000 2 120 21:38 10.09.2019
2144 Mist 18 1028 68 10000 2 140 21:20 10.09.2019
2145 Mist 18 1028 68 10000 2 140 20:58 10.09.2019
2146 Clear 18 1028 68 10000 2 140 20:39 10.09.2019
2147 Clear 18 1028 68 10000 2 140 20:21 10.09.2019
2148 Clear 19 1028 63 10000 3 150 19:57 10.09.2019
2149 Clear 19 1028 68 10000 3 130 19:37 10.09.2019
2150 Clear 20 1028 56 10000 3 120 19:19 10.09.2019
2151 Clear 21 1028 56 10000 2 140 18:55 10.09.2019
2152 Clear 21 1028 56 10000 2 140 18:37 10.09.2019
2153 Clear 22 1028 49 10000 2 170 18:19 10.09.2019
2154 Clear 23 1027 43 10000 1 0 17:44 10.09.2019
2155 Clear 24 1027 38 10000 3 180 17:23 10.09.2019
2156 Clear 24 1027 38 10000 3 180 16:59 10.09.2019
2157 Clear 24 1027 33 10000 3 160 16:40 10.09.2019
2158 Clear 24 1027 33 10000 3 160 16:21 10.09.2019
2159 Clear 24 1027 36 10000 4 150 16:21 10.09.2019
2160 Clear 24 1027 36 10000 4 150 15:59 10.09.2019
2161 Clear 25 1027 38 10000 3 190 15:40 10.09.2019
2162 Clear 25 1027 38 10000 3 190 15:20 10.09.2019
2163 Clear 25 1028 36 10000 3 160 14:42 10.09.2019
2164 Clear 25 1028 36 10000 3 160 14:24 10.09.2019
2165 Clear 24 1028 33 10000 3 120 13:59 10.09.2019
2166 Clear 24 1028 36 10000 2 160 13:40 10.09.2019
2167 Clear 24 1028 36 10000 2 160 13:40 10.09.2019
2168 Clear 25 1028 36 10000 2 160 13:22 10.09.2019
2169 Clear 25 1028 36 10000 2 160 13:22 10.09.2019
2170 Clouds 24 1028 41 10000 3 110 12:49 10.09.2019
2171 Clear 23 1028 49 10000 3 120 12:27 10.09.2019
2172 Clear 23 1028 53 10000 3 130 11:58 10.09.2019
2173 Clear 23 1028 53 10000 3 130 11:39 10.09.2019
2174 Clear 23 1028 53 10000 3 70 11:21 10.09.2019
2175 Clear 22 1028 60 10000 3 90 10:42 10.09.2019
2176 Clear 21 1028 64 10000 3 80 10:20 10.09.2019
2177 Clear 21 1028 64 10000 3 80 09:57 10.09.2019
2178 Clear 21 1029 64 10000 2 80 09:39 10.09.2019
2179 Clear 19 1029 68 10000 2 60 09:19 10.09.2019
2180 Mist 18 1029 77 10000 2 80 08:45 10.09.2019
2181 Mist 18 1029 77 10000 2 80 08:27 10.09.2019
2182 Mist 15 1028 87 10000 1 0 07:55 10.09.2019
2183 -273 0 0 0 0 0 07:55 10.09.2019
2184 Mist 15 1028 87 10000 1 0 07:37 10.09.2019
2185 Mist 13 1028 87 10000 1 0 07:18 10.09.2019
2186 Mist 12 1028 93 10000 1 0 06:39 10.09.2019
2187 Mist 11 1028 100 10000 1 0 06:18 10.09.2019
2188 Mist 12 1028 93 10000 1 0 04:18 10.09.2019
2189 Mist 12 1028 93 10000 1 340 02:38 10.09.2019
2190 Mist 12 1028 93 10000 1 340 02:38 10.09.2019
2191 Clear 13 1028 93 10000 1 0 02:19 10.09.2019
2192 Clear 12 1028 93 10000 1 0 01:50 10.09.2019
2193 Clear 12 1028 93 10000 1 0 01:50 10.09.2019
2194 Clear 12 1028 93 10000 1 0 01:50 10.09.2019
2195 Clear 13 1028 93 10000 1.4 112.082 01:22 10.09.2019
2196 Clear 13 1028 87 10000 1 350 00:34 10.09.2019
2197 Clear 14 1028 87 10000 1 0 23:56 09.09.2019
2198 Clear 14 1028 87 10000 1 0 23:36 09.09.2019
2199 Clear 15 1028 82 10000 1 0 23:18 09.09.2019
2200 Clear 14 1028 82 10000 1 0 22:54 09.09.2019
2201 Clear 14 1028 82 10000 1 0 22:36 09.09.2019
2202 Clear 15 1028 82 10000 1 10 22:18 09.09.2019
2203 Clear 15 1028 82 10000 1 10 21:54 09.09.2019
2204 Clear 16 1028 77 10000 1 0 21:36 09.09.2019
2205 Clear 16 1028 82 10000 1 350 21:18 09.09.2019
2206 Clear 17 1028 72 10000 1 0 20:54 09.09.2019
2207 Clear 17 1028 72 10000 1 0 20:36 09.09.2019
2208 Clear 17 1028 63 10000 1 70 20:18 09.09.2019
2209 Clear 17 1028 63 10000 1 70 19:55 09.09.2019
2210 Clear 18 1028 67 10000 1 0 19:36 09.09.2019
2211 Clear 19 1028 59 10000 2 50 19:18 09.09.2019
2212 Clear 19 1027 59 10000 2 30 18:41 09.09.2019
2213 Clear 21 1027 52 10000 2 20 18:22 09.09.2019
2214 Clear 22 1027 49 10000 3 20 17:59 09.09.2019
2215 Clear 22 1027 49 10000 3 20 17:41 09.09.2019
2216 Clear 22 1028 46 10000 3 10 17:21 09.09.2019
2217 Clear 22 1028 46 10000 3 10 16:57 09.09.2019
2218 Clear 23 1028 43 10000 2 30 16:39 09.09.2019
2219 Clear 23 1028 40 10000 3 30 16:20 09.09.2019
2220 Clear 23 1028 40 10000 3 30 16:20 09.09.2019
2221 Clear 23 1028 40 10000 3 30 15:56 09.09.2019
2222 Clouds 23 1028 40 10000 3 40 15:37 09.09.2019
2223 Clouds 23 1028 43 10000 2 40 15:19 09.09.2019
2224 Clouds 23 1028 43 10000 2 40 14:57 09.09.2019
2225 Clouds 24 1028 43 10000 3 20 14:38 09.09.2019
2226 Clouds 23 1028 46 10000 3 360 14:20 09.09.2019
2227 Clouds 23 1028 43 10000 2 340 13:45 09.09.2019
2228 Clear 24 1029 46 10000 3 10 13:21 09.09.2019
2229 Clear 24 1029 46 10000 3 10 12:58 09.09.2019
2230 Clouds 23 1029 43 10000 3 10 12:40 09.09.2019
2231 Clouds 23 1029 43 10000 3 10 12:40 09.09.2019
2232 Clouds 23 1029 46 10000 2 340 12:21 09.09.2019
2233 Clouds 22 1029 49 10000 2 120 11:55 09.09.2019
2234 Clouds 22 1029 49 10000 2 120 11:36 09.09.2019
2235 Clouds 22 1029 53 10000 2 320 11:18 09.09.2019
2236 Clouds 22 1029 56 10000 2 350 10:41 09.09.2019
2237 Clear 21 1028 64 10000 1 0 10:21 09.09.2019
2238 Clear 21 1028 64 10000 1 0 09:58 09.09.2019
2239 Clear 20 1029 68 10000 2 50 09:39 09.09.2019
2240 Clear 19 1029 72 10000 1 0 09:21 09.09.2019
2241 Clear 18 1029 77 10000 1.25 82.305 08:39 09.09.2019
2242 Clear 18 1029 77 10000 1.25 82.305 08:39 09.09.2019
2243 Clear 16 1029 82 10000 1 0 08:21 09.09.2019
2244 Clear 16 1029 82 10000 1 0 07:57 09.09.2019
2245 Clear 15 1029 87 10000 1.25 82.305 07:38 09.09.2019
2246 Clear 14 1029 87 10000 1 0 07:19 09.09.2019
2247 Mist 13 1029 93 10000 1 0 06:46 09.09.2019
2248 Fog 11 1029 100 10000 1 320 05:34 09.09.2019
2249 Mist 12 1029 93 9000 1 340 02:59 09.09.2019
2250 Mist 13 1029 100 10000 1 340 02:40 09.09.2019
2251 Mist 13 1029 93 10000 1 330 00:54 09.09.2019
2252 Clear 14 1029 87 10000 1 350 00:23 09.09.2019
2253 Clear 14 1029 82 10000 1 0 23:46 08.09.2019
2254 Clear 14 1029 82 10000 1 0 23:27 08.09.2019
2255 Mist 15 1029 82 10000 1 0 23:27 08.09.2019
2256 Mist 15 1029 82 10000 1 0 22:59 08.09.2019
2257 Clear 15 1029 82 10000 1 340 22:38 08.09.2019
2258 Clear 15 1029 82 10000 1 0 22:20 08.09.2019
2259 Clear 15 1029 82 10000 1 0 21:57 08.09.2019
2260 Clear 16 1029 82 10000 1 0 21:38 08.09.2019
2261 Clear 16 1029 82 10000 1 0 21:38 08.09.2019
2262 Clear 16 1029 82 10000 2 10 21:20 08.09.2019
2263 Clear 16 1029 77 10000 3 10 20:40 08.09.2019
2264 Clear 17 1029 72 10000 3 20 20:22 08.09.2019
2265 Clear 17 1029 72 10000 3 20 19:59 08.09.2019
2266 Clear 18 1029 72 10000 3 10 19:39 08.09.2019
2267 Clear 18 1029 72 10000 3 360 19:21 08.09.2019
2268 Clear 19 1029 72 10000 3 360 18:58 08.09.2019
2269 Clear 19 1029 63 10000 3 360 18:39 08.09.2019
2270 Clear 21 1028 56 10000 2 360 18:19 08.09.2019
2271 Clear 21 1028 52 10000 2 350 17:58 08.09.2019
2272 Clear 21 1028 52 10000 2 350 17:37 08.09.2019
2273 Clear 23 1028 52 10000 2 360 17:18 08.09.2019
2274 Clear 22 1028 52 10000 2 360 16:55 08.09.2019
2275 Clear 23 1028 46 10000 3 330 16:37 08.09.2019
2276 Clear 22 1028 46 10000 1 0 16:18 08.09.2019
2277 Clear 22 1028 46 10000 3 360 15:41 08.09.2019
2278 Clear 23 1028 46 10000 2 10 15:22 08.09.2019
2279 Clear 23 1028 46 10000 2 10 15:22 08.09.2019
2280 Clouds 23 1028 46 10000 3 40 14:59 08.09.2019
2281 Clouds 23 1028 46 10000 3 40 14:39 08.09.2019
2282 Clouds 23 1028 49 10000 2 340 14:21 08.09.2019
2283 Clouds 23 1028 49 10000 2 340 13:57 08.09.2019
2284 Clear 23 1029 49 10000 3 50 13:38 08.09.2019
2285 Clouds 23 1029 46 10000 2 340 13:20 08.09.2019
2286 Clouds 22 1028 53 10000 2 40 12:54 08.09.2019
2287 Clouds 22 1028 53 10000 2 40 12:36 08.09.2019
2288 Clouds 21 1028 60 10000 2 40 12:18 08.09.2019
2289 Clouds 21 1028 60 10000 2 40 11:54 08.09.2019
2290 Clouds 21 1028 64 10000 2 60 11:36 08.09.2019
2291 Clouds 21 1028 60 10000 3 50 11:18 08.09.2019
2292 Clear 21 1028 60 10000 3 40 10:41 08.09.2019
2293 Clear 21 1028 60 10000 3 40 10:22 08.09.2019
2294 Clear 20 1028 68 10000 3 30 09:55 08.09.2019
2295 Clear 20 1028 68 10000 3 30 09:55 08.09.2019
2296 Clear 19 1028 68 10000 3 30 09:37 08.09.2019
2297 Clear 19 1028 68 10000 3 30 09:37 08.09.2019
2298 Clear 19 1028 68 10000 1 0 09:19 08.09.2019
2299 Clear 19 1028 68 10000 1 0 09:19 08.09.2019
2300 Clear 17 1028 72 10000 1 0 08:39 08.09.2019
2301 Clear 16 1028 82 10000 1 0 08:19 08.09.2019
2302 Clouds 14 1028 87 10000 1 0 07:42 08.09.2019
2303 Clear 13 1028 87 10000 2 360 07:21 08.09.2019
2304 Clear 13 1028 87 10000 2 360 06:57 08.09.2019
2305 Clear 13 1028 87 10000 1 0 06:34 08.09.2019
2306 Clear 12 1028 93 10000 2 20 05:40 08.09.2019
2307 Clear 13 1027 87 10000 2 360 04:58 08.09.2019
2308 Clear 14 1027 93 10000 1 0 03:23 08.09.2019
2309 Clear 14 1027 93 10000 2 360 02:48 08.09.2019
2310 Mist 14 1027 87 9000 1 0 01:54 08.09.2019
2311 Mist 14 1027 87 9000 1 0 01:26 08.09.2019
2312 Mist 15 1027 87 10000 1 0 00:49 08.09.2019
2313 Clear 15 1027 87 10000 1 0 00:30 08.09.2019
2314 Clear 15 1027 87 10000 1 0 23:57 07.09.2019
2315 Clear 15 1026 87 10000 1 0 23:37 07.09.2019
2316 Clear 16 1026 82 10000 2.33 29.73 23:18 07.09.2019
2317 Clear 16 1026 87 10000 1 0 22:43 07.09.2019
2318 Clear 16 1026 87 10000 2 360 22:23 07.09.2019
2319 Clear 16 1026 87 10000 2 360 21:56 07.09.2019
2320 Clouds 16 1026 87 9000 2 10 21:38 07.09.2019
2321 Clear 16 1026 87 10000 2 350 21:19 07.09.2019
2322 Clear 17 1026 82 10000 2 10 20:39 07.09.2019
2323 Clear 18 1026 82 10000 2 360 20:21 07.09.2019
2324 Clear 18 1026 82 10000 2 360 19:56 07.09.2019
2325 Clear 18 1026 82 10000 2 360 19:38 07.09.2019
2326 Clear 18 1025 82 10000 2 360 19:19 07.09.2019
2327 Clear 19 1025 77 10000 2 350 18:58 07.09.2019
2328 Clear 19 1025 77 10000 2 350 18:39 07.09.2019
2329 Clear 20 1025 72 10000 3 360 18:20 07.09.2019
2330 Clear 20 1025 72 10000 3 360 17:58 07.09.2019
2331 Clear 20 1025 72 10000 3 360 17:58 07.09.2019
2332 Clear 20 1025 72 10000 3 360 17:58 07.09.2019
2333 Clear 21 1025 64 10000 3 350 17:39 07.09.2019
2334 Clear 21 1025 64 10000 3 30 17:18 07.09.2019
2335 Clear 22 1024 64 10000 3 30 16:56 07.09.2019
2336 Clear 22 1024 64 10000 3 30 16:37 07.09.2019
2337 Clouds 22 1023 53 10000 4 360 16:18 07.09.2019
2338 Clear 22 1024 64 10000 3 350 15:44 07.09.2019
2339 Clear 22 1024 64 10000 3 350 15:25 07.09.2019
2340 Clear 23 1024 64 10000 3 350 14:56 07.09.2019
2341 Clear 23 1024 60 10000 3 10 14:36 07.09.2019
2342 Clear 23 1024 60 10000 3 10 14:36 07.09.2019
2343 Clear 22 1024 56 10000 3 360 14:18 07.09.2019
2344 Clouds 22 1024 56 10000 3 360 13:55 07.09.2019
2345 Clouds 22 1024 56 10000 3 360 13:55 07.09.2019
2346 Clouds 22 1024 56 10000 3 360 13:37 07.09.2019
2347 Clear 22 1024 60 10000 2 10 13:18 07.09.2019
2348 Clouds 23 1023 49 10000 4 340 12:41 07.09.2019
2349 Clouds 22 1023 53 10000 4 360 12:23 07.09.2019
2350 Clear 21 1024 72 10000 4 360 11:41 07.09.2019
2351 Clouds 21 1023 60 10000 3 320 11:22 07.09.2019
2352 Clouds 21 1023 60 10000 3 320 10:56 07.09.2019
2353 Clear 21 1024 77 10000 3 340 10:37 07.09.2019
2354 Clear 21 1023 64 10000 2 310 10:18 07.09.2019
2355 Clear 20 1023 77 10000 3 350 09:42 07.09.2019
2356 Clear 19 1023 82 10000 3 310 09:22 07.09.2019
2357 Clear 19 1023 82 10000 3 310 08:57 07.09.2019
2358 Clear 18 1023 87 10000 2 320 08:36 07.09.2019
2359 Clear 17 1023 87 10000 2 340 08:18 07.09.2019
2360 Clear 16 1023 93 10000 2 340 07:43 07.09.2019
2361 Clear 15 1023 93 10000 1 0 07:22 07.09.2019
2362 Mist 14 1022 100 10000 1.87 343.021 06:43 07.09.2019
2363 Fog 13 1022 100 1000 1.85 346.799 05:41 07.09.2019
2364 Fog 13 1022 100 1000 1.85 346.799 05:41 07.09.2019
2365 Fog 14 1021 100 9000 1 0 04:33 07.09.2019
2366 Fog 14 1021 100 2400 1 300 03:44 07.09.2019
2367 Fog 15 1021 100 4500 1 300 02:43 07.09.2019
2368 Fog 15 1021 100 5000 1.94 312.093 01:44 07.09.2019
2369 Fog 15 1021 100 2400 1.87 312.338 00:56 07.09.2019
2370 Fog 15 1021 100 2400 1.87 312.338 00:37 07.09.2019
2371 Fog 16 1020 93 6000 1 310 00:18 07.09.2019
2372 Mist 16 1020 93 8000 2 310 23:38 06.09.2019
2373 Mist 16 1020 93 8000 2 310 23:38 06.09.2019
2374 Clear 16 1020 93 9000 2 300 23:20 06.09.2019
2375 Clear 16 1020 87 9000 3 280 22:57 06.09.2019
2376 Clear 16 1020 87 9000 3 280 22:37 06.09.2019
2377 Clouds 16 1020 93 10000 3 280 22:19 06.09.2019
2378 Clouds 16 1020 93 10000 3 280 21:56 06.09.2019
2379 Clear 17 1020 82 10000 2 310 21:38 06.09.2019
2380 Clear 16 1020 88 10000 3 300 21:19 06.09.2019
2381 -273 0 0 0 0 0 20:55 06.09.2019
2382 Clear 17 1020 88 10000 3 300 20:37 06.09.2019
2383 Clouds 17 1019 88 10000 3 310 20:18 06.09.2019
2384 Clouds 18 1019 82 10000 3 300 19:42 06.09.2019
2385 Clouds 18 1019 82 10000 3 300 19:24 06.09.2019
2386 Clouds 18 1019 82 10000 3 300 18:58 06.09.2019
2387 Clouds 18 1019 82 10000 3 290 18:40 06.09.2019
2388 Clouds 19 1019 77 10000 4 300 18:22 06.09.2019
2389 Clouds 20 1018 77 10000 4 300 17:56 06.09.2019
2390 Clouds 20 1018 77 10000 4 300 17:37 06.09.2019
2391 Clouds 21 1018 77 10000 5 310 17:18 06.09.2019
2392 Clouds 22 1018 64 10000 4 310 16:39 06.09.2019
2393 Clouds 22 1018 64 10000 5 340 16:18 06.09.2019
2394 Clouds 23 1018 56 10000 4 300 15:41 06.09.2019
2395 Clouds 23 1018 56 10000 4 300 15:23 06.09.2019
2396 Clouds 24 1017 49 10000 4 260 14:48 06.09.2019
2397 Clear 23 1017 49 10000 3 280 14:20 06.09.2019
2398 Clear 23 1017 49 10000 3 280 13:59 06.09.2019
2399 Clear 23 1017 49 10000 3 250 13:41 06.09.2019
2400 Clear 23 1017 53 10000 3 230 13:19 06.09.2019
2401 Clear 22 1017 53 10000 2 270 12:38 06.09.2019
2402 Clear 21 1017 56 10000 1 0 12:19 06.09.2019
2403 Clear 21 1017 52 10000 1 0 11:54 06.09.2019
2404 Clear 21 1017 52 10000 1 0 11:36 06.09.2019
2405 Clear 21 1017 60 10000 1 210 11:18 06.09.2019
2406 Clear 20 1017 68 10000 1 0 10:40 06.09.2019
2407 Clear 20 1017 72 10000 1 0 10:21 06.09.2019
2408 Clear 19 1017 82 10000 1 0 09:57 06.09.2019
2409 Clear 19 1017 82 10000 1 0 09:36 06.09.2019
2410 Clear 19 1017 82 10000 1 0 09:36 06.09.2019
2411 Clear 18 1017 77 9000 1 0 09:18 06.09.2019
2412 Clouds 17 1017 87 10000 1 0 08:42 06.09.2019
2413 Clouds 17 1017 87 10000 1 0 08:42 06.09.2019
2414 Clouds 17 1017 87 10000 1 0 08:42 06.09.2019
2415 Clouds 16 1017 93 9000 2 70 08:24 06.09.2019
2416 Mist 15 1017 93 8000 1 0 07:48 06.09.2019
2417 Mist 15 1017 100 3400 1 0 07:27 06.09.2019
2418 Mist 15 1017 100 3400 1 0 06:58 06.09.2019
2419 Fog 13 1017 100 200 1 0 06:26 06.09.2019
2420 Fog 13 1017 100 2600 1 20 05:43 06.09.2019
2421 Mist 14 1017 93 5000 2 30 04:52 06.09.2019
2422 Mist 14 1017 100 3300 2 60 04:19 06.09.2019
2423 Mist 14 1018 100 4400 2 30 02:27 06.09.2019
2424 Mist 14 1018 100 2500 2 80 00:48 06.09.2019
2425 Mist 15 1018 100 2500 2 80 23:57 05.09.2019
2426 Fog 15 1018 100 1200 2 70 23:57 05.09.2019
2427 Mist 15 1018 100 2500 2 80 23:39 05.09.2019
2428 Fog 15 1018 100 2100 3 70 23:19 05.09.2019
2429 Fog 15 1018 100 400 3 80 22:44 05.09.2019
2430 Fog 15 1018 100 400 3 80 22:25 05.09.2019
2431 Fog 15 1018 100 1400 3 70 21:57 05.09.2019
2432 Mist 15 1018 100 3200 3 70 21:38 05.09.2019
2433 Mist 15 1018 93 4900 2 70 21:19 05.09.2019
2434 Mist 15 1018 93 4900 2 70 20:57 05.09.2019
2435 Mist 16 1018 100 5000 2 30 20:38 05.09.2019
2436 Mist 16 1018 100 5000 2 30 20:38 05.09.2019
2437 Clouds 16 1018 100 6000 2 10 20:19 05.09.2019
2438 Mist 16 1018 100 6000 2 360 19:56 05.09.2019
2439 Mist 16 1018 100 6000 2 360 19:37 05.09.2019
2440 Mist 16 1018 93 6000 2 20 19:19 05.09.2019
2441 Mist 16 1018 93 6000 2 10 18:41 05.09.2019
2442 Clouds 17 1018 93 8000 2 10 18:22 05.09.2019
2443 Clouds 17 1018 93 8000 2 10 17:57 05.09.2019
2444 Clouds 18 1018 93 8000 2 30 17:39 05.09.2019
2445 Clouds 18 1018 93 7000 2 30 17:20 05.09.2019
2446 Clouds 17 1018 100 7000 2 50 16:42 05.09.2019
2447 Clouds 18 1018 100 6000 2 10 16:21 05.09.2019
2448 Clouds 17 1018 100 6000 2 10 15:58 05.09.2019
2449 Clouds 17 1018 100 9000 2 50 15:39 05.09.2019
2450 Rain 17 1018 100 9000 2 50 15:19 05.09.2019
2451 Rain 17 1018 100 9000 2 50 15:19 05.09.2019
2452 Rain 17 1018 93 10000 1 0 14:56 05.09.2019
2453 Rain 17 1018 93 10000 1 0 14:38 05.09.2019
2454 Rain 17 1018 93 10000 1 0 14:38 05.09.2019
2455 Rain 17 1018 93 10000 1 0 14:18 05.09.2019
2456 Rain 17 1018 93 10000 1 0 13:42 05.09.2019
2457 Rain 17 1018 93 10000 2 40 13:19 05.09.2019
2458 Clouds 18 1017 93 6000 1 0 12:43 05.09.2019
2459 Rain 17 1017 100 6000 2 100 12:25 05.09.2019
2460 Rain 17 1017 100 6000 2 100 11:57 05.09.2019
2461 Rain 17 1017 100 7000 1 0 11:38 05.09.2019
2462 Clouds 16 1018 100 10000 2 10 11:18 05.09.2019
2463 Rain 16 1017 100 10000 2 10 10:41 05.09.2019
2464 Rain 16 1017 100 10000 2 10 10:22 05.09.2019
2465 Rain 16 1017 100 10000 2 10 10:22 05.09.2019
2466 Rain 16 1017 100 10000 2 10 09:57 05.09.2019
2467 Rain 16 1017 100 10000 2 20 09:38 05.09.2019
2468 Rain 15 1017 100 10000 2 10 09:18 05.09.2019
2469 Rain 15 1017 100 10000 2 10 09:18 05.09.2019
2470 Rain 15 1017 100 10000 2 350 08:45 05.09.2019
2471 Rain 15 1017 100 10000 2 10 08:26 05.09.2019
2472 Rain 15 1017 100 10000 2 340 07:45 05.09.2019
2473 Rain 15 1017 100 10000 2 340 07:27 05.09.2019
2474 Rain 15 1016 100 10000 3 330 06:54 05.09.2019
2475 Rain 15 1016 100 10000 2 320 06:30 05.09.2019
2476 Rain 15 1016 100 10000 2 320 05:50 05.09.2019
2477 Rain 15 1016 100 10000 2 320 05:30 05.09.2019
2478 Rain 15 1016 100 10000 3 310 04:50 05.09.2019
2479 Rain 16 1016 100 9000 2 310 04:24 05.09.2019
2480 Rain 16 1016 100 10000 3 340 03:38 05.09.2019
2481 Rain 16 1015 100 10000 2 320 02:46 05.09.2019
2482 Rain 16 1015 100 10000 2 320 02:26 05.09.2019
2483 Rain 16 1015 100 10000 2 330 01:37 05.09.2019
2484 Rain 16 1015 100 10000 2 310 00:44 05.09.2019
2485 Rain 17 1015 100 10000 2 310 00:21 05.09.2019
2486 -273 0 0 0 0 0 23:55 04.09.2019
2487 Clear 17 1015 100 10000 2 330 23:36 04.09.2019
2488 Clear 17 1015 100 10000 2 310 23:18 04.09.2019
2489 Clear 17 1015 93 10000 2 320 22:40 04.09.2019
2490 Clear 18 1014 100 10000 2 350 22:19 04.09.2019
2491 Clouds 18 1014 82 10000 1 0 21:40 04.09.2019
2492 Rain 19 1014 77 10000 2 120 21:20 04.09.2019
2493 Rain 19 1014 77 10000 2 120 21:20 04.09.2019
2494 Rain 19 1014 77 10000 2 120 20:57 04.09.2019
2495 Rain 19 1014 82 10000 2 220 20:39 04.09.2019
2496 Clouds 19 1014 82 10000 1 0 20:19 04.09.2019
2497 Clouds 19 1014 82 10000 2 150 19:57 04.09.2019
2498 Rain 19 1014 82 10000 3 160 19:38 04.09.2019
2499 Rain 19 1014 82 10000 3 160 19:19 04.09.2019
2500 Rain 20 1014 53 9000 4 180 18:39 04.09.2019
2501 Rain 20 1014 53 9000 4 180 18:39 04.09.2019
2502 Clear 22 1013 49 10000 3 160 18:20 04.09.2019
2503 Clear 22 1013 53 10000 4 160 17:54 04.09.2019
2504 Clear 22 1013 53 10000 4 160 17:54 04.09.2019
2505 Clear 22 1013 53 10000 4 160 17:36 04.09.2019
2506 Clear 22 1013 53 10000 3 170 17:18 04.09.2019
2507 Clear 22 1013 53 10000 3 170 17:18 04.09.2019
2508 Clear 22 1013 46 10000 4 160 16:46 04.09.2019
2509 Clear 22 1013 46 10000 4 160 16:46 04.09.2019
2510 Clear 22 1013 46 10000 4 160 16:27 04.09.2019
2511 Clear 23 1013 46 10000 5 170 15:58 04.09.2019
2512 Clear 23 1013 49 10000 6 140 15:39 04.09.2019
2513 Clear 23 1013 46 10000 4 140 15:20 04.09.2019
2514 Clear 23 1013 49 10000 5 140 14:56 04.09.2019
2515 Clear 23 1013 49 10000 5 140 14:37 04.09.2019
2516 Clear 23 1013 46 10000 5 140 14:19 04.09.2019
2517 Clear 24 1013 44 10000 6 140 13:40 04.09.2019
2518 Clear 24 1013 44 10000 6 150 13:22 04.09.2019
2519 Clear 23 1014 46 10000 5 140 12:59 04.09.2019
2520 Clear 23 1014 46 10000 5 140 12:39 04.09.2019
2521 Clear 22 1014 46 10000 5 150 12:21 04.09.2019
2522 Clear 22 1014 43 10000 6 150 11:55 04.09.2019
2523 Clear 22 1014 43 10000 6 150 11:36 04.09.2019
2524 Clear 22 1014 43 10000 6 150 11:18 04.09.2019
2525 Clear 22 1014 43 10000 6 140 10:43 04.09.2019
2526 Clear 22 1014 43 10000 6 140 10:25 04.09.2019
2527 Clear 20 1014 55 10000 5 120 09:47 04.09.2019
2528 Clear 20 1014 55 10000 5 120 09:27 04.09.2019
2529 Clear 19 1014 63 10000 4 120 08:59 04.09.2019
2530 Clear 17 1014 67 10000 3 100 08:40 04.09.2019
2531 Clear 17 1014 72 10000 4 100 08:22 04.09.2019
2532 Clear 16 1014 72 10000 4 100 07:50 04.09.2019
2533 Clear 16 1014 72 10000 4 100 07:32 04.09.2019
2534 Clear 15 1015 72 10000 4 100 06:40 04.09.2019
2535 Clear 15 1015 72 10000 3 100 06:20 04.09.2019
2536 Clear 15 1015 77 10000 3 80 04:52 04.09.2019
2537 Clear 15 1015 77 10000 2 110 04:19 04.09.2019
2538 Clear 16 1015 77 10000 3 120 01:39 04.09.2019
2539 Clear 16 1015 72 10000 3 130 00:55 04.09.2019
2540 Clear 16 1015 72 10000 3 130 00:34 04.09.2019
2541 Clear 17 1016 72 10000 3 120 23:56 03.09.2019
2542 Clear 17 1016 72 10000 3 120 23:56 03.09.2019
2543 Clear 17 1016 72 10000 3 120 23:38 03.09.2019
2544 Clear 17 1016 82 10000 3 120 23:19 03.09.2019
2545 Clear 17 1016 82 10000 3 120 23:19 03.09.2019
2546 Clear 17 1016 82 10000 3 120 22:40 03.09.2019
2547 Clear 17 1016 82 10000 3 110 22:22 03.09.2019
2548 Clear 17 1016 82 10000 3 110 22:22 03.09.2019
2549 Clear 18 1016 72 10000 4 100 21:56 03.09.2019
2550 Clear 18 1016 72 10000 4 100 21:38 03.09.2019
2551 Clear 18 1016 68 10000 3 100 21:20 03.09.2019
2552 Clear 18 1016 72 10000 3 120 20:44 03.09.2019
2553 Clear 19 1016 64 10000 4 130 20:24 03.09.2019
2554 Clear 19 1016 64 10000 4 130 20:24 03.09.2019
2555 Clear 20 1016 64 10000 5 110 19:57 03.09.2019
2556 Clear 20 1016 64 10000 5 110 19:39 03.09.2019
2557 Clear 20 1016 68 10000 3 120 19:19 03.09.2019
2558 Clear 21 1016 60 10000 3 110 18:56 03.09.2019
2559 Clear 21 1016 60 10000 3 110 18:38 03.09.2019
2560 Clear 22 1016 56 10000 3 130 18:18 03.09.2019
2561 Clear 22 1016 56 10000 2 180 17:43 03.09.2019
2562 Clear 22 1016 49 10000 3 200 17:21 03.09.2019
2563 Clear 22 1016 49 10000 3 200 16:59 03.09.2019
2564 Clear 23 1016 49 10000 3 160 16:41 03.09.2019
2565 Clear 23 1016 49 10000 2 180 16:22 03.09.2019
2566 Clear 24 1016 49 10000 3 130 15:41 03.09.2019
2567 Clear 23 1016 53 10000 3 130 15:22 03.09.2019
2568 Clear 23 1016 53 10000 3 130 14:59 03.09.2019
2569 Clear 23 1016 53 10000 2 120 14:40 03.09.2019
2570 Clouds 24 1016 49 10000 3 120 14:21 03.09.2019
2571 Clouds 24 1016 49 10000 3 120 13:58 03.09.2019
2572 Clear 23 1017 53 10000 3 130 13:38 03.09.2019
2573 Clear 23 1017 53 10000 3 130 13:38 03.09.2019
2574 Clouds 23 1017 53 10000 4 90 13:19 03.09.2019
2575 Clouds 23 1017 53 10000 4 110 12:57 03.09.2019
2576 Clouds 23 1017 53 10000 4 110 12:38 03.09.2019
2577 Clouds 22 1017 56 10000 4 120 12:20 03.09.2019
2578 Clouds 22 1017 60 10000 3 130 11:42 03.09.2019
2579 Clouds 22 1017 60 10000 3 130 11:23 03.09.2019
2580 Clouds 22 1017 56 10000 3 130 10:57 03.09.2019
2581 Clear 22 1017 64 10000 4 120 10:39 03.09.2019
2582 Clear 21 1017 60 10000 3 130 10:20 03.09.2019
2583 Clear 20 1017 68 10000 3 140 09:44 03.09.2019
2584 Clear 20 1017 68 10000 3 140 09:26 03.09.2019
2585 Clear 19 1017 77 9000 2 130 08:56 03.09.2019
2586 Clear 19 1017 77 9000 2 130 08:37 03.09.2019
2587 Clear 18 1017 88 9000 3 100 08:19 03.09.2019
2588 Clear 17 1017 93 7000 2 80 07:42 03.09.2019
2589 Mist 16 1017 100 5000 2 90 07:23 03.09.2019
2590 Mist 15 1017 100 4000 2 100 06:45 03.09.2019
2591 Fog 14 1017 100 2200 3 80 06:18 03.09.2019
2592 Mist 14 1017 100 5000 3 80 03:43 03.09.2019
2593 Fog 14 1017 100 7000 1 90 02:47 03.09.2019
2594 Fog 14 1017 100 6000 2 90 02:25 03.09.2019
2595 Fog 15 1017 100 7000 2 80 01:52 03.09.2019
2596 Mist 15 1017 100 8000 2 80 01:33 03.09.2019
2597 Mist 16 1017 93 9000 1 0 00:56 03.09.2019
2598 Mist 16 1017 100 8000 3 80 00:25 03.09.2019
2599 Mist 16 1016 93 9000 2 80 23:40 02.09.2019
2600 Mist 16 1016 93 9000 2 80 23:40 02.09.2019
2601 Mist 16 1016 93 9000 2 80 23:40 02.09.2019
2602 Clear 17 1016 93 10000 2 80 23:20 02.09.2019
2603 Clear 17 1016 100 10000 3 100 22:57 02.09.2019
2604 Clear 17 1016 100 10000 3 100 22:39 02.09.2019
2605 Clear 18 1016 87 10000 3 90 22:20 02.09.2019
2606 Clear 18 1016 87 10000 3 90 21:58 02.09.2019
2607 Clear 18 1016 93 10000 3 90 21:40 02.09.2019
2608 Clear 18 1016 87 10000 3 90 21:20 02.09.2019
2609 Clear 19 1016 72 10000 4 90 20:59 02.09.2019
2610 Clear 19 1016 72 10000 4 90 20:40 02.09.2019
2611 Clear 19 1016 72 10000 4 90 20:19 02.09.2019
2612 Clear 19 1016 72 10000 4 90 19:57 02.09.2019
2613 Clouds 20 1016 72 10000 4 80 19:38 02.09.2019
2614 Clouds 20 1016 72 10000 4 80 19:19 02.09.2019
2615 Clouds 20 1016 64 10000 4 100 18:40 02.09.2019
2616 Clouds 21 1016 64 10000 5 110 18:22 02.09.2019
2617 Clouds 21 1016 64 10000 4 80 17:58 02.09.2019
2618 Clouds 21 1016 64 10000 4 80 17:58 02.09.2019
2619 Clouds 21 1016 64 10000 4 80 17:39 02.09.2019
2620 Clear 22 1016 56 10000 2 120 17:21 02.09.2019
2621 Clear 22 1016 56 10000 2 120 16:58 02.09.2019
2622 Clear 22 1016 53 10000 2 80 16:37 02.09.2019
2623 Clear 22 1016 56 10000 2 100 16:19 02.09.2019
2624 Clear 22 1016 53 10000 3 70 15:44 02.09.2019
2625 Clear 22 1016 56 10000 4 40 15:22 02.09.2019
2626 Clear 22 1016 56 10000 4 40 14:57 02.09.2019
2627 Clear 22 1016 56 10000 4 40 14:57 02.09.2019
2628 Clear 22 1016 53 10000 4 360 14:37 02.09.2019
2629 Clear 22 1016 49 10000 4 40 14:19 02.09.2019
2630 Clear 22 1016 49 10000 4 40 13:55 02.09.2019
2631 Clear 22 1016 49 10000 4 60 13:36 02.09.2019
2632 Clear 22 1016 53 10000 5 70 13:18 02.09.2019
2633 Clouds 22 1016 46 10000 3 10 12:42 02.09.2019
2634 Clouds 22 1016 53 10000 4 350 12:24 02.09.2019
2635 Clouds 22 1016 60 10000 4 350 11:58 02.09.2019
2636 Clouds 22 1016 60 10000 4 350 11:38 02.09.2019
2637 Clear 22 1016 60 10000 3 330 11:20 02.09.2019
2638 Clear 22 1016 60 10000 3 330 10:56 02.09.2019
2639 Clear 22 1016 64 10000 3 340 10:36 02.09.2019
2640 Clouds 22 1016 64 10000 2 20 10:18 02.09.2019
2641 Clear 22 1016 64 10000 2 10 09:43 02.09.2019
2642 Clear 21 1016 68 10000 2 30 09:22 02.09.2019
2643 Clear 20 1016 72 10000 2 50 08:44 02.09.2019
2644 Clear 19 1016 77 10000 1 0 08:23 02.09.2019
2645 Clear 18 1016 77 10000 0.98 30.803 07:58 02.09.2019
2646 Clear 18 1016 77 10000 0.98 30.803 07:39 02.09.2019
2647 Clear 16 1016 87 10000 1 0 07:21 02.09.2019
2648 Rain 15 1016 93 10000 2 250 06:44 02.09.2019
2649 Mist 14 1016 93 10000 1 0 06:22 02.09.2019
2650 Mist 14 1017 93 10000 1 0 05:44 02.09.2019
2651 Mist 14 1016 93 10000 2 240 05:18 02.09.2019
2652 Clouds 15 1017 93 10000 1 0 02:46 02.09.2019
2653 Mist 14 1017 93 10000 1.3 301.396 01:43 02.09.2019
2654 Clear 15 1017 93 10000 1 320 00:47 02.09.2019
2655 Clear 15 1017 93 10000 1 310 00:28 02.09.2019
2656 Clear 15 1017 93 10000 1 330 23:41 01.09.2019
2657 Clear 16 1017 87 10000 1 320 23:21 01.09.2019
2658 Clear 16 1017 82 10000 1 310 22:57 01.09.2019
2659 Clear 16 1017 82 10000 1 310 22:39 01.09.2019
2660 Clear 17 1017 77 10000 1 320 22:19 01.09.2019
2661 Clear 17 1017 72 10000 1 300 21:55 01.09.2019
2662 Clear 17 1017 72 10000 1 300 21:37 01.09.2019
2663 Clear 18 1017 72 10000 1 320 21:18 01.09.2019
2664 Clear 18 1017 68 10000 2 330 20:56 01.09.2019
2665 Clear 19 1017 68 10000 2 330 20:36 01.09.2019
2666 Clear 19 1017 68 10000 2 330 20:18 01.09.2019
2667 Clear 19 1017 68 10000 2 330 20:18 01.09.2019
2668 Clear 20 1017 68 10000 2 340 19:55 01.09.2019
2669 Clear 20 1017 68 10000 2 340 19:55 01.09.2019
2670 Clear 20 1017 68 10000 2 340 19:37 01.09.2019
2671 Clear 21 1017 64 10000 2 340 19:18 01.09.2019
2672 Clear 22 1017 60 10000 3 340 18:41 01.09.2019
2673 Clear 23 1017 56 10000 3 310 18:23 01.09.2019
2674 Clear 23 1017 56 10000 3 310 18:23 01.09.2019
2675 Clear 23 1017 53 10000 4 310 17:55 01.09.2019
2676 Clear 23 1017 53 10000 4 310 17:36 01.09.2019
2677 Clouds 24 1017 53 10000 3 300 17:18 01.09.2019
2678 Clear 24 1017 49 10000 3 300 16:39 01.09.2019
2679 Clear 24 1017 49 10000 3 300 16:39 01.09.2019
2680 Clear 25 1017 47 10000 4 290 16:18 01.09.2019
2681 Clear 24 1017 44 10000 4 290 15:46 01.09.2019
2682 Clear 24 1017 44 10000 4 290 15:26 01.09.2019
2683 Clear 25 1018 41 10000 4 270 14:56 01.09.2019
2684 Clear 25 1018 41 10000 4 270 14:37 01.09.2019
2685 Clear 25 1018 47 10000 4 300 14:19 01.09.2019
2686 Clear 24 1018 47 10000 3 300 13:42 01.09.2019
2687 Clear 24 1018 53 10000 4 320 13:23 01.09.2019
2688 Clouds 23 1018 53 10000 5 240 12:56 01.09.2019
2689 Clouds 23 1018 53 10000 5 240 12:37 01.09.2019
2690 Clouds 23 1019 49 10000 5 290 12:19 01.09.2019
2691 Clouds 23 1019 53 10000 3 300 11:40 01.09.2019
2692 Clouds 23 1019 56 10000 3 330 11:19 01.09.2019
2693 Clouds 23 1019 56 10000 3 330 10:57 01.09.2019
2694 Clouds 23 1019 56 10000 3 330 10:57 01.09.2019
2695 Clear 23 1019 56 10000 3 260 10:38 01.09.2019
2696 Mist 22 1019 53 10000 2 330 10:20 01.09.2019
2697 Mist 21 1019 60 10000 2 330 09:42 01.09.2019
2698 Mist 21 1019 60 10000 1 0 09:23 01.09.2019
2699 Mist 20 1019 68 10000 1 0 08:43 01.09.2019
2700 Mist 20 1019 68 10000 1 0 08:22 01.09.2019
2701 Mist 17 1019 82 10000 2 290 07:47 01.09.2019
2702 Mist 15 1020 82 10000 1 0 07:23 01.09.2019
2703 Mist 14 1020 87 9000 1 270 06:41 01.09.2019
2704 Mist 13 1020 93 9000 1 270 06:19 01.09.2019
2705 Mist 13 1020 93 9000 1 0 05:38 01.09.2019
2706 Mist 13 1020 93 10000 1 270 04:27 01.09.2019
2707 Mist 13 1020 93 9000 1 0 03:39 01.09.2019
2708 Fog 13 1020 93 8000 1 280 02:57 01.09.2019
2709 Mist 13 1020 93 9000 1 330 02:26 01.09.2019
2710 Mist 14 1020 93 7000 1 0 01:50 01.09.2019
2711 Mist 14 1020 93 7000 1 0 01:50 01.09.2019
2712 Mist 14 1020 93 9000 1 0 01:22 01.09.2019
2713 Fog 14 1020 93 9000 1 320 00:45 01.09.2019
2714 Fog 15 1020 87 8000 1 0 00:22 01.09.2019
2715 Mist 15 1020 87 8000 1.25 310.158 23:48 31.08.2019
2716 Mist 15 1020 87 8000 1 0 23:22 31.08.2019
2717 Mist 15 1020 87 8000 1 0 22:58 31.08.2019
2718 Mist 16 1020 87 8000 1 0 22:40 31.08.2019
2719 Mist 16 1020 87 7000 1 0 22:22 31.08.2019
2720 Mist 16 1020 87 7000 1 0 21:55 31.08.2019
2721 Mist 16 1020 87 7000 1 0 21:55 31.08.2019
2722 Mist 16 1020 82 9000 1 0 21:37 31.08.2019
2723 Clear 16 1020 87 9000 1 0 21:19 31.08.2019
2724 Clear 17 1020 82 10000 1 0 20:46 31.08.2019
2725 Clear 18 1020 82 10000 1 0 20:28 31.08.2019
2726 Clear 18 1020 72 10000 2 20 19:55 31.08.2019
2727 Clear 19 1020 72 10000 2 20 19:37 31.08.2019
2728 Clear 20 1020 56 10000 2 10 19:19 31.08.2019
2729 Clear 21 1020 56 10000 2 360 18:39 31.08.2019
2730 Clear 21 1020 56 10000 2 360 18:39 31.08.2019
2731 Clear 22 1020 49 10000 2 330 18:20 31.08.2019
2732 Clear 22 1020 49 10000 2 350 17:55 31.08.2019
2733 Clear 22 1020 49 10000 2 350 17:37 31.08.2019
2734 Clear 22 1020 46 10000 2 360 17:18 31.08.2019
2735 Clear 22 1020 46 10000 2 360 16:57 31.08.2019
2736 Clear 23 1020 46 10000 1 0 16:39 31.08.2019
2737 Clear 23 1020 49 10000 2 70 16:20 31.08.2019
2738 Clouds 22 1020 53 10000 1 0 15:42 31.08.2019
2739 Clouds 22 1020 49 10000 2 130 15:19 31.08.2019
2740 Mist 22 1020 60 10000 1 0 14:57 31.08.2019
2741 Mist 22 1020 60 10000 1 0 14:39 31.08.2019
2742 Mist 22 1020 60 10000 1 0 14:39 31.08.2019
2743 Mist 22 1020 56 10000 2 70 14:19 31.08.2019
2744 Mist 22 1021 56 10000 2 70 13:41 31.08.2019
2745 Mist 21 1021 56 10000 2 50 13:23 31.08.2019
2746 Mist 21 1021 56 10000 2 50 13:23 31.08.2019
2747 Mist 22 1021 56 10000 2 50 12:59 31.08.2019
2748 Mist 21 1021 60 10000 1 0 12:39 31.08.2019
2749 Mist 20 1022 64 10000 2 40 12:20 31.08.2019
2750 Mist 19 1022 72 10000 1 0 11:55 31.08.2019
2751 Mist 18 1022 72 10000 1 0 11:36 31.08.2019
2752 Mist 17 1022 82 10000 1 0 11:18 31.08.2019
2753 Mist 17 1022 82 10000 1 0 11:18 31.08.2019
2754 Fog 17 1022 88 9000 1 0 10:41 31.08.2019
2755 Mist 16 1022 100 5000 1 0 10:19 31.08.2019
2756 Mist 15 1022 100 5000 1 0 09:56 31.08.2019
2757 Mist 15 1022 100 3500 1 0 09:37 31.08.2019
2758 Mist 14 1021 100 2200 1 0 09:19 31.08.2019
2759 Fog 13 1021 100 1100 1 0 08:42 31.08.2019
2760 Fog 14 1021 100 1100 1 0 08:42 31.08.2019
2761 Fog 13 1021 100 650 1 0 08:23 31.08.2019
2762 Fog 13 1021 100 450 2 130 07:40 31.08.2019
2763 Fog 13 1021 100 400 1 0 07:22 31.08.2019
2764 Fog 13 1021 100 250 1 0 06:28 31.08.2019
2765 Fog 13 1021 100 200 2 60 05:59 31.08.2019
2766 Fog 13 1021 100 200 2 60 05:32 31.08.2019
2767 Fog 13 1021 100 300 1 0 04:34 31.08.2019
2768 Fog 13 1021 100 2000 1 60 03:45 31.08.2019
2769 Fog 13 1022 100 1000 2 80 02:37 31.08.2019
2770 Fog 13 1022 100 8000 3 90 01:53 31.08.2019
2771 Fog 13 1022 100 8000 3 90 01:33 31.08.2019
2772 Clear 14 1022 93 10000 4 90 00:50 31.08.2019
2773 Clear 14 1022 93 10000 2 80 00:30 31.08.2019
2774 Clear 14 1021 93 10000 2 60 23:57 30.08.2019
2775 Clear 15 1021 93 10000 2 60 23:39 30.08.2019
2776 Clear 15 1021 100 10000 3 60 23:18 30.08.2019
2777 Clear 15 1021 100 10000 3 60 23:18 30.08.2019
2778 Clear 15 1021 93 10000 3 70 22:42 30.08.2019
2779 Clear 16 1021 93 10000 3 80 22:24 30.08.2019
2780 Clear 15 1021 93 10000 3 80 21:58 30.08.2019
2781 Clear 16 1021 88 10000 3 70 21:38 30.08.2019
2782 Clear 17 1021 88 10000 4 80 21:19 30.08.2019
2783 Clear 17 1021 88 10000 4 80 20:59 30.08.2019
2784 Clear 17 1021 77 10000 3 90 20:40 30.08.2019
2785 Clear 19 1021 68 10000 2 110 20:20 30.08.2019
2786 Clear 19 1021 56 10000 1 0 19:57 30.08.2019
2787 Clear 19 1021 56 10000 1 0 19:39 30.08.2019
2788 Clear 19 1021 56 10000 1 0 19:19 30.08.2019
2789 Clear 19 1021 56 10000 1 0 19:19 30.08.2019
2790 Clear 21 1020 52 10000 2 30 18:55 30.08.2019
2791 Clear 22 1020 43 10000 3 300 18:37 30.08.2019
2792 Clear 22 1020 43 10000 3 300 18:18 30.08.2019
2793 Clear 23 1020 40 10000 3 280 17:55 30.08.2019
2794 Clear 23 1020 40 10000 3 280 17:55 30.08.2019
2795 Clear 22 1020 40 10000 3 280 17:37 30.08.2019
2796 Clear 24 1020 38 10000 3 270 17:18 30.08.2019
2797 Clear 24 1021 38 10000 2 300 16:43 30.08.2019
2798 Clear 24 1021 36 10000 2 260 16:22 30.08.2019
2799 Clear 24 1021 29 10000 1 0 15:45 30.08.2019
2800 Clear 24 1021 36 10000 2 0 15:24 30.08.2019
2801 Clear 24 1021 29 10000 1 0 15:24 30.08.2019
2802 Clear 24 1021 36 10000 2 0 14:58 30.08.2019
2803 Clear 25 1021 38 10000 2 220 14:40 30.08.2019
2804 Clear 24 1021 36 10000 2 0 14:22 30.08.2019
2805 Clear 24 1021 33 10000 2 0 13:43 30.08.2019
2806 Clear 23 1021 38 10000 2 240 13:23 30.08.2019
2807 Clear 23 1022 38 10000 2 320 12:58 30.08.2019
2808 Clear 23 1022 38 10000 2 320 12:39 30.08.2019
2809 Clear 22 1022 40 10000 3 220 12:21 30.08.2019
2810 Clear 22 1022 43 10000 2 230 11:41 30.08.2019
2811 Clear 22 1022 43 10000 2 230 11:23 30.08.2019
2812 Clear 20 1022 52 10000 3 240 10:40 30.08.2019
2813 Clear 20 1022 52 10000 3 230 10:22 30.08.2019
2814 Clear 19 1022 55 10000 2 240 09:58 30.08.2019
2815 Clear 19 1022 55 10000 2 240 09:40 30.08.2019
2816 Clear 18 1022 59 10000 1 0 09:19 30.08.2019
2817 Clear 18 1022 63 10000 2 270 08:54 30.08.2019
2818 Clear 18 1022 63 10000 2 270 08:54 30.08.2019
2819 Clear 17 1022 63 10000 2 270 08:36 30.08.2019
2820 Clear 16 1022 63 10000 2 260 08:18 30.08.2019
2821 Clear 15 1022 67 10000 3 260 07:39 30.08.2019
2822 Clear 14 1022 76 10000 3 250 07:21 30.08.2019
2823 Clear 12 1023 81 10000 3 260 06:45 30.08.2019
2824 Clear 12 1023 81 10000 3 260 06:27 30.08.2019
2825 Clear 11 1023 87 10000 3 240 05:43 30.08.2019
2826 Clear 11 1023 87 10000 2 240 03:59 30.08.2019
2827 Clear 12 1023 87 10000 2 260 03:38 30.08.2019
2828 Clear 11 1023 81 10000 2 300 02:55 30.08.2019
2829 Clear 12 1023 76 10000 4 280 02:26 30.08.2019
2830 Clear 12 1023 81 10000 3 300 01:28 30.08.2019
2831 Clear 13 1023 76 10000 2 290 00:29 30.08.2019
2832 Clear 13 1023 76 10000 2 290 23:59 29.08.2019
2833 Clear 14 1023 76 10000 3 280 23:40 29.08.2019
2834 Clear 14 1023 76 10000 3 280 23:40 29.08.2019
2835 Clear 14 1023 67 10000 3 280 23:20 29.08.2019
2836 Clear 14 1023 67 10000 3 280 23:20 29.08.2019
2837 Clear 14 1023 67 10000 4 260 22:43 29.08.2019
2838 Clear 15 1023 67 10000 4 260 22:25 29.08.2019
2839 Clear 15 1024 63 10000 3 270 21:56 29.08.2019
2840 Clear 15 1024 63 10000 3 270 21:38 29.08.2019
2841 Clear 16 1024 59 10000 5 270 21:20 29.08.2019
2842 Clear 16 1024 59 10000 5 270 20:54 29.08.2019
2843 Clear 16 1024 59 10000 4 270 20:36 29.08.2019
2844 Clear 17 1024 59 10000 4 260 20:18 29.08.2019
2845 Clear 17 1024 55 10000 4 270 19:44 29.08.2019
2846 Clear 18 1024 55 10000 4 270 19:25 29.08.2019
2847 Clear 20 1024 45 10000 6 270 18:44 29.08.2019
2848 Clear 20 1024 49 10000 4 280 18:21 29.08.2019
2849 Clear 20 1024 49 10000 4 280 17:58 29.08.2019
2850 Clear 21 1024 46 10000 5 280 17:39 29.08.2019
2851 Clear 22 1025 46 10000 5 280 17:20 29.08.2019
2852 Clear 21 1024 46 10000 5 280 17:20 29.08.2019
2853 Clear 21 1024 46 10000 5 280 17:20 29.08.2019
2854 Clear 22 1025 46 10000 5 280 16:59 29.08.2019
2855 Clear 22 1025 35 10000 5 270 16:40 29.08.2019
2856 Clear 22 1025 35 10000 5 270 16:22 29.08.2019
2857 Clear 22 1025 35 10000 5 270 16:22 29.08.2019
2858 Clear 22 1025 43 10000 5 290 15:40 29.08.2019
2859 Clear 22 1025 37 10000 5 300 15:21 29.08.2019
2860 Clear 22 1026 40 10000 5 260 14:57 29.08.2019
2861 Clear 22 1026 40 10000 5 260 14:37 29.08.2019
2862 Clear 22 1026 37 10000 5 270 14:19 29.08.2019
2863 Clear 22 1026 37 10000 5 270 13:55 29.08.2019
2864 Clear 22 1026 40 10000 5 290 13:37 29.08.2019
2865 Clear 21 1027 40 10000 5 300 13:18 29.08.2019
2866 Clear 21 1027 40 10000 5 300 12:55 29.08.2019
2867 Clear 20 1027 40 10000 4 270 12:36 29.08.2019
2868 Clear 20 1027 40 10000 4 270 12:18 29.08.2019
2869 Clear 19 1027 40 10000 4 300 11:41 29.08.2019
2870 Clear 19 1027 39 10000 4 290 11:20 29.08.2019
2871 Clear 19 1027 39 10000 4 290 10:57 29.08.2019
2872 Clear 18 1028 42 10000 4 280 10:38 29.08.2019
2873 Clear 18 1028 42 10000 4 280 10:38 29.08.2019
2874 Clear 17 1028 45 10000 5 290 10:19 29.08.2019
2875 Clear 17 1028 51 10000 4 280 09:41 29.08.2019
2876 Clear 16 1029 51 10000 4 290 09:19 29.08.2019
2877 Clear 15 1029 58 10000 4 270 08:45 29.08.2019
2878 Clear 15 1029 58 10000 4 270 08:25 29.08.2019
2879 Clear 14 1029 62 10000 4 270 07:58 29.08.2019
2880 Clear 12 1029 62 10000 3 270 07:37 29.08.2019
2881 Clear 11 1029 76 10000 2 270 07:18 29.08.2019
2882 Clear 10 1029 81 10000 2 270 06:40 29.08.2019
2883 Clear 7 1029 87 10000 1 0 05:52 29.08.2019
2884 Clear 8 1029 87 10000 1 0 05:32 29.08.2019
2885 Mist 8 1028 93 10000 1 260 04:49 29.08.2019
2886 Mist 8 1028 93 10000 1 260 04:28 29.08.2019
2887 Clear 9 1029 87 10000 1 270 02:18 29.08.2019
2888 Mist 9 1029 93 10000 1 290 01:40 29.08.2019
2889 Mist 10 1028 87 10000 1 310 00:51 29.08.2019
2890 Mist 10 1028 87 10000 1 300 00:24 29.08.2019
2891 Mist 10 1028 87 10000 1 300 23:59 28.08.2019
2892 Mist 11 1028 81 10000 1 320 23:40 28.08.2019
2893 Clear 11 1028 81 10000 2 330 23:22 28.08.2019
2894 Clear 11 1028 81 10000 2 330 23:22 28.08.2019
2895 Clear 11 1028 81 10000 2 330 23:22 28.08.2019
2896 Clear 11 1028 81 10000 2 330 22:57 28.08.2019
2897 Clear 11 1028 81 10000 2 330 22:38 28.08.2019
2898 Clear 13 1028 76 10000 2 350 22:18 28.08.2019
2899 Clear 13 1028 71 10000 2 360 21:54 28.08.2019
2900 Clear 13 1028 71 10000 2 360 21:36 28.08.2019
2901 Clear 13 1028 71 10000 2 330 21:18 28.08.2019
2902 Clear 14 1028 66 10000 2 360 20:40 28.08.2019
2903 Clear 14 1028 58 10000 2 360 20:22 28.08.2019
2904 Clear 15 1028 58 10000 2 360 19:44 28.08.2019
2905 Clear 15 1028 54 10000 2 360 19:23 28.08.2019
2906 Clear 16 1028 54 10000 3 360 18:59 28.08.2019
2907 Clear 16 1028 54 10000 3 360 18:41 28.08.2019
2908 Clear 17 1028 51 10000 4 20 18:21 28.08.2019
2909 Clear 17 1028 45 10000 4 20 17:39 28.08.2019
2910 Clear 18 1028 42 10000 4 10 17:20 28.08.2019
2911 Clear 18 1028 42 10000 4 10 16:58 28.08.2019
2912 Clear 18 1027 36 10000 4 40 16:40 28.08.2019
2913 Clear 18 1027 42 10000 5 10 16:18 28.08.2019
2914 Clear 18 1027 42 10000 5 360 15:39 28.08.2019
2915 Clear 18 1027 42 10000 5 360 15:39 28.08.2019
2916 Clear 18 1027 39 10000 5 10 15:20 28.08.2019
2917 Clear 18 1027 39 10000 5 10 14:58 28.08.2019
2918 Clear 18 1027 42 10000 5 360 14:40 28.08.2019
2919 Clear 17 1027 42 10000 6 350 14:21 28.08.2019
2920 Clear 17 1027 39 10000 5 10 13:59 28.08.2019
2921 Clear 17 1027 39 10000 5 10 13:39 28.08.2019
2922 Clear 17 1027 42 10000 5 350 13:20 28.08.2019
2923 Clear 17 1027 42 10000 5 20 12:58 28.08.2019
2924 Clear 17 1027 42 10000 5 20 12:40 28.08.2019
2925 Clear 16 1027 48 10000 6 30 12:21 28.08.2019
2926 Clear 16 1027 48 10000 6 20 11:40 28.08.2019
2927 Clear 16 1027 47 10000 6 10 11:22 28.08.2019
2928 Clear 16 1027 47 10000 6 10 10:57 28.08.2019
2929 Clear 15 1027 54 10000 6 10 10:38 28.08.2019
2930 Clouds 15 1026 51 10000 6 10 10:20 28.08.2019
2931 Clouds 14 1027 58 10000 7 10 09:42 28.08.2019
2932 Clouds 14 1027 62 10000 7 10 09:22 28.08.2019
2933 Clouds 14 1027 62 10000 7 10 08:57 28.08.2019
2934 Clouds 13 1027 71 10000 5 10 08:38 28.08.2019
2935 Clouds 13 1027 81 10000 5 360 08:19 28.08.2019
2936 Clear 12 1027 76 10000 3 350 07:38 28.08.2019
2937 Clear 12 1027 81 10000 3 350 07:20 28.08.2019
2938 Clear 11 1026 87 10000 3 360 06:50 28.08.2019
2939 Clear 11 1026 87 10000 3 360 06:31 28.08.2019
2940 Clear 11 1026 93 10000 3 360 05:24 28.08.2019
2941 Clear 13 1024 87 10000 3 350 02:20 28.08.2019
2942 Clear 13 1023 81 10000 3 350 01:31 28.08.2019
2943 Clear 14 1023 76 10000 3 350 00:54 28.08.2019
2944 Clear 13 1023 76 10000 2 320 00:34 28.08.2019
2945 Clear 14 1023 76 10000 2 320 23:58 27.08.2019
2946 Clear 14 1023 87 10000 2 330 23:38 27.08.2019
2947 Clear 14 1023 82 10000 3 350 23:19 27.08.2019
2948 Clear 15 1023 82 10000 2 360 22:42 27.08.2019
2949 Clear 15 1022 76 10000 3 10 22:23 27.08.2019
2950 Clear 15 1022 76 10000 3 10 21:57 27.08.2019
2951 Clear 16 1022 72 10000 4 20 21:38 27.08.2019
2952 Clear 17 1022 72 10000 4 10 21:20 27.08.2019
2953 Clear 17 1022 72 10000 4 10 20:59 27.08.2019
2954 Clear 17 1022 72 10000 4 350 20:40 27.08.2019
2955 Clear 18 1022 67 10000 4 330 20:19 27.08.2019
2956 Clear 18 1021 67 10000 4 330 19:45 27.08.2019
2957 Clear 19 1021 55 10000 6 340 19:27 27.08.2019
2958 Clear 19 1021 55 10000 6 340 18:59 27.08.2019
2959 Clear 19 1021 55 10000 6 340 18:41 27.08.2019
2960 Clear 20 1021 55 10000 5 340 18:18 27.08.2019
2961 Clear 20 1021 55 10000 6 330 17:56 27.08.2019
2962 Clear 20 1021 55 10000 6 330 17:56 27.08.2019
2963 Clear 20 1021 55 10000 6 330 17:37 27.08.2019
2964 Clouds 21 1020 56 10000 7 320 17:18 27.08.2019
2965 Clear 21 1020 52 10000 7 330 16:43 27.08.2019
2966 Clear 21 1020 56 10000 7 330 16:24 27.08.2019
2967 Clear 21 1020 56 10000 7 330 15:57 27.08.2019
2968 Clouds 21 1020 52 10000 6 330 15:38 27.08.2019
2969 Clouds 21 1020 49 10000 7 320 15:19 27.08.2019
2970 Clouds 21 1020 49 10000 7 320 15:19 27.08.2019
2971 Clouds 21 1020 52 10000 6 330 14:43 27.08.2019
2972 Clouds 22 1020 52 10000 6 330 14:24 27.08.2019
2973 Clear 22 1020 49 10000 7 350 13:57 27.08.2019
2974 Clear 21 1020 56 10000 6 330 13:38 27.08.2019
2975 Clouds 22 1020 52 10000 7 320 13:20 27.08.2019
2976 Clear 21 1020 55 10000 6 340 12:41 27.08.2019
2977 Clouds 21 1020 56 10000 6 340 12:20 27.08.2019
2978 Clouds 21 1020 56 10000 6 340 11:57 27.08.2019
2979 Clouds 21 1019 56 10000 7 340 11:37 27.08.2019
2980 Clouds 20 1019 56 10000 6 340 11:18 27.08.2019
2981 Clouds 20 1019 60 10000 6 350 10:41 27.08.2019
2982 Clouds 20 1019 68 10000 6 340 10:19 27.08.2019
2983 Clouds 20 1019 68 10000 6 340 10:19 27.08.2019
2984 Clouds 19 1019 72 10000 7 310 09:55 27.08.2019
2985 Clouds 19 1019 72 10000 7 310 09:37 27.08.2019
2986 Clouds 18 1019 77 10000 5 330 09:18 27.08.2019
2987 Clouds 18 1019 82 10000 5 330 08:44 27.08.2019
2988 Clouds 18 1019 82 10000 5 330 08:24 27.08.2019
2989 Clouds 17 1019 100 10000 3 310 07:43 27.08.2019
2990 Clear 17 1019 93 10000 3 310 07:21 27.08.2019
2991 Clear 17 1019 93 10000 3 310 06:59 27.08.2019
2992 Clear 16 1019 93 10000 4 300 06:40 27.08.2019
2993 Rain 16 1019 100 10000 4 300 06:19 27.08.2019
2994 Rain 15 1019 100 10000 3 300 05:26 27.08.2019
2995 Rain 16 1019 87 10000 4 270 03:43 27.08.2019
2996 Clouds 16 1019 82 10000 4 260 02:40 27.08.2019
2997 Clear 16 1020 82 10000 4 250 01:46 27.08.2019
2998 Clear 16 1020 82 10000 4 250 01:25 27.08.2019
2999 Clear 16 1020 77 10000 5 250 00:49 27.08.2019
3000 Clear 16 1021 77 10000 5 250 00:28 27.08.2019
3001 Clear 17 1021 72 10000 5 250 23:44 26.08.2019
3002 Clear 17 1021 72 10000 4 250 23:25 26.08.2019
3003 Clear 17 1021 72 10000 4 250 22:59 26.08.2019
3004 Clear 17 1021 72 10000 3 250 22:37 26.08.2019
3005 Clear 17 1022 72 10000 5 250 22:19 26.08.2019
3006 Clear 17 1022 72 10000 5 260 21:40 26.08.2019
3007 Clear 18 1022 72 10000 5 260 21:22 26.08.2019
3008 Clear 17 1022 72 10000 5 260 20:59 26.08.2019
3009 Clear 17 1023 67 10000 5 250 20:41 26.08.2019
3010 Clear 17 1023 67 10000 5 250 20:20 26.08.2019
3011 Clear 18 1023 63 10000 5 260 19:58 26.08.2019
3012 Clear 18 1023 63 10000 5 260 19:58 26.08.2019
3013 Clear 18 1023 63 10000 5 250 19:40 26.08.2019
3014 Clear 19 1023 55 10000 6 250 19:19 26.08.2019
3015 Clear 19 1023 55 10000 6 250 18:55 26.08.2019
3016 Clear 19 1024 59 10000 5 250 18:37 26.08.2019
3017 Clear 20 1024 52 10000 5 250 18:18 26.08.2019
3018 Clear 21 1024 52 10000 5 260 17:43 26.08.2019
3019 Clear 21 1024 52 10000 5 260 17:19 26.08.2019
3020 Clear 22 1025 49 10000 6 250 16:56 26.08.2019
3021 Clear 21 1024 52 10000 6 250 16:56 26.08.2019
3022 Clear 22 1025 49 10000 6 250 16:38 26.08.2019
3023 Clear 22 1025 49 10000 6 250 16:18 26.08.2019
3024 Clear 22 1025 49 10000 6 250 15:42 26.08.2019
3025 Clear 22 1025 49 10000 6 250 15:22 26.08.2019
3026 Clear 22 1026 46 10000 6 260 14:57 26.08.2019
3027 Clear 22 1026 46 10000 5 260 14:38 26.08.2019
3028 Clear 21 1026 49 10000 5 250 14:19 26.08.2019
3029 Clouds 21 1027 46 10000 5 240 13:43 26.08.2019
3030 Clouds 21 1027 46 10000 5 240 13:22 26.08.2019
3031 Clouds 20 1028 52 10000 4 250 12:54 26.08.2019
3032 Clouds 20 1028 52 10000 4 250 12:36 26.08.2019
3033 Clouds 20 1028 59 10000 3 230 12:18 26.08.2019
3034 Clouds 20 1028 56 10000 4 240 11:38 26.08.2019
3035 Clouds 20 1028 56 10000 4 240 11:19 26.08.2019
3036 Clouds 19 1028 59 10000 3 260 10:55 26.08.2019
3037 Clear 19 1029 59 10000 3 240 10:36 26.08.2019
3038 Clear 18 1029 68 10000 4 270 10:18 26.08.2019
3039 Clear 17 1029 63 10000 3 210 09:41 26.08.2019
3040 Clear 17 1029 63 10000 3 210 09:23 26.08.2019
3041 Clouds 17 1029 67 10000 4 210 08:56 26.08.2019
3042 Clear 16 1030 67 10000 4 210 08:37 26.08.2019
3043 Clear 16 1030 67 10000 4 210 08:19 26.08.2019
3044 Fog 14 1030 76 10000 1 0 07:42 26.08.2019
3045 Fog 14 1030 76 10000 1 0 07:24 26.08.2019
3046 Fog 13 1030 82 10000 1 240 06:56 26.08.2019
3047 Fog 12 1030 81 10000 1 230 06:38 26.08.2019
3048 Fog 11 1030 93 10000 1.73 264.204 06:18 26.08.2019
3049 Fog 9 1030 93 10000 1 290 04:36 26.08.2019
3050 Mist 10 1030 100 10000 1 0 03:48 26.08.2019
3051 Mist 10 1029 100 10000 1 290 02:31 26.08.2019
3052 Mist 11 1030 93 10000 1 0 01:23 26.08.2019
3053 Clear 11 1030 100 10000 1 0 00:44 26.08.2019
3054 Clear 11 1030 100 10000 1 0 00:25 26.08.2019
3055 Clear 12 1029 87 10000 2 350 23:44 25.08.2019
3056 Clear 12 1029 93 10000 1 0 23:20 25.08.2019
3057 Clear 12 1029 93 10000 1 0 22:58 25.08.2019
3058 Clear 13 1029 93 10000 2 330 22:40 25.08.2019
3059 Clear 13 1029 93 10000 2 330 22:20 25.08.2019
3060 Clear 13 1029 93 10000 2 330 21:58 25.08.2019
3061 Clear 13 1029 93 10000 2 330 21:58 25.08.2019
3062 Clear 14 1029 87 10000 2 350 21:39 25.08.2019
3063 Clear 14 1029 87 10000 2 350 21:19 25.08.2019
3064 Clear 14 1029 82 10000 2 360 20:56 25.08.2019
3065 Clear 14 1029 82 10000 2 30 20:38 25.08.2019
3066 Clear 15 1029 76 10000 2 30 20:19 25.08.2019
3067 Clear 16 1029 76 10000 3 40 19:41 25.08.2019
3068 Clear 16 1029 76 10000 4 40 19:23 25.08.2019
3069 Clear 17 1029 67 10000 5 40 18:59 25.08.2019
3070 Clear 17 1029 67 10000 5 40 18:59 25.08.2019
3071 Clear 17 1029 67 10000 5 40 18:40 25.08.2019
3072 Clear 18 1028 63 10000 5 20 18:22 25.08.2019
3073 Clear 18 1028 63 10000 5 20 17:59 25.08.2019
3074 Clear 19 1028 59 10000 5 20 17:39 25.08.2019
3075 Clear 19 1028 59 10000 5 20 17:20 25.08.2019
3076 Clear 21 1027 49 10000 4 340 16:41 25.08.2019
3077 Clear 21 1027 49 10000 4 340 16:23 25.08.2019
3078 Clear 21 1028 59 10000 6 30 15:48 25.08.2019
3079 Clear 21 1028 59 10000 6 30 15:27 25.08.2019
3080 Clouds 20 1027 59 10000 4 340 14:59 25.08.2019
3081 Clouds 20 1027 52 10000 4 10 14:39 25.08.2019
3082 Clear 20 1027 59 10000 5 340 14:20 25.08.2019
3083 Clouds 20 1027 52 10000 6 350 13:45 25.08.2019
3084 Clouds 20 1027 52 10000 6 350 13:21 25.08.2019
3085 Clouds 20 1027 52 10000 6 350 13:21 25.08.2019
3086 Clouds 20 1027 59 10000 5 340 12:56 25.08.2019
3087 Clear 20 1027 56 10000 6 330 12:38 25.08.2019
3088 Clouds 20 1027 59 10000 5 330 12:20 25.08.2019
3089 Clouds 19 1027 59 10000 6 350 11:55 25.08.2019
3090 Clouds 19 1027 59 10000 6 350 11:36 25.08.2019
3091 Clouds 19 1027 59 10000 6 350 11:36 25.08.2019
3092 Clouds 19 1027 55 10000 7 330 11:18 25.08.2019
3093 Clouds 19 1027 55 10000 7 330 11:18 25.08.2019
3094 Clouds 19 1026 63 10000 6 340 10:40 25.08.2019
3095 Clouds 18 1026 68 10000 5 330 10:21 25.08.2019
3096 Clouds 18 1026 68 10000 5 330 09:59 25.08.2019
3097 Clouds 18 1026 63 10000 5 340 09:41 25.08.2019
3098 Clouds 18 1026 63 10000 5 340 09:22 25.08.2019
3099 Clear 17 1026 77 10000 4 310 08:44 25.08.2019
3100 Clear 17 1026 77 10000 4 310 08:22 25.08.2019
3101 Clear 15 1026 87 10000 4 320 07:45 25.08.2019
3102 Clear 14 1025 87 10000 4 310 07:23 25.08.2019
3103 Clear 14 1025 87 10000 4 300 06:31 25.08.2019
3104 Clear 12 1024 100 10000 4 300 04:58 25.08.2019
3105 Clear 14 1024 100 10000 4 300 03:43 25.08.2019
3106 Clear 14 1023 93 10000 3 290 02:41 25.08.2019
3107 Clear 14 1023 93 10000 4 300 01:42 25.08.2019
3108 Clear 15 1023 93 10000 3 280 00:42 25.08.2019
3109 Clear 16 1023 93 10000 3 280 00:22 25.08.2019
3110 Clear 16 1023 87 10000 4 290 23:54 24.08.2019
3111 Clear 16 1023 87 10000 4 300 23:24 24.08.2019
3112 Clear 17 1023 93 10000 4 300 22:58 24.08.2019
3113 Clear 17 1022 87 10000 4 300 22:40 24.08.2019
3114 Clear 18 1022 82 10000 4 290 22:19 24.08.2019
3115 Clear 18 1022 82 10000 4 290 21:57 24.08.2019
3116 Clouds 18 1022 77 10000 5 270 21:39 24.08.2019
3117 Clouds 18 1022 77 10000 5 270 21:20 24.08.2019
3118 Rain 18 1022 82 10000 5 280 21:20 24.08.2019
3119 Rain 18 1022 82 10000 5 280 20:57 24.08.2019
3120 Rain 19 1023 87 10000 6 320 20:38 24.08.2019
3121 Clear 19 1022 72 10000 5 260 20:18 24.08.2019
3122 Clear 19 1022 72 10000 5 260 19:57 24.08.2019
3123 Clear 20 1022 68 10000 6 250 19:38 24.08.2019
3124 Clear 21 1022 63 10000 6 250 19:19 24.08.2019
3125 Clear 21 1022 60 10000 6 250 18:45 24.08.2019
3126 Clear 21 1022 60 10000 6 250 18:23 24.08.2019
3127 Clear 22 1022 56 10000 6 260 17:46 24.08.2019
3128 Clear 23 1022 56 10000 6 260 17:27 24.08.2019
3129 Clear 23 1022 56 10000 7 260 16:56 24.08.2019
3130 Clear 23 1022 53 10000 8 250 16:36 24.08.2019
3131 Clear 23 1022 53 10000 8 250 16:18 24.08.2019
3132 Clear 23 1022 46 10000 7 260 15:43 24.08.2019
3133 Clear 24 1022 46 10000 9 250 15:25 24.08.2019
3134 Clear 24 1022 46 10000 9 250 14:57 24.08.2019
3135 Clear 23 1022 46 10000 8 240 14:38 24.08.2019
3136 Clear 23 1022 46 10000 8 240 14:18 24.08.2019
3137 Clear 23 1023 46 10000 8 250 13:43 24.08.2019
3138 Clear 23 1023 46 10000 9 240 13:22 24.08.2019
3139 Clear 23 1023 46 10000 9 240 12:59 24.08.2019
3140 Clear 22 1024 49 10000 8 260 12:40 24.08.2019
3141 Clear 22 1024 49 10000 8 260 12:40 24.08.2019
3142 Clouds 22 1024 52 10000 7 250 12:22 24.08.2019
3143 Clouds 22 1024 52 10000 8 250 11:46 24.08.2019
3144 Clouds 22 1024 52 10000 8 250 11:26 24.08.2019
3145 Clouds 21 1024 56 10000 8 250 10:59 24.08.2019
3146 Clouds 21 1025 52 10000 8 250 10:38 24.08.2019
3147 Clouds 21 1025 52 10000 8 250 10:19 24.08.2019
3148 Clear 20 1025 60 10000 5 230 09:41 24.08.2019
3149 Clear 19 1025 63 10000 5 250 09:18 24.08.2019
3150 Clear 19 1025 63 10000 5 250 09:18 24.08.2019
3151 Clear 18 1026 68 10000 4 240 08:43 24.08.2019
3152 Clear 18 1026 68 10000 4 240 08:24 24.08.2019
3153 Clear 16 1026 77 10000 4 250 07:51 24.08.2019
3154 Clear 16 1026 77 10000 4 250 07:29 24.08.2019
3155 Clear 14 1026 87 10000 3 200 06:39 24.08.2019
3156 Clear 14 1026 87 10000 3 200 06:21 24.08.2019
3157 Mist 12 1026 87 10000 1 0 05:35 24.08.2019
3158 Mist 12 1026 87 10000 3 210 03:41 24.08.2019
3159 Mist 13 1027 100 10000 1 0 02:50 24.08.2019
3160 Mist 13 1027 93 9000 1 250 02:18 24.08.2019
3161 Mist 13 1027 87 10000 2 270 01:25 24.08.2019
3162 Mist 14 1027 87 10000 1 0 00:47 24.08.2019
3163 Clear 14 1027 87 10000 1 0 00:23 24.08.2019
3164 Clear 14 1027 87 10000 1 0 00:23 24.08.2019
3165 Clear 14 1027 82 10000 1 0 23:45 23.08.2019
3166 Clear 15 1027 82 10000 1 0 23:20 23.08.2019
3167 Clear 15 1027 82 10000 1.19 283.475 22:45 23.08.2019
3168 Clear 16 1027 82 10000 1.19 283.475 22:27 23.08.2019
3169 Clear 16 1027 72 10000 1 310 21:56 23.08.2019
3170 Clear 16 1027 72 10000 1.44 292.963 21:37 23.08.2019
3171 Clear 17 1027 67 10000 1 300 21:19 23.08.2019
3172 Clear 17 1027 67 10000 1 300 20:52 23.08.2019
3173 Clear 17 1027 63 10000 1 0 20:33 23.08.2019
3174 Clear 19 1027 55 10000 2 330 19:47 23.08.2019
3175 Clear 19 1027 55 10000 2 330 19:19 23.08.2019
3176 Clear 21 1027 55 10000 2 310 18:58 23.08.2019
3177 Clear 20 1027 52 10000 2 300 18:40 23.08.2019
3178 Clear 20 1027 52 10000 2 300 18:40 23.08.2019
3179 Clear 20 1027 52 10000 2 300 18:21 23.08.2019
3180 Clear 21 1027 49 10000 3 360 17:45 23.08.2019
3181 Clear 21 1027 49 10000 3 360 17:45 23.08.2019
3182 Clear 22 1028 46 10000 2 360 17:26 23.08.2019
3183 Clear 22 1028 46 10000 2 360 16:59 23.08.2019
3184 Clear 22 1028 46 10000 3 290 16:40 23.08.2019
3185 Clear 23 1028 49 10000 4 290 16:22 23.08.2019
3186 Clear 22 1028 43 10000 4 300 15:41 23.08.2019
3187 Clear 22 1028 43 10000 4 300 15:22 23.08.2019
3188 Clear 23 1028 52 10000 2 10 14:58 23.08.2019
3189 Clear 22 1028 49 10000 3 290 14:39 23.08.2019
3190 Clear 22 1028 49 10000 3 290 14:20 23.08.2019
3191 Clear 22 1029 52 10000 4 330 13:56 23.08.2019
3192 Clear 22 1029 52 10000 4 330 13:37 23.08.2019
3193 Clouds 22 1029 49 10000 4 290 13:19 23.08.2019
3194 Clouds 22 1029 46 10000 3 290 12:42 23.08.2019
3195 Clouds 22 1029 46 10000 3 290 12:24 23.08.2019
3196 Clouds 21 1029 52 10000 3 310 11:59 23.08.2019
3197 Clouds 21 1029 52 10000 2 340 11:41 23.08.2019
3198 Clouds 21 1029 52 10000 2 340 11:41 23.08.2019
3199 Clouds 20 1029 56 10000 2 260 11:20 23.08.2019
3200 Clouds 20 1029 56 10000 2 260 10:59 23.08.2019
3201 Clouds 20 1030 60 10000 3 330 10:41 23.08.2019
3202 Clouds 20 1030 60 10000 3 330 10:21 23.08.2019
3203 Clear 19 1029 68 10000 1 0 09:48 23.08.2019
3204 Clear 19 1029 68 10000 1 0 09:30 23.08.2019
3205 Clear 19 1029 68 10000 1 0 08:58 23.08.2019
3206 Clear 18 1029 72 10000 1 0 08:39 23.08.2019
3207 Clear 18 1029 72 10000 1 0 08:19 23.08.2019
3208 Clear 16 1029 82 10000 1 0 07:42 23.08.2019
3209 Clear 16 1029 82 10000 1 0 07:24 23.08.2019
3210 Clear 15 1029 82 10000 2 300 06:56 23.08.2019
3211 Clear 14 1029 93 10000 2 300 06:37 23.08.2019
3212 Clear 13 1029 93 10000 2 310 06:19 23.08.2019
3213 Clear 12 1028 100 10000 2 280 05:32 23.08.2019
3214 Clear 12 1028 100 10000 1 270 04:20 23.08.2019
3215 Clear 12 1028 93 10000 2 300 02:53 23.08.2019
3216 Clear 13 1028 93 10000 2 300 02:22 23.08.2019
3217 Clear 13 1027 93 10000 2 320 01:39 23.08.2019
3218 Clear 14 1027 93 10000 2 310 00:45 23.08.2019
3219 Clear 14 1027 93 10000 2 310 00:19 23.08.2019
3220 Clear 15 1027 87 10000 2 310 23:47 22.08.2019
3221 Clear 15 1027 87 10000 2 310 23:24 22.08.2019
3222 Clear 15 1027 87 10000 2 310 22:56 22.08.2019
3223 Clear 14 1026 87 10000 3 310 22:38 22.08.2019
3224 Clear 14 1026 87 10000 3 310 22:19 22.08.2019
3225 Clear 15 1026 87 10000 4 300 21:55 22.08.2019
3226 Clear 15 1026 82 10000 3 300 21:37 22.08.2019
3227 Clear 15 1026 82 10000 3 300 21:18 22.08.2019
3228 Clear 16 1026 82 10000 3 300 20:55 22.08.2019
3229 Clear 16 1025 77 10000 3 300 20:37 22.08.2019
3230 Clear 17 1025 77 10000 3 300 20:18 22.08.2019
3231 Clear 17 1025 77 10000 3 310 19:40 22.08.2019
3232 Clear 18 1024 72 10000 4 310 19:22 22.08.2019
3233 Clear 18 1024 72 10000 4 310 18:59 22.08.2019
3234 Clear 19 1024 72 10000 4 300 18:41 22.08.2019
3235 Clear 19 1024 72 10000 5 300 18:20 22.08.2019
3236 Clear 20 1024 72 10000 5 300 17:58 22.08.2019
3237 Clear 20 1024 72 10000 5 300 17:58 22.08.2019
3238 Clear 19 1024 72 10000 5 300 17:39 22.08.2019
3239 Clouds 20 1024 72 10000 6 320 17:20 22.08.2019
3240 Clouds 20 1024 72 10000 5 300 16:57 22.08.2019
3241 Clouds 20 1024 72 10000 5 300 16:38 22.08.2019
3242 Clouds 20 1024 72 10000 6 320 16:20 22.08.2019
3243 Clouds 20 1024 72 10000 6 320 16:20 22.08.2019
3244 Clouds 20 1024 72 10000 6 320 16:20 22.08.2019
3245 Clouds 20 1024 72 10000 6 320 16:20 22.08.2019
3246 Clouds 20 1024 72 10000 6 320 15:55 22.08.2019
3247 Clouds 20 1024 72 10000 6 320 15:55 22.08.2019
3248 Clouds 20 1023 68 10000 6 330 15:36 22.08.2019
3249 Clouds 20 1023 72 10000 7 310 15:18 22.08.2019
3250 Clouds 20 1023 72 10000 7 310 15:18 22.08.2019
3251 Clouds 20 1023 68 10000 8 310 14:41 22.08.2019
3252 Clouds 20 1023 68 10000 8 310 14:22 22.08.2019
3253 Clouds 20 1023 68 10000 8 310 13:59 22.08.2019
3254 Clouds 21 1023 72 10000 8 310 13:40 22.08.2019
3255 Clouds 21 1023 72 10000 8 310 13:21 22.08.2019
3256 Rain 22 1022 72 10000 6 300 12:57 22.08.2019
3257 Clouds 22 1022 72 10000 5 300 12:38 22.08.2019
3258 Clouds 22 1022 72 10000 5 300 12:19 22.08.2019
3259 Clouds 25 1020 69 10000 5 290 11:42 22.08.2019
3260 Clouds 25 1020 69 10000 5 290 11:42 22.08.2019
3261 Clear 26 1020 69 10000 6 290 11:21 22.08.2019
3262 Clear 26 1020 69 10000 6 290 10:58 22.08.2019
3263 Clear 26 1020 65 10000 5 270 10:40 22.08.2019
3264 Clear 26 1020 65 10000 5 270 10:22 22.08.2019
3265 Clouds 26 1020 73 10000 6 270 09:58 22.08.2019
3266 Clouds 25 1019 69 10000 6 260 09:39 22.08.2019
3267 Clear 25 1019 69 10000 7 250 09:21 22.08.2019
3268 Clear 25 1019 69 10000 7 250 08:56 22.08.2019
3269 Clear 24 1019 73 10000 7 240 08:38 22.08.2019
3270 Clear 22 1019 73 10000 4 200 08:20 22.08.2019
3271 Clear 22 1019 73 10000 4 200 07:40 22.08.2019
3272 Clear 21 1019 78 10000 4 200 07:20 22.08.2019
3273 Clear 21 1019 78 10000 4 200 06:52 22.08.2019
3274 Mist 19 1019 88 10000 3 200 06:24 22.08.2019
3275 Mist 19 1019 88 10000 3 200 05:58 22.08.2019
3276 Fog 18 1020 93 10000 2 180 04:38 22.08.2019
3277 Mist 19 1020 94 10000 3 150 02:51 22.08.2019
3278 Mist 19 1021 94 10000 2 150 02:33 22.08.2019
3279 Mist 19 1021 94 10000 2 140 01:25 22.08.2019
3280 Mist 19 1021 88 10000 3 140 00:45 22.08.2019
3281 Mist 19 1021 88 10000 3 140 00:27 22.08.2019
3282 Mist 20 1021 88 10000 3 140 23:54 21.08.2019
3283 Mist 20 1022 88 10000 3 140 23:36 21.08.2019
3284 Mist 20 1022 93 10000 4 120 23:18 21.08.2019
3285 Mist 20 1022 93 10000 4 120 22:55 21.08.2019
3286 Mist 20 1022 88 10000 4 130 22:36 21.08.2019
3287 Mist 20 1022 93 10000 4 120 22:18 21.08.2019
3288 Mist 20 1022 93 10000 4 120 21:54 21.08.2019
3289 Mist 20 1022 88 10000 4 120 21:36 21.08.2019
3290 Mist 21 1022 88 10000 4 110 21:18 21.08.2019
3291 Mist 21 1023 77 10000 4 100 20:42 21.08.2019
3292 Mist 21 1023 77 10000 4 100 20:42 21.08.2019
3293 Mist 21 1023 77 10000 4 100 20:23 21.08.2019
3294 Clear 22 1023 83 10000 5 70 19:56 21.08.2019
3295 Clear 22 1023 83 10000 5 70 19:38 21.08.2019
3296 Clear 23 1023 73 10000 5 70 19:19 21.08.2019
3297 Clear 24 1023 69 10000 4 70 18:43 21.08.2019
3298 Clear 25 1023 69 10000 4 70 18:23 21.08.2019
3299 Clear 25 1023 69 10000 4 70 18:23 21.08.2019
3300 Clear 25 1023 69 10000 4 70 17:56 21.08.2019
3301 Clear 25 1023 69 10000 3 60 17:37 21.08.2019
3302 Clouds 25 1024 64 10000 3 50 17:19 21.08.2019
3303 Clear 25 1024 60 10000 2 50 16:44 21.08.2019
3304 Clear 25 1024 60 10000 2 50 16:44 21.08.2019
3305 Clear 26 1024 61 10000 3 30 16:24 21.08.2019
3306 Clear 26 1024 61 10000 3 30 15:59 21.08.2019
3307 Clear 26 1024 64 10000 3 360 15:41 21.08.2019
3308 Clear 26 1024 64 10000 3 360 15:41 21.08.2019
3309 Clear 26 1024 64 10000 3 360 15:21 21.08.2019
3310 Clouds 25 1025 69 10000 3 10 14:57 21.08.2019
3311 Clouds 26 1025 64 10000 2 10 14:39 21.08.2019
3312 Clear 26 1025 69 10000 3 20 14:20 21.08.2019
3313 Clear 26 1025 69 10000 3 20 13:56 21.08.2019
3314 Clear 25 1025 73 10000 3 360 13:38 21.08.2019
3315 Clouds 26 1024 61 10000 1 0 13:18 21.08.2019
3316 Clouds 26 1025 65 10000 1 0 12:41 21.08.2019
3317 Clouds 26 1025 65 10000 1 0 12:23 21.08.2019
3318 Clear 25 1025 78 10000 3 10 11:59 21.08.2019
3319 Clouds 25 1025 83 10000 4 10 11:41 21.08.2019
3320 Clouds 25 1025 73 10000 2 20 11:22 21.08.2019
3321 Clouds 25 1025 73 10000 2 20 10:57 21.08.2019
3322 Clouds 24 1025 69 10000 2 20 10:38 21.08.2019
3323 Clouds 24 1025 69 10000 2 20 10:19 21.08.2019
3324 Clouds 24 1025 78 10000 2 60 09:57 21.08.2019
3325 Clouds 23 1026 78 10000 2 30 09:37 21.08.2019
3326 Clouds 23 1026 78 10000 2 30 09:37 21.08.2019
3327 Clouds 23 1025 83 10000 1 0 09:18 21.08.2019
3328 Clear 23 1025 83 10000 2 30 08:44 21.08.2019
3329 Clear 23 1025 83 10000 2 30 08:44 21.08.2019
3330 Clear 22 1025 83 10000 2 30 08:24 21.08.2019
3331 Clouds 20 1025 100 9000 3 340 07:43 21.08.2019
3332 Mist 19 1025 100 6000 1 350 07:24 21.08.2019
3333 Clouds 19 1025 100 9000 1 350 06:50 21.08.2019
3334 Clouds 19 1025 100 9000 1 350 06:28 21.08.2019
3335 Mist 18 1025 93 10000 1 0 05:47 21.08.2019
3336 Mist 17 1025 93 10000 1 0 05:25 21.08.2019
3337 Fog 17 1024 100 10000 2 290 03:57 21.08.2019
3338 Mist 18 1024 100 10000 1.59 331.473 01:55 21.08.2019
3339 Mist 19 1024 100 10000 1 310 01:23 21.08.2019
3340 Mist 19 1024 93 10000 2 320 00:38 21.08.2019
3341 Mist 19 1024 100 10000 3 300 00:18 21.08.2019
3342 Mist 19 1023 93 10000 2 320 23:44 20.08.2019
3343 Mist 20 1023 93 10000 1 0 23:19 20.08.2019
3344 Mist 20 1023 93 10000 1 0 22:58 20.08.2019
3345 Mist 20 1023 93 10000 1 0 22:58 20.08.2019
3346 Clear 21 1023 83 10000 1 0 22:40 20.08.2019
3347 Clear 21 1023 83 10000 2 340 22:21 20.08.2019
3348 Clear 21 1023 83 10000 2 340 22:21 20.08.2019
3349 Clear 21 1023 83 10000 2 340 21:58 20.08.2019
3350 Mist 22 1023 83 10000 2 330 21:39 20.08.2019
3351 Mist 22 1023 83 10000 2 330 21:19 20.08.2019
3352 Mist 22 1023 83 10000 1 330 20:58 20.08.2019
3353 Mist 22 1023 83 10000 2 330 20:39 20.08.2019
3354 Mist 22 1023 83 10000 2 330 20:21 20.08.2019
3355 Clear 24 1023 78 10000 4 320 19:39 20.08.2019
3356 Clear 24 1023 78 10000 4 300 19:21 20.08.2019
3357 Clear 24 1023 78 10000 4 300 18:56 20.08.2019
3358 Clear 26 1022 53 10000 3 210 18:38 20.08.2019
3359 Clear 26 1022 53 10000 3 210 18:19 20.08.2019
3360 Clear 26 1022 53 10000 3 210 18:19 20.08.2019
3361 Clear 27 1021 51 10000 4 210 17:56 20.08.2019
3362 Clear 26 1021 51 10000 4 210 17:38 20.08.2019
3363 Clear 27 1021 51 10000 4 210 17:19 20.08.2019
3364 Clear 27 1021 51 10000 3 210 16:44 20.08.2019
3365 -273 0 0 0 0 0 16:25 20.08.2019
3366 Clear 28 1021 48 10000 4 220 15:43 20.08.2019
3367 Clear 27 1021 51 10000 5 220 15:19 20.08.2019
3368 Clear 27 1021 51 10000 5 220 14:59 20.08.2019
3369 Clear 28 1021 51 10000 4 260 14:41 20.08.2019
3370 Clear 27 1021 51 10000 4 240 14:21 20.08.2019
3371 Clear 27 1021 51 10000 4 240 13:56 20.08.2019
3372 Clouds 27 1021 51 10000 4 210 13:38 20.08.2019
3373 Clear 27 1021 51 10000 4 230 13:20 20.08.2019
3374 Clear 27 1021 51 10000 3 220 12:51 20.08.2019
3375 Clear 26 1021 51 10000 3 220 12:28 20.08.2019
3376 Clear 26 1021 54 10000 4 250 11:58 20.08.2019
3377 Clear 26 1021 54 10000 4 210 11:58 20.08.2019
3378 Clear 26 1021 54 10000 4 250 11:38 20.08.2019
3379 Clear 25 1021 57 10000 4 220 11:18 20.08.2019
3380 Clear 25 1021 57 10000 4 220 10:57 20.08.2019
3381 Clear 25 1021 64 10000 4 220 10:38 20.08.2019
3382 Clear 24 1022 64 10000 4 210 10:20 20.08.2019
3383 Mist 23 1022 64 10000 4 230 09:44 20.08.2019
3384 Clear 22 1022 73 10000 4 210 09:25 20.08.2019
3385 Clear 22 1022 73 10000 4 210 08:58 20.08.2019
3386 Clear 21 1022 77 10000 3 220 08:40 20.08.2019
3387 Clear 19 1022 82 10000 3 220 08:21 20.08.2019
3388 Mist 18 1022 88 10000 3 210 07:57 20.08.2019
3389 Mist 18 1022 88 10000 3 210 07:37 20.08.2019
3390 Mist 17 1021 93 10000 1 170 07:18 20.08.2019
3391 Mist 16 1021 93 10000 1 0 06:41 20.08.2019
3392 Mist 15 1021 100 10000 1 180 06:19 20.08.2019
3393 Fog 14 1021 93 10000 1 150 05:40 20.08.2019
3394 Fog 14 1021 93 10000 2 210 04:22 20.08.2019
3395 Fog 14 1020 100 10000 2 220 02:48 20.08.2019
3396 Mist 14 1020 100 10000 2 200 01:50 20.08.2019
3397 Fog 15 1020 100 10000 2 230 01:20 20.08.2019
3398 Fog 15 1020 100 8000 1 0 00:43 20.08.2019
3399 Mist 14 1020 93 10000 3 260 00:21 20.08.2019
3400 Fog 15 1020 100 10000 3 230 23:42 19.08.2019
3401 Fog 15 1020 100 10000 3 250 23:19 19.08.2019
3402 Fog 15 1020 100 10000 3 250 22:58 19.08.2019
3403 Fog 15 1020 93 10000 3 240 22:40 19.08.2019
3404 Mist 16 1020 93 10000 2 210 22:20 19.08.2019
3405 Mist 16 1020 93 10000 2 210 21:57 19.08.2019
3406 Fog 16 1020 100 10000 2 200 21:38 19.08.2019
3407 Mist 17 1020 93 10000 3 260 21:19 19.08.2019
3408 Mist 17 1020 88 10000 4 260 20:40 19.08.2019
3409 Mist 18 1020 88 10000 4 260 20:21 19.08.2019
3410 Mist 18 1020 88 10000 4 260 20:21 19.08.2019
3411 Mist 18 1020 88 10000 4 260 20:21 19.08.2019
3412 Mist 17 1020 88 10000 4 260 19:59 19.08.2019
3413 Clouds 19 1019 88 10000 4 240 19:41 19.08.2019
3414 Clouds 19 1019 88 10000 4 230 19:19 19.08.2019
3415 Clouds 19 1019 88 10000 4 230 19:19 19.08.2019
3416 Clouds 19 1019 88 10000 4 230 19:19 19.08.2019
3417 Clouds 20 1019 77 10000 5 220 18:59 19.08.2019
3418 Clouds 20 1019 77 10000 5 220 18:40 19.08.2019
3419 Clouds 20 1019 77 10000 5 220 18:40 19.08.2019
3420 Clouds 20 1019 77 10000 4 220 18:21 19.08.2019
3421 Clouds 20 1019 77 10000 3 210 17:56 19.08.2019
3422 Clouds 20 1019 77 10000 3 210 17:37 19.08.2019
3423 Clouds 21 1018 73 10000 4 240 17:19 19.08.2019
3424 Clouds 21 1018 73 10000 4 240 16:54 19.08.2019
3425 Clouds 20 1018 77 10000 3 220 16:36 19.08.2019
3426 Clouds 20 1018 77 10000 4 210 16:18 19.08.2019
3427 Clouds 20 1018 77 10000 3 220 16:18 19.08.2019
3428 Clouds 20 1018 77 10000 4 210 15:43 19.08.2019
3429 Clouds 20 1018 77 10000 4 210 15:19 19.08.2019
3430 Clouds 20 1018 72 10000 3 220 14:44 19.08.2019
3431 Clouds 20 1018 72 10000 3 220 14:24 19.08.2019
3432 Clouds 21 1017 77 10000 2 270 13:59 19.08.2019
3433 Clouds 20 1017 72 10000 3 230 13:40 19.08.2019
3434 Clouds 20 1017 77 10000 4 240 13:20 19.08.2019
3435 Clouds 20 1017 77 10000 4 240 13:20 19.08.2019
3436 Clouds 19 1017 77 10000 4 250 12:58 19.08.2019
3437 Clouds 19 1017 77 10000 4 250 12:58 19.08.2019
3438 Clouds 19 1017 77 10000 4 250 12:40 19.08.2019
3439 Clouds 19 1017 82 10000 4 270 12:20 19.08.2019
3440 Clouds 19 1017 82 10000 3 250 11:42 19.08.2019
3441 Clouds 19 1017 82 10000 3 250 11:24 19.08.2019
3442 Clouds 18 1016 77 10000 2 250 10:59 19.08.2019
3443 Clouds 18 1016 82 10000 3 260 10:39 19.08.2019
3444 Clouds 18 1016 82 10000 3 260 10:19 19.08.2019
3445 Clouds 18 1016 82 10000 3 280 09:54 19.08.2019
3446 Rain 18 1016 88 10000 3 280 09:36 19.08.2019
3447 Rain 17 1016 93 10000 4 280 09:18 19.08.2019
3448 Rain 17 1016 93 10000 4 290 08:42 19.08.2019
3449 Rain 17 1016 93 10000 4 290 08:22 19.08.2019
3450 Rain 17 1015 93 10000 2 260 07:54 19.08.2019
3451 Rain 17 1015 93 10000 2 260 07:34 19.08.2019
3452 Drizzle 16 1014 93 10000 3 260 06:59 19.08.2019
3453 Mist 16 1014 93 10000 3 260 06:36 19.08.2019
3454 Drizzle 16 1014 100 10000 3 260 05:28 19.08.2019
3455 Drizzle 16 1013 100 10000 3 250 04:34 19.08.2019
3456 Drizzle 16 1013 100 4300 3 250 03:27 19.08.2019
3457 Rain 16 1013 93 9000 4 210 02:30 19.08.2019
3458 Clouds 16 1012 100 10000 2 180 01:37 19.08.2019
3459 Rain 17 1012 100 10000 2 180 00:49 19.08.2019
3460 Rain 17 1012 100 10000 2 180 00:25 19.08.2019
3461 Rain 17 1012 93 10000 3 180 23:57 18.08.2019
3462 Clouds 17 1012 88 10000 3 170 23:37 18.08.2019
3463 Clouds 17 1012 88 10000 3 170 23:19 18.08.2019
3464 Rain 17 1011 88 10000 3 180 22:40 18.08.2019
3465 Rain 17 1011 88 10000 3 180 22:21 18.08.2019
3466 Clouds 17 1011 82 10000 3 190 21:57 18.08.2019
3467 Clouds 17 1011 82 10000 3 190 21:39 18.08.2019
3468 Rain 17 1011 88 10000 3 170 21:20 18.08.2019
3469 Rain 17 1011 88 10000 3 170 20:57 18.08.2019
3470 Rain 18 1011 82 10000 4 170 20:38 18.08.2019
3471 Rain 18 1011 82 10000 4 170 20:20 18.08.2019
3472 Clouds 18 1011 77 10000 3 180 19:42 18.08.2019
3473 Clouds 18 1011 77 10000 3 180 19:23 18.08.2019
3474 Clouds 18 1011 77 10000 3 200 18:57 18.08.2019
3475 Rain 19 1011 77 10000 4 200 18:39 18.08.2019
3476 Clouds 19 1011 72 10000 5 200 18:21 18.08.2019
3477 Clouds 19 1011 72 10000 5 200 17:55 18.08.2019
3478 Clouds 20 1010 77 10000 5 170 17:36 18.08.2019
3479 Clouds 20 1010 77 10000 6 180 17:18 18.08.2019
3480 Clouds 20 1010 77 10000 6 180 16:43 18.08.2019
3481 Clouds 20 1010 77 10000 6 180 16:24 18.08.2019
3482 Rain 21 1009 77 10000 5 180 15:59 18.08.2019
3483 Clouds 21 1009 77 10000 4 150 15:39 18.08.2019
3484 Clouds 22 1009 73 10000 3 170 15:20 18.08.2019
3485 Clouds 22 1009 73 10000 3 170 14:57 18.08.2019
3486 Rain 22 1009 77 10000 3 160 14:38 18.08.2019
3487 Clouds 22 1009 77 10000 4 180 14:19 18.08.2019
3488 Clouds 22 1009 77 10000 4 180 13:56 18.08.2019
3489 Clouds 22 1008 77 10000 4 190 13:38 18.08.2019
3490 Clouds 22 1008 77 10000 4 190 13:19 18.08.2019
3491 Clouds 21 1008 94 10000 4 140 12:45 18.08.2019
3492 Clouds 21 1008 94 10000 4 140 12:23 18.08.2019
3493 Clouds 20 1008 93 9000 3 150 11:59 18.08.2019
3494 Clouds 20 1008 93 10000 4 120 11:40 18.08.2019
3495 Clouds 20 1008 100 10000 5 110 11:21 18.08.2019
3496 Rain 19 1008 100 7000 4 120 10:41 18.08.2019
3497 Rain 19 1008 100 7000 4 120 10:22 18.08.2019
3498 Rain 19 1008 100 7000 4 120 09:55 18.08.2019
3499 Rain 19 1007 100 3000 4 110 09:36 18.08.2019
3500 Rain 19 1007 100 4400 6 90 09:18 18.08.2019
3501 Rain 18 1007 100 9000 7 90 08:42 18.08.2019
3502 Rain 18 1007 100 9000 7 90 08:24 18.08.2019
3503 Rain 18 1007 100 9000 7 90 07:49 18.08.2019
3504 Rain 18 1007 100 9000 7 90 07:29 18.08.2019
3505 Rain 17 1007 100 8000 7 80 05:50 18.08.2019
3506 Rain 17 1007 100 8000 6 80 04:58 18.08.2019
3507 Rain 17 1008 100 10000 5 70 03:44 18.08.2019
3508 Rain 16 1008 100 10000 5 80 02:49 18.08.2019
3509 Rain 16 1008 100 10000 5 80 02:26 18.08.2019
3510 Rain 16 1008 100 9000 6 30 01:48 18.08.2019
3511 Rain 16 1008 100 9000 6 30 01:25 18.08.2019
3512 Rain 16 1008 100 9000 6 30 01:25 18.08.2019
3513 Rain 16 1008 100 9000 6 30 01:25 18.08.2019
3514 Rain 16 1009 100 10000 7 20 00:40 18.08.2019
3515 Rain 15 1009 100 10000 6 20 00:19 18.08.2019
3516 Rain 15 1009 100 10000 6 20 23:57 17.08.2019
3517 Rain 16 1010 100 10000 5 20 23:37 17.08.2019
3518 Rain 16 1010 100 10000 5 20 23:19 17.08.2019
3519 Rain 15 1010 100 10000 5 40 22:56 17.08.2019
3520 Rain 15 1010 100 10000 5 40 22:56 17.08.2019
3521 Rain 16 1011 93 10000 5 30 22:38 17.08.2019
3522 Rain 16 1011 100 9000 5 40 22:20 17.08.2019
3523 Rain 16 1011 100 3300 5 30 21:43 17.08.2019
3524 Rain 16 1011 100 3300 5 30 21:24 17.08.2019
3525 Rain 16 1012 100 10000 5 40 20:58 17.08.2019
3526 Rain 16 1011 100 10000 5 50 20:37 17.08.2019
3527 Clouds 16 1011 100 10000 5 60 20:18 17.08.2019
3528 Rain 16 1012 87 10000 5 50 19:43 17.08.2019
3529 Rain 16 1012 87 10000 5 50 19:24 17.08.2019
3530 Rain 16 1013 87 10000 6 60 18:58 17.08.2019
3531 Drizzle 16 1013 87 10000 6 50 18:38 17.08.2019
3532 Rain 17 1013 77 10000 6 60 18:18 17.08.2019
3533 Rain 17 1013 77 10000 6 60 18:18 17.08.2019
3534 Rain 16 1013 82 10000 8 60 17:43 17.08.2019
3535 Rain 17 1013 82 10000 8 60 17:22 17.08.2019
3536 Rain 17 1013 82 10000 7 60 16:59 17.08.2019
3537 Rain 17 1013 82 10000 7 60 16:40 17.08.2019
3538 Rain 17 1013 82 10000 7 60 16:22 17.08.2019
3539 Rain 17 1013 82 10000 7 60 15:54 17.08.2019
3540 Rain 17 1013 77 10000 8 60 15:36 17.08.2019
3541 Rain 17 1013 77 10000 8 60 15:36 17.08.2019
3542 Rain 17 1013 77 10000 7 60 15:18 17.08.2019
3543 Rain 17 1014 82 10000 7 60 14:40 17.08.2019
3544 Rain 17 1014 82 10000 7 60 14:22 17.08.2019
3545 Rain 17 1014 77 10000 7 60 13:46 17.08.2019
3546 Rain 17 1014 77 10000 7 60 13:21 17.08.2019
3547 Clouds 17 1014 77 10000 7 50 12:55 17.08.2019
3548 Clouds 17 1014 77 10000 6 40 12:37 17.08.2019
3549 Clouds 16 1014 77 10000 6 40 12:18 17.08.2019
3550 Clouds 16 1014 77 10000 5 50 11:43 17.08.2019
3551 Rain 16 1014 77 10000 5 50 11:20 17.08.2019
3552 Rain 16 1014 77 10000 5 50 10:55 17.08.2019
3553 Rain 16 1014 67 10000 6 40 10:37 17.08.2019
3554 Rain 16 1014 67 10000 6 50 10:18 17.08.2019
3555 Rain 15 1014 67 10000 6 50 09:43 17.08.2019
3556 Rain 15 1014 67 10000 6 50 09:25 17.08.2019
3557 Thunderstorm 15 1014 67 10000 8 50 08:53 17.08.2019
3558 Thunderstorm 15 1014 72 10000 8 70 08:25 17.08.2019
3559 Rain 15 1014 72 10000 6 40 07:46 17.08.2019
3560 Clear 15 1014 72 10000 5 30 07:21 17.08.2019
3561 Clear 15 1014 76 10000 5 30 06:42 17.08.2019
3562 Clear 14 1014 76 10000 4 30 05:31 17.08.2019
3563 Clear 14 1014 82 10000 5 30 04:29 17.08.2019
3564 Clear 14 1015 76 10000 5 40 03:19 17.08.2019
3565 Clear 14 1015 82 10000 5 40 01:46 17.08.2019
3566 Clear 14 1015 82 10000 5 40 01:27 17.08.2019
3567 Clear 14 1015 82 10000 4 30 00:54 17.08.2019
3568 Clear 15 1015 82 10000 5 40 00:28 17.08.2019
3569 Clear 15 1015 77 10000 5 40 23:50 16.08.2019
3570 Clear 15 1015 77 10000 5 40 23:27 16.08.2019
3571 Clear 16 1015 72 10000 4 30 22:56 16.08.2019
3572 Clear 16 1015 72 10000 4 50 22:38 16.08.2019
3573 Clear 16 1015 77 10000 4 60 22:19 16.08.2019
3574 Clear 16 1015 72 10000 4 60 21:40 16.08.2019
3575 Clear 16 1015 72 10000 4 50 21:20 16.08.2019
3576 Clear 16 1015 72 10000 4 50 20:56 16.08.2019
3577 Clear 17 1015 72 10000 5 60 20:37 16.08.2019
3578 Clear 17 1015 72 10000 5 60 20:18 16.08.2019
3579 Clear 17 1015 67 10000 5 40 19:43 16.08.2019
3580 Clear 17 1015 67 10000 5 40 19:23 16.08.2019
3581 Rain 17 1014 67 10000 4 60 18:44 16.08.2019
3582 Rain 17 1014 63 10000 5 60 18:26 16.08.2019
3583 Rain 17 1014 63 10000 5 60 17:59 16.08.2019
3584 Rain 17 1014 59 10000 5 60 17:41 16.08.2019
3585 Rain 18 1014 59 10000 5 60 17:23 16.08.2019
3586 Rain 18 1014 59 10000 5 60 17:23 16.08.2019
3587 Rain 18 1014 63 10000 4 60 16:42 16.08.2019
3588 Rain 18 1015 63 10000 5 60 16:22 16.08.2019
3589 Rain 18 1015 63 10000 5 60 15:59 16.08.2019
3590 Rain 18 1014 59 10000 6 60 15:40 16.08.2019
3591 Rain 17 1015 59 10000 5 70 15:21 16.08.2019
3592 Rain 17 1015 59 10000 5 70 14:58 16.08.2019
3593 Clear 18 1015 59 10000 6 70 14:39 16.08.2019
3594 Clouds 18 1014 77 10000 4 20 14:19 16.08.2019
3595 Clear 18 1015 55 10000 6 70 13:57 16.08.2019
3596 Clear 18 1015 55 10000 6 70 13:37 16.08.2019
3597 Clear 18 1015 59 10000 7 70 13:18 16.08.2019
3598 Clouds 17 1015 63 10000 7 80 12:38 16.08.2019
3599 Clouds 17 1015 63 10000 7 80 12:20 16.08.2019
3600 Rain 16 1015 72 10000 5 60 11:42 16.08.2019
3601 Rain 16 1015 72 10000 5 60 11:24 16.08.2019
3602 Rain 16 1015 77 10000 5 40 10:54 16.08.2019
3603 Rain 16 1015 77 10000 5 40 10:36 16.08.2019
3604 Rain 16 1015 82 10000 4 40 10:18 16.08.2019
3605 Rain 15 1015 82 10000 4 50 09:38 16.08.2019
3606 Rain 15 1015 82 10000 4 50 09:18 16.08.2019
3607 Rain 15 1015 82 10000 4 50 08:56 16.08.2019
3608 Rain 15 1015 87 10000 3 60 08:37 16.08.2019
3609 Rain 15 1015 87 10000 3 30 08:18 16.08.2019
3610 Rain 15 1015 93 10000 3 40 07:42 16.08.2019
3611 Rain 15 1015 93 10000 3 40 07:24 16.08.2019
3612 Rain 15 1015 93 10000 3 20 06:33 16.08.2019
3613 Rain 15 1015 93 10000 3 30 05:43 16.08.2019
3614 Clear 15 1015 93 10000 3 10 04:33 16.08.2019
3615 Rain 15 1015 93 10000 3 20 03:19 16.08.2019
3616 Clear 15 1015 93 10000 3 350 01:44 16.08.2019
3617 Clear 15 1015 93 10000 3 350 01:24 16.08.2019
3618 Clear 16 1015 93 10000 2 30 00:43 16.08.2019
3619 Clear 16 1015 93 10000 2 30 00:22 16.08.2019
3620 Clear 16 1015 87 10000 2 30 23:46 15.08.2019
3621 Clear 16 1015 87 10000 2 30 23:24 15.08.2019
3622 Clear 15 1015 93 10000 2 10 22:59 15.08.2019
3623 Clear 15 1014 93 10000 3 10 22:40 15.08.2019
3624 Clear 16 1014 93 10000 2 350 22:21 15.08.2019
3625 Clear 17 1014 87 10000 2 330 21:56 15.08.2019
3626 Clear 17 1014 87 10000 2 330 21:38 15.08.2019
3627 Clear 17 1014 87 10000 2 330 21:19 15.08.2019
3628 Clear 17 1014 87 10000 3 340 20:44 15.08.2019
3629 Clear 17 1014 87 10000 3 340 20:22 15.08.2019
3630 Clear 17 1014 87 10000 2 340 19:59 15.08.2019
3631 Clear 18 1014 77 10000 3 330 19:39 15.08.2019
3632 Clear 19 1014 72 10000 3 320 19:21 15.08.2019
3633 Clouds 19 1013 72 10000 4 330 18:48 15.08.2019
3634 Clouds 19 1013 72 10000 4 330 18:24 15.08.2019
3635 Clear 20 1013 72 10000 4 320 17:59 15.08.2019
3636 Clouds 20 1013 68 10000 4 320 17:39 15.08.2019
3637 Clouds 20 1013 68 10000 4 320 17:20 15.08.2019
3638 Clouds 20 1013 68 10000 5 300 16:58 15.08.2019
3639 Clouds 20 1013 68 10000 4 300 16:40 15.08.2019
3640 Clouds 20 1013 68 10000 4 300 16:22 15.08.2019
3641 Clouds 20 1013 72 10000 5 290 15:39 15.08.2019
3642 Clouds 20 1013 72 10000 5 290 15:20 15.08.2019
3643 Clouds 20 1013 72 10000 5 300 14:57 15.08.2019
3644 Clouds 21 1012 68 10000 3 300 14:38 15.08.2019
3645 Clouds 21 1012 72 10000 5 300 14:20 15.08.2019
3646 Clouds 21 1012 72 10000 5 300 13:56 15.08.2019
3647 Clouds 21 1012 77 10000 6 300 13:38 15.08.2019
3648 Clouds 21 1011 77 10000 6 310 13:19 15.08.2019
3649 Clouds 21 1011 72 10000 6 290 12:40 15.08.2019
3650 Clouds 21 1011 72 10000 6 290 12:22 15.08.2019
3651 Clouds 22 1010 72 10000 8 290 11:59 15.08.2019
3652 Clouds 22 1010 72 10000 8 290 11:39 15.08.2019
3653 Clouds 23 1010 72 10000 8 290 11:20 15.08.2019
3654 Clouds 23 1009 82 10000 8 290 10:59 15.08.2019
3655 Clouds 23 1009 82 10000 8 290 10:59 15.08.2019
3656 Clouds 23 1008 82 10000 9 270 10:37 15.08.2019
3657 Clouds 23 1008 82 10000 9 270 10:37 15.08.2019
3658 Clouds 24 1008 78 10000 8 240 10:19 15.08.2019
3659 Clouds 23 1007 78 10000 9 240 09:44 15.08.2019
3660 Clouds 23 1007 78 10000 9 240 09:23 15.08.2019
3661 Clouds 23 1007 83 10000 6 220 08:55 15.08.2019
3662 Clouds 22 1007 83 10000 5 210 08:36 15.08.2019
3663 Clear 21 1007 88 10000 6 190 08:18 15.08.2019
3664 Clear 20 1006 82 10000 4 160 07:41 15.08.2019
3665 Clear 20 1006 82 10000 4 160 07:21 15.08.2019
3666 Clear 18 1007 93 10000 4 140 06:53 15.08.2019
3667 Clear 18 1007 93 10000 4 140 06:31 15.08.2019
3668 Clouds 17 1007 93 10000 3 120 05:39 15.08.2019
3669 Clouds 16 1007 93 10000 3 120 05:21 15.08.2019
3670 Clouds 16 1007 100 10000 5 130 04:29 15.08.2019
3671 Rain 16 1008 100 10000 6 130 03:30 15.08.2019
3672 Clouds 16 1008 82 10000 6 130 02:35 15.08.2019
3673 Clear 16 1010 77 10000 4 120 01:49 15.08.2019
3674 Clear 16 1010 77 10000 4 120 01:26 15.08.2019
3675 Clouds 17 1011 82 10000 5 130 00:39 15.08.2019
3676 Clouds 17 1011 82 10000 5 130 00:20 15.08.2019
3677 Clouds 17 1012 88 10000 3 120 23:57 14.08.2019
3678 Clouds 17 1012 88 10000 3 120 23:37 14.08.2019
3679 Clouds 17 1012 88 10000 3 120 23:19 14.08.2019
3680 Clear 18 1012 88 10000 3 120 22:55 14.08.2019
3681 Clear 18 1012 88 10000 3 140 22:37 14.08.2019
3682 Clear 18 1012 82 10000 4 120 22:18 14.08.2019
3683 Clear 18 1013 82 10000 3 130 21:55 14.08.2019
3684 Clear 18 1013 82 10000 3 130 21:36 14.08.2019
3685 Clear 19 1013 88 10000 4 130 21:18 14.08.2019
3686 Clear 19 1013 77 10000 4 120 20:41 14.08.2019
3687 Clear 19 1013 77 10000 3 110 20:20 14.08.2019
3688 Clear 20 1013 77 10000 3 110 19:56 14.08.2019
3689 Clear 20 1013 77 10000 3 110 19:37 14.08.2019
3690 Clear 20 1013 73 10000 3 110 19:19 14.08.2019
3691 Clear 21 1013 73 10000 3 70 18:56 14.08.2019
3692 Clear 21 1013 73 10000 3 70 18:38 14.08.2019
3693 Clear 21 1013 73 10000 3 70 18:38 14.08.2019
3694 Clear 22 1013 64 10000 2 80 18:19 14.08.2019
3695 Clear 22 1013 64 10000 2 80 17:56 14.08.2019
3696 Clouds 23 1013 60 10000 2 310 17:36 14.08.2019
3697 Clouds 23 1014 64 10000 3 260 17:18 14.08.2019
3698 Clouds 23 1014 64 10000 2 350 16:41 14.08.2019
3699 Clear 23 1014 53 10000 2 110 16:20 14.08.2019
3700 Clouds 23 1014 64 10000 1 0 15:44 14.08.2019
3701 Clouds 23 1014 64 10000 1 0 15:24 14.08.2019
3702 Clouds 22 1014 64 10000 2 320 14:59 14.08.2019
3703 Clouds 22 1014 60 10000 3 300 14:39 14.08.2019
3704 Clouds 22 1014 64 10000 5 270 14:19 14.08.2019
3705 Clouds 21 1014 68 10000 3 320 13:55 14.08.2019
3706 Clouds 21 1014 68 10000 3 320 13:37 14.08.2019
3707 Clouds 21 1014 68 10000 3 290 13:19 14.08.2019
3708 Clouds 21 1014 68 10000 3 290 12:56 14.08.2019
3709 Clouds 20 1014 72 10000 4 290 12:37 14.08.2019
3710 Clouds 20 1014 77 10000 4 290 12:18 14.08.2019
3711 Clouds 19 1014 77 10000 4 320 11:45 14.08.2019
3712 Clouds 19 1014 77 10000 4 320 11:23 14.08.2019
3713 Clouds 19 1013 77 10000 5 290 10:56 14.08.2019
3714 Clouds 19 1013 82 10000 4 310 10:37 14.08.2019
3715 Clouds 19 1013 82 10000 4 310 10:37 14.08.2019
3716 Clouds 18 1013 82 10000 5 290 10:19 14.08.2019
3717 Clouds 18 1013 82 10000 4 310 09:42 14.08.2019
3718 Clouds 18 1013 82 10000 4 310 09:21 14.08.2019
3719 Clouds 18 1013 82 10000 4 310 09:21 14.08.2019
3720 Clouds 18 1012 93 10000 4 290 08:45 14.08.2019
3721 Clouds 18 1012 93 10000 4 290 08:27 14.08.2019
3722 Clouds 18 1012 88 10000 4 310 07:57 14.08.2019
3723 Clouds 18 1012 88 10000 4 310 07:37 14.08.2019
3724 Rain 18 1012 93 10000 5 300 06:53 14.08.2019
3725 Clouds 18 1011 93 10000 4 270 06:35 14.08.2019
3726 Clouds 18 1010 93 10000 5 290 05:33 14.08.2019
3727 Clouds 19 1010 88 10000 6 290 03:58 14.08.2019
3728 Clouds 19 1009 93 10000 5 250 02:44 14.08.2019
3729 Clouds 19 1008 93 10000 5 240 02:18 14.08.2019
3730 Clouds 19 1008 93 10000 4 220 01:30 14.08.2019
3731 Clouds 19 1009 82 10000 4 210 00:47 14.08.2019
3732 Clouds 19 1009 82 10000 5 210 23:45 13.08.2019
3733 Clouds 19 1009 77 10000 5 210 23:20 13.08.2019
3734 Clouds 19 1009 77 10000 5 210 22:57 13.08.2019
3735 Clouds 20 1009 77 10000 6 210 22:38 13.08.2019
3736 Clouds 20 1009 77 10000 6 210 22:19 13.08.2019
3737 Clouds 21 1010 77 10000 4 170 21:56 13.08.2019
3738 Clouds 20 1009 73 10000 5 180 21:36 13.08.2019
3739 Rain 20 1009 77 10000 4 150 21:18 13.08.2019
3740 Clouds 20 1009 68 10000 4 150 20:44 13.08.2019
3741 Clouds 20 1009 68 10000 4 150 20:20 13.08.2019
3742 Clouds 21 1010 68 10000 4 140 19:57 13.08.2019
3743 Rain 21 1010 68 10000 4 150 19:39 13.08.2019
3744 Rain 21 1010 68 10000 4 150 19:20 13.08.2019
3745 Clear 21 1011 60 10000 3 150 18:42 13.08.2019
3746 Clear 21 1011 60 10000 3 150 18:22 13.08.2019
3747 Clear 22 1011 60 10000 4 140 17:57 13.08.2019
3748 Clear 22 1011 68 10000 4 150 17:39 13.08.2019
3749 Clear 22 1011 68 10000 4 150 17:19 13.08.2019
3750 Clear 22 1012 68 10000 4 150 16:56 13.08.2019
3751 -273 0 0 0 0 0 16:55 13.08.2019
3752 Rain 22 1012 64 10000 4 170 16:37 13.08.2019
3753 Rain 22 1013 60 10000 5 180 16:18 13.08.2019
3754 Clear 22 1013 60 10000 4 190 15:38 13.08.2019
3755 Rain 23 1013 60 10000 5 190 15:20 13.08.2019
3756 Rain 23 1013 60 10000 5 190 14:55 13.08.2019
3757 Clear 23 1013 60 10000 5 190 14:37 13.08.2019
3758 Clear 23 1013 60 10000 5 190 14:18 13.08.2019
3759 Clear 23 1014 60 10000 3 180 13:41 13.08.2019
3760 Clear 23 1014 60 10000 3 180 13:21 13.08.2019
3761 Clear 23 1014 56 10000 4 200 12:58 13.08.2019
3762 Clear 23 1015 53 10000 4 190 12:39 13.08.2019
3763 Clear 23 1015 53 10000 4 190 12:21 13.08.2019
3764 Clear 24 1015 53 10000 4 190 11:57 13.08.2019
3765 Clear 24 1015 53 10000 4 190 11:37 13.08.2019
3766 Clear 24 1015 53 10000 4 190 11:18 13.08.2019
3767 Clear 23 1015 56 10000 3 190 10:55 13.08.2019
3768 Clear 23 1015 56 10000 4 210 10:36 13.08.2019
3769 Clear 23 1015 60 10000 3 220 10:18 13.08.2019
3770 Clear 22 1015 56 10000 4 210 09:42 13.08.2019
3771 Clear 21 1016 60 10000 2 190 09:23 13.08.2019
3772 Clear 20 1016 64 10000 2 220 08:43 13.08.2019
3773 Clear 20 1016 64 10000 2 220 08:22 13.08.2019
3774 Clear 19 1016 72 10000 2 200 07:56 13.08.2019
3775 Clear 17 1016 82 10000 2 180 07:34 13.08.2019
3776 Clear 15 1017 87 10000 1 0 06:55 13.08.2019
3777 Clear 15 1017 87 10000 1 0 06:34 13.08.2019
3778 Mist 12 1017 100 9000 1 0 05:35 13.08.2019
3779 Mist 13 1017 100 10000 2 110 02:52 13.08.2019
3780 Mist 13 1017 100 10000 2 110 02:19 13.08.2019
3781 Clear 14 1017 93 10000 2 100 01:18 13.08.2019
3782 Clear 14 1017 93 10000 3 90 00:42 13.08.2019
3783 Clear 15 1017 93 10000 4 90 23:57 12.08.2019
3784 Clear 15 1017 93 10000 4 90 23:36 12.08.2019
3785 Clear 15 1017 100 10000 3 100 23:18 12.08.2019
3786 Clear 16 1017 100 10000 3 90 22:40 12.08.2019
3787 Clear 16 1017 93 10000 3 100 22:20 12.08.2019
3788 Clear 16 1017 93 10000 3 100 21:56 12.08.2019
3789 Clear 17 1017 93 10000 3 100 21:37 12.08.2019
3790 Clear 17 1017 93 10000 3 100 21:19 12.08.2019
3791 Clear 17 1017 82 10000 4 100 20:57 12.08.2019
3792 Clear 18 1017 72 10000 4 90 20:38 12.08.2019
3793 Clear 18 1017 72 10000 3 80 20:20 12.08.2019
3794 Clear 18 1017 72 10000 3 80 19:55 12.08.2019
3795 Clear 19 1017 68 10000 2 130 19:37 12.08.2019
3796 Clear 20 1017 64 10000 2 80 19:19 12.08.2019
3797 Clear 20 1017 64 10000 2 80 18:55 12.08.2019
3798 Clear 20 1017 64 10000 2 80 18:55 12.08.2019
3799 Clear 20 1017 64 10000 2 80 18:55 12.08.2019
3800 Clear 21 1017 64 10000 1 0 18:37 12.08.2019
3801 Clear 22 1017 64 10000 2 60 18:19 12.08.2019
3802 Clear 22 1017 64 10000 2 60 18:19 12.08.2019
3803 Clouds 22 1017 60 10000 2 0 17:46 12.08.2019
3804 Clouds 22 1017 60 10000 2 0 17:28 12.08.2019
3805 Clouds 22 1017 60 10000 1 0 16:57 12.08.2019
3806 Clear 22 1018 60 10000 1 0 16:39 12.08.2019
3807 Clear 22 1018 60 10000 1 0 16:20 12.08.2019
3808 Clear 22 1018 60 10000 1 0 16:20 12.08.2019
3809 Clear 21 1018 60 10000 2 330 15:58 12.08.2019
3810 Clouds 22 1018 60 10000 2 350 15:40 12.08.2019
3811 Clouds 22 1018 60 10000 2 350 15:39 12.08.2019
3812 Clouds 22 1018 60 10000 2 350 15:20 12.08.2019
3813 Clouds 22 1018 60 10000 2 340 14:55 12.08.2019
3814 Clouds 21 1018 64 10000 1 0 14:37 12.08.2019
3815 Clouds 21 1018 60 10000 2 230 14:18 12.08.2019
3816 Clouds 21 1018 60 10000 2 230 13:42 12.08.2019
3817 Clouds 21 1018 60 10000 2 230 13:23 12.08.2019
3818 Clouds 21 1018 60 10000 1 0 12:57 12.08.2019
3819 Clouds 20 1018 60 10000 1 0 12:39 12.08.2019
3820 Clear 20 1018 59 10000 1 0 12:18 12.08.2019
3821 Clouds 19 1018 63 10000 2 250 11:41 12.08.2019
3822 Clouds 19 1018 63 10000 2 250 11:23 12.08.2019
3823 Clouds 18 1018 72 10000 2 110 10:42 12.08.2019
3824 Clouds 19 1018 72 10000 2 110 10:23 12.08.2019
3825 Clouds 17 1018 67 10000 2 110 09:56 12.08.2019
3826 Clouds 16 1018 72 10000 2 160 09:38 12.08.2019
3827 Clear 16 1018 72 10000 2 150 09:19 12.08.2019
3828 Clear 15 1018 72 10000 2 150 08:57 12.08.2019
3829 Clouds 15 1018 76 10000 1 0 08:37 12.08.2019
3830 Clouds 15 1018 76 10000 1 0 08:19 12.08.2019
3831 Mist 13 1018 93 10000 1 0 07:42 12.08.2019
3832 Mist 13 1018 93 10000 1 170 07:20 12.08.2019
3833 Mist 12 1018 93 10000 1 0 06:47 12.08.2019
3834 Fog 10 1017 100 10000 2 90 05:38 12.08.2019
3835 Mist 10 1017 100 10000 1 0 02:44 12.08.2019
3836 Mist 11 1017 87 10000 1 0 01:54 12.08.2019
3837 Mist 11 1017 93 10000 3 100 01:20 12.08.2019
3838 Mist 11 1017 93 10000 3 100 00:57 12.08.2019
3839 Mist 11 1017 93 10000 1 0 00:38 12.08.2019
3840 Mist 12 1017 87 10000 2 50 00:19 12.08.2019
3841 Mist 12 1017 87 10000 2 50 23:54 11.08.2019
3842 Mist 12 1016 87 10000 2 70 23:36 11.08.2019
3843 Mist 13 1016 87 10000 2 70 23:18 11.08.2019
3844 Mist 13 1016 87 10000 2 60 22:40 11.08.2019
3845 Mist 13 1016 87 10000 2 60 22:19 11.08.2019
3846 Clear 13 1016 87 10000 1 50 21:59 11.08.2019
3847 Clear 14 1016 81 10000 2 10 21:40 11.08.2019
3848 Clear 14 1015 71 10000 2 350 21:21 11.08.2019
3849 Clear 15 1015 67 10000 2 360 20:57 11.08.2019
3850 Clear 15 1015 67 10000 2 360 20:57 11.08.2019
3851 Clear 15 1015 67 10000 2 360 20:39 11.08.2019
3852 Clear 16 1015 67 10000 2 360 20:20 11.08.2019
3853 Clear 16 1015 67 10000 3 360 19:43 11.08.2019
3854 Clear 17 1015 63 10000 3 340 19:19 11.08.2019
3855 Clear 18 1015 59 10000 3 340 18:42 11.08.2019
3856 Clear 18 1015 59 10000 3 340 18:23 11.08.2019
3857 Clear 19 1014 52 10000 5 330 17:59 11.08.2019
3858 Clear 19 1014 55 10000 4 320 17:41 11.08.2019
3859 Clear 19 1014 55 10000 4 320 17:20 11.08.2019
3860 Clear 19 1014 55 10000 4 320 17:20 11.08.2019
3861 Clear 19 1014 52 10000 4 330 16:57 11.08.2019
3862 Clouds 19 1014 48 10000 5 340 16:38 11.08.2019
3863 Clouds 19 1014 52 10000 5 330 16:20 11.08.2019
3864 Clouds 20 1014 52 10000 4 310 15:44 11.08.2019
3865 Clouds 20 1014 52 10000 4 310 15:44 11.08.2019
3866 Clouds 20 1014 52 10000 4 310 15:25 11.08.2019
3867 Clouds 20 1014 52 10000 5 310 14:59 11.08.2019
3868 Clouds 19 1014 52 10000 4 320 14:39 11.08.2019
3869 Clouds 19 1014 52 10000 4 320 14:21 11.08.2019
3870 Clear 19 1014 52 10000 4 320 13:45 11.08.2019
3871 Clear 19 1014 52 10000 4 320 13:26 11.08.2019
3872 Clear 18 1014 52 10000 5 330 12:58 11.08.2019
3873 Clear 18 1015 52 10000 4 340 12:38 11.08.2019
3874 Clear 18 1015 55 10000 4 330 12:19 11.08.2019
3875 Clouds 17 1015 51 10000 5 320 11:40 11.08.2019
3876 Clouds 17 1015 51 10000 5 320 11:40 11.08.2019
3877 Clouds 17 1015 51 10000 5 320 11:22 11.08.2019
3878 Clouds 17 1015 59 10000 6 350 10:56 11.08.2019
3879 Clouds 17 1014 59 10000 6 320 10:37 11.08.2019
3880 Clouds 17 1014 59 10000 6 320 10:19 11.08.2019
3881 Clouds 16 1014 67 10000 6 340 09:43 11.08.2019
3882 Clouds 16 1014 67 10000 6 340 09:24 11.08.2019
3883 Clouds 15 1014 71 10000 6 340 08:58 11.08.2019
3884 Clouds 15 1014 71 10000 6 340 08:39 11.08.2019
3885 Clouds 15 1014 71 10000 6 340 08:20 11.08.2019
3886 Clear 13 1014 87 10000 5 330 07:43 11.08.2019
3887 Clear 12 1014 87 10000 5 340 07:18 11.08.2019
3888 Clear 12 1014 93 10000 5 340 06:37 11.08.2019
3889 Clear 10 1013 93 10000 4 330 05:19 11.08.2019
3890 Clear 10 1013 100 10000 3 300 02:53 11.08.2019
3891 Clear 10 1012 93 10000 3 300 01:58 11.08.2019
3892 Clear 11 1012 93 10000 3 320 01:32 11.08.2019
3893 Clear 11 1012 93 10000 3 310 00:56 11.08.2019
3894 Clear 11 1012 87 10000 3 310 00:36 11.08.2019
3895 Clear 12 1012 87 10000 3 310 23:57 10.08.2019
3896 Clear 12 1012 87 10000 3 320 23:37 10.08.2019
3897 Clear 13 1012 81 10000 3 310 23:18 10.08.2019
3898 Clear 13 1012 81 10000 4 320 22:40 10.08.2019
3899 Clear 12 1012 81 10000 4 310 22:22 10.08.2019
3900 Clear 12 1012 81 10000 4 310 21:55 10.08.2019
3901 Clear 13 1011 82 10000 4 310 21:36 10.08.2019
3902 Clear 13 1011 82 10000 4 310 21:18 10.08.2019
3903 Clear 14 1011 82 10000 3 310 20:42 10.08.2019
3904 Clear 14 1011 82 10000 3 310 20:21 10.08.2019
3905 Clear 14 1011 76 10000 4 310 19:56 10.08.2019
3906 Clear 15 1011 72 10000 4 320 19:37 10.08.2019
3907 Clouds 16 1010 67 10000 5 320 19:18 10.08.2019
3908 Clouds 17 1010 63 10000 6 320 18:39 10.08.2019
3909 Clouds 17 1010 63 10000 6 320 18:20 10.08.2019
3910 Clouds 16 1009 67 10000 5 330 17:44 10.08.2019
3911 Clouds 17 1009 67 10000 6 330 17:24 10.08.2019
3912 Rain 16 1008 63 10000 9 330 16:46 10.08.2019
3913 Rain 16 1008 63 10000 9 330 16:28 10.08.2019
3914 Clear 15 1008 72 10000 5 360 15:54 10.08.2019
3915 Rain 15 1008 77 10000 6 350 15:24 10.08.2019
3916 Rain 14 1007 87 10000 5 340 14:45 10.08.2019
3917 Rain 14 1007 87 10000 5 340 14:22 10.08.2019
3918 Rain 13 1007 93 10000 7 330 13:42 10.08.2019
3919 Rain 13 1006 93 10000 7 320 13:21 10.08.2019
3920 Rain 13 1006 93 10000 8 330 12:59 10.08.2019
3921 Rain 13 1006 93 10000 7 320 12:59 10.08.2019
3922 Rain 13 1006 93 10000 8 330 12:39 10.08.2019
3923 Rain 13 1005 100 10000 8 330 12:21 10.08.2019
3924 Rain 13 1005 100 10000 8 330 11:54 10.08.2019
3925 Rain 13 1005 100 9000 9 330 11:36 10.08.2019
3926 Rain 13 1005 100 9000 9 330 11:36 10.08.2019
3927 Rain 13 1004 100 9000 8 330 11:18 10.08.2019
3928 Rain 13 1004 100 9000 7 330 10:38 10.08.2019
3929 Rain 13 1004 100 9000 7 330 10:20 10.08.2019
3930 Rain 13 1004 100 9000 7 330 10:20 10.08.2019
3931 Rain 13 1003 100 9000 7 320 09:44 10.08.2019
3932 Rain 13 1003 100 9000 7 320 09:24 10.08.2019
3933 Rain 13 1003 100 10000 7 320 08:59 10.08.2019
3934 Rain 13 1002 100 10000 6 320 08:38 10.08.2019
3935 Rain 13 1002 100 10000 6 310 08:18 10.08.2019
3936 Rain 13 1002 100 9000 7 300 07:46 10.08.2019
3937 Rain 13 1002 100 9000 7 300 07:25 10.08.2019
3938 Rain 13 1001 100 10000 7 300 06:47 10.08.2019
3939 Rain 13 1001 100 10000 7 300 06:18 10.08.2019
3940 Rain 13 1001 100 10000 6 290 05:22 10.08.2019
3941 Rain 14 1001 100 6000 7 290 04:18 10.08.2019
3942 Rain 14 1001 93 9000 7 280 02:51 10.08.2019
3943 Clouds 14 1001 93 10000 7 270 01:57 10.08.2019
3944 Clouds 14 1001 93 10000 7 260 01:37 10.08.2019
3945 Clouds 14 1001 93 10000 7 260 01:19 10.08.2019
3946 Clouds 14 1001 100 10000 7 260 00:43 10.08.2019
3947 Clouds 14 1002 100 10000 8 260 00:20 10.08.2019
3948 Clouds 14 1001 100 10000 7 250 23:41 09.08.2019
3949 Clouds 14 1001 100 10000 7 250 23:22 09.08.2019
3950 Clouds 15 1002 100 10000 8 260 22:56 09.08.2019
3951 Clouds 15 1002 100 10000 8 250 22:38 09.08.2019
3952 Clouds 15 1002 93 10000 8 250 22:19 09.08.2019
3953 Clouds 15 1002 93 10000 8 250 21:41 09.08.2019
3954 Clouds 15 1002 93 10000 8 250 21:22 09.08.2019
3955 Clouds 15 1002 93 10000 9 250 20:58 09.08.2019
3956 Clouds 15 1002 93 10000 9 250 20:39 09.08.2019
3957 Clouds 15 1002 93 10000 9 250 20:20 09.08.2019
3958 Clouds 16 1001 100 10000 8 250 19:54 09.08.2019
3959 Clouds 16 1001 93 10000 7 260 19:36 09.08.2019
3960 Clouds 16 1001 100 10000 9 260 19:18 09.08.2019
3961 Clouds 16 1001 100 10000 8 260 18:39 09.08.2019
3962 Clouds 16 1001 100 10000 8 260 18:39 09.08.2019
3963 Clouds 16 1000 93 10000 9 250 18:21 09.08.2019
3964 Clouds 16 1000 93 10000 9 250 18:21 09.08.2019
3965 Clouds 16 1000 93 10000 8 260 17:45 09.08.2019
3966 Clouds 16 1000 93 10000 8 260 17:25 09.08.2019
3967 Rain 15 1000 100 10000 8 260 16:58 09.08.2019
3968 Rain 15 999 100 6000 8 260 16:39 09.08.2019
3969 Rain 15 998 100 8000 9 250 16:20 09.08.2019
3970 Rain 15 998 100 8000 10 250 15:55 09.08.2019
3971 Rain 16 998 100 8000 10 250 15:36 09.08.2019
3972 Rain 16 998 100 3900 10 250 15:18 09.08.2019
3973 Rain 16 997 100 6000 10 250 14:43 09.08.2019
3974 Rain 16 997 100 6000 10 250 14:22 09.08.2019
3975 Drizzle 16 997 100 7000 11 250 13:56 09.08.2019
3976 Drizzle 16 996 93 5000 11 250 13:38 09.08.2019
3977 Drizzle 16 996 100 9000 11 250 13:19 09.08.2019
3978 Drizzle 16 995 93 7000 11 240 12:44 09.08.2019
3979 Drizzle 16 995 93 7000 11 240 12:23 09.08.2019
3980 Drizzle 16 994 93 6000 9 230 11:42 09.08.2019
3981 -273 0 0 0 0 0 11:22 09.08.2019
3982 Drizzle 15 994 100 8000 10 230 10:59 09.08.2019
3983 Drizzle 15 994 93 10000 10 230 10:39 09.08.2019
3984 Drizzle 15 993 100 5000 9 230 10:21 09.08.2019
3985 Drizzle 15 993 100 5000 8 230 09:45 09.08.2019
3986 Drizzle 15 993 100 5000 8 230 09:20 09.08.2019
3987 Drizzle 15 993 100 5000 8 220 08:56 09.08.2019
3988 Drizzle 15 993 93 4100 7 220 08:37 09.08.2019
3989 Drizzle 15 994 100 5000 7 210 08:18 09.08.2019
3990 Drizzle 15 994 93 5000 8 220 07:43 09.08.2019
3991 Rain 16 994 93 10000 7 220 07:22 09.08.2019
3992 Rain 16 994 93 10000 9 230 06:54 09.08.2019
3993 Rain 16 994 87 10000 7 220 06:27 09.08.2019
3994 Rain 17 994 93 10000 7 220 05:50 09.08.2019
3995 Rain 18 993 100 10000 7 190 02:33 09.08.2019
3996 Rain 18 994 100 8000 5 130 01:45 09.08.2019
3997 Rain 19 996 100 6000 5 120 00:45 09.08.2019
3998 Rain 19 996 100 6000 5 120 00:45 09.08.2019
3999 Rain 19 997 100 5000 5 120 00:26 09.08.2019
4000 Rain 19 997 100 5000 5 120 23:59 08.08.2019
4001 Rain 19 997 100 5000 5 120 23:59 08.08.2019
4002 Rain 19 998 88 10000 4 100 23:38 08.08.2019
4003 Rain 19 998 88 10000 4 100 23:19 08.08.2019
4004 Rain 19 999 88 10000 4 110 22:57 08.08.2019
4005 Rain 19 1000 82 10000 5 130 22:37 08.08.2019
4006 Rain 20 1000 82 10000 5 130 22:37 08.08.2019
4007 Rain 20 1000 68 10000 4 120 22:18 08.08.2019
4008 Rain 20 1000 68 10000 4 120 21:57 08.08.2019
4009 Rain 20 1001 68 10000 5 120 21:38 08.08.2019
4010 Rain 21 1002 68 10000 4 120 21:20 08.08.2019
4011 Clear 22 1003 64 10000 4 120 20:42 08.08.2019
4012 Clear 22 1003 56 10000 3 140 20:22 08.08.2019
4013 Clear 22 1003 56 10000 3 140 19:59 08.08.2019
4014 Clear 22 1003 56 10000 3 150 19:40 08.08.2019
4015 Clear 22 1004 53 10000 3 150 19:20 08.08.2019
4016 Clear 24 1004 50 10000 3 170 18:41 08.08.2019
4017 Clear 24 1004 50 10000 3 170 18:22 08.08.2019
4018 Clear 23 1004 50 10000 3 170 17:55 08.08.2019
4019 Clear 24 1005 50 10000 3 160 17:37 08.08.2019
4020 Clear 24 1005 50 10000 3 160 17:18 08.08.2019
4021 Clear 25 1006 50 10000 4 210 16:42 08.08.2019
4022 Clear 25 1006 50 10000 4 210 16:24 08.08.2019
4023 Clear 24 1006 53 10000 3 220 15:58 08.08.2019
4024 Clear 25 1006 50 10000 3 220 15:39 08.08.2019
4025 Clear 25 1007 53 10000 3 160 15:21 08.08.2019
4026 Clouds 24 1007 53 10000 3 180 14:42 08.08.2019
4027 Clouds 24 1007 53 10000 3 180 14:23 08.08.2019
4028 Clouds 25 1007 57 10000 3 240 13:59 08.08.2019
4029 Clouds 25 1007 57 10000 3 240 13:59 08.08.2019
4030 Clouds 25 1007 57 10000 3 230 13:38 08.08.2019
4031 -273 0 0 0 0 0 13:18 08.08.2019
4032 Clouds 24 1008 64 10000 5 250 12:40 08.08.2019
4033 Clouds 24 1008 60 10000 5 210 12:20 08.08.2019
4034 Clouds 23 1008 60 10000 5 210 11:56 08.08.2019
4035 Clouds 23 1008 64 10000 5 240 11:37 08.08.2019
4036 Clouds 23 1008 64 10000 5 240 11:19 08.08.2019
4037 Clear 22 1008 73 10000 5 220 10:41 08.08.2019
4038 Clear 22 1008 73 10000 5 220 10:41 08.08.2019
4039 Clear 22 1008 73 10000 5 220 10:21 08.08.2019
4040 Clouds 21 1008 82 10000 4 210 09:49 08.08.2019
4041 Clouds 21 1008 82 10000 4 210 09:30 08.08.2019
4042 Clouds 19 1009 100 10000 4 220 08:56 08.08.2019
4043 Clouds 19 1009 100 10000 4 220 08:37 08.08.2019
4044 Clouds 18 1009 93 10000 4 230 08:18 08.08.2019
4045 Clouds 17 1009 100 10000 3 260 07:40 08.08.2019
4046 Clouds 17 1009 100 10000 3 260 07:19 08.08.2019
4047 Clouds 16 1009 100 10000 3 230 06:47 08.08.2019
4048 Clouds 16 1009 100 10000 3 230 06:26 08.08.2019
4049 Mist 14 1009 93 10000 3 220 05:52 08.08.2019
4050 Fog 14 1009 93 10000 3 210 04:54 08.08.2019
4051 Fog 14 1009 93 10000 3 210 03:53 08.08.2019
4052 Mist 15 1009 100 10000 1 0 02:28 08.08.2019
4053 Mist 15 1009 93 10000 1 0 01:36 08.08.2019
4054 Clear 15 1009 93 10000 2 180 00:26 08.08.2019
4055 Clear 15 1009 93 10000 2 180 23:50 07.08.2019
4056 Clouds 15 1010 100 10000 2 180 23:19 07.08.2019
4057 Clouds 15 1010 100 10000 2 180 22:56 07.08.2019
4058 Clouds 16 1010 93 10000 2 200 22:38 07.08.2019
4059 Clouds 16 1010 93 10000 2 200 22:19 07.08.2019
4060 Clouds 16 1009 93 10000 3 220 21:56 07.08.2019
4061 Clouds 15 1010 100 10000 3 210 21:37 07.08.2019
4062 Rain 15 1009 100 10000 4 210 21:18 07.08.2019
4063 Rain 16 1009 93 10000 4 210 20:42 07.08.2019
4064 Rain 16 1009 93 10000 4 210 20:23 07.08.2019
4065 Rain 16 1009 87 10000 4 240 19:58 07.08.2019
4066 Rain 17 1009 93 10000 5 250 19:39 07.08.2019
4067 Rain 18 1009 82 10000 8 240 19:21 07.08.2019
4068 Rain 19 1009 68 10000 5 210 18:44 07.08.2019
4069 Clouds 20 1009 68 10000 4 210 18:22 07.08.2019
4070 Clouds 20 1009 68 10000 4 210 17:59 07.08.2019
4071 Clouds 20 1009 64 10000 4 200 17:40 07.08.2019
4072 Clouds 20 1009 64 10000 4 200 17:40 07.08.2019
4073 Clouds 21 1009 64 10000 5 220 17:21 07.08.2019
4074 Clouds 21 1009 64 10000 5 220 17:21 07.08.2019
4075 Clouds 21 1009 64 10000 5 220 16:57 07.08.2019
4076 Clouds 21 1009 60 10000 5 190 16:39 07.08.2019
4077 Clouds 21 1009 60 10000 5 190 16:20 07.08.2019
4078 Clear 21 1009 56 10000 6 220 15:57 07.08.2019
4079 Clear 22 1009 52 10000 5 190 15:38 07.08.2019
4080 Clear 22 1009 52 10000 5 190 15:19 07.08.2019
4081 Clear 20 1010 52 10000 6 220 14:49 07.08.2019
4082 Clear 20 1010 52 10000 6 220 14:49 07.08.2019
4083 Clear 20 1010 52 10000 6 220 14:28 07.08.2019
4084 Clouds 20 1010 52 10000 6 230 13:56 07.08.2019
4085 Clouds 20 1010 52 10000 6 240 13:38 07.08.2019
4086 Rain 20 1010 52 10000 6 210 13:18 07.08.2019
4087 Rain 19 1010 52 10000 6 210 12:55 07.08.2019
4088 Clouds 19 1010 56 10000 5 240 12:36 07.08.2019
4089 Clouds 19 1010 56 10000 6 250 12:18 07.08.2019
4090 Rain 19 1010 52 10000 8 240 11:43 07.08.2019
4091 Rain 19 1010 52 10000 8 240 11:21 07.08.2019
4092 Clear 19 1010 56 10000 6 250 10:57 07.08.2019
4093 Clear 20 1010 55 10000 7 240 10:39 07.08.2019
4094 Clear 20 1010 55 10000 7 240 10:18 07.08.2019
4095 -273 0 0 0 0 0 09:45 07.08.2019
4096 Clear 20 1010 59 10000 5 240 09:22 07.08.2019
4097 Clear 19 1010 59 10000 4 250 08:57 07.08.2019
4098 Clear 18 1010 68 10000 4 250 08:39 07.08.2019
4099 Clear 18 1010 68 10000 4 250 08:21 07.08.2019
4100 Clear 16 1010 87 10000 3 250 07:43 07.08.2019
4101 Clear 15 1010 87 10000 2 220 07:21 07.08.2019
4102 Clear 14 1010 93 10000 2 250 06:31 07.08.2019
4103 Clear 13 1010 87 10000 2 220 05:56 07.08.2019
4104 Clear 12 1009 100 10000 2 210 04:57 07.08.2019
4105 Clear 12 1009 93 10000 4 240 03:21 07.08.2019
4106 Clear 12 1009 93 10000 4 250 02:50 07.08.2019
4107 Clear 12 1009 93 10000 4 250 02:22 07.08.2019
4108 Clear 12 1009 81 10000 6 240 01:42 07.08.2019
4109 Clear 12 1008 76 10000 4 250 00:51 07.08.2019
4110 Clear 12 1008 76 10000 4 250 00:22 07.08.2019
4111 Clear 13 1008 81 10000 3 250 23:44 06.08.2019
4112 Clear 13 1008 81 10000 3 250 23:22 06.08.2019
4113 Clear 14 1008 81 10000 3 250 22:58 06.08.2019
4114 Clear 14 1008 81 10000 3 260 22:38 06.08.2019
4115 Clear 14 1008 81 10000 3 260 22:20 06.08.2019
4116 Clear 14 1008 81 10000 3 260 22:20 06.08.2019
4117 Clear 14 1008 71 10000 4 260 21:44 06.08.2019
4118 Clear 14 1008 71 10000 4 260 21:26 06.08.2019
4119 Clear 15 1007 66 10000 2 250 20:59 06.08.2019
4120 Clear 15 1007 66 10000 4 250 20:41 06.08.2019
4121 Clear 16 1007 66 10000 4 250 20:22 06.08.2019
4122 Clear 17 1007 58 10000 3 270 19:47 06.08.2019
4123 Clear 17 1007 58 10000 3 270 19:28 06.08.2019
4124 Clear 18 1007 51 10000 4 290 18:55 06.08.2019
4125 Clear 18 1007 51 10000 5 290 18:36 06.08.2019
4126 Clear 19 1006 48 10000 5 300 18:18 06.08.2019
4127 Clear 19 1006 48 10000 5 300 17:55 06.08.2019
4128 Clear 19 1006 48 10000 6 310 17:36 06.08.2019
4129 Clear 19 1006 48 10000 6 310 17:18 06.08.2019
4130 Clear 19 1006 45 10000 8 300 16:42 06.08.2019
4131 Clear 19 1006 39 10000 9 300 16:24 06.08.2019
4132 Clear 19 1006 48 10000 6 300 15:57 06.08.2019
4133 Clear 19 1006 45 10000 8 290 15:39 06.08.2019
4134 Clear 19 1006 45 10000 8 290 15:20 06.08.2019
4135 Clear 19 1005 45 10000 7 300 14:45 06.08.2019
4136 Clear 19 1005 45 10000 7 300 14:26 06.08.2019
4137 Clear 19 1005 45 10000 7 290 13:58 06.08.2019
4138 Clear 18 1005 48 10000 7 300 13:40 06.08.2019
4139 Clear 18 1005 48 10000 7 300 13:22 06.08.2019
4140 Clouds 18 1005 55 10000 6 290 12:58 06.08.2019
4141 Clear 18 1004 55 10000 8 320 12:39 06.08.2019
4142 Clouds 17 1004 59 10000 8 290 12:21 06.08.2019
4143 Clouds 16 1004 67 10000 7 300 11:43 06.08.2019
4144 Clouds 16 1004 67 10000 7 300 11:43 06.08.2019
4145 Clouds 16 1004 67 10000 7 300 11:19 06.08.2019
4146 Clouds 15 1004 71 10000 7 300 10:56 06.08.2019
4147 Rain 14 1004 82 10000 6 290 10:38 06.08.2019
4148 Rain 14 1004 82 10000 6 290 10:19 06.08.2019
4149 Rain 13 1004 87 10000 6 300 09:41 06.08.2019
4150 Rain 13 1004 87 10000 6 300 09:20 06.08.2019
4151 Clouds 13 1004 93 10000 6 290 08:49 06.08.2019
4152 Rain 12 1003 93 10000 6 290 08:27 06.08.2019
4153 Rain 12 1003 93 10000 5 290 07:56 06.08.2019
4154 Rain 11 1003 93 10000 5 290 07:23 06.08.2019
4155 Rain 11 1003 93 10000 5 280 06:43 06.08.2019
4156 Rain 10 1002 93 10000 6 280 06:21 06.08.2019
4157 Rain 10 1002 100 10000 4 270 05:20 06.08.2019
4158 Clouds 10 1002 93 10000 3 300 02:00 06.08.2019
4159 Clouds 10 1002 93 10000 4 300 01:25 06.08.2019
4160 Clouds 10 1001 93 10000 4 300 00:39 06.08.2019
4161 Rain 10 1001 93 9000 6 300 23:52 05.08.2019
4162 Clouds 10 1001 100 10000 5 290 23:20 05.08.2019
4163 Clouds 10 1001 100 10000 5 290 22:42 05.08.2019
4164 Clouds 10 1001 100 10000 5 290 22:23 05.08.2019
4165 Clouds 10 1001 93 10000 5 280 21:58 05.08.2019
4166 Rain 10 1001 93 10000 5 290 21:39 05.08.2019
4167 Rain 10 1001 93 10000 5 290 21:19 05.08.2019
4168 Rain 10 1001 93 10000 6 280 20:56 05.08.2019
4169 Rain 10 1001 100 9000 5 320 20:38 05.08.2019
4170 Rain 10 1001 93 10000 6 310 20:20 05.08.2019
4171 Rain 11 1001 93 10000 5 280 19:43 05.08.2019
4172 Rain 11 1001 93 10000 5 280 19:25 05.08.2019
4173 Rain 11 1001 87 10000 4 280 18:59 05.08.2019
4174 Rain 11 1001 81 10000 5 280 18:40 05.08.2019
4175 Rain 11 1001 81 10000 5 280 18:19 05.08.2019
4176 Rain 11 1001 81 10000 6 290 17:46 05.08.2019
4177 Rain 11 1001 81 10000 6 290 17:27 05.08.2019
4178 Rain 12 1001 81 10000 6 280 16:47 05.08.2019
4179 Rain 12 1001 81 10000 6 280 16:27 05.08.2019
4180 Rain 13 1001 87 10000 6 290 15:57 05.08.2019
4181 Rain 13 1001 81 10000 7 290 15:39 05.08.2019
4182 Rain 13 1001 81 10000 7 290 15:39 05.08.2019
4183 Clouds 14 1000 81 10000 5 300 15:20 05.08.2019
4184 Clouds 14 1001 58 10000 8 280 14:39 05.08.2019
4185 Clouds 14 1001 58 10000 8 280 14:21 05.08.2019
4186 Rain 14 1000 71 10000 7 300 13:45 05.08.2019
4187 Rain 14 1000 71 10000 7 300 13:23 05.08.2019
4188 -273 0 0 0 0 0 12:50 05.08.2019
4189 Clouds 14 1001 67 10000 6 270 12:21 05.08.2019
4190 Rain 14 1001 71 10000 6 280 11:55 05.08.2019
4191 Rain 14 1001 71 10000 6 280 11:37 05.08.2019
4192 Clouds 14 1001 71 10000 7 280 11:18 05.08.2019
4193 Clouds 14 1001 71 10000 7 270 10:43 05.08.2019
4194 Clouds 14 1002 62 10000 8 300 10:25 05.08.2019
4195 Clouds 14 1001 71 10000 6 290 09:54 05.08.2019
4196 Clouds 13 1001 71 10000 6 290 09:36 05.08.2019
4197 Clouds 13 1001 71 10000 6 290 09:18 05.08.2019
4198 Clear 12 1002 76 10000 5 270 08:41 05.08.2019
4199 Clear 12 1002 76 10000 5 270 08:20 05.08.2019
4200 Rain 10 1002 87 10000 4 260 07:45 05.08.2019
4201 Rain 10 1002 87 10000 4 260 07:27 05.08.2019
4202 Clear 9 1002 87 10000 4 260 06:41 05.08.2019
4203 Clear 9 1002 93 10000 4 260 05:53 05.08.2019
4204 Clouds 8 1003 93 10000 4 270 05:22 05.08.2019
4205 Clouds 7 1003 93 10000 4 270 04:32 05.08.2019
4206 Clear 7 1003 93 10000 4 280 03:42 05.08.2019
4207 Clear 7 1003 100 10000 3 260 02:37 05.08.2019
4208 Clear 8 1003 93 10000 4 280 01:40 05.08.2019
4209 Clear 8 1003 93 10000 4 280 01:40 05.08.2019
4210 Clear 8 1003 93 10000 4 280 01:40 05.08.2019
4211 Clear 8 1003 93 10000 4 260 00:56 05.08.2019
4212 Clear 8 1004 87 10000 4 270 00:37 05.08.2019
4213 Clear 8 1004 93 10000 4 260 00:18 05.08.2019
4214 Clear 8 1004 81 10000 4 270 23:41 04.08.2019
4215 Clear 9 1004 81 10000 4 270 23:21 04.08.2019
4216 Clear 8 1004 81 10000 4 270 22:57 04.08.2019
4217 Clear 8 1004 87 10000 4 280 22:37 04.08.2019
4218 Clear 9 1004 81 10000 4 270 22:19 04.08.2019
4219 Clear 10 1004 76 10000 4 270 21:45 04.08.2019
4220 Clear 10 1004 76 10000 4 270 21:23 04.08.2019
4221 Clear 10 1004 76 10000 3 290 20:57 04.08.2019
4222 Clear 11 1004 76 10000 4 300 20:38 04.08.2019
4223 Clear 11 1004 76 10000 4 300 20:18 04.08.2019
4224 Clear 12 1004 66 10000 4 310 19:48 04.08.2019
4225 Clear 12 1004 66 10000 4 310 19:26 04.08.2019
4226 Clear 13 1004 66 10000 6 320 18:44 04.08.2019
4227 Clouds 14 1004 66 10000 6 280 18:21 04.08.2019
4228 Clouds 14 1004 66 10000 6 280 17:59 04.08.2019
4229 Clear 14 1004 58 10000 6 310 17:40 04.08.2019
4230 Clear 14 1004 62 10000 6 320 17:21 04.08.2019
4231 Clear 14 1004 58 10000 6 290 16:44 04.08.2019
4232 Clear 14 1004 58 10000 6 290 16:26 04.08.2019
4233 Clouds 14 1004 62 10000 5 330 15:45 04.08.2019
4234 Clouds 14 1004 62 10000 5 330 15:23 04.08.2019
4235 Clouds 14 1004 66 10000 6 320 14:57 04.08.2019
4236 Clouds 14 1004 62 10000 6 310 14:39 04.08.2019
4237 Clouds 14 1004 62 10000 6 310 14:20 04.08.2019
4238 Rain 13 1004 71 10000 5 300 13:43 04.08.2019
4239 Rain 13 1004 71 10000 5 300 13:43 04.08.2019
4240 Clouds 13 1004 62 10000 5 290 13:23 04.08.2019
4241 Clouds 13 1004 62 10000 4 320 12:47 04.08.2019
4242 Clouds 13 1004 62 10000 4 320 12:28 04.08.2019
4243 Clouds 12 1004 66 10000 5 310 11:58 04.08.2019
4244 Clouds 12 1004 76 10000 5 320 11:39 04.08.2019
4245 Clouds 12 1004 76 10000 5 320 11:21 04.08.2019
4246 Clouds 12 1004 71 10000 6 320 10:41 04.08.2019
4247 Clouds 12 1004 71 10000 6 320 10:21 04.08.2019
4248 Clouds 12 1004 76 10000 6 310 09:46 04.08.2019
4249 Clouds 12 1004 76 10000 6 310 09:25 04.08.2019
4250 Clouds 12 1004 76 10000 6 310 08:57 04.08.2019
4251 Clouds 12 1004 76 10000 5 320 08:32 04.08.2019
4252 Clouds 11 1004 76 10000 6 310 07:54 04.08.2019
4253 Clouds 11 1004 87 10000 5 300 07:22 04.08.2019
4254 Clouds 10 1004 87 10000 4 340 06:28 04.08.2019
4255 Clouds 10 1004 93 10000 4 320 05:57 04.08.2019
4256 Clouds 11 1003 100 10000 2 320 03:34 04.08.2019
4257 Rain 11 1003 93 10000 3 310 01:52 04.08.2019
4258 Rain 11 1003 100 10000 3 320 01:28 04.08.2019
4259 Rain 12 1003 100 10000 2 310 00:41 04.08.2019
4260 Rain 12 1003 100 10000 2 310 00:23 04.08.2019
4261 Rain 12 1003 100 7000 4 320 23:42 03.08.2019
4262 Rain 12 1003 93 10000 3 290 23:19 03.08.2019
4263 Rain 12 1003 93 10000 3 290 22:57 03.08.2019
4264 Rain 13 1003 93 8000 3 320 22:38 03.08.2019
4265 Rain 13 1003 93 8000 3 320 22:18 03.08.2019
4266 Clear 12 1003 93 10000 3 320 21:39 03.08.2019
4267 Clear 13 1003 82 10000 4 310 21:20 03.08.2019
4268 Clear 13 1003 82 10000 3 290 20:43 03.08.2019
4269 Clear 13 1003 82 10000 3 290 20:24 03.08.2019
4270 Rain 14 1003 82 10000 2 10 19:43 03.08.2019
4271 Rain 14 1003 82 10000 2 10 19:25 03.08.2019
4272 Rain 14 1003 82 10000 2 10 18:57 03.08.2019
4273 Rain 15 1003 71 10000 3 340 18:39 03.08.2019
4274 Rain 15 1003 76 10000 3 350 18:20 03.08.2019
4275 Rain 16 1003 71 10000 4 10 17:42 03.08.2019
4276 Rain 17 1003 76 10000 5 360 17:18 03.08.2019
4277 Clouds 17 1002 63 10000 3 150 16:38 03.08.2019
4278 Clouds 17 1003 63 10000 3 0 16:19 03.08.2019
4279 Clouds 17 1003 55 10000 5 260 15:46 03.08.2019
4280 Clouds 17 1003 55 10000 5 260 15:25 03.08.2019
4281 Clouds 17 1003 55 10000 5 260 15:25 03.08.2019
4282 Clouds 17 1003 63 10000 3 180 14:46 03.08.2019
4283 Rain 17 1003 63 10000 3 180 14:23 03.08.2019
4284 Rain 17 1003 72 10000 4 230 13:57 03.08.2019
4285 Rain 17 1003 67 10000 5 10 13:36 03.08.2019
4286 Rain 17 1003 67 10000 2 330 13:18 03.08.2019
4287 Rain 17 1003 67 10000 5 260 12:41 03.08.2019
4288 Rain 17 1003 67 10000 5 260 12:23 03.08.2019
4289 Rain 16 1003 72 10000 5 290 11:52 03.08.2019
4290 Rain 16 1003 72 10000 5 290 11:34 03.08.2019
4291 Clouds 15 1004 72 10000 5 290 10:47 03.08.2019
4292 Clear 15 1004 76 10000 5 270 10:24 03.08.2019
4293 Clouds 15 1004 76 10000 5 280 09:45 03.08.2019
4294 Clouds 15 1004 76 10000 5 280 09:24 03.08.2019
4295 Clouds 14 1004 87 10000 5 280 08:57 03.08.2019
4296 Clouds 14 1004 82 10000 5 300 08:25 03.08.2019
4297 Clouds 13 1004 93 10000 4 280 07:38 03.08.2019
4298 Clouds 13 1004 93 10000 4 300 06:48 03.08.2019
4299 Clear 12 1004 76 10000 3 270 06:18 03.08.2019
4300 Clear 12 1004 93 10000 4 290 03:35 03.08.2019
4301 Clear 12 1004 93 10000 4 290 02:25 03.08.2019
4302 Clear 12 1004 100 10000 3 280 00:58 03.08.2019
4303 Clear 12 1005 100 10000 3 270 00:32 03.08.2019
4304 Clear 12 1005 87 10000 3 280 23:42 02.08.2019
4305 Clear 12 1005 87 10000 3 280 23:20 02.08.2019
4306 Clear 12 1005 87 10000 4 290 22:59 02.08.2019
4307 Clear 12 1005 87 10000 4 300 22:40 02.08.2019
4308 Clear 13 1005 82 10000 4 290 22:22 02.08.2019
4309 Clear 13 1005 82 10000 4 290 21:56 02.08.2019
4310 Clear 13 1005 82 10000 3 290 21:37 02.08.2019
4311 Clear 13 1005 82 10000 3 280 21:19 02.08.2019
4312 Clear 13 1005 82 10000 3 290 20:43 02.08.2019
4313 Clear 13 1005 82 10000 3 290 20:22 02.08.2019
4314 Clear 14 1005 82 10000 4 290 19:53 02.08.2019
4315 Clear 14 1005 82 10000 4 290 19:32 02.08.2019
4316 Clear 14 1005 76 10000 4 300 18:50 02.08.2019
4317 Clear 14 1005 76 10000 4 300 18:32 02.08.2019
4318 Clouds 14 1005 76 10000 5 290 17:57 02.08.2019
4319 Clear 14 1005 71 10000 6 300 17:39 02.08.2019
4320 Clear 14 1005 71 10000 6 300 17:20 02.08.2019
4321 Clear 15 1005 67 10000 5 300 16:39 02.08.2019
4322 Clouds 15 1005 67 10000 5 300 16:20 02.08.2019
4323 Clouds 15 1005 67 10000 5 300 15:56 02.08.2019
4324 Clouds 15 1006 67 10000 4 300 15:36 02.08.2019
4325 Clouds 15 1006 72 10000 5 290 15:18 02.08.2019
4326 Clouds 14 1006 62 10000 5 310 14:41 02.08.2019
4327 Clouds 14 1006 62 10000 5 310 14:18 02.08.2019
4328 Clouds 14 1006 67 10000 4 310 13:45 02.08.2019
4329 Clouds 14 1006 71 10000 3 250 13:20 02.08.2019
4330 Clouds 14 1006 67 10000 3 290 12:43 02.08.2019
4331 Clouds 14 1006 76 10000 4 320 12:20 02.08.2019
4332 Rain 14 1006 76 10000 2 320 11:41 02.08.2019
4333 Rain 14 1006 76 10000 2 320 11:22 02.08.2019
4334 Rain 13 1006 76 10000 2 310 10:48 02.08.2019
4335 Rain 13 1006 76 10000 2 310 10:24 02.08.2019
4336 Rain 13 1006 81 10000 3 320 09:57 02.08.2019
4337 Rain 13 1006 81 10000 3 320 09:38 02.08.2019
4338 Rain 12 1006 81 10000 3 320 09:20 02.08.2019
4339 Rain 12 1006 87 10000 3 320 08:40 02.08.2019
4340 Rain 12 1006 87 10000 3 320 08:18 02.08.2019
4341 Clouds 13 1006 93 10000 4 330 07:42 02.08.2019
4342 Clouds 13 1006 93 10000 4 330 07:24 02.08.2019
4343 Clouds 12 1006 100 10000 3 350 06:37 02.08.2019
4344 Clouds 12 1006 100 10000 4 300 05:44 02.08.2019
4345 Rain 12 1006 100 9000 3 300 03:42 02.08.2019
4346 Rain 12 1006 100 9000 3 300 03:23 02.08.2019
4347 Clouds 12 1007 100 10000 3 310 01:41 02.08.2019
4348 Rain 13 1007 100 10000 3 300 00:32 02.08.2019
4349 Rain 12 1007 100 9000 3 300 23:45 01.08.2019
4350 Rain 12 1007 100 9000 3 300 23:26 01.08.2019
4351 Drizzle 12 1007 100 7000 4 280 22:46 01.08.2019
4352 Drizzle 12 1007 100 7000 4 280 22:25 01.08.2019
4353 Rain 13 1008 100 9000 4 290 21:59 01.08.2019
4354 Rain 13 1008 93 10000 4 280 21:41 01.08.2019
4355 Rain 12 1008 93 10000 4 280 21:22 01.08.2019
4356 Clouds 13 1008 93 10000 5 300 20:47 01.08.2019
4357 Rain 13 1008 87 10000 5 300 20:23 01.08.2019
4358 Rain 13 1008 87 10000 5 300 19:59 01.08.2019
4359 Rain 13 1007 82 10000 5 310 19:37 01.08.2019
4360 Clouds 13 1008 87 10000 3 330 19:18 01.08.2019
4361 Rain 14 1008 87 10000 5 320 18:43 01.08.2019
4362 Clouds 14 1008 82 10000 5 300 18:24 01.08.2019
4363 Clouds 14 1008 82 10000 5 300 18:24 01.08.2019
4364 Clouds 14 1008 82 10000 5 300 17:49 01.08.2019
4365 Clouds 14 1008 82 10000 5 300 17:30 01.08.2019
4366 Clouds 15 1008 76 10000 5 310 16:45 01.08.2019
4367 Clouds 15 1008 76 10000 5 310 16:23 01.08.2019
4368 Clouds 15 1008 76 10000 5 290 15:54 01.08.2019
4369 Clouds 16 1008 72 10000 5 280 15:36 01.08.2019
4370 Clouds 16 1008 72 10000 6 290 15:18 01.08.2019
4371 Clouds 15 1008 67 10000 4 300 14:41 01.08.2019
4372 Clouds 15 1008 67 10000 4 300 14:19 01.08.2019
4373 Clouds 15 1008 71 10000 5 280 13:57 01.08.2019
4374 Rain 15 1008 71 10000 5 290 13:39 01.08.2019
4375 Clouds 14 1008 82 10000 7 290 13:20 01.08.2019
4376 Clouds 15 1008 71 10000 5 290 12:43 01.08.2019
4377 Clouds 15 1008 71 10000 5 290 12:25 01.08.2019
4378 Clouds 14 1008 71 10000 5 320 11:43 01.08.2019
4379 Rain 14 1008 71 10000 6 300 11:24 01.08.2019
4380 Rain 14 1008 71 10000 6 300 10:56 01.08.2019
4381 Rain 14 1008 76 9000 5 300 10:38 01.08.2019
4382 Rain 14 1008 76 9000 5 300 10:20 01.08.2019
4383 Rain 13 1008 76 10000 5 310 09:43 01.08.2019
4384 Rain 13 1008 76 10000 5 310 09:23 01.08.2019
4385 Rain 13 1008 76 10000 5 320 08:47 01.08.2019
4386 Rain 13 1008 87 10000 5 300 08:21 01.08.2019
4387 Rain 13 1008 87 10000 5 300 07:51 01.08.2019
4388 Clouds 13 1008 93 10000 4 290 07:28 01.08.2019
4389 Rain 12 1008 93 10000 4 320 06:49 01.08.2019
4390 Rain 12 1008 93 10000 4 320 06:49 01.08.2019
4391 Rain 12 1008 93 10000 4 320 06:29 01.08.2019
4392 Clouds 12 1007 93 10000 4 300 05:30 01.08.2019
4393 Clouds 11 1007 93 10000 4 310 02:35 01.08.2019
4394 Clear 12 1006 87 10000 3 310 00:51 01.08.2019
4395 Clear 11 1006 87 10000 4 300 00:26 01.08.2019
4396 Clear 11 1006 81 10000 4 300 23:55 31.07.2019
4397 Clear 11 1006 81 10000 4 300 23:36 31.07.2019
4398 Clouds 10 1006 81 10000 4 300 23:18 31.07.2019
4399 Clouds 11 1005 81 10000 4 300 22:42 31.07.2019
4400 Clouds 11 1005 81 10000 4 300 22:23 31.07.2019
4401 Clear 11 1005 81 10000 4 300 21:40 31.07.2019
4402 Clear 11 1005 81 10000 4 300 21:22 31.07.2019
4403 Clouds 12 1005 76 10000 4 300 20:49 31.07.2019
4404 Clouds 13 1005 71 10000 3 320 20:23 31.07.2019
4405 Clouds 13 1005 66 10000 4 330 19:48 31.07.2019
4406 Clouds 13 1005 66 10000 4 330 19:29 31.07.2019
4407 Clouds 14 1004 66 10000 6 340 18:55 31.07.2019
4408 Clouds 14 1004 58 10000 8 340 18:37 31.07.2019
4409 Clouds 14 1003 62 10000 8 360 18:18 31.07.2019
4410 Clear 14 1003 58 10000 7 360 17:44 31.07.2019
4411 Clouds 14 1003 62 10000 6 340 17:20 31.07.2019
4412 Clouds 14 1002 62 10000 7 340 16:48 31.07.2019
4413 Clouds 14 1002 62 10000 7 340 16:26 31.07.2019
4414 Rain 13 1002 71 10000 6 360 15:55 31.07.2019
4415 Rain 14 1001 67 10000 8 330 15:37 31.07.2019
4416 Rain 14 1001 67 10000 8 330 15:37 31.07.2019
4417 Rain 14 1001 67 10000 8 330 15:18 31.07.2019
4418 Clouds 14 1001 82 10000 7 310 14:42 31.07.2019
4419 Clouds 13 1000 82 10000 6 310 14:19 31.07.2019
4420 Clouds 13 1000 82 10000 6 310 13:55 31.07.2019
4421 Rain 12 1000 93 9000 6 310 13:36 31.07.2019
4422 Rain 12 1000 82 10000 7 310 13:18 31.07.2019
4423 Rain 12 1000 82 10000 8 300 12:40 31.07.2019
4424 Rain 12 1000 82 10000 8 300 12:22 31.07.2019
4425 Rain 12 999 93 8000 7 300 11:39 31.07.2019
4426 Rain 11 999 87 10000 6 300 11:21 31.07.2019
4427 -273 0 0 0 0 0 10:56 31.07.2019
4428 Clouds 11 999 87 10000 7 300 10:38 31.07.2019
4429 Clouds 11 999 87 10000 7 300 10:19 31.07.2019
4430 Rain 11 998 93 10000 6 280 09:42 31.07.2019
4431 Rain 10 998 100 6000 6 310 09:23 31.07.2019
4432 Rain 10 998 93 10000 6 290 08:43 31.07.2019
4433 Rain 10 998 93 10000 6 290 08:24 31.07.2019
4434 Rain 9 998 100 7000 6 290 07:48 31.07.2019
4435 Rain 9 998 100 7000 6 290 07:30 31.07.2019
4436 Rain 10 998 93 10000 7 290 05:24 31.07.2019
4437 Rain 10 998 87 10000 7 280 04:19 31.07.2019
4438 Clear 10 1000 81 10000 5 260 00:38 31.07.2019
4439 Clear 11 1001 66 10000 5 280 23:51 30.07.2019
4440 Clear 11 1001 66 10000 5 280 23:29 30.07.2019
4441 Clear 11 1001 71 10000 5 270 22:59 30.07.2019
4442 Clear 11 1001 71 10000 6 280 22:40 30.07.2019
4443 Clear 11 1001 71 10000 6 280 22:21 30.07.2019
4444 Clouds 12 1001 71 10000 6 250 21:38 30.07.2019
4445 Clear 12 1001 66 10000 5 250 21:19 30.07.2019
4446 Clear 12 1001 66 10000 5 250 20:56 30.07.2019
4447 Clear 12 1002 62 10000 5 250 20:38 30.07.2019
4448 Clear 13 1002 62 10000 4 250 20:19 30.07.2019
4449 Clear 14 1002 50 10000 6 280 19:47 30.07.2019
4450 Clear 14 1002 50 10000 6 280 19:28 30.07.2019
4451 Clear 15 1003 54 10000 6 270 18:48 30.07.2019
4452 Clear 16 1003 47 10000 5 300 18:25 30.07.2019
4453 Clear 16 1003 47 10000 5 300 17:58 30.07.2019
4454 Clear 16 1003 44 10000 6 280 17:40 30.07.2019
4455 Clouds 16 1004 51 10000 7 290 17:18 30.07.2019
4456 Clear 16 1004 51 10000 6 290 16:44 30.07.2019
4457 Clear 16 1004 47 10000 7 290 16:19 30.07.2019
4458 Clear 16 1004 51 10000 7 280 15:40 30.07.2019
4459 Clear 16 1004 51 10000 7 280 15:22 30.07.2019
4460 Clear 16 1005 51 10000 6 280 14:44 30.07.2019
4461 Clouds 16 1005 48 10000 6 300 14:23 30.07.2019
4462 Clouds 16 1005 50 10000 6 310 13:56 30.07.2019
4463 Clouds 15 1005 50 10000 6 310 13:37 30.07.2019
4464 Clouds 15 1005 51 10000 6 280 13:19 30.07.2019
4465 Clouds 14 1005 58 10000 7 320 12:46 30.07.2019
4466 Clouds 14 1005 58 10000 7 320 12:27 30.07.2019
4467 Clouds 15 1005 50 10000 5 310 11:47 30.07.2019
4468 Clouds 15 1005 50 10000 5 310 11:29 30.07.2019
4469 Clouds 14 1005 54 10000 7 310 10:59 30.07.2019
4470 Clouds 14 1005 50 10000 7 300 10:39 30.07.2019
4471 Clouds 14 1005 54 10000 5 320 10:20 30.07.2019
4472 Clouds 14 1005 58 10000 5 300 09:48 30.07.2019
4473 Clouds 13 1005 58 10000 5 300 09:28 30.07.2019
4474 Clouds 13 1005 62 10000 6 310 08:43 30.07.2019
4475 Clouds 13 1005 62 10000 6 310 08:20 30.07.2019
4476 Clear 12 1005 71 10000 6 300 07:44 30.07.2019
4477 Clear 12 1005 71 10000 6 300 07:23 30.07.2019
4478 Clouds 11 1006 81 10000 4 330 06:46 30.07.2019
4479 Clouds 11 1006 81 10000 4 330 06:46 30.07.2019
4480 Clouds 10 1006 87 10000 3 300 05:47 30.07.2019
4481 Clouds 10 1006 87 10000 3 300 05:25 30.07.2019
4482 Clear 10 1006 76 10000 3 270 01:38 30.07.2019
4483 Clear 12 1006 76 10000 4 270 00:40 30.07.2019
4484 Clear 12 1006 76 10000 4 270 00:20 30.07.2019
4485 Clear 12 1006 76 10000 3 300 23:44 29.07.2019
4486 Clear 12 1006 76 10000 3 300 23:25 29.07.2019
4487 Clear 13 1006 58 10000 3 320 22:57 29.07.2019
4488 Clear 13 1006 66 10000 3 300 22:38 29.07.2019
4489 Clear 13 1006 66 10000 3 300 22:38 29.07.2019
4490 Clear 13 1006 66 10000 4 300 22:19 29.07.2019
4491 Clear 13 1006 66 10000 4 300 21:55 29.07.2019
4492 Clear 13 1006 62 10000 4 290 21:37 29.07.2019
4493 Clear 14 1006 58 10000 3 300 21:18 29.07.2019
4494 Clear 14 1006 58 10000 2 320 20:43 29.07.2019
4495 Clear 14 1006 58 10000 2 320 20:22 29.07.2019
4496 Clear 14 1007 58 10000 3 350 19:55 29.07.2019
4497 Clear 15 1007 54 10000 3 350 19:36 29.07.2019
4498 Clear 15 1007 54 10000 3 350 19:18 29.07.2019
4499 Clear 16 1006 44 10000 4 340 18:41 29.07.2019
4500 Clear 16 1006 44 10000 4 340 18:21 29.07.2019
4501 Clear 16 1006 44 10000 4 330 17:50 29.07.2019
4502 Clear 16 1007 47 10000 6 360 17:32 29.07.2019
4503 Clear 16 1007 51 10000 5 350 16:58 29.07.2019
4504 Clear 17 1007 45 10000 5 350 16:39 29.07.2019
4505 Clear 17 1007 45 10000 5 350 16:20 29.07.2019
4506 Clear 17 1006 45 10000 6 320 15:50 29.07.2019
4507 Clear 17 1006 45 10000 6 320 15:31 29.07.2019
4508 Clear 17 1006 45 10000 4 340 14:46 29.07.2019
4509 Clear 17 1006 45 10000 4 340 14:22 29.07.2019
4510 Clear 17 1007 45 10000 6 320 13:59 29.07.2019
4511 Clear 17 1007 44 10000 6 350 13:41 29.07.2019
4512 Clear 17 1007 44 10000 6 350 13:23 29.07.2019
4513 Clouds 16 1007 47 10000 6 330 12:42 29.07.2019
4514 Clouds 17 1007 47 10000 6 330 12:22 29.07.2019
4515 Clouds 16 1007 47 10000 6 330 11:43 29.07.2019
4516 Clouds 15 1007 47 10000 7 320 11:22 29.07.2019
4517 Clouds 15 1007 50 10000 6 330 10:45 29.07.2019
4518 Clouds 15 1007 50 10000 6 330 10:24 29.07.2019
4519 Clouds 14 1008 58 10000 6 350 09:48 29.07.2019
4520 Clouds 14 1008 58 10000 6 350 09:28 29.07.2019
4521 Clear 14 1008 62 10000 5 340 08:57 29.07.2019
4522 Clear 14 1008 62 10000 5 340 08:31 29.07.2019
4523 Clear 13 1008 58 10000 3 340 07:58 29.07.2019
4524 Clear 13 1008 58 10000 3 340 07:36 29.07.2019
4525 Clear 12 1008 66 10000 3 360 06:45 29.07.2019
4526 Clear 11 1008 71 10000 4 10 05:46 29.07.2019
4527 Clear 11 1008 76 10000 3 10 04:51 29.07.2019
4528 Clear 13 1008 62 10000 4 10 02:26 29.07.2019
4529 Clear 14 1007 71 10000 6 20 01:41 29.07.2019
4530 Clear 14 1007 71 10000 6 20 01:21 29.07.2019
4531 Clear 14 1007 76 10000 5 20 01:21 29.07.2019
4532 Clear 16 1007 71 10000 5 30 00:41 29.07.2019
4533 Clear 16 1006 71 10000 6 20 00:19 29.07.2019
4534 Clouds 18 1006 59 10000 7 20 23:40 28.07.2019
4535 Clouds 18 1005 72 10000 6 10 23:18 28.07.2019
4536 Clouds 18 1006 67 10000 8 20 22:39 28.07.2019
4537 Clouds 19 1006 67 10000 8 20 22:21 28.07.2019
4538 Clouds 20 1005 72 10000 6 350 21:46 28.07.2019
4539 Clear 20 1004 68 10000 4 310 21:19 28.07.2019
4540 Clear 21 1004 68 10000 4 310 20:47 28.07.2019
4541 Clear 21 1004 68 10000 4 310 20:29 28.07.2019
4542 Clear 23 1004 60 10000 5 300 19:42 28.07.2019
4543 Clear 23 1004 60 10000 5 300 19:42 28.07.2019
4544 Clear 23 1004 60 10000 5 300 19:22 28.07.2019
4545 Clear 23 1005 53 10000 6 320 18:58 28.07.2019
4546 Clear 24 1005 56 10000 4 320 18:38 28.07.2019
4547 Clear 24 1005 56 10000 4 320 18:38 28.07.2019
4548 Clear 24 1005 53 10000 7 310 18:18 28.07.2019
4549 Clear 25 1005 60 10000 6 320 17:41 28.07.2019
4550 Clear 25 1005 57 10000 6 330 17:22 28.07.2019
4551 Clear 26 1005 57 10000 6 330 16:57 28.07.2019
4552 Clear 26 1005 53 10000 7 310 16:39 28.07.2019
4553 Clear 26 1005 50 10000 7 320 16:20 28.07.2019
4554 Clear 26 1005 54 10000 7 330 15:43 28.07.2019
4555 Clear 26 1005 54 10000 7 330 15:43 28.07.2019
4556 Clear 26 1006 53 10000 6 330 15:21 28.07.2019
4557 Clouds 26 1006 53 10000 8 310 14:38 28.07.2019
4558 Clouds 26 1006 53 10000 6 320 14:19 28.07.2019
4559 Clear 26 1006 53 10000 6 340 13:45 28.07.2019
4560 Clear 26 1006 53 10000 6 340 13:25 28.07.2019
4561 Clouds 26 1006 53 10000 6 330 12:59 28.07.2019
4562 Clouds 26 1007 53 10000 6 330 12:40 28.07.2019
4563 Clouds 26 1007 53 10000 6 330 12:22 28.07.2019
4564 Clouds 25 1007 60 10000 6 360 11:48 28.07.2019
4565 Clouds 25 1007 60 10000 6 360 11:27 28.07.2019
4566 Clear 25 1007 69 10000 6 340 10:42 28.07.2019
4567 Clear 25 1007 69 10000 6 340 10:23 28.07.2019
4568 Clear 25 1007 69 10000 6 340 10:23 28.07.2019
4569 Clouds 25 1007 69 10000 6 330 09:57 28.07.2019
4570 Clouds 24 1007 73 10000 6 320 09:38 28.07.2019
4571 Clouds 24 1007 73 10000 5 350 09:19 28.07.2019
4572 Clear 24 1007 78 10000 4 320 08:41 28.07.2019
4573 Clear 23 1008 83 10000 3 320 08:21 28.07.2019
4574 Clear 22 1008 83 10000 4 320 07:39 28.07.2019
4575 Clear 22 1008 88 10000 4 320 06:56 28.07.2019
4576 Clear 21 1008 88 10000 3 320 06:28 28.07.2019
4577 Clear 19 1008 93 10000 3 320 05:18 28.07.2019
4578 Clear 20 1009 100 10000 3 320 02:24 28.07.2019
4579 Clear 21 1009 93 10000 3 340 01:31 28.07.2019
4580 Clear 21 1009 93 10000 3 320 00:52 28.07.2019
4581 Rain 22 1009 93 10000 3 290 00:25 28.07.2019
4582 Rain 22 1010 77 10000 6 360 23:48 27.07.2019
4583 Rain 21 1010 77 10000 6 360 23:27 27.07.2019
4584 Clear 22 1010 68 10000 2 300 22:43 27.07.2019
4585 Clear 22 1010 68 10000 2 300 22:23 27.07.2019
4586 Clear 23 1010 64 10000 3 290 21:45 27.07.2019
4587 Clear 23 1010 64 10000 3 290 21:23 27.07.2019
4588 Clear 24 1010 64 10000 3 300 20:56 27.07.2019
4589 Clear 25 1010 64 10000 3 320 20:37 27.07.2019
4590 Clear 25 1010 64 10000 3 320 20:19 27.07.2019
4591 Clear 26 1010 57 10000 3 330 19:39 27.07.2019
4592 Clear 26 1010 57 10000 3 350 19:21 27.07.2019
4593 Clear 27 1011 51 10000 4 360 18:47 27.07.2019
4594 Clear 28 1011 51 10000 4 360 18:28 27.07.2019
4595 Clear 28 1011 51 10000 6 350 17:50 27.07.2019
4596 Clear 27 1011 54 10000 4 360 17:50 27.07.2019
4597 Clear 28 1011 51 10000 6 350 17:32 27.07.2019
4598 Clear 28 1011 47 10000 6 350 16:55 27.07.2019
4599 Clear 28 1011 47 10000 6 350 16:37 27.07.2019
4600 Clear 29 1011 51 10000 6 330 15:56 27.07.2019
4601 Clear 28 1012 51 10000 5 350 15:38 27.07.2019
4602 Clear 28 1012 51 10000 5 350 15:18 27.07.2019
4603 Clear 28 1013 48 10000 5 10 14:45 27.07.2019
4604 Clear 28 1013 48 10000 5 10 14:25 27.07.2019
4605 Clear 28 1013 51 10000 6 30 13:48 27.07.2019
4606 Clear 28 1013 51 10000 6 30 13:23 27.07.2019
4607 Clear 28 1014 51 10000 5 10 12:50 27.07.2019
4608 Clear 27 1014 51 10000 5 360 12:27 27.07.2019
4609 Clear 27 1014 54 10000 5 30 11:57 27.07.2019
4610 Clear 27 1014 54 10000 5 30 11:38 27.07.2019
4611 Clear 26 1015 57 10000 5 40 11:20 27.07.2019
4612 Clear 26 1015 54 10000 5 10 10:41 27.07.2019
4613 Clear 26 1015 57 10000 6 30 10:21 27.07.2019
4614 Clear 25 1015 57 10000 6 30 09:41 27.07.2019
4615 Clear 25 1015 60 10000 3 20 09:23 27.07.2019
4616 Clear 25 1015 60 10000 3 20 08:49 27.07.2019
4617 Clear 24 1016 64 10000 3 360 08:29 27.07.2019
4618 Clear 23 1016 64 10000 2 350 07:55 27.07.2019
4619 Clear 22 1016 73 10000 1 0 07:29 27.07.2019
4620 Clear 21 1016 73 10000 2 20 06:56 27.07.2019
4621 Clear 20 1016 77 10000 3 10 06:31 27.07.2019
4622 Clear 19 1016 82 10000 2 10 05:53 27.07.2019
4623 Clear 19 1016 88 10000 2 20 05:28 27.07.2019
4624 Clear 18 1016 93 10000 3 10 04:33 27.07.2019
4625 Clear 19 1016 93 10000 3 360 03:28 27.07.2019
4626 Clear 19 1016 88 10000 2 20 02:40 27.07.2019
4627 Clear 20 1016 77 10000 2 360 01:48 27.07.2019
4628 Clear 20 1016 82 10000 3 60 01:21 27.07.2019
4629 Clear 21 1016 82 10000 4 60 00:33 27.07.2019
4630 Clear 21 1016 77 10000 4 60 23:55 26.07.2019
4631 Clear 22 1017 73 10000 5 50 23:37 26.07.2019
4632 Clear 22 1017 73 10000 5 50 23:18 26.07.2019
4633 Clear 22 1017 68 10000 5 40 22:41 26.07.2019
4634 Clear 22 1017 68 10000 5 40 22:23 26.07.2019
4635 Clear 22 1017 68 10000 4 30 21:49 26.07.2019
4636 Clear 23 1017 64 10000 5 40 21:20 26.07.2019
4637 Clear 23 1017 64 10000 5 50 20:43 26.07.2019
4638 Clear 24 1017 64 10000 5 50 20:25 26.07.2019
4639 Clear 25 1016 60 10000 6 50 19:44 26.07.2019
4640 Clear 25 1016 60 10000 6 50 19:25 26.07.2019
4641 Clear 25 1016 57 10000 6 60 18:58 26.07.2019
4642 Clear 25 1016 57 10000 7 50 18:38 26.07.2019
4643 Clear 26 1016 57 10000 6 60 18:20 26.07.2019
4644 Clouds 26 1016 54 10000 8 70 17:47 26.07.2019
4645 Clouds 26 1016 54 10000 7 50 17:19 26.07.2019
4646 Clouds 26 1016 54 10000 7 50 17:19 26.07.2019
4647 Clouds 27 1016 54 10000 7 50 16:58 26.07.2019
4648 Clear 27 1016 54 10000 7 70 16:40 26.07.2019
4649 Clear 27 1016 54 10000 7 70 16:20 26.07.2019
4650 Clear 27 1016 51 10000 8 50 15:56 26.07.2019
4651 Clear 28 1016 54 10000 6 60 15:38 26.07.2019
4652 Clear 28 1017 51 10000 6 80 15:19 26.07.2019
4653 Clear 28 1017 54 10000 7 70 14:43 26.07.2019
4654 Clear 28 1017 54 10000 7 70 14:23 26.07.2019
4655 Clear 28 1017 54 10000 7 70 13:46 26.07.2019
4656 Clear 27 1017 54 10000 7 70 13:27 26.07.2019
4657 Clear 27 1017 57 10000 7 80 12:49 26.07.2019
4658 Clear 27 1017 57 10000 7 80 12:23 26.07.2019
4659 Clouds 27 1016 54 10000 7 90 11:56 26.07.2019
4660 Clear 26 1017 57 10000 7 70 11:36 26.07.2019
4661 Clear 26 1017 57 10000 6 70 11:18 26.07.2019
4662 Clear 26 1017 61 10000 8 80 10:39 26.07.2019
4663 Clear 25 1017 57 10000 7 70 10:19 26.07.2019
4664 Clear 25 1017 64 10000 6 70 09:50 26.07.2019
4665 Clear 25 1017 64 10000 6 70 09:27 26.07.2019
4666 Clear 23 1017 69 10000 4 70 08:41 26.07.2019
4667 Clear 22 1017 73 10000 5 70 08:21 26.07.2019
4668 Clear 22 1017 77 10000 5 70 07:40 26.07.2019
4669 Clear 22 1017 77 10000 5 70 07:22 26.07.2019
4670 Clear 20 1017 88 10000 5 70 06:30 26.07.2019
4671 Mist 18 1017 93 10000 3 70 04:30 26.07.2019
4672 Mist 18 1017 100 10000 4 50 03:53 26.07.2019
4673 Mist 18 1017 93 10000 1 0 01:49 26.07.2019
4674 Mist 18 1017 93 10000 1 0 01:24 26.07.2019
4675 Clouds 18 1016 100 8000 3 70 00:29 26.07.2019
4676 Clouds 18 1016 93 8000 3 70 23:46 25.07.2019
4677 Clouds 18 1016 93 8000 3 70 23:22 25.07.2019
4678 Clear 19 1016 100 10000 3 70 22:42 25.07.2019
4679 Clear 19 1016 100 10000 3 70 22:23 25.07.2019
4680 Clear 19 1016 100 10000 4 80 21:57 25.07.2019
4681 Clear 19 1016 100 10000 4 80 21:38 25.07.2019
4682 Clear 19 1016 88 10000 5 70 21:20 25.07.2019
4683 Clear 20 1016 88 10000 5 80 20:41 25.07.2019
4684 Clear 20 1016 88 10000 5 80 20:21 25.07.2019
4685 Clear 20 1016 82 10000 3 70 19:41 25.07.2019
4686 Clear 21 1016 82 10000 3 70 19:23 25.07.2019
4687 Clouds 21 1015 82 10000 5 80 18:43 25.07.2019
4688 Clouds 21 1015 83 10000 6 90 18:25 25.07.2019
4689 Clouds 21 1015 83 10000 6 90 17:51 25.07.2019
4690 Clouds 22 1015 88 10000 7 100 17:33 25.07.2019
4691 Clouds 22 1015 77 10000 4 90 16:58 25.07.2019
4692 Clouds 22 1015 88 10000 5 90 16:40 25.07.2019
4693 Clouds 22 1015 88 10000 5 90 16:22 25.07.2019
4694 Clouds 21 1015 93 10000 5 80 15:50 25.07.2019
4695 Clouds 21 1015 93 10000 5 80 15:50 25.07.2019
4696 Rain 21 1015 100 9000 6 80 15:21 25.07.2019
4697 Rain 21 1015 100 10000 6 70 14:43 25.07.2019
4698 Rain 20 1015 93 10000 5 80 14:24 25.07.2019
4699 Rain 19 1015 93 10000 5 80 13:59 25.07.2019
4700 Rain 19 1015 100 7000 4 80 13:37 25.07.2019
4701 Rain 19 1014 88 10000 6 80 13:19 25.07.2019
4702 Clouds 19 1014 88 10000 5 80 12:34 25.07.2019
4703 Rain 20 1014 88 10000 5 90 11:58 25.07.2019
4704 Rain 20 1014 88 10000 5 90 11:40 25.07.2019
4705 Rain 20 1014 88 10000 5 90 11:21 25.07.2019
4706 Rain 19 1014 82 10000 5 90 10:43 25.07.2019
4707 Rain 20 1014 82 10000 5 90 10:23 25.07.2019
4708 Rain 20 1014 82 10000 5 100 09:45 25.07.2019
4709 Rain 20 1014 82 10000 5 100 09:45 25.07.2019
4710 Rain 19 1014 82 10000 5 100 09:27 25.07.2019
4711 Clouds 19 1014 93 10000 4 110 08:48 25.07.2019
4712 Clouds 19 1014 93 10000 4 110 08:26 25.07.2019
4713 Mist 18 1013 100 5000 3 120 07:39 25.07.2019
4714 Mist 17 1013 100 3900 3 90 06:45 25.07.2019
4715 Rain 16 1013 100 3300 3 90 06:19 25.07.2019
4716 Rain 16 1013 100 3300 3 80 05:32 25.07.2019
4717 Fog 15 1013 100 150 1 30 04:45 25.07.2019
4718 Mist 14 1012 100 9000 2 320 02:24 25.07.2019
4719 Fog 14 1012 100 2500 2 360 01:21 25.07.2019
4720 Mist 14 1012 100 5000 2 320 00:23 25.07.2019
4721 Mist 15 1012 100 7000 2 200 23:56 24.07.2019
4722 Mist 15 1012 100 7000 2 200 23:37 24.07.2019
4723 Fog 15 1012 100 10000 1 0 23:18 24.07.2019
4724 Fog 15 1012 100 10000 1 0 22:44 24.07.2019
4725 Fog 15 1012 100 10000 1 0 22:22 24.07.2019
4726 Fog 16 1012 100 9000 2 290 21:55 24.07.2019
4727 Mist 16 1012 93 10000 1 290 21:37 24.07.2019
4728 Clouds 16 1012 100 10000 2 290 21:18 24.07.2019
4729 Clouds 17 1012 93 10000 2 300 20:40 24.07.2019
4730 Clouds 17 1012 93 10000 2 300 20:22 24.07.2019
4731 Clouds 17 1012 100 10000 2 310 19:56 24.07.2019
4732 Clouds 17 1012 100 10000 2 310 19:38 24.07.2019
4733 Clouds 18 1011 100 10000 2 290 19:19 24.07.2019
4734 Rain 18 1011 100 10000 2 310 18:42 24.07.2019
4735 Rain 18 1011 100 10000 2 310 18:23 24.07.2019
4736 Rain 19 1011 93 10000 2 240 17:44 24.07.2019
4737 Rain 20 1011 93 10000 2 300 17:20 24.07.2019
4738 Clouds 20 1011 88 10000 2 290 16:43 24.07.2019
4739 Clouds 20 1011 88 10000 2 290 16:23 24.07.2019
4740 Clouds 20 1011 88 10000 2 290 16:23 24.07.2019
4741 Clouds 20 1011 93 10000 1 0 15:58 24.07.2019
4742 Rain 20 1011 93 10000 1 0 15:36 24.07.2019
4743 Rain 19 1011 100 9000 2 220 15:18 24.07.2019
4744 Rain 19 1011 100 6000 2 190 14:43 24.07.2019
4745 Rain 19 1011 82 10000 4 70 14:19 24.07.2019
4746 Rain 19 1011 82 10000 4 70 13:38 24.07.2019
4747 Rain 20 995 83 0 0.45 183 13:19 24.07.2019
4748 Rain 19 1011 82 10000 4 70 12:51 24.07.2019
4749 Rain 20 1011 82 10000 4 70 12:33 24.07.2019
4750 Rain 20 1011 82 10000 3 60 11:40 24.07.2019
4751 Rain 21 1011 82 10000 3 60 11:21 24.07.2019
4752 Clouds 21 1011 88 10000 2 50 10:46 24.07.2019
4753 Clouds 21 1011 88 10000 2 50 10:26 24.07.2019
4754 Clouds 20 1011 88 10000 2 50 09:52 24.07.2019
4755 Clouds 19 1011 93 9000 3 50 09:26 24.07.2019
4756 Clouds 19 1011 100 8000 2 70 08:58 24.07.2019
4757 Clouds 18 1011 100 6000 2 20 08:35 24.07.2019
4758 Clouds 18 1011 100 7000 3 30 07:52 24.07.2019
4759 Clouds 18 1011 100 7000 3 30 07:31 24.07.2019
4760 Clouds 18 1011 100 7000 3 30 07:31 24.07.2019
4761 Mist 18 1011 100 6000 2 20 06:51 24.07.2019
4762 Mist 17 1010 100 5000 2 70 06:27 24.07.2019
4763 Mist 16 1010 100 4900 1 0 04:45 24.07.2019
4764 Mist 17 1011 100 8000 3 70 01:47 24.07.2019
4765 Rain 17 1011 100 6000 4 90 00:57 24.07.2019
4766 Mist 17 1011 93 10000 5 100 00:30 24.07.2019
4767 Clouds 17 1011 93 10000 4 80 23:47 23.07.2019
4768 Clouds 17 1011 93 10000 4 80 23:26 23.07.2019
4769 Clouds 18 1011 93 10000 4 70 22:58 23.07.2019
4770 Rain 18 1010 100 10000 2 70 22:37 23.07.2019
4771 Rain 18 1010 100 10000 2 70 22:18 23.07.2019
4772 Rain 18 1011 93 10000 4 70 22:18 23.07.2019
4773 Clouds 17 1011 93 10000 4 70 21:44 23.07.2019
4774 Clouds 17 1011 93 10000 4 70 21:44 23.07.2019
4775 Clouds 17 1011 93 10000 4 70 21:25 23.07.2019
4776 Rain 18 1011 93 10000 3 80 20:49 23.07.2019
4777 Rain 18 1011 93 10000 3 80 20:29 23.07.2019
4778 Clouds 18 1011 93 10000 5 80 19:44 23.07.2019
4779 Clouds 19 1010 88 10000 4 90 19:24 23.07.2019
4780 Clouds 19 1011 88 10000 5 70 18:58 23.07.2019
4781 Clouds 19 1011 88 10000 5 90 18:39 23.07.2019
4782 Clouds 19 1011 88 10000 5 90 18:20 23.07.2019
4783 Clouds 19 1011 77 10000 5 100 17:43 23.07.2019
4784 Clouds 19 1011 77 10000 5 100 17:22 23.07.2019
4785 Clouds 19 1011 77 10000 5 100 16:44 23.07.2019
4786 Clouds 19 1011 88 10000 5 90 16:26 23.07.2019
4787 Clouds 19 1011 88 10000 5 90 15:52 23.07.2019
4788 Clouds 20 1011 82 10000 6 100 15:34 23.07.2019
4789 Rain 19 1011 88 10000 5 100 14:56 23.07.2019
4790 Clouds 19 1011 82 10000 5 120 14:36 23.07.2019
4791 Clouds 19 1011 82 10000 6 100 14:18 23.07.2019
4792 Clouds 19 1011 82 10000 6 100 14:18 23.07.2019
4793 Clouds 19 1011 82 10000 6 100 14:18 23.07.2019
4794 Clouds 19 1011 88 10000 5 80 13:56 23.07.2019
4795 Clouds 19 1011 88 10000 5 80 13:37 23.07.2019
4796 Clear 19 1011 93 10000 4 70 13:19 23.07.2019
4797 Clear 19 1011 88 10000 5 80 12:42 23.07.2019
4798 Clear 19 1011 88 10000 5 80 12:22 23.07.2019
4799 Rain 19 1011 100 9000 4 100 11:41 23.07.2019
4800 Rain 19 1011 93 10000 4 100 11:22 23.07.2019
4801 Rain 19 1011 93 10000 4 100 10:51 23.07.2019
4802 Rain 19 1011 100 9000 4 80 10:23 23.07.2019
4803 Clouds 18 1011 100 10000 3 100 09:43 23.07.2019
4804 Clouds 19 1011 100 10000 3 100 09:22 23.07.2019
4805 Rain 18 1011 93 10000 3 70 08:57 23.07.2019
4806 Rain 18 1011 93 10000 3 80 08:38 23.07.2019
4807 Rain 18 1011 100 9000 3 70 08:18 23.07.2019
4808 Rain 18 1011 100 9000 3 70 07:44 23.07.2019
4809 Rain 18 1011 100 9000 3 70 07:26 23.07.2019
4810 Rain 17 1012 93 8000 2 170 06:37 23.07.2019
4811 Mist 17 1012 100 10000 3 80 04:51 23.07.2019
4812 Clear 17 1013 100 10000 3 70 01:55 23.07.2019
4813 Clear 16 1013 88 10000 1 110 00:54 23.07.2019
4814 Clear 17 1013 88 10000 1 110 00:27 23.07.2019
4815 Clear 18 1013 82 10000 2 50 23:41 22.07.2019
4816 Clear 17 1013 93 10000 2 60 23:21 22.07.2019
4817 Clear 18 1013 88 10000 1 40 22:46 22.07.2019
4818 Clear 18 1013 88 10000 1 40 22:27 22.07.2019
4819 Clear 19 1014 77 10000 2 90 21:59 22.07.2019
4820 Clear 19 1014 77 10000 2 80 21:41 22.07.2019
4821 Clear 19 1014 77 10000 2 80 21:20 22.07.2019
4822 Clear 20 1014 72 10000 3 60 20:47 22.07.2019
4823 Clear 20 1014 72 10000 3 60 20:29 22.07.2019
4824 Clear 20 1014 72 10000 3 60 20:29 22.07.2019
4825 Clouds 22 1014 56 10000 2 40 19:44 22.07.2019
4826 Clouds 24 1014 56 10000 1 0 19:26 22.07.2019
4827 Clouds 24 1014 56 10000 2 70 18:58 22.07.2019
4828 Clouds 24 1014 56 10000 2 70 18:39 22.07.2019
4829 Clouds 24 1014 53 10000 2 110 18:21 22.07.2019
4830 Clouds 24 1014 56 10000 2 90 17:41 22.07.2019
4831 Clouds 25 1014 56 10000 2 90 17:23 22.07.2019
4832 Clouds 24 1014 53 10000 2 0 16:41 22.07.2019
4833 Clouds 25 1015 56 10000 2 120 16:21 22.07.2019
4834 Clouds 25 1015 56 10000 2 120 15:59 22.07.2019
4835 Clouds 25 1015 56 10000 1 0 15:37 22.07.2019
4836 Rain 24 1015 68 9000 8 310 15:18 22.07.2019
4837 Rain 23 1015 56 10000 5 250 14:43 22.07.2019
4838 Rain 23 1015 49 10000 3 260 14:20 22.07.2019
4839 Clear 24 1015 47 10000 2 330 13:47 22.07.2019
4840 Clear 24 1015 47 10000 2 330 13:28 22.07.2019
4841 Clear 25 1016 44 10000 3 290 12:46 22.07.2019
4842 Clear 24 1016 50 10000 3 230 12:27 22.07.2019
4843 Clouds 24 1016 50 10000 2 240 11:45 22.07.2019
4844 Clouds 24 1016 50 10000 2 240 11:25 22.07.2019
4845 Clouds 23 1016 53 10000 2 290 10:58 22.07.2019
4846 Clouds 23 1016 60 10000 2 0 10:33 22.07.2019
4847 -273 0 0 0 0 0 09:45 22.07.2019
4848 Clouds 22 1016 56 10000 3 230 09:26 22.07.2019
4849 Clear 22 1017 64 10000 3 280 08:56 22.07.2019
4850 Clear 21 1017 73 10000 2 260 08:36 22.07.2019
4851 Clear 20 1017 72 10000 3 260 08:18 22.07.2019
4852 Clear 19 1017 82 10000 2 270 07:41 22.07.2019
4853 Clear 19 1017 82 10000 2 270 07:22 22.07.2019
4854 Clear 14 1017 93 10000 1.24 267.448 04:53 22.07.2019
4855 Clear 14 1017 100 10000 2 260 02:57 22.07.2019
4856 Clear 15 1017 93 10000 1 200 00:58 22.07.2019
4857 Smoke 17 1017 87 9000 1 0 00:38 22.07.2019
4858 Smoke 16 1017 87 9000 1 0 00:38 22.07.2019
4859 Clouds 17 1017 93 9000 1 0 00:18 22.07.2019
4860 Clear 17 1017 82 10000 2 330 23:43 21.07.2019
4861 Clear 17 1017 82 10000 1 0 22:57 21.07.2019
4862 Clear 18 1017 82 10000 1 0 22:38 21.07.2019
4863 Clear 18 1017 77 10000 1 0 22:20 21.07.2019
4864 Clear 18 1017 72 10000 1 0 21:48 21.07.2019
4865 Clear 18 1017 72 10000 1 0 21:25 21.07.2019
4866 Clear 20 1017 72 10000 2 10 20:57 21.07.2019
4867 Clear 20 1017 72 10000 2 10 20:38 21.07.2019
4868 Clear 20 1017 72 10000 4 360 20:20 21.07.2019
4869 Clear 21 1017 72 10000 4 360 19:47 21.07.2019
4870 Clear 21 1016 64 10000 4 290 19:28 21.07.2019
4871 Clear 22 1016 60 10000 4 300 18:48 21.07.2019
4872 Clear 22 1016 60 10000 5 290 18:26 21.07.2019
4873 Clear 22 1016 60 10000 5 290 17:54 21.07.2019
4874 Clouds 22 1016 56 10000 6 280 17:36 21.07.2019
4875 Clear 22 1016 56 10000 4 300 17:18 21.07.2019
4876 Clouds 23 1016 53 10000 5 300 16:40 21.07.2019
4877 Clouds 23 1016 53 10000 5 300 16:21 21.07.2019
4878 Rain 22 1016 53 10000 6 290 15:39 21.07.2019
4879 Rain 22 1016 53 10000 6 290 15:20 21.07.2019
4880 Rain 22 1016 53 10000 6 290 15:20 21.07.2019
4881 Clouds 22 1016 56 10000 5 290 14:42 21.07.2019
4882 Clouds 22 1016 56 10000 5 290 14:23 21.07.2019
4883 Clouds 22 1016 64 10000 5 300 13:53 21.07.2019
4884 Clouds 21 1016 68 10000 5 280 13:32 21.07.2019
4885 Rain 20 1016 77 10000 5 260 12:55 21.07.2019
4886 Rain 20 1016 77 10000 5 260 12:37 21.07.2019
4887 Rain 20 1016 77 10000 6 280 12:18 21.07.2019
4888 Clouds 20 1016 77 10000 4 270 11:44 21.07.2019
4889 Clouds 20 1016 77 10000 4 270 11:25 21.07.2019
4890 Clouds 20 1016 77 10000 6 290 10:43 21.07.2019
4891 Clouds 20 1016 77 10000 6 290 10:23 21.07.2019
4892 Clouds 19 1016 82 10000 5 280 09:49 21.07.2019
4893 Clouds 19 1016 82 10000 5 280 09:30 21.07.2019
4894 Clouds 18 1015 88 10000 5 270 08:47 21.07.2019
4895 Clouds 18 1015 88 10000 5 270 08:27 21.07.2019
4896 Clouds 17 1015 88 10000 5 270 07:40 21.07.2019
4897 Clouds 17 1015 88 10000 5 280 06:59 21.07.2019
4898 Clouds 16 1015 93 10000 5 290 05:54 21.07.2019
4899 Clouds 15 1014 100 10000 4 260 02:59 21.07.2019
4900 Clouds 16 1014 93 10000 5 250 01:33 21.07.2019
4901 Clouds 16 1014 100 10000 5 260 00:42 21.07.2019
4902 Clouds 16 1014 100 10000 4 250 00:20 21.07.2019
4903 Clouds 16 1013 100 10000 4 250 23:44 20.07.2019
4904 Clouds 16 1013 100 10000 4 250 23:21 20.07.2019
4905 Clear 16 1013 100 10000 5 250 22:49 20.07.2019
4906 Clear 16 1013 100 10000 5 250 22:23 20.07.2019
4907 Clouds 17 1013 100 10000 4 250 21:58 20.07.2019
4908 Clear 17 1013 93 10000 4 260 21:39 20.07.2019
4909 Clear 17 1013 93 10000 4 260 21:21 20.07.2019
4910 Clouds 17 1013 88 10000 5 250 20:42 20.07.2019
4911 Clouds 17 1013 88 10000 5 250 20:42 20.07.2019
4912 Clouds 18 1012 88 10000 5 250 20:21 20.07.2019
4913 Clouds 18 1012 82 10000 6 250 19:46 20.07.2019
4914 Clouds 18 1012 82 10000 6 250 19:25 20.07.2019
4915 Rain 19 1012 82 10000 7 260 18:45 20.07.2019
4916 Rain 19 1012 82 10000 7 260 18:24 20.07.2019
4917 Rain 19 1012 88 10000 6 230 17:55 20.07.2019
4918 Rain 19 1011 72 10000 5 300 17:26 20.07.2019
4919 Rain 20 1011 68 10000 7 260 16:46 20.07.2019
4920 Rain 20 1011 68 10000 7 260 16:28 20.07.2019
4921 Clouds 20 1011 64 10000 8 260 15:59 20.07.2019
4922 Rain 20 1011 68 10000 6 240 15:41 20.07.2019
4923 Rain 20 1011 68 10000 6 240 15:21 20.07.2019
4924 Rain 19 1011 77 10000 4 300 14:49 20.07.2019
4925 Rain 19 1011 77 10000 4 300 14:29 20.07.2019
4926 Rain 18 1011 82 7000 6 290 13:57 20.07.2019
4927 Rain 20 1011 64 10000 6 260 13:37 20.07.2019
4928 Rain 20 1011 72 10000 5 250 13:19 20.07.2019
4929 Clouds 21 1011 68 10000 6 290 12:48 20.07.2019
4930 Clouds 20 1011 68 10000 5 250 12:19 20.07.2019
4931 Clouds 20 1010 72 10000 6 250 11:46 20.07.2019
4932 Clouds 19 1010 72 10000 6 250 11:21 20.07.2019
4933 Clouds 19 1010 88 10000 5 280 10:42 20.07.2019
4934 Clouds 19 1010 88 10000 5 260 10:23 20.07.2019
4935 Clouds 19 1010 82 10000 5 270 09:51 20.07.2019
4936 Clouds 19 1010 82 10000 5 270 09:27 20.07.2019
4937 Clouds 17 1010 88 10000 5 250 08:54 20.07.2019
4938 Rain 17 1009 88 10000 5 260 08:24 20.07.2019
4939 Rain 17 1009 93 10000 4 260 07:43 20.07.2019
4940 Rain 16 1009 100 10000 4 250 06:46 20.07.2019
4941 Rain 15 1009 100 10000 4 250 05:52 20.07.2019
4942 Rain 15 1008 100 10000 4 250 04:31 20.07.2019
4943 Rain 15 1008 100 10000 5 250 02:33 20.07.2019
4944 Mist 15 1007 100 10000 4 230 01:19 20.07.2019
4945 Mist 15 1007 100 10000 3 210 00:39 20.07.2019
4946 Mist 15 1007 100 10000 3 210 00:18 20.07.2019
4947 Rain 15 1007 100 10000 3 220 23:40 19.07.2019
4948 Rain 15 1007 93 10000 3 220 23:21 19.07.2019
4949 Rain 15 1007 100 10000 2 210 22:43 19.07.2019
4950 Rain 15 1007 100 10000 2 210 22:23 19.07.2019
4951 Rain 15 1007 100 9000 3 250 21:45 19.07.2019
4952 Rain 16 1007 100 9000 3 250 21:26 19.07.2019
4953 Rain 17 1007 93 10000 2 210 20:49 19.07.2019
4954 Rain 17 1007 93 10000 2 200 20:31 19.07.2019
4955 Clouds 19 1007 72 10000 3 230 19:55 19.07.2019
4956 Clouds 19 1007 72 10000 3 230 19:34 19.07.2019
4957 Rain 19 1006 93 10000 4 310 18:42 19.07.2019
4958 Rain 19 1006 93 10000 4 310 18:22 19.07.2019
4959 Rain 21 1006 72 10000 2 280 17:55 19.07.2019
4960 Rain 20 1006 72 10000 2 280 17:29 19.07.2019
4961 Clouds 20 1006 64 10000 5 240 16:49 19.07.2019
4962 Clouds 21 1006 64 10000 5 240 16:29 19.07.2019
4963 Clouds 20 1006 72 10000 3 320 15:55 19.07.2019
4964 Clouds 20 1006 68 10000 5 250 15:36 19.07.2019
4965 Clouds 20 1005 64 10000 6 240 15:18 19.07.2019
4966 Clouds 20 1005 68 10000 7 260 14:43 19.07.2019
4967 Clouds 20 1005 68 10000 7 260 14:23 19.07.2019
4968 Clouds 19 1005 68 10000 6 250 13:46 19.07.2019
4969 Clouds 19 1005 68 10000 6 250 13:26 19.07.2019
4970 Rain 18 1004 77 10000 4 260 12:56 19.07.2019
4971 Rain 18 1004 77 10000 4 260 12:37 19.07.2019
4972 Clouds 17 1004 82 10000 3 250 12:19 19.07.2019
4973 Rain 17 1004 87 10000 3 230 11:44 19.07.2019
4974 Rain 17 1004 88 10000 4 240 11:18 19.07.2019
4975 Rain 17 1004 100 6000 1 0 10:48 19.07.2019
4976 Rain 16 1004 100 6000 1 0 10:23 19.07.2019
4977 Rain 17 1003 82 10000 4 240 09:58 19.07.2019
4978 Rain 16 1003 100 9000 2 190 09:40 19.07.2019
4979 Rain 15 1003 100 9000 2 160 09:21 19.07.2019
4980 Rain 15 1003 93 10000 3 150 08:48 19.07.2019
4981 Rain 14 1003 100 6000 3 130 07:59 19.07.2019
4982 Rain 14 1003 100 4300 3 140 07:29 19.07.2019
4983 Rain 13 1004 100 10000 4 100 05:57 19.07.2019
4984 Rain 13 1005 93 10000 1 0 02:55 19.07.2019
4985 Mist 12 1005 93 10000 2 110 01:20 19.07.2019
4986 Mist 13 1005 87 10000 2 130 00:45 19.07.2019
4987 Mist 13 1005 87 10000 3 160 23:58 18.07.2019
4988 Mist 13 1005 87 10000 2 170 23:40 18.07.2019
4989 Mist 14 1005 87 10000 2 170 23:21 18.07.2019
4990 Clear 14 1005 82 10000 3 140 22:41 18.07.2019
4991 Clear 14 1005 82 10000 3 160 22:20 18.07.2019
4992 Clouds 15 1005 72 10000 2 170 21:49 18.07.2019
4993 Clouds 15 1005 72 10000 2 170 21:31 18.07.2019
4994 Clouds 15 1005 67 10000 3 230 20:57 18.07.2019
4995 Rain 16 1005 77 10000 3 180 20:38 18.07.2019
4996 Rain 16 1004 59 10000 7 210 20:18 18.07.2019
4997 Rain 17 1004 55 10000 5 190 19:46 18.07.2019
4998 Rain 18 1004 52 10000 4 190 19:21 18.07.2019
4999 Rain 20 1004 49 10000 5 210 18:49 18.07.2019
5000 Rain 20 1004 49 10000 5 150 18:22 18.07.2019
5001 -273 0 0 0 0 0 17:56 18.07.2019
5002 Rain 20 1004 52 10000 5 160 17:36 18.07.2019
5003 Clouds 21 1004 52 10000 5 160 17:18 18.07.2019
5004 Clouds 21 1004 49 10000 4 170 16:43 18.07.2019
5005 Clouds 20 1004 52 10000 4 170 16:24 18.07.2019
5006 Clouds 20 1004 63 10000 4 100 15:55 18.07.2019
5007 Clouds 20 1004 63 10000 4 100 15:36 18.07.2019
5008 Rain 18 1004 55 10000 6 190 14:55 18.07.2019
5009 Rain 19 1004 55 10000 6 190 14:37 18.07.2019
5010 Rain 19 1004 49 10000 6 200 13:59 18.07.2019
5011 Thunderstorm 20 1003 46 10000 6 170 13:37 18.07.2019
5012 Rain 22 1004 46 10000 4 170 13:18 18.07.2019
5013 Clouds 21 1004 56 10000 4 190 12:44 18.07.2019
5014 Clouds 22 1004 60 10000 4 210 12:20 18.07.2019
5015 Clouds 22 1004 64 10000 4 190 11:50 18.07.2019
5016 Clouds 22 1004 64 10000 4 190 11:32 18.07.2019
5017 Clouds 21 1004 68 10000 3 190 10:52 18.07.2019
5018 Clouds 21 1004 68 10000 3 190 10:23 18.07.2019
5019 Clouds 20 1004 82 10000 5 240 09:45 18.07.2019
5020 Clouds 19 1004 82 10000 4 220 09:23 18.07.2019
5021 Clouds 18 1004 82 10000 4 210 08:46 18.07.2019
5022 Clouds 18 1003 82 10000 3 190 08:19 18.07.2019
5023 Clouds 18 1003 88 10000 2 160 07:39 18.07.2019
5024 Clouds 17 1003 88 10000 4 200 07:20 18.07.2019
5025 Clouds 16 1003 93 7000 3 200 06:36 18.07.2019
5026 Drizzle 16 1003 100 4800 3 210 05:33 18.07.2019
5027 Mist 15 1003 93 3000 1 150 02:55 18.07.2019
5028 Mist 16 1004 100 4200 3 70 01:50 18.07.2019
5029 Mist 16 1004 100 8000 3 80 00:35 18.07.2019
5030 Mist 16 1005 100 10000 3 100 23:49 17.07.2019
5031 Mist 16 1005 100 10000 4 90 23:20 17.07.2019
5032 Mist 16 1005 93 9000 3 80 22:56 17.07.2019
5033 Mist 16 1005 93 9000 3 80 22:38 17.07.2019
5034 Mist 16 1005 100 9000 4 70 22:18 17.07.2019
5035 Mist 16 1005 93 10000 4 100 21:43 17.07.2019
5036 Mist 16 1005 93 10000 4 100 21:25 17.07.2019
5037 Rain 16 1006 100 6000 5 90 20:58 17.07.2019
5038 Rain 16 1006 100 6000 5 90 20:39 17.07.2019
5039 Rain 16 1006 93 6000 5 100 20:20 17.07.2019
5040 Mist 16 1006 93 10000 4 80 19:44 17.07.2019
5041 Rain 16 1006 100 10000 3 60 19:23 17.07.2019
5042 Rain 17 1006 93 10000 4 70 18:59 17.07.2019
5043 Rain 17 1006 93 10000 4 70 18:40 17.07.2019
5044 Rain 16 1006 93 10000 2 180 18:20 17.07.2019
5045 Rain 16 1006 93 10000 2 180 17:50 17.07.2019
5046 Rain 16 1006 93 10000 2 180 17:27 17.07.2019
5047 Thunderstorm 17 1006 93 5000 3 180 16:55 17.07.2019
5048 Thunderstorm 17 1006 82 10000 5 50 16:37 17.07.2019
5049 Thunderstorm 17 1006 77 10000 4 360 16:18 17.07.2019
5050 Rain 18 1006 77 10000 3 350 15:47 17.07.2019
5051 Rain 18 1006 77 10000 3 350 15:25 17.07.2019
5052 Rain 18 1007 72 10000 3 350 14:54 17.07.2019
5053 Rain 19 1007 72 10000 2 340 14:36 17.07.2019
5054 Rain 19 1007 72 10000 2 10 14:18 17.07.2019
5055 Rain 19 1007 77 10000 2 110 13:41 17.07.2019
5056 Rain 19 1008 77 10000 2 90 13:20 17.07.2019
5057 Rain 19 1008 82 10000 2 90 12:40 17.07.2019
5058 Rain 19 1008 82 10000 2 90 12:21 17.07.2019
5059 Rain 20 1008 82 10000 2 90 11:45 17.07.2019
5060 Clear 19 1008 82 10000 2 140 11:21 17.07.2019
5061 Clouds 19 1008 82 10000 1 0 10:51 17.07.2019
5062 Clouds 19 1008 82 10000 1 0 10:31 17.07.2019
5063 Rain 18 1008 88 10000 3 210 09:59 17.07.2019
5064 Rain 18 1008 88 10000 3 210 09:40 17.07.2019
5065 Rain 17 1008 88 10000 3 220 09:22 17.07.2019
5066 Rain 17 1008 88 10000 3 220 08:43 17.07.2019
5067 Rain 17 1008 93 10000 2 160 08:22 17.07.2019
5068 Rain 16 1008 93 9000 3 130 07:50 17.07.2019
5069 Rain 16 1008 100 8000 3 140 07:24 17.07.2019
5070 Drizzle 15 1009 93 6000 3 120 06:56 17.07.2019
5071 Drizzle 15 1009 93 6000 3 120 06:30 17.07.2019
5072 Mist 15 1009 93 5000 3 100 05:49 17.07.2019
5073 Rain 15 1009 93 8000 3 120 05:28 17.07.2019
5074 Rain 15 1009 93 6000 3 120 04:42 17.07.2019
5075 Rain 14 1009 93 6000 3 100 03:29 17.07.2019
5076 Mist 14 1009 100 10000 2 110 02:19 17.07.2019
5077 Mist 15 1009 100 10000 2 120 01:26 17.07.2019
5078 Mist 14 1009 93 10000 2 110 00:59 17.07.2019
5079 Mist 15 1009 93 10000 2 120 00:37 17.07.2019
5080 Mist 15 1009 93 10000 3 150 00:19 17.07.2019
5081 Mist 15 1009 93 10000 3 110 23:38 16.07.2019
5082 Rain 15 1009 93 10000 3 110 23:18 16.07.2019
5083 Rain 15 1009 93 10000 3 110 22:43 16.07.2019
5084 Rain 15 1009 93 10000 3 110 22:24 16.07.2019
5085 Rain 15 1009 93 10000 5 90 21:47 16.07.2019
5086 Rain 15 1009 93 10000 4 130 21:25 16.07.2019
5087 Rain 15 1009 93 10000 4 130 20:58 16.07.2019
5088 Rain 15 1009 93 10000 3 130 20:40 16.07.2019
5089 Rain 15 1009 100 10000 4 110 20:21 16.07.2019
5090 Rain 15 1010 93 10000 4 110 19:53 16.07.2019
5091 Rain 15 1010 93 10000 4 110 19:29 16.07.2019
5092 Rain 15 1010 87 10000 3 150 18:58 16.07.2019
5093 Rain 16 1010 87 9000 5 150 18:39 16.07.2019
5094 Rain 16 1009 93 10000 4 40 18:20 16.07.2019
5095 Rain 16 1009 93 9000 4 10 17:44 16.07.2019
5096 Rain 16 1009 93 9000 4 10 17:24 16.07.2019
5097 Thunderstorm 20 1009 93 10000 3 10 16:49 16.07.2019
5098 Thunderstorm 19 1009 93 10000 3 10 16:25 16.07.2019
5099 Rain 20 1009 93 10000 3 20 15:56 16.07.2019
5100 Rain 21 1010 88 6000 3 40 15:38 16.07.2019
5101 Rain 21 1010 77 10000 1 0 15:19 16.07.2019
5102 Rain 21 1010 68 10000 2 210 14:46 16.07.2019
5103 Rain 21 1010 68 10000 2 210 14:28 16.07.2019
5104 Clouds 21 1010 64 10000 4 130 13:57 16.07.2019
5105 Clouds 21 1010 64 10000 4 130 13:37 16.07.2019
5106 Clouds 20 1010 64 10000 3 130 13:18 16.07.2019
5107 Rain 20 1010 68 10000 3 140 12:43 16.07.2019
5108 Clouds 20 1010 60 10000 5 100 12:20 16.07.2019
5109 Rain 20 1010 64 10000 4 80 11:54 16.07.2019
5110 Rain 20 1010 64 10000 4 80 11:36 16.07.2019
5111 Rain 20 1011 68 10000 4 100 11:18 16.07.2019
5112 Clouds 19 1011 68 10000 4 90 10:43 16.07.2019
5113 Clear 20 1011 68 10000 5 110 10:20 16.07.2019
5114 Clear 18 1011 68 10000 4 90 09:44 16.07.2019
5115 Clear 18 1011 63 10000 4 70 09:21 16.07.2019
5116 Clear 17 1011 72 10000 3 100 08:49 16.07.2019
5117 Clear 17 1011 72 10000 3 100 08:28 16.07.2019
5118 Rain 16 1011 82 10000 2 70 07:57 16.07.2019
5119 Rain 16 1011 82 10000 2 70 07:36 16.07.2019
5120 Clear 16 1011 77 10000 2 60 06:59 16.07.2019
5121 Rain 15 1011 82 10000 1 0 06:38 16.07.2019
5122 Rain 14 1011 93 10000 1 0 05:52 16.07.2019
5123 Clear 14 1011 93 10000 2 70 05:30 16.07.2019
5124 Clear 14 1011 82 10000 3 90 04:45 16.07.2019
5125 Mist 13 1011 87 10000 1 0 03:44 16.07.2019
5126 Mist 13 1011 87 10000 1 40 02:46 16.07.2019
5127 Mist 13 1011 87 10000 1 40 02:28 16.07.2019
5128 Mist 13 1011 82 10000 1 40 01:36 16.07.2019
5129 Mist 13 1011 93 10000 2 40 00:39 16.07.2019
5130 Mist 13 1011 93 10000 1 30 00:19 16.07.2019
5131 Mist 14 1011 87 10000 1 0 23:42 15.07.2019
5132 Mist 14 1011 67 10000 1 0 23:23 15.07.2019
5133 Mist 15 1011 72 10000 1 0 22:47 15.07.2019
5134 Mist 15 1011 77 10000 1 60 22:22 15.07.2019
5135 Mist 15 1011 77 10000 1 60 21:57 15.07.2019
5136 Mist 16 1011 72 10000 2 60 21:39 15.07.2019
5137 Mist 16 1011 67 10000 2 40 21:19 15.07.2019
5138 Clear 17 1011 67 10000 2 20 20:54 15.07.2019
5139 Clear 17 1011 67 10000 2 20 20:36 15.07.2019
5140 Clear 18 1011 72 10000 2 350 20:18 15.07.2019
5141 Clouds 18 1011 68 10000 3 360 19:39 15.07.2019
5142 Clouds 18 1011 63 10000 4 350 19:19 15.07.2019
5143 Clear 18 1011 59 10000 3 0 18:49 15.07.2019
5144 Clouds 18 1011 52 10000 2 310 18:23 15.07.2019
5145 Clouds 18 1011 52 10000 2 310 17:58 15.07.2019
5146 Clear 18 1011 55 10000 3 280 17:40 15.07.2019
5147 Clear 18 1010 52 10000 3 200 17:22 15.07.2019
5148 Clear 18 1010 52 10000 3 200 17:22 15.07.2019
5149 Clear 18 1010 52 10000 3 200 16:58 15.07.2019
5150 Clear 18 1011 55 10000 3 200 16:37 15.07.2019
5151 Clouds 17 1010 52 10000 3 220 16:19 15.07.2019
5152 Rain 18 1011 52 10000 4 210 15:43 15.07.2019
5153 Rain 18 1011 52 10000 4 210 15:25 15.07.2019
5154 Rain 18 1010 55 10000 4 180 14:59 15.07.2019
5155 Rain 19 1010 55 10000 4 180 14:40 15.07.2019
5156 Rain 19 1010 48 10000 3 190 14:21 15.07.2019
5157 Clouds 18 1010 52 10000 3 160 13:48 15.07.2019
5158 Clouds 19 1011 55 10000 2 190 13:21 15.07.2019
5159 -273 0 0 0 0 0 12:56 15.07.2019
5160 Clouds 19 1011 55 10000 2 140 12:37 15.07.2019
5161 Clouds 19 1011 55 10000 2 200 12:18 15.07.2019
5162 Clouds 18 1011 55 10000 2 190 11:41 15.07.2019
5163 Clear 18 1011 59 10000 2 180 11:20 15.07.2019
5164 Clear 19 1011 59 10000 1 0 10:43 15.07.2019
5165 Clear 18 1011 59 10000 1 0 10:24 15.07.2019
5166 Clear 18 1011 63 10000 1 0 09:44 15.07.2019
5167 Clear 18 1011 63 10000 1 0 09:25 15.07.2019
5168 Clear 16 1011 77 10000 2 280 08:49 15.07.2019
5169 Clear 16 1011 77 10000 2 280 08:27 15.07.2019
5170 Clear 16 1011 72 10000 2 270 07:57 15.07.2019
5171 Clear 16 1011 77 10000 2 250 07:36 15.07.2019
5172 Clear 14 1011 82 10000 2 250 06:50 15.07.2019
5173 Clear 14 1011 82 10000 2 250 06:30 15.07.2019
5174 Clear 12 1011 87 10000 1 0 05:44 15.07.2019
5175 Mist 11 1011 93 10000 1 50 05:19 15.07.2019
5176 Mist 11 1011 87 10000 1 0 04:41 15.07.2019
5177 Fog 11 1011 93 10000 1 20 03:30 15.07.2019
5178 Fog 11 1011 93 10000 2 320 02:30 15.07.2019
5179 Mist 12 1011 82 10000 1 0 01:39 15.07.2019
5180 Mist 12 1011 76 10000 2 100 01:20 15.07.2019
5181 Mist 12 1011 82 10000 2 70 00:46 15.07.2019
5182 Mist 13 1011 71 10000 1 0 00:19 15.07.2019
5183 Mist 13 1011 76 10000 1 70 23:41 14.07.2019
5184 Mist 13 1011 76 10000 2 10 23:21 14.07.2019
5185 Mist 13 1011 76 10000 2 10 22:58 14.07.2019
5186 Clear 14 1011 76 10000 2 350 22:39 14.07.2019
5187 Clear 15 1011 72 10000 2 250 22:21 14.07.2019
5188 Clear 15 1011 72 10000 3 260 21:54 14.07.2019
5189 Clear 15 1011 72 10000 3 260 21:36 14.07.2019
5190 Clear 15 1011 67 10000 2 200 21:18 14.07.2019
5191 Clear 16 1011 63 10000 3 260 20:39 14.07.2019
5192 Clear 16 1011 63 10000 3 210 20:20 14.07.2019
5193 Clear 16 1011 63 10000 3 210 19:57 14.07.2019
5194 Clear 17 1011 63 10000 4 210 19:38 14.07.2019
5195 Clouds 17 1010 59 10000 5 200 19:19 14.07.2019
5196 Clouds 17 1010 52 10000 3 220 18:41 14.07.2019
5197 Clouds 18 1011 45 10000 4 210 18:22 14.07.2019
5198 Clouds 18 1010 48 10000 3 220 17:58 14.07.2019
5199 Clouds 17 1010 48 10000 3 220 17:36 14.07.2019
5200 Clouds 18 1010 45 10000 3 210 17:18 14.07.2019
5201 Clouds 19 1010 48 10000 2 180 16:42 14.07.2019
5202 Clouds 19 1010 52 10000 2 210 16:21 14.07.2019
5203 Clouds 19 1011 52 10000 2 170 15:43 14.07.2019
5204 Clouds 19 1011 52 10000 3 170 15:23 14.07.2019
5205 Clouds 19 1011 52 10000 3 160 14:47 14.07.2019
5206 Clouds 18 1011 52 10000 3 130 14:20 14.07.2019
5207 Clouds 18 1011 55 10000 4 110 13:47 14.07.2019
5208 Rain 17 1011 59 10000 4 120 13:25 14.07.2019
5209 Rain 17 1011 59 10000 4 120 12:57 14.07.2019
5210 Clouds 16 1011 72 10000 5 140 12:39 14.07.2019
5211 Clouds 18 1011 55 10000 3 110 12:19 14.07.2019
5212 Clouds 18 1011 59 10000 2 30 11:49 14.07.2019
5213 Clouds 18 1011 59 10000 2 30 11:49 14.07.2019
5214 Clouds 18 1011 48 10000 2 10 11:20 14.07.2019
5215 Clouds 18 1011 48 10000 2 0 10:45 14.07.2019
5216 Clouds 18 1011 45 10000 2 90 10:21 14.07.2019
5217 Clouds 18 1011 45 10000 2 90 10:21 14.07.2019
5218 Clear 18 1011 55 10000 2 60 09:48 14.07.2019
5219 Clear 18 1011 55 10000 2 60 09:30 14.07.2019
5220 Clear 17 1011 67 10000 2 60 08:48 14.07.2019
5221 Clear 17 1011 67 10000 2 60 08:30 14.07.2019
5222 Mist 15 1011 76 10000 1.49 258.539 07:43 14.07.2019
5223 Clear 14 1011 93 10000 1.49 258.539 07:21 14.07.2019
5224 Clear 12 1011 93 10000 2 320 05:46 14.07.2019
5225 Clear 11 1010 87 10000 2 220 03:59 14.07.2019
5226 Clear 11 1010 87 10000 1 0 03:41 14.07.2019
5227 Clear 11 1010 87 10000 1.11 302.257 03:23 14.07.2019
5228 Clear 11 1011 76 10000 2 210 02:24 14.07.2019
5229 Clear 11 1011 76 10000 2 210 02:24 14.07.2019
5230 Clear 11 1011 76 10000 2 250 01:54 14.07.2019
5231 Clear 11 1011 76 10000 2 250 01:30 14.07.2019
5232 Fog 12 1010 76 10000 3 220 00:41 14.07.2019
5233 Clear 12 1010 76 10000 2 200 00:21 14.07.2019
5234 Clear 12 1010 76 10000 2 200 23:59 13.07.2019
5235 Clear 13 1010 72 10000 2 200 23:41 13.07.2019
5236 Clear 12 1010 76 10000 1 200 23:22 13.07.2019
5237 Clear 13 1010 76 10000 2 150 22:42 13.07.2019
5238 Rain 14 1010 67 10000 4 170 22:22 13.07.2019
5239 Rain 14 1010 63 9000 1 0 21:49 13.07.2019
5240 Clear 14 1010 55 10000 1 0 21:22 13.07.2019
5241 Clear 15 1010 59 10000 2 90 20:52 13.07.2019
5242 Clear 15 1010 59 10000 2 90 20:33 13.07.2019
5243 Clear 16 1010 59 10000 3 350 19:53 13.07.2019
5244 Clear 16 1010 59 10000 3 350 19:31 13.07.2019
5245 Clear 17 1009 45 10000 2 310 18:56 13.07.2019
5246 Clear 17 1009 45 10000 2 310 18:38 13.07.2019
5247 Rain 17 1009 45 10000 2 270 18:18 13.07.2019
5248 Rain 17 1009 48 10000 2 320 17:37 13.07.2019
5249 Clear 17 1009 52 10000 2 0 17:19 13.07.2019
5250 Clear 17 1009 52 10000 2 0 17:19 13.07.2019
5251 Clear 18 1009 52 10000 2 330 16:44 13.07.2019
5252 Clear 18 1009 52 10000 2 330 16:25 13.07.2019
5253 Clouds 18 1009 55 10000 5 300 15:48 13.07.2019
5254 Clouds 18 1009 55 10000 5 300 15:24 13.07.2019
5255 Clouds 18 1009 48 10000 2 250 14:57 13.07.2019
5256 Clouds 18 1009 48 10000 2 250 14:38 13.07.2019
5257 Clouds 17 1009 51 10000 2 270 14:19 13.07.2019
5258 Clouds 17 1009 55 10000 3 330 13:43 13.07.2019
5259 Clouds 17 1009 55 10000 3 290 13:19 13.07.2019
5260 Clouds 17 1009 55 10000 2 310 12:41 13.07.2019
5261 Clouds 17 1009 59 10000 3 310 12:23 13.07.2019
5262 Clouds 17 1009 55 10000 2 0 11:57 13.07.2019
5263 Clouds 17 1009 55 10000 2 0 11:36 13.07.2019
5264 Clouds 16 1009 59 10000 2 280 11:18 13.07.2019
5265 Clouds 16 1009 59 10000 1 0 10:39 13.07.2019
5266 Clouds 16 1009 67 10000 2 320 10:21 13.07.2019
5267 Clouds 15 1009 71 10000 2 80 09:42 13.07.2019
5268 Clouds 15 1009 72 10000 1 0 09:24 13.07.2019
5269 Clouds 14 1009 72 10000 1.76 12.001 08:48 13.07.2019
5270 Clouds 14 1009 72 10000 1.76 12.001 08:27 13.07.2019
5271 Clouds 13 1008 87 10000 2 290 07:50 13.07.2019
5272 Clouds 13 1008 87 10000 2 290 07:23 13.07.2019
5273 Rain 12 1008 93 10000 1 80 06:29 13.07.2019
5274 Rain 12 1008 93 10000 2 90 05:46 13.07.2019
5275 Mist 12 1008 93 10000 2 30 04:40 13.07.2019
5276 Rain 12 1008 93 10000 2 20 04:20 13.07.2019
5277 Rain 12 1008 93 10000 3 360 03:41 13.07.2019
5278 Rain 12 1008 93 10000 3 360 02:54 13.07.2019
5279 Rain 12 1008 93 10000 2 340 01:53 13.07.2019
5280 Rain 12 1008 93 10000 2 350 01:21 13.07.2019
5281 Rain 12 1008 93 10000 2 360 00:58 13.07.2019
5282 Rain 12 1008 100 10000 3 360 00:21 13.07.2019
5283 Rain 12 1008 87 10000 2 360 23:53 12.07.2019
5284 Rain 12 1008 87 10000 2 360 23:33 12.07.2019
5285 Rain 13 1008 76 10000 2 350 22:58 12.07.2019
5286 Rain 13 1008 82 10000 2 10 22:40 12.07.2019
5287 Rain 12 1008 82 10000 2 10 22:21 12.07.2019
5288 Rain 12 1008 93 10000 2 350 21:42 12.07.2019
5289 Rain 13 1008 82 10000 2 40 21:20 12.07.2019
5290 Rain 13 1008 87 10000 2 40 20:47 12.07.2019
5291 Rain 13 1008 87 10000 2 40 20:23 12.07.2019
5292 Rain 13 1008 87 10000 2 70 19:44 12.07.2019
5293 Rain 14 1008 87 10000 3 50 19:26 12.07.2019
5294 Rain 14 1008 87 10000 3 50 18:58 12.07.2019
5295 Rain 14 1008 82 10000 2 60 18:37 12.07.2019
5296 Rain 14 1008 93 10000 3 70 18:19 12.07.2019
5297 Rain 14 1007 87 10000 2 80 17:45 12.07.2019
5298 Rain 14 1007 87 10000 2 80 17:27 12.07.2019
5299 Rain 14 1008 93 10000 3 70 16:40 12.07.2019
5300 Clouds 14 1008 93 10000 4 50 16:20 12.07.2019
5301 Rain 14 1008 87 10000 3 70 15:41 12.07.2019
5302 Rain 14 1008 87 10000 4 80 15:21 12.07.2019
5303 Rain 13 1008 87 10000 2 70 14:55 12.07.2019
5304 Rain 13 1008 87 10000 2 70 14:37 12.07.2019
5305 Rain 14 1007 81 8000 2 360 14:19 12.07.2019
5306 Rain 14 1007 81 10000 4 40 13:38 12.07.2019
5307 Rain 14 1007 71 10000 5 350 12:58 12.07.2019
5308 Rain 14 1007 62 10000 5 10 12:38 12.07.2019
5309 Rain 14 1007 62 10000 3 100 12:20 12.07.2019
5310 Rain 14 1007 67 10000 4 110 11:44 12.07.2019
5311 Rain 14 1007 71 10000 4 90 11:20 12.07.2019
5312 Rain 14 1007 71 10000 4 90 10:44 12.07.2019
5313 Clouds 14 1006 76 10000 4 70 10:24 12.07.2019
5314 Clouds 14 1006 76 10000 4 70 09:54 12.07.2019
5315 Rain 13 1006 82 10000 3 70 09:30 12.07.2019
5316 Rain 13 1006 82 10000 3 70 09:30 12.07.2019
5317 Rain 13 1006 82 10000 3 70 09:30 12.07.2019
5318 Clouds 13 1006 82 10000 2 350 08:58 12.07.2019
5319 Clouds 12 1006 93 10000 3 60 08:39 12.07.2019
5320 Rain 12 1006 93 10000 3 60 08:18 12.07.2019
5321 Rain 12 1006 93 10000 2 80 07:44 12.07.2019
5322 Rain 12 1006 93 10000 2 80 07:26 12.07.2019
5323 Rain 11 1006 93 10000 3 80 06:29 12.07.2019
5324 Rain 11 1005 93 10000 2 40 05:47 12.07.2019
5325 Rain 12 1005 100 10000 3 50 03:23 12.07.2019
5326 Rain 12 1005 93 10000 3 50 01:43 12.07.2019
5327 Rain 12 1005 93 10000 3 30 00:58 12.07.2019
5328 Rain 12 1004 93 10000 3 40 00:27 12.07.2019
5329 Rain 12 1005 93 10000 3 30 23:50 11.07.2019
5330 Rain 12 1005 93 10000 3 30 23:26 11.07.2019
5331 Rain 13 1004 100 10000 4 30 22:58 11.07.2019
5332 Rain 13 1004 82 10000 3 30 22:39 11.07.2019
5333 Rain 13 1004 76 10000 3 50 22:21 11.07.2019
5334 Rain 13 1004 100 3400 2 30 21:41 11.07.2019
5335 Rain 13 1004 87 10000 3 10 21:19 11.07.2019
5336 Rain 13 1004 87 10000 3 10 20:55 11.07.2019
5337 Rain 13 1004 82 10000 3 10 20:37 11.07.2019
5338 Rain 13 1004 82 10000 4 10 20:18 11.07.2019
5339 Rain 14 1004 76 10000 4 30 19:44 11.07.2019
5340 Rain 15 1004 76 10000 3 10 19:24 11.07.2019
5341 Rain 15 1003 76 10000 3 20 18:53 11.07.2019
5342 Clouds 15 1003 76 10000 4 10 18:33 11.07.2019
5343 Clouds 15 1003 76 10000 4 10 17:58 11.07.2019
5344 Clouds 16 1003 77 10000 3 110 17:40 11.07.2019
5345 Clouds 16 1003 77 10000 3 110 17:22 11.07.2019
5346 Clouds 16 1003 67 10000 3 10 16:45 11.07.2019
5347 Rain 16 1002 67 10000 4 350 16:22 11.07.2019
5348 Rain 16 1002 63 10000 4 350 15:44 11.07.2019
5349 Rain 16 1002 63 10000 4 350 15:25 11.07.2019
5350 Rain 16 1002 67 10000 4 360 14:59 11.07.2019
5351 Rain 16 1002 67 10000 4 360 14:40 11.07.2019
5352 Clear 17 1002 63 10000 4 350 14:20 11.07.2019
5353 Rain 17 1002 72 10000 4 350 13:45 11.07.2019
5354 Clouds 17 1002 72 10000 4 350 13:26 11.07.2019
5355 Rain 17 1001 72 10000 2 360 12:42 11.07.2019
5356 Clouds 16 1002 67 10000 4 320 12:23 11.07.2019
5357 Rain 16 1001 87 10000 5 340 11:52 11.07.2019
5358 Rain 16 1001 87 10000 5 340 11:30 11.07.2019
5359 Rain 16 1001 72 10000 4 330 10:55 11.07.2019
5360 Rain 15 1001 87 10000 4 320 10:21 11.07.2019
5361 Rain 15 1001 87 10000 4 320 09:59 11.07.2019
5362 Rain 15 1001 93 10000 4 320 09:41 11.07.2019
5363 Rain 15 1001 93 10000 3 340 09:22 11.07.2019
5364 Rain 14 1000 93 10000 4 340 08:50 11.07.2019
5365 Rain 15 1000 93 10000 4 350 08:24 11.07.2019
5366 Rain 14 1000 100 10000 3 340 07:48 11.07.2019
5367 Rain 14 1000 100 10000 3 340 07:29 11.07.2019
5368 Rain 14 999 100 10000 4 360 06:30 11.07.2019
5369 Rain 13 999 100 10000 3 350 05:48 11.07.2019
5370 Rain 13 999 100 10000 3 350 05:28 11.07.2019
5371 Rain 13 999 100 10000 4 330 04:53 11.07.2019
5372 Rain 13 998 100 9000 3 290 02:38 11.07.2019
5373 Rain 13 999 100 10000 3 230 00:50 11.07.2019
5374 Rain 13 999 100 10000 3 250 00:26 11.07.2019
5375 Rain 13 999 100 10000 3 250 23:37 10.07.2019
5376 Rain 13 999 100 10000 3 250 23:18 10.07.2019
5377 Rain 14 999 100 10000 4 250 22:42 10.07.2019
5378 Rain 14 999 93 10000 4 250 22:19 10.07.2019
5379 Rain 14 999 93 10000 4 250 21:44 10.07.2019
5380 Rain 14 999 93 10000 4 240 21:26 10.07.2019
5381 Rain 14 999 93 10000 4 240 20:56 10.07.2019
5382 Rain 14 999 100 10000 3 250 20:37 10.07.2019
5383 Rain 14 999 100 10000 3 250 20:37 10.07.2019
5384 Clouds 15 999 82 10000 2 260 20:18 10.07.2019
5385 Clouds 15 999 87 10000 2 280 19:42 10.07.2019
5386 Rain 15 999 93 10000 4 270 19:22 10.07.2019
5387 Rain 15 999 93 10000 4 280 18:55 10.07.2019
5388 Rain 15 999 93 10000 4 280 18:37 10.07.2019
5389 Rain 15 999 87 10000 5 290 18:19 10.07.2019
5390 Rain 16 999 87 10000 4 250 17:40 10.07.2019
5391 Clouds 16 998 93 10000 3 250 17:19 10.07.2019
5392 Rain 17 998 93 10000 2 310 16:22 10.07.2019
5393 Rain 17 998 93 9000 4 310 15:59 10.07.2019
5394 Rain 17 998 93 9000 4 310 15:41 10.07.2019
5395 Rain 18 998 87 10000 7 290 15:19 10.07.2019
5396 Clouds 18 998 63 10000 7 260 14:41 10.07.2019
5397 Clouds 18 998 63 10000 7 260 14:22 10.07.2019
5398 Clouds 18 997 63 10000 5 240 13:46 10.07.2019
5399 Clouds 17 997 63 10000 7 240 13:19 10.07.2019
5400 Clouds 17 997 63 10000 7 240 13:19 10.07.2019
5401 Clouds 17 997 67 10000 7 250 12:58 10.07.2019
5402 Clouds 17 997 67 10000 7 250 12:37 10.07.2019
5403 Clouds 16 997 67 10000 7 240 12:18 10.07.2019
5404 Clouds 16 997 67 10000 8 220 11:45 10.07.2019
5405 Clouds 15 998 77 10000 7 230 11:21 10.07.2019
5406 Clouds 16 998 77 10000 7 240 10:45 10.07.2019
5407 Clouds 15 998 72 10000 7 230 10:20 10.07.2019
5408 Clouds 15 998 77 10000 6 240 09:44 10.07.2019
5409 Clouds 14 997 82 10000 6 230 09:21 10.07.2019
5410 Clouds 14 997 82 10000 6 220 08:52 10.07.2019
5411 Clouds 14 997 82 10000 6 220 08:29 10.07.2019
5412 Clouds 15 997 77 10000 5 230 07:55 10.07.2019
5413 Clear 14 998 82 10000 5 230 07:32 10.07.2019
5414 Clear 14 998 82 10000 5 230 07:32 10.07.2019
5415 Clear 14 997 82 10000 4 250 06:56 10.07.2019
5416 Clear 13 998 87 10000 4 250 05:59 10.07.2019
5417 Clear 12 998 100 10000 3 250 04:51 10.07.2019
5418 Clear 12 998 100 10000 3 250 04:26 10.07.2019
5419 Clear 13 999 82 10000 4 250 00:47 10.07.2019
5420 Clear 13 999 82 10000 4 250 00:29 10.07.2019
5421 Clear 14 999 82 10000 4 250 23:41 09.07.2019
5422 Clear 14 999 77 10000 4 250 23:21 09.07.2019
5423 Clear 14 999 77 10000 3 250 22:42 09.07.2019
5424 Clear 14 999 77 10000 3 250 22:24 09.07.2019
5425 Clear 15 999 77 10000 4 250 21:59 09.07.2019
5426 Clear 15 999 77 10000 4 260 21:40 09.07.2019
5427 Clouds 15 999 72 10000 4 250 21:22 09.07.2019
5428 Clouds 16 999 72 10000 4 260 20:43 09.07.2019
5429 Clouds 16 999 72 10000 4 260 20:25 09.07.2019
5430 Clouds 17 999 67 10000 6 250 19:43 09.07.2019
5431 Clouds 17 999 63 10000 6 240 19:24 09.07.2019
5432 Thunderstorm 17 999 59 10000 6 280 18:47 09.07.2019
5433 Thunderstorm 18 999 59 10000 6 280 18:27 09.07.2019
5434 Rain 18 999 60 10000 3 300 17:57 09.07.2019
5435 Rain 18 999 60 10000 3 300 17:39 09.07.2019
5436 Rain 19 999 55 10000 5 270 17:20 09.07.2019
5437 Clouds 20 999 49 10000 4 270 16:50 09.07.2019
5438 Clouds 21 999 46 10000 4 310 16:25 09.07.2019
5439 Clouds 21 999 46 10000 4 270 15:51 09.07.2019
5440 Clouds 22 999 46 10000 4 270 15:33 09.07.2019
5441 Clouds 21 999 49 10000 3 270 14:59 09.07.2019
5442 Clouds 22 999 49 10000 5 320 14:39 09.07.2019
5443 Clouds 21 1000 49 10000 3 270 14:20 09.07.2019
5444 Clouds 21 1000 52 10000 3 20 13:45 09.07.2019
5445 Clouds 21 1000 52 10000 3 20 13:27 09.07.2019
5446 Clouds 20 1000 45 10000 4 300 12:42 09.07.2019
5447 Clouds 20 1000 42 10000 3 300 12:23 09.07.2019
5448 Clouds 21 1000 42 10000 3 300 11:59 09.07.2019
5449 Clouds 20 1000 42 10000 3 240 11:41 09.07.2019
5450 Clouds 20 1000 48 10000 4 270 11:21 09.07.2019
5451 Clouds 20 1000 48 10000 4 270 10:58 09.07.2019
5452 Clear 20 1001 55 10000 4 300 10:34 09.07.2019
5453 Clouds 19 1001 55 10000 3 340 09:56 09.07.2019
5454 Clouds 19 1001 55 10000 3 340 09:37 09.07.2019
5455 Clear 19 1001 59 10000 2 0 09:18 09.07.2019
5456 Clear 19 1001 59 10000 2 360 08:41 09.07.2019
5457 Clear 11 1008 87 10000 5 250 04:18 05.07.2019
5458 Clear 11 1008 87 10000 5 250 03:39 05.07.2019
5459 Clear 11 1008 87 10000 5 250 03:19 05.07.2019
5460 Clear 11 1008 87 10000 5 250 02:49 05.07.2019
5461 Clear 11 1008 76 10000 4 230 01:55 05.07.2019
5462 Clear 11 1008 76 10000 4 230 01:28 05.07.2019
5463 Clear 11 1008 87 10000 4 260 00:51 05.07.2019
5464 Clear 11 1008 87 10000 4 260 00:29 05.07.2019
5465 Clear 12 1009 76 10000 5 250 23:38 04.07.2019
5466 Clouds 12 1009 76 10000 5 250 23:18 04.07.2019
5467 Clear 12 1009 76 10000 5 250 22:41 04.07.2019
5468 Clear 12 1009 76 10000 5 250 22:41 04.07.2019
5469 Clouds 13 1009 71 10000 5 270 22:20 04.07.2019
5470 Rain 13 1009 71 10000 6 280 21:44 04.07.2019
5471 Clouds 13 1009 66 10000 9 290 21:25 04.07.2019
5472 Clouds 13 1009 66 10000 9 290 20:59 04.07.2019
5473 Clear 14 1008 62 10000 7 280 20:37 04.07.2019
5474 Clouds 14 1008 66 10000 5 290 20:19 04.07.2019
5475 Clouds 15 1008 67 10000 5 290 19:41 04.07.2019
5476 Clouds 16 1008 62 10000 5 300 19:21 04.07.2019
5477 Clouds 16 1008 67 10000 6 290 18:55 04.07.2019
5478 Clouds 17 1008 67 10000 6 290 18:36 04.07.2019
5479 Clouds 17 1008 51 10000 8 260 18:18 04.07.2019
5480 Clear 17 1008 51 10000 10 250 17:41 04.07.2019
5481 Clear 17 1007 48 10000 10 260 17:18 04.07.2019
5482 Clear 17 1007 51 10000 10 260 15:45 04.07.2019
5483 Clear 17 1007 51 10000 10 260 15:25 04.07.2019
5484 Clear 18 1007 51 10000 7 280 14:59 04.07.2019
5485 Clouds 17 1007 54 10000 10 260 14:40 04.07.2019
5486 Clear 17 1007 48 10000 10 270 14:20 04.07.2019
5487 Clear 17 1007 48 10000 10 270 13:57 04.07.2019
5488 Clear 16 1007 51 10000 9 270 13:38 04.07.2019
5489 Clear 17 1007 51 10000 11 270 13:19 04.07.2019
5490 Clouds 17 1007 51 10000 12 280 12:39 04.07.2019
5491 Clouds 17 1006 54 10000 10 270 12:21 04.07.2019
5492 Clouds 16 1007 51 10000 10 280 11:55 04.07.2019
5493 Clouds 16 1007 51 10000 10 280 11:37 04.07.2019
5494 Clouds 16 1006 62 10000 9 260 11:18 04.07.2019
5495 Clouds 15 1006 62 10000 10 260 10:39 04.07.2019
5496 Clouds 15 1006 66 10000 11 250 10:18 04.07.2019
5497 Clouds 14 1006 66 10000 11 260 09:39 04.07.2019
5498 Clouds 15 1005 71 10000 10 260 09:20 04.07.2019
5499 Clouds 15 1006 67 10000 9 270 08:54 04.07.2019
5500 Clouds 14 1005 71 10000 11 250 08:19 04.07.2019
5501 Clouds 13 1005 76 10000 10 250 07:43 04.07.2019
5502 Clouds 13 1005 81 10000 9 260 07:21 04.07.2019
5503 Clouds 12 1005 81 10000 10 250 06:38 04.07.2019
5504 Clouds 11 1005 87 10000 9 260 05:50 04.07.2019
5505 Clouds 11 1005 87 10000 9 260 05:31 04.07.2019
5506 Clouds 11 1005 87 10000 7 240 02:41 04.07.2019
5507 Clouds 11 1005 81 10000 7 250 01:28 04.07.2019
5508 Clouds 12 1005 81 10000 7 250 00:57 04.07.2019
5509 Clouds 12 1005 87 10000 6 250 23:56 03.07.2019
5510 Clouds 12 1005 87 10000 8 260 23:21 03.07.2019
5511 Clouds 12 1005 87 10000 8 260 22:59 03.07.2019
5512 Clouds 12 1005 93 10000 8 250 22:39 03.07.2019
5513 Clouds 13 1004 82 10000 9 250 22:21 03.07.2019
5514 Clouds 13 1004 87 10000 8 240 21:56 03.07.2019
5515 Clouds 13 1004 87 10000 8 240 21:37 03.07.2019
5516 Clouds 13 1004 87 10000 8 240 21:37 03.07.2019
5517 Clouds 13 1004 87 10000 8 250 21:19 03.07.2019
5518 Clouds 13 1004 87 10000 9 250 20:41 03.07.2019
5519 Clouds 13 1005 87 10000 9 250 20:23 03.07.2019
5520 Rain 15 1004 87 10000 8 250 19:50 03.07.2019
5521 Rain 15 1004 87 10000 8 250 19:31 03.07.2019
5522 Rain 17 1004 87 10000 9 250 18:47 03.07.2019
5523 Clear 18 1005 59 10000 8 260 18:25 03.07.2019
5524 Clear 19 1004 59 10000 7 250 17:55 03.07.2019
5525 Rain 18 1004 77 10000 9 240 17:36 03.07.2019
5526 Clouds 18 1004 77 10000 6 250 17:18 03.07.2019
5527 Clouds 18 1004 82 9000 7 240 16:43 03.07.2019
5528 Clouds 19 1004 55 10000 7 260 16:20 03.07.2019
5529 Clouds 18 1003 59 10000 9 250 15:47 03.07.2019
5530 Rain 18 1003 59 10000 9 240 15:29 03.07.2019
5531 Clouds 19 1004 63 10000 10 250 14:53 03.07.2019
5532 -273 0 0 0 0 0 14:26 03.07.2019
5533 Rain 18 1004 67 10000 9 240 13:59 03.07.2019
5534 Clouds 19 1004 82 10000 10 240 13:34 03.07.2019
5535 Clear 19 1003 59 10000 10 250 12:54 03.07.2019
5536 Clouds 19 1003 55 10000 10 250 12:21 03.07.2019
5537 Clouds 19 1003 55 10000 10 250 11:58 03.07.2019
5538 Clear 19 1003 59 10000 8 260 11:40 03.07.2019
5539 Clouds 19 1003 55 10000 9 260 11:21 03.07.2019
5540 Clouds 19 1003 59 10000 10 260 10:42 03.07.2019
5541 Clouds 19 1003 59 10000 10 260 10:23 03.07.2019
5542 Clouds 18 1003 63 10000 9 250 09:43 03.07.2019
5543 Clouds 18 1003 67 10000 6 260 09:22 03.07.2019
5544 Clouds 18 1003 67 10000 6 260 08:57 03.07.2019
5545 Clouds 18 1003 77 10000 7 260 08:38 03.07.2019
5546 Clouds 18 1003 68 10000 6 270 08:18 03.07.2019
5547 Clouds 17 1003 77 10000 5 260 07:37 03.07.2019
5548 Clouds 16 1003 87 10000 3 260 06:55 03.07.2019
5549 Clear 15 1003 87 10000 6 250 05:57 03.07.2019
5550 Clear 15 1003 87 10000 6 250 05:27 03.07.2019
5551 Clear 14 1003 93 10000 4 230 03:58 03.07.2019
5552 Clear 14 1003 87 10000 2 240 02:58 03.07.2019
5553 Clear 14 1003 87 10000 4 240 01:40 03.07.2019
5554 Clear 14 1003 93 10000 3 220 01:21 03.07.2019
5555 Clear 14 1004 87 10000 4 250 00:40 03.07.2019
5556 Clear 15 1004 87 10000 5 250 23:57 02.07.2019
5557 Clear 15 1004 87 10000 4 250 23:37 02.07.2019
5558 Clear 15 1004 87 10000 4 250 23:19 02.07.2019
5559 Clear 16 1004 87 10000 3 210 22:54 02.07.2019
5560 Clear 16 1004 82 10000 4 240 22:36 02.07.2019
5561 Clear 16 1004 82 10000 4 240 22:18 02.07.2019
5562 Clear 16 1004 82 10000 5 250 21:41 02.07.2019
5563 Clear 16 1004 82 10000 5 260 21:20 02.07.2019
5564 Clouds 17 1004 77 10000 5 260 20:57 02.07.2019
5565 Clouds 17 1004 77 10000 5 260 20:39 02.07.2019
5566 Clouds 17 1004 77 10000 5 260 20:19 02.07.2019
5567 Rain 18 1004 77 10000 7 250 19:42 02.07.2019
5568 Clear 18 1004 77 10000 7 250 19:23 02.07.2019
5569 Clear 18 1004 77 10000 7 250 18:47 02.07.2019
5570 Rain 17 1004 72 10000 8 250 18:18 02.07.2019
5571 Rain 17 1004 68 10000 6 240 17:43 02.07.2019
5572 Rain 19 1004 68 10000 6 260 17:22 02.07.2019
5573 Rain 20 1004 63 10000 8 280 16:53 02.07.2019
5574 Clouds 21 1003 72 10000 7 290 16:34 02.07.2019
5575 Rain 20 1003 64 10000 5 280 15:47 02.07.2019
5576 Clouds 21 1003 77 10000 4 260 15:27 02.07.2019
5577 Rain 21 1003 82 9000 6 280 14:57 02.07.2019
5578 Rain 21 1003 82 9000 6 280 14:39 02.07.2019
5579 Clear 23 1002 46 10000 8 290 14:20 02.07.2019
5580 Clear 23 1002 46 10000 6 290 13:42 02.07.2019
5581 Clear 23 1002 46 10000 6 290 13:18 02.07.2019
5582 Clear 23 1002 43 10000 9 270 12:44 02.07.2019
5583 Clear 23 1002 49 10000 7 270 12:22 02.07.2019
5584 Clear 23 1002 49 10000 8 270 11:44 02.07.2019
5585 Clear 23 1002 49 10000 9 260 11:23 02.07.2019
5586 Clear 23 1002 49 10000 8 270 10:55 02.07.2019
5587 Clear 22 1002 52 10000 9 270 10:29 02.07.2019
5588 Clear 22 1002 52 10000 5 280 09:57 02.07.2019
5589 Clear 22 1002 56 10000 7 280 09:22 02.07.2019
5590 Clear 22 1002 59 10000 7 270 08:58 02.07.2019
5591 Clear 21 1002 59 10000 6 280 08:38 02.07.2019
5592 Clear 21 1002 59 10000 6 280 07:59 02.07.2019
5593 Clear 21 1002 63 10000 5 300 07:38 02.07.2019
5594 Clear 21 1002 63 10000 5 300 07:18 02.07.2019
5595 Clear 20 1001 72 10000 4 300 06:37 02.07.2019
5596 Clear 19 1001 82 10000 3 300 05:35 02.07.2019
5597 Clear 18 1001 93 10000 3 260 02:41 02.07.2019
5598 Clear 20 999 88 10000 4 260 00:31 02.07.2019
5599 Clear 21 999 83 10000 4 280 23:39 01.07.2019
5600 Clear 21 999 88 10000 3 240 23:19 01.07.2019
5601 Clear 22 999 78 10000 3 230 22:42 01.07.2019
5602 Clouds 22 999 73 10000 3 230 22:24 01.07.2019
5603 Clouds 21 999 78 10000 3 260 21:45 01.07.2019
5604 Clouds 22 999 78 10000 3 260 21:25 01.07.2019
5605 Clouds 24 999 61 10000 4 200 20:51 01.07.2019
5606 Clouds 25 999 57 10000 4 200 20:21 01.07.2019
5607 Clear 25 999 57 10000 4 200 19:57 01.07.2019
5608 Clear 25 999 57 10000 4 200 19:38 01.07.2019
5609 Clear 26 999 61 10000 4 190 19:20 01.07.2019
5610 Clear 26 1000 61 10000 5 200 18:50 01.07.2019
5611 Clear 26 1000 61 10000 5 200 18:28 01.07.2019
5612 Clear 26 1000 57 10000 5 200 17:48 01.07.2019
5613 Clear 26 1000 57 10000 5 200 17:27 01.07.2019
5614 Clear 26 1000 57 10000 6 190 16:58 01.07.2019
5615 Clear 25 1001 57 10000 7 190 16:40 01.07.2019
5616 Clear 25 1001 57 10000 7 200 16:22 01.07.2019
5617 Rain 24 1001 57 10000 7 190 15:44 01.07.2019
5618 Rain 24 1001 57 10000 7 190 15:26 01.07.2019
5619 Clear 24 1003 57 10000 7 180 14:45 01.07.2019
5620 Clear 24 1003 60 10000 7 160 14:24 01.07.2019
5621 Clear 24 1003 60 10000 7 160 13:55 01.07.2019
5622 Clear 23 1004 60 10000 6 170 13:37 01.07.2019
5623 Clear 23 1005 56 10000 4 170 13:18 01.07.2019
5624 Clouds 22 1004 60 10000 5 160 12:38 01.07.2019
5625 Rain 22 1004 64 10000 6 170 12:20 01.07.2019
5626 Rain 22 1004 64 10000 6 170 12:20 01.07.2019
5627 Clouds 22 1005 60 10000 5 170 11:48 01.07.2019
5628 Clear 22 1006 56 10000 5 210 11:28 01.07.2019
5629 Clear 22 1006 56 10000 5 210 10:59 01.07.2019
5630 Clear 22 1006 56 10000 5 190 10:41 01.07.2019
5631 Clear 22 1006 56 10000 5 190 10:20 01.07.2019
5632 Clear 21 1007 64 10000 6 200 09:41 01.07.2019
5633 Clear 21 1007 64 10000 4 190 09:23 01.07.2019
5634 Clear 20 1007 68 10000 4 210 08:39 01.07.2019
5635 Clear 19 1008 68 10000 3 220 08:21 01.07.2019
5636 Clear 17 1008 77 10000 2 220 07:34 01.07.2019
5637 Clear 16 1008 87 10000 2 200 06:48 01.07.2019
5638 Clear 12 1008 93 10000 2 230 04:39 01.07.2019
5639 Clear 13 1008 93 10000 1 0 01:20 01.07.2019
5640 Clear 13 1008 93 10000 2 70 00:41 01.07.2019
5641 Clear 14 1008 93 10000 3 250 00:20 01.07.2019
5642 Clear 14 1008 87 10000 3 250 23:25 30.06.2019
5643 Clear 14 1008 87 10000 2 270 22:56 30.06.2019
5644 Rain 15 1008 77 10000 4 280 22:37 30.06.2019
5645 Rain 14 1008 87 10000 3 270 22:18 30.06.2019
5646 Rain 15 1008 82 10000 3 300 21:41 30.06.2019
5647 Clouds 15 1008 82 10000 4 300 21:18 30.06.2019
5648 Rain 15 1008 87 10000 5 290 20:42 30.06.2019
5649 Clouds 16 1007 77 10000 4 300 20:23 30.06.2019
5650 Clouds 16 1007 77 10000 4 300 19:55 30.06.2019
5651 Clear 17 1007 77 10000 4 310 19:37 30.06.2019
5652 Clear 17 1007 72 10000 5 300 19:18 30.06.2019
5653 Clouds 17 1007 87 10000 5 280 18:25 30.06.2019
5654 Clouds 17 1007 87 10000 5 280 17:56 30.06.2019
5655 Rain 17 1006 82 10000 5 290 17:37 30.06.2019
5656 Clear 18 1006 82 10000 5 290 17:18 30.06.2019
5657 Rain 18 1006 82 10000 6 280 16:44 30.06.2019
5658 Rain 18 1006 82 10000 6 280 16:25 30.06.2019
5659 Rain 17 1006 88 10000 4 280 15:37 30.06.2019
5660 Rain 17 1005 93 9000 4 210 15:18 30.06.2019
5661 Rain 17 1006 93 8000 4 290 14:50 30.06.2019
5662 Rain 17 1006 93 8000 4 290 14:29 30.06.2019
5663 Clear 19 1006 63 10000 7 260 13:47 30.06.2019
5664 Clear 19 1006 63 10000 7 260 13:28 30.06.2019
5665 Clear 19 1005 55 10000 6 240 12:52 30.06.2019
5666 Clear 19 1005 55 10000 5 260 12:28 30.06.2019
5667 Clear 19 1005 55 10000 5 260 11:57 30.06.2019
5668 Clear 18 1005 52 10000 6 230 11:38 30.06.2019
5669 Clear 18 1005 52 10000 7 260 11:19 30.06.2019
5670 Clear 18 1005 51 10000 7 250 10:44 30.06.2019
5671 Clear 18 1006 55 10000 6 260 10:20 30.06.2019
5672 Clear 18 1006 55 10000 6 260 09:57 30.06.2019
5673 Clear 18 1005 55 10000 7 260 09:37 30.06.2019
5674 Clear 18 1005 55 10000 6 250 09:19 30.06.2019
5675 Clear 17 1006 55 10000 4 260 08:40 30.06.2019
5676 Clear 15 1006 58 10000 4 260 08:20 30.06.2019
5677 Clear 14 1006 67 10000 3 260 07:42 30.06.2019
5678 Clear 14 1006 67 10000 3 260 07:22 30.06.2019
5679 Clear 12 1006 71 10000 4 270 06:33 30.06.2019
5680 Clear 10 1005 87 10000 4 280 03:32 30.06.2019
5681 Clear 10 1005 87 10000 4 280 03:32 30.06.2019
5682 Clear 11 1005 81 10000 5 280 01:53 30.06.2019
5683 Clear 12 1005 81 10000 4 270 00:46 30.06.2019
5684 Clear 12 1005 81 10000 4 270 00:24 30.06.2019
5685 Rain 12 1005 87 10000 5 250 23:48 29.06.2019
5686 Clear 11 1005 93 10000 3 250 23:23 29.06.2019
5687 Rain 11 1005 93 10000 3 250 22:48 29.06.2019
5688 Rain 11 1005 93 10000 3 250 22:24 29.06.2019
5689 Rain 12 1005 87 10000 3 260 21:55 29.06.2019
5690 Rain 12 1004 81 10000 3 280 21:25 29.06.2019
5691 Clear 12 1004 81 10000 3 280 20:56 29.06.2019
5692 Clear 12 1004 81 10000 4 250 20:36 29.06.2019
5693 Clear 12 1004 81 10000 4 260 20:18 29.06.2019
5694 Clear 12 1004 81 10000 3 270 19:41 29.06.2019
5695 Rain 11 1003 81 10000 4 280 19:21 29.06.2019
5696 Rain 11 1003 81 10000 5 270 18:47 29.06.2019
5697 Rain 11 1003 76 10000 5 280 18:24 29.06.2019
5698 Rain 11 1002 76 10000 5 280 17:39 29.06.2019
5699 Rain 11 1002 76 10000 5 290 17:20 29.06.2019
5700 Rain 11 1002 81 10000 6 300 16:44 29.06.2019
5701 Rain 11 1002 81 10000 6 300 16:25 29.06.2019
5702 Rain 11 1002 87 10000 6 300 15:34 29.06.2019
5703 Rain 11 1001 81 10000 7 310 14:59 29.06.2019
5704 Rain 11 1001 87 10000 8 300 14:41 29.06.2019
5705 Rain 11 1000 87 10000 9 300 14:22 29.06.2019
5706 Rain 10 1000 93 10000 9 300 13:44 29.06.2019
5707 Rain 10 999 93 10000 9 300 13:25 29.06.2019
5708 Rain 10 999 93 10000 7 290 12:43 29.06.2019
5709 Rain 10 999 93 10000 7 290 12:24 29.06.2019
5710 Rain 10 998 100 7000 7 300 11:48 29.06.2019
5711 Rain 10 998 100 7000 7 300 11:29 29.06.2019
5712 Rain 10 997 93 8000 7 300 10:52 29.06.2019
5713 Rain 10 997 93 8000 7 300 10:29 29.06.2019
5714 Rain 10 998 87 10000 7 300 09:58 29.06.2019
5715 Rain 10 997 93 10000 9 300 09:29 29.06.2019
5716 Rain 9 996 93 10000 9 300 08:37 29.06.2019
5717 Rain 9 996 93 10000 9 300 07:46 29.06.2019
5718 Rain 10 995 93 10000 9 300 07:19 29.06.2019
5719 Rain 10 995 93 10000 10 310 06:42 29.06.2019
5720 Rain 10 995 93 10000 10 300 06:20 29.06.2019
5721 Rain 11 995 93 10000 9 300 02:30 29.06.2019
5722 Rain 11 994 93 10000 8 310 00:57 29.06.2019
5723 Rain 11 994 93 10000 8 310 00:23 29.06.2019
5724 Rain 11 995 93 10000 8 310 23:26 28.06.2019
5725 Rain 11 995 93 10000 8 310 22:53 28.06.2019
5726 Rain 11 995 93 10000 8 310 22:33 28.06.2019
5727 Rain 11 995 93 10000 8 310 21:47 28.06.2019
5728 Rain 11 995 93 10000 8 300 21:21 28.06.2019
5729 Rain 11 995 93 10000 7 310 20:46 28.06.2019
5730 Rain 11 995 93 10000 7 310 20:26 28.06.2019
5731 Rain 11 994 93 10000 7 320 19:53 28.06.2019
5732 Rain 12 994 93 10000 8 320 19:28 28.06.2019
5733 Rain 12 994 93 10000 8 320 18:57 28.06.2019
5734 Rain 12 994 100 10000 7 320 18:38 28.06.2019
5735 Rain 12 993 100 10000 6 320 18:20 28.06.2019
5736 Rain 12 993 100 10000 8 330 17:30 28.06.2019
5737 Rain 12 993 93 10000 8 330 16:51 28.06.2019
5738 Rain 12 992 93 10000 8 330 16:27 28.06.2019
5739 Rain 12 992 93 10000 7 330 15:48 28.06.2019
5740 Rain 12 992 93 10000 7 340 15:24 28.06.2019
5741 Rain 12 992 93 10000 7 340 14:56 28.06.2019
5742 Rain 12 992 93 9000 7 340 14:37 28.06.2019
5743 Rain 12 991 100 9000 8 350 14:18 28.06.2019
5744 Rain 13 991 93 9000 7 350 13:44 28.06.2019
5745 Rain 13 991 100 10000 8 340 13:21 28.06.2019
5746 Rain 13 990 93 10000 7 350 12:48 28.06.2019
5747 Rain 13 989 100 9000 7 360 11:56 28.06.2019
5748 Rain 13 989 100 9000 7 360 11:26 28.06.2019
5749 Rain 14 988 100 3000 5 240 10:46 28.06.2019
5750 Rain 14 989 100 9000 5 360 10:23 28.06.2019
5751 Rain 14 988 100 5000 4 10 09:49 28.06.2019
5752 Rain 14 988 100 5000 4 10 09:30 28.06.2019
5753 Rain 14 988 100 9000 3 10 08:49 28.06.2019
5754 Rain 14 988 100 9000 3 10 08:27 28.06.2019
5755 Rain 14 988 100 3200 4 10 07:53 28.06.2019
5756 Rain 14 988 100 3200 4 10 07:35 28.06.2019
5757 Drizzle 14 989 100 3100 4 40 06:33 28.06.2019
5758 Fog 15 991 93 800 2 150 02:26 28.06.2019
5759 Rain 15 993 93 1000 3 120 00:44 28.06.2019
5760 Rain 15 993 93 1500 3 130 23:57 27.06.2019
5761 Rain 15 993 93 1500 3 130 23:57 27.06.2019
5762 Fog 15 994 93 700 3 130 23:39 27.06.2019
5763 Rain 15 994 93 700 4 130 23:20 27.06.2019
5764 Mist 15 994 87 1200 4 120 22:41 27.06.2019
5765 Mist 15 994 87 1200 4 120 22:23 27.06.2019
5766 Mist 15 996 93 4400 4 120 21:56 27.06.2019
5767 Mist 15 996 93 4400 4 120 21:37 27.06.2019
5768 Clouds 15 996 100 10000 3 130 21:19 27.06.2019
5769 Clouds 15 996 100 10000 4 130 20:45 27.06.2019
5770 Rain 15 997 100 10000 5 130 20:26 27.06.2019
5771 Rain 15 997 100 10000 5 130 19:46 27.06.2019
5772 Rain 15 997 100 10000 5 130 19:27 27.06.2019
5773 Rain 15 998 100 9000 7 100 18:44 27.06.2019
5774 Rain 15 998 100 9000 7 100 18:26 27.06.2019
5775 Rain 14 999 100 6000 8 100 17:47 27.06.2019
5776 Rain 14 1000 100 7000 7 90 17:23 27.06.2019
5777 Rain 14 1000 100 7000 7 90 16:55 27.06.2019
5778 Rain 14 1001 100 5000 6 90 16:36 27.06.2019
5779 Rain 14 1001 100 9000 8 100 16:18 27.06.2019
5780 Rain 14 1002 100 6000 10 100 15:44 27.06.2019
5781 Rain 14 1002 100 6000 9 100 15:18 27.06.2019
5782 Rain 14 1003 100 7000 7 100 14:43 27.06.2019
5783 Rain 14 1003 100 7000 7 100 14:24 27.06.2019
5784 Rain 15 1004 100 8000 6 100 13:48 27.06.2019
5785 Rain 15 1004 100 8000 6 100 13:30 27.06.2019
5786 Rain 15 1005 100 10000 6 90 12:53 27.06.2019
5787 Rain 15 1005 100 10000 6 90 12:34 27.06.2019
5788 Rain 15 1006 100 9000 7 100 11:57 27.06.2019
5789 Rain 15 1006 87 9000 6 100 11:39 27.06.2019
5790 Rain 15 1007 77 9000 7 100 11:20 27.06.2019
5791 Rain 15 1007 77 10000 6 100 10:44 27.06.2019
5792 Rain 16 1008 77 10000 5 110 10:21 27.06.2019
5793 Rain 16 1008 77 10000 5 110 09:54 27.06.2019
5794 Clear 15 1008 82 10000 6 120 09:22 27.06.2019
5795 Clear 15 1009 82 10000 5 120 08:52 27.06.2019
5796 Clear 15 1009 82 10000 5 120 08:31 27.06.2019
5797 Clear 14 1009 87 10000 6 120 07:57 27.06.2019
5798 Clear 15 1010 87 10000 4 110 07:30 27.06.2019
5799 Clouds 14 1010 100 8000 5 100 06:51 27.06.2019
5800 Mist 14 1012 100 9000 2 90 04:27 27.06.2019
5801 Mist 13 1014 100 9000 1 170 02:44 27.06.2019
5802 Mist 14 1014 100 10000 1.75 75.94 01:48 27.06.2019
5803 Mist 14 1015 93 10000 2 270 00:58 27.06.2019
5804 Mist 14 1015 100 10000 2 250 00:39 27.06.2019
5805 Mist 14 1015 93 10000 2 210 00:18 27.06.2019
5806 Mist 14 1016 100 10000 3 210 23:40 26.06.2019
5807 Mist 14 1016 100 10000 3 220 23:20 26.06.2019
5808 Rain 14 1016 93 10000 2 260 22:43 26.06.2019
5809 Rain 14 1016 93 10000 2 260 22:25 26.06.2019
5810 Rain 14 1017 100 10000 2 200 21:56 26.06.2019
5811 Rain 14 1017 100 10000 2 200 21:37 26.06.2019
5812 Rain 14 1017 100 10000 2 240 21:19 26.06.2019
5813 Rain 14 1017 100 9000 1 0 20:44 26.06.2019
5814 Rain 15 1017 93 10000 1 0 20:26 26.06.2019
5815 Rain 15 1018 93 10000 1 0 19:49 26.06.2019
5816 Rain 15 1018 93 10000 1 0 19:31 26.06.2019
5817 Rain 15 1018 93 10000 2 210 18:57 26.06.2019
5818 Rain 15 1019 87 10000 2 250 18:39 26.06.2019
5819 Rain 15 1019 100 10000 2 300 18:19 26.06.2019
5820 Rain 15 1020 100 10000 2 310 17:43 26.06.2019
5821 Rain 15 1020 100 10000 2 310 17:23 26.06.2019
5822 Rain 18 1020 93 9000 4 330 16:51 26.06.2019
5823 Rain 18 1020 93 9000 4 330 16:28 26.06.2019
5824 Rain 21 1020 72 10000 4 320 15:52 26.06.2019
5825 Clear 22 1019 49 10000 1 0 15:28 26.06.2019
5826 Clear 22 1020 46 10000 2 320 14:42 26.06.2019
5827 Clouds 22 1021 52 10000 3 260 14:21 26.06.2019
5828 Clouds 22 1022 55 10000 4 310 13:46 26.06.2019
5829 Clouds 22 1022 55 10000 4 310 13:46 26.06.2019
5830 Rain 22 1022 52 10000 3 300 13:21 26.06.2019
5831 Rain 22 1022 52 10000 3 300 12:57 26.06.2019
5832 Rain 22 1022 55 10000 2 20 12:39 26.06.2019
5833 Rain 22 1023 55 10000 3 350 12:19 26.06.2019
5834 Clear 22 1022 43 10000 4 270 11:25 26.06.2019
5835 Clear 23 1023 43 10000 4 270 10:51 26.06.2019
5836 Clear 23 1023 43 10000 4 270 10:31 26.06.2019
5837 Clear 22 1023 49 10000 5 340 09:59 26.06.2019
5838 Clear 22 1023 49 10000 3 260 09:30 26.06.2019
5839 Clear 21 1023 55 10000 3 260 08:57 26.06.2019
5840 Clear 18 1024 59 10000 3 260 08:23 26.06.2019
5841 Clear 18 1024 59 10000 3 260 07:59 26.06.2019
5842 Clear 17 1024 63 10000 3 260 07:40 26.06.2019
5843 Clear 16 1024 67 10000 3 220 06:33 26.06.2019
5844 Clear 14 1026 67 10000 1.51 269.621 02:18 26.06.2019
5845 Clear 15 1026 67 10000 1.9 263.25 00:41 26.06.2019
5846 Clear 15 1026 62 10000 1.44 288.083 23:58 25.06.2019
5847 Clear 16 1026 55 10000 1.44 288.083 23:39 25.06.2019
5848 Clear 17 1026 52 10000 2 340 23:20 25.06.2019
5849 Clear 17 1026 55 10000 1 360 22:42 25.06.2019
5850 Clear 17 1026 55 10000 1 360 22:23 25.06.2019
5851 Clear 19 1026 45 10000 2 320 21:46 25.06.2019
5852 Clear 19 1026 45 10000 2 320 21:26 25.06.2019
5853 Clear 20 1026 45 10000 3 310 20:57 25.06.2019
5854 Clear 20 1026 45 10000 3 310 20:36 25.06.2019
5855 Clear 20 1026 42 10000 3 320 20:18 25.06.2019
5856 Clear 21 1026 42 10000 3 340 19:43 25.06.2019
5857 Clear 21 1026 42 10000 3 340 19:21 25.06.2019
5858 Clear 22 1027 40 10000 4 350 18:42 25.06.2019
5859 Clear 22 1027 37 10000 5 340 18:24 25.06.2019
5860 -273 0 0 0 0 0 17:46 25.06.2019
5861 -273 0 0 0 0 0 17:27 25.06.2019
5862 -273 0 0 0 0 0 17:27 25.06.2019
5863 Clear 23 1027 35 10000 4 330 16:45 25.06.2019
5864 Clear 23 1027 35 10000 4 330 16:26 25.06.2019
5865 Clear 23 1027 35 10000 4 330 16:26 25.06.2019
5866 Clear 22 1027 35 10000 5 330 15:59 25.06.2019
5867 Clear 22 1027 35 10000 6 340 15:39 25.06.2019
5868 Clear 23 1027 33 10000 5 330 15:20 25.06.2019
5869 Clear 23 1027 33 10000 6 330 14:45 25.06.2019
5870 Clear 23 1027 33 10000 6 330 14:26 25.06.2019
5871 Clear 23 1027 33 10000 7 310 13:43 25.06.2019
5872 Clear 23 1027 35 10000 5 340 13:24 25.06.2019
5873 Clear 23 1027 33 10000 6 340 12:43 25.06.2019
5874 Clear 23 1027 33 10000 7 330 12:24 25.06.2019
5875 Clear 22 1028 35 10000 7 310 11:46 25.06.2019
5876 Clear 22 1028 35 10000 7 310 11:25 25.06.2019
5877 Clear 22 1027 37 10000 5 360 10:58 25.06.2019
5878 Clear 22 1027 37 10000 5 360 10:37 25.06.2019
5879 Clear 22 1027 37 10000 6 350 10:19 25.06.2019
5880 Clear 21 1027 37 10000 6 340 09:40 25.06.2019
5881 Clear 21 1027 42 10000 5 340 09:22 25.06.2019
5882 Clear 21 1027 42 10000 5 340 08:59 25.06.2019
5883 Clear 21 1027 45 10000 6 350 08:31 25.06.2019
5884 Clear 20 1027 55 10000 4 350 07:51 25.06.2019
5885 Clear 19 1027 55 10000 4 350 07:31 25.06.2019
5886 Clear 18 1027 55 10000 5 350 06:51 25.06.2019
5887 Clear 17 1027 55 10000 4 340 06:24 25.06.2019
5888 Clear 15 1026 71 10000 2 260 02:44 25.06.2019
5889 Clear 16 1026 62 10000 2 320 01:26 25.06.2019
5890 Clear 17 1025 62 10000 2 330 00:28 25.06.2019
5891 Clear 17 1025 59 10000 2 330 23:53 24.06.2019
5892 Clear 18 1025 55 10000 2 350 23:33 24.06.2019
5893 Clear 18 1025 55 10000 2 20 22:58 24.06.2019
5894 Clear 19 1024 52 10000 4 10 22:38 24.06.2019
5895 Clear 19 1024 52 10000 3 360 22:18 24.06.2019
5896 Clear 20 1024 48 10000 3 350 21:38 24.06.2019
5897 Clear 21 1023 45 10000 2 330 21:18 24.06.2019
5898 Clear 21 1023 42 10000 3 330 20:54 24.06.2019
5899 Clear 21 1023 42 10000 3 330 20:36 24.06.2019
5900 Clear 22 1023 40 10000 3 330 20:18 24.06.2019
5901 Clear 24 1023 35 10000 4 330 19:41 24.06.2019
5902 Clear 23 1023 33 10000 5 340 19:21 24.06.2019
5903 Clear 24 1023 33 10000 5 330 18:43 24.06.2019
5904 Clear 24 1023 33 10000 5 330 18:24 24.06.2019
5905 Clear 24 1022 33 10000 4 320 17:38 24.06.2019
5906 Clear 25 1022 31 10000 5 340 17:19 24.06.2019
5907 Clear 25 1022 31 10000 3 340 16:45 24.06.2019
5908 Clear 25 1022 33 10000 3 330 16:20 24.06.2019
5909 Clear 26 1022 31 10000 5 310 15:46 24.06.2019
5910 Clear 25 1023 33 10000 5 360 15:27 24.06.2019
5911 Clear 25 1023 31 10000 5 330 14:42 24.06.2019
5912 Clear 25 1023 31 10000 5 330 14:24 24.06.2019
5913 Clear 25 1022 29 10000 5 330 13:45 24.06.2019
5914 Clear 25 1022 29 10000 5 330 13:23 24.06.2019
5915 Clear 25 1022 33 10000 4 20 12:42 24.06.2019
5916 Clear 24 1022 31 10000 5 310 12:21 24.06.2019
5917 Clear 24 1022 28 10000 5 310 11:46 24.06.2019
5918 Clear 24 1023 31 10000 4 20 11:27 24.06.2019
5919 Clear 24 1023 31 10000 4 20 10:55 24.06.2019
5920 Clear 23 1023 35 10000 5 360 10:36 24.06.2019
5921 Clear 23 1023 35 10000 4 20 10:18 24.06.2019
5922 Clear 23 1023 40 10000 4 360 09:43 24.06.2019
5923 Clear 22 1023 37 10000 4 10 09:19 24.06.2019
5924 Clear 21 1023 43 10000 4 350 08:50 24.06.2019
5925 Clear 21 1023 49 10000 4 10 08:20 24.06.2019
5926 Clear 20 1023 52 10000 4 10 07:41 24.06.2019
5927 Clear 20 1023 52 10000 4 10 07:23 24.06.2019
5928 Clear 19 1022 63 10000 4 10 06:24 24.06.2019
5929 Clear 18 1022 67 10000 3 10 05:45 24.06.2019
5930 Clear 17 1022 72 10000 3 360 04:58 24.06.2019
5931 Clear 16 1022 76 10000 3 360 03:54 24.06.2019
5932 Rain 17 1021 72 10000 4 10 02:48 24.06.2019
5933 Rain 17 1021 72 10000 4 10 01:55 24.06.2019
5934 Rain 17 1021 67 10000 3 350 01:34 24.06.2019
5935 Rain 17 1021 68 10000 2 190 00:55 24.06.2019
5936 Rain 18 1021 63 10000 4 350 00:37 24.06.2019
5937 Rain 19 1021 63 10000 3 350 00:18 24.06.2019
5938 Rain 19 1021 63 10000 3 350 23:41 23.06.2019
5939 Clear 20 1021 59 10000 2 330 23:20 23.06.2019
5940 Rain 20 1021 55 10000 3 350 22:42 23.06.2019
5941 Rain 20 1021 55 10000 2 330 22:20 23.06.2019
5942 Clear 20 1020 55 10000 4 330 21:43 23.06.2019
5943 Clear 21 1020 55 10000 3 330 21:23 23.06.2019
5944 Clear 21 1020 55 10000 3 340 20:52 23.06.2019
5945 Clear 21 1020 55 10000 3 340 20:52 23.06.2019
5946 Clear 21 1020 55 10000 3 340 20:32 23.06.2019
5947 Clear 22 1020 49 10000 3 340 19:57 23.06.2019
5948 Clear 22 1020 49 10000 4 350 19:39 23.06.2019
5949 Clear 23 1021 49 10000 4 340 19:19 23.06.2019
5950 Clear 23 1020 46 10000 4 340 18:44 23.06.2019
5951 Clear 24 1020 46 10000 5 350 18:20 23.06.2019
5952 Clear 24 1020 46 10000 5 320 17:44 23.06.2019
5953 Clear 24 1020 46 10000 5 320 17:24 23.06.2019
5954 Clear 25 1020 46 10000 4 320 16:46 23.06.2019
5955 Clear 25 1020 43 10000 5 320 16:25 23.06.2019
5956 Clear 25 1020 43 10000 5 320 15:55 23.06.2019
5957 Clear 26 1020 43 10000 4 310 15:37 23.06.2019
5958 Clear 26 1020 46 10000 4 340 15:18 23.06.2019
5959 Rain 26 1021 46 10000 2 290 14:38 23.06.2019
5960 Rain 26 1021 43 10000 3 10 14:20 23.06.2019
5961 Clear 26 1021 46 10000 5 360 13:46 23.06.2019
5962 Clear 26 1021 41 10000 5 350 13:21 23.06.2019
5963 Clear 26 1021 41 10000 5 350 12:59 23.06.2019
5964 Clear 26 1021 41 10000 3 320 12:41 23.06.2019
5965 Clear 26 1020 41 10000 3 310 12:19 23.06.2019
5966 Clear 26 1020 41 10000 4 340 11:47 23.06.2019
5967 Clear 25 1020 41 10000 4 340 11:27 23.06.2019
5968 Clear 24 1021 43 10000 5 360 10:50 23.06.2019
5969 Clear 24 1021 40 10000 5 10 10:21 23.06.2019
5970 Clear 24 1021 40 10000 5 10 09:58 23.06.2019
5971 Clear 23 1021 43 10000 5 360 09:24 23.06.2019
5972 Clear 22 1021 40 10000 6 10 08:54 23.06.2019
5973 Clear 22 1021 40 10000 6 10 08:54 23.06.2019
5974 Clear 22 1021 40 10000 6 10 08:36 23.06.2019
5975 Clear 22 1021 52 10000 5 10 08:18 23.06.2019
5976 Clouds 22 1020 77 10000 4 10 07:44 23.06.2019
5977 Clouds 21 1020 77 10000 5 350 07:18 23.06.2019
5978 Clouds 21 1020 77 10000 5 360 06:52 23.06.2019
5979 Clouds 20 1020 88 10000 4 350 05:53 23.06.2019
5980 Clear 19 1018 100 10000 2 310 02:52 23.06.2019
5981 Clear 20 1018 100 10000 3 310 01:39 23.06.2019
5982 Clear 21 1018 88 10000 4 300 01:20 23.06.2019
5983 Clear 21 1017 88 10000 4 310 00:31 23.06.2019
5984 Clear 22 1017 82 10000 4 310 23:47 22.06.2019
5985 Clear 22 1017 82 10000 4 310 23:26 22.06.2019
5986 Clear 23 1017 83 10000 4 320 22:47 22.06.2019
5987 Clear 23 1017 83 10000 4 320 22:27 22.06.2019
5988 Clear 24 1016 73 10000 4 310 21:56 22.06.2019
5989 Clear 24 1016 73 10000 4 310 21:36 22.06.2019
5990 Clear 25 1016 69 10000 4 310 21:18 22.06.2019
5991 Clear 25 1016 69 10000 4 310 21:18 22.06.2019
5992 Clear 26 1016 64 10000 5 290 20:43 22.06.2019
5993 Clear 27 1016 61 10000 5 290 20:24 22.06.2019
5994 Clear 27 1016 57 10000 7 300 19:41 22.06.2019
5995 Clear 28 1015 51 10000 7 260 19:20 22.06.2019
5996 Clear 28 1015 48 10000 7 250 18:43 22.06.2019
5997 Clear 28 1015 48 10000 8 260 18:23 22.06.2019
5998 Rain 29 1015 48 10000 7 260 17:46 22.06.2019
5999 Rain 29 1015 48 10000 7 260 17:46 22.06.2019
6000 Rain 29 1015 48 10000 7 260 17:25 22.06.2019
6001 Rain 29 1015 42 10000 9 250 16:44 22.06.2019
6002 Rain 29 1015 42 10000 9 250 16:24 22.06.2019
6003 Clear 31 1015 42 10000 7 220 15:45 22.06.2019
6004 Clear 31 1015 42 10000 7 220 15:27 22.06.2019
6005 Clear 31 1015 42 10000 8 230 14:52 22.06.2019
6006 Clear 31 1015 42 10000 8 220 14:32 22.06.2019
6007 Clear 30 1016 45 10000 7 240 13:58 22.06.2019
6008 Clear 30 1016 42 10000 8 230 13:39 22.06.2019
6009 Clear 30 1016 42 10000 6 240 13:19 22.06.2019
6010 Clear 30 1016 40 10000 8 230 12:45 22.06.2019
6011 Clear 30 1016 40 10000 8 230 12:26 22.06.2019
6012 Clear 29 1016 42 10000 7 230 11:45 22.06.2019
6013 Clear 29 1016 42 10000 7 230 11:27 22.06.2019
6014 Clear 27 1016 54 10000 6 240 10:23 22.06.2019
6015 Clear 27 1016 57 10000 5 240 09:58 22.06.2019
6016 Clear 27 1016 57 10000 5 240 09:36 22.06.2019
6017 Clear 26 1015 60 10000 4 210 08:50 22.06.2019
6018 Clear 26 1015 60 10000 4 210 08:31 22.06.2019
6019 Clear 24 1015 60 10000 5 240 07:52 22.06.2019
6020 Clear 24 1015 60 10000 5 240 07:29 22.06.2019
6021 Clear 22 1016 64 10000 3 210 06:44 22.06.2019
6022 Clear 21 1015 60 10000 4 220 04:38 22.06.2019
6023 Clear 20 1015 60 10000 3 220 02:27 22.06.2019
6024 Clear 21 1015 53 10000 2 190 00:57 22.06.2019
6025 Clear 21 1015 56 10000 3 180 00:31 22.06.2019
6026 Clear 22 1015 60 10000 2 0 23:50 21.06.2019
6027 Clear 22 1015 60 10000 2 0 23:24 21.06.2019
6028 Clear 22 1016 57 10000 2 140 22:58 21.06.2019
6029 Clear 23 1016 57 10000 2 120 22:58 21.06.2019
6030 Clear 22 1016 57 10000 2 140 22:58 21.06.2019
6031 Clear 23 1016 57 10000 2 120 22:39 21.06.2019
6032 Clear 24 1016 57 10000 3 120 22:20 21.06.2019
6033 Clear 25 1016 53 10000 2 140 21:40 21.06.2019
6034 Clear 25 1015 53 10000 2 110 21:21 21.06.2019
6035 Clear 25 1016 53 10000 2 110 20:48 21.06.2019
6036 Clear 25 1016 53 10000 2 110 20:26 21.06.2019
6037 Clear 26 1015 53 10000 3 100 19:54 21.06.2019
6038 Clear 28 1015 50 10000 4 90 19:23 21.06.2019
6039 Clear 29 1016 47 10000 3 90 18:43 21.06.2019
6040 Clear 29 1016 47 10000 3 90 18:25 21.06.2019
6041 Clear 29 1016 47 10000 2 0 17:41 21.06.2019
6042 Clear 29 1016 42 10000 3 270 17:23 21.06.2019
6043 Clear 29 1016 42 10000 4 270 16:38 21.06.2019
6044 Clear 30 1017 39 10000 5 260 16:19 21.06.2019
6045 Clear 29 1017 42 10000 5 250 15:39 21.06.2019
6046 Clouds 29 1017 42 10000 4 250 15:18 21.06.2019
6047 Clear 29 1017 39 10000 5 250 14:44 21.06.2019
6048 Clear 30 1017 39 10000 4 230 14:24 21.06.2019
6049 Clear 29 1017 37 10000 6 220 13:42 21.06.2019
6050 Clear 30 1017 37 10000 5 240 13:23 21.06.2019
6051 Clear 30 1017 33 10000 6 240 12:54 21.06.2019
6052 Clear 29 1017 37 10000 6 220 12:23 21.06.2019
6053 Clear 29 1017 37 10000 6 220 11:58 21.06.2019
6054 Clear 29 1017 35 10000 4 210 11:40 21.06.2019
6055 Clear 29 1017 35 10000 4 210 11:40 21.06.2019
6056 Clear 29 1017 35 10000 6 220 11:22 21.06.2019
6057 Clear 29 1017 35 10000 6 220 11:22 21.06.2019
6058 Clear 29 1017 39 10000 5 220 10:47 21.06.2019
6059 Clear 28 1017 37 10000 4 200 10:21 21.06.2019
6060 Clear 28 1017 37 10000 4 200 09:55 21.06.2019
6061 Clear 28 1017 39 10000 4 190 09:36 21.06.2019
6062 Clear 27 1018 42 10000 4 210 09:18 21.06.2019
6063 Clear 26 1018 44 10000 4 200 08:41 21.06.2019
6064 Clear 26 1018 44 10000 3 200 08:20 21.06.2019
6065 Clear 24 1018 47 10000 3 220 07:46 21.06.2019
6066 Clear 23 1018 53 10000 2 200 07:22 21.06.2019
6067 Clear 22 1018 53 10000 3 210 06:38 21.06.2019
6068 Clear 21 1018 60 10000 3 200 06:18 21.06.2019
6069 Clear 18 1018 60 10000 3 230 04:53 21.06.2019
6070 Clear 17 1017 68 10000 1 0 03:53 21.06.2019
6071 Clear 17 1017 68 10000 1 0 03:32 21.06.2019
6072 Clear 18 1017 63 10000 1 260 02:44 21.06.2019
6073 Clear 19 1017 60 10000 1 0 01:33 21.06.2019
6074 Clear 20 1017 52 10000 3 260 00:48 21.06.2019
6075 Clear 20 1017 60 10000 3 260 23:59 20.06.2019
6076 Clear 20 1017 52 10000 3 260 23:41 20.06.2019
6077 Clear 21 1017 52 10000 4 260 23:21 20.06.2019
6078 Clear 21 1016 49 10000 2 260 22:46 20.06.2019
6079 Clear 21 1016 49 10000 2 260 22:24 20.06.2019
6080 Clear 22 1016 44 10000 1 0 21:57 20.06.2019
6081 Clear 23 1016 36 10000 1 0 21:38 20.06.2019
6082 Clear 24 1016 38 10000 2 10 21:19 20.06.2019
6083 Clear 25 1016 34 10000 3 310 20:46 20.06.2019
6084 Clear 25 1016 34 10000 3 310 20:25 20.06.2019
6085 Clear 26 1015 32 10000 2 330 19:55 20.06.2019
6086 Clear 27 1015 34 10000 3 300 19:36 20.06.2019
6087 Clear 28 1016 30 10000 3 300 19:18 20.06.2019
6088 Clear 28 1016 28 10000 3 220 18:42 20.06.2019
6089 Clear 28 1016 30 10000 4 270 18:23 20.06.2019
6090 Clear 29 1016 26 10000 4 240 17:49 20.06.2019
6091 Clear 29 1016 26 10000 4 240 17:31 20.06.2019
6092 Clear 29 1016 25 10000 4 210 16:48 20.06.2019
6093 Clear 30 1016 25 10000 3 0 16:20 20.06.2019
6094 Clear 30 1016 25 10000 3 0 15:59 20.06.2019
6095 Clear 30 1016 23 10000 3 0 15:40 20.06.2019
6096 Clear 30 1016 25 10000 4 290 15:22 20.06.2019
6097 Clear 30 1017 25 10000 3 0 14:46 20.06.2019
6098 Clear 30 1017 21 10000 2 340 14:23 20.06.2019
6099 Clear 29 1017 23 10000 2 0 13:41 20.06.2019
6100 Clear 29 1017 23 10000 4 280 13:20 20.06.2019
6101 Clear 29 1017 26 10000 4 360 12:49 20.06.2019
6102 Clear 29 1017 24 10000 3 0 12:24 20.06.2019
6103 Clear 28 1017 26 10000 3 0 11:55 20.06.2019
6104 Clear 28 1017 26 10000 3 0 11:37 20.06.2019
6105 Clear 28 1017 28 10000 3 260 11:18 20.06.2019
6106 Clear 27 1017 30 10000 4 290 10:41 20.06.2019
6107 Clear 27 1018 28 10000 3 0 10:21 20.06.2019
6108 Clear 27 1018 32 10000 2 0 09:40 20.06.2019
6109 Clear 26 1018 34 10000 3 290 09:22 20.06.2019
6110 Clear 26 1018 39 10000 2 260 08:46 20.06.2019
6111 Clear 25 1018 47 10000 1 0 08:27 20.06.2019
6112 Clear 24 1018 50 10000 1 0 07:54 20.06.2019
6113 Clear 24 1018 50 10000 1 0 07:30 20.06.2019
6114 Clear 21 1018 60 10000 1 0 06:38 20.06.2019
6115 Clear 20 1018 64 10000 1 0 06:18 20.06.2019
6116 Clear 17 1017 82 10000 2 240 03:37 20.06.2019
6117 Clear 18 1017 72 10000 2 270 00:34 20.06.2019
6118 Clear 19 1016 68 10000 2 260 23:59 19.06.2019
6119 Clear 20 1016 68 10000 2 260 23:41 19.06.2019
6120 Clear 21 1016 60 10000 2 300 23:23 19.06.2019
6121 Clear 21 1016 60 10000 2 300 22:48 19.06.2019
6122 Clear 22 1016 53 10000 3 270 22:20 19.06.2019
6123 Clear 23 1016 53 10000 3 280 21:54 19.06.2019
6124 Clear 23 1016 53 10000 3 280 21:36 19.06.2019
6125 Clear 23 1016 46 10000 2 300 21:18 19.06.2019
6126 Clear 24 1016 44 10000 2 340 20:39 19.06.2019
6127 Clear 25 1016 41 10000 3 340 20:20 19.06.2019
6128 Clear 25 1015 38 10000 4 310 19:42 19.06.2019
6129 Clear 26 1015 39 10000 5 300 19:21 19.06.2019
6130 Clear 27 1015 36 10000 5 300 18:51 19.06.2019
6131 Clear 27 1016 36 10000 5 300 18:21 19.06.2019
6132 Clear 27 1016 34 10000 4 300 17:41 19.06.2019
6133 Clear 27 1016 34 10000 5 320 17:23 19.06.2019
6134 Clear 28 1016 36 10000 4 300 16:43 19.06.2019
6135 Clear 28 1016 34 10000 5 350 16:22 19.06.2019
6136 Clear 28 1016 34 10000 4 280 15:58 19.06.2019
6137 Clear 28 1016 34 10000 4 280 15:31 19.06.2019
6138 Clear 28 1016 32 10000 3 300 14:59 19.06.2019
6139 Clear 28 1016 32 10000 6 300 14:41 19.06.2019
6140 Clear 28 1016 34 10000 4 280 14:21 19.06.2019
6141 Clear 27 1017 36 10000 4 330 13:43 19.06.2019
6142 Clear 27 1016 36 10000 4 320 13:25 19.06.2019
6143 Clear 27 1016 36 10000 5 320 12:47 19.06.2019
6144 Clear 27 1017 36 10000 5 320 12:22 19.06.2019
6145 Clear 26 1017 38 10000 5 340 11:58 19.06.2019
6146 Clear 26 1017 38 10000 5 340 11:38 19.06.2019
6147 Clear 26 1017 38 10000 4 350 11:20 19.06.2019
6148 Clear 25 1017 41 10000 3 330 10:45 19.06.2019
6149 Clear 25 1016 43 10000 4 350 10:27 19.06.2019
6150 Clear 25 1016 44 10000 3 30 09:50 19.06.2019
6151 Clear 25 1016 46 10000 3 50 09:23 19.06.2019
6152 Clear 24 1016 46 10000 3 50 08:58 19.06.2019
6153 Clear 23 1016 49 10000 4 360 08:38 19.06.2019
6154 Clear 23 1016 53 10000 3 350 08:19 19.06.2019
6155 Clear 22 1016 53 10000 2 350 07:43 19.06.2019
6156 Clear 21 1016 56 10000 2 320 07:21 19.06.2019
6157 Clear 20 1016 63 10000 4 330 06:36 19.06.2019
6158 Clear 19 1016 63 10000 4 330 05:58 19.06.2019
6159 Clear 17 1016 67 10000 3 320 05:24 19.06.2019
6160 Clear 16 1015 76 10000 3 310 03:53 19.06.2019
6161 Clear 17 1015 72 10000 4 300 02:35 19.06.2019
6162 Clear 18 1015 63 10000 3 310 01:39 19.06.2019
6163 Clear 19 1015 63 10000 3 310 00:54 19.06.2019
6164 Clear 19 1015 59 10000 4 310 00:36 19.06.2019
6165 Clear 19 1015 55 10000 3 310 00:18 19.06.2019
6166 Clear 20 1014 55 10000 3 320 23:42 18.06.2019
6167 Clear 20 1014 59 10000 4 330 23:23 18.06.2019
6168 Clear 20 1014 59 10000 3 310 22:41 18.06.2019
6169 Clear 20 1014 59 10000 3 310 22:22 18.06.2019
6170 Clear 21 1013 56 10000 3 300 21:44 18.06.2019
6171 Clear 21 1013 56 10000 3 300 21:22 18.06.2019
6172 Clear 22 1013 56 10000 3 310 20:59 18.06.2019
6173 Clear 23 1013 53 10000 3 310 20:40 18.06.2019
6174 Clear 24 1013 53 10000 4 310 20:21 18.06.2019
6175 Clear 24 1013 53 10000 4 310 20:21 18.06.2019
6176 Clear 24 1013 53 10000 4 290 19:40 18.06.2019
6177 Clear 25 1012 50 10000 6 280 19:22 18.06.2019
6178 Clear 25 1012 50 10000 6 280 18:55 18.06.2019
6179 Clear 26 1012 50 10000 6 280 18:25 18.06.2019
6180 Clear 26 1012 44 10000 6 310 17:55 18.06.2019
6181 Clear 26 1012 44 10000 6 310 17:36 18.06.2019
6182 Clear 27 1012 44 10000 6 290 17:18 18.06.2019
6183 Clear 26 1012 50 10000 5 300 16:42 18.06.2019
6184 Clear 27 1012 44 10000 6 280 16:22 18.06.2019
6185 Clear 26 1012 47 10000 5 280 15:42 18.06.2019
6186 Clouds 26 1013 47 10000 6 290 15:23 18.06.2019
6187 Clouds 26 1013 44 10000 5 280 14:56 18.06.2019
6188 Clouds 26 1013 44 10000 5 280 14:38 18.06.2019
6189 Clouds 26 1013 53 10000 7 300 14:19 18.06.2019
6190 Clouds 27 1013 44 10000 6 310 13:50 18.06.2019
6191 Clouds 26 1013 44 10000 6 310 13:30 18.06.2019
6192 Clear 25 1013 44 10000 4 310 12:46 18.06.2019
6193 Clear 25 1013 44 10000 4 310 12:28 18.06.2019
6194 Clouds 25 1013 50 10000 6 310 11:54 18.06.2019
6195 Clouds 24 1013 50 10000 6 310 11:36 18.06.2019
6196 Clouds 24 1013 47 10000 5 290 11:18 18.06.2019
6197 Clear 24 1013 56 10000 3 270 10:41 18.06.2019
6198 Clear 24 1013 60 10000 3 290 10:22 18.06.2019
6199 Clear 23 1013 60 10000 3 350 09:52 18.06.2019
6200 Clear 23 1013 60 10000 3 350 09:25 18.06.2019
6201 Clear 23 1013 60 10000 3 350 08:56 18.06.2019
6202 Clear 23 1013 64 10000 2 320 08:38 18.06.2019
6203 Clear 22 1013 72 10000 3 310 08:20 18.06.2019
6204 Clear 21 1013 77 10000 2 320 07:26 18.06.2019
6205 Clear 20 1013 77 10000 3 300 06:55 18.06.2019
6206 Rain 19 1013 82 10000 2 280 05:27 18.06.2019
6207 Clear 19 1013 88 10000 2 210 04:22 18.06.2019
6208 Rain 19 1013 77 10000 3 250 02:49 18.06.2019
6209 Clear 20 1012 72 10000 4 250 01:28 18.06.2019
6210 Clear 20 1012 72 10000 4 260 00:58 18.06.2019
6211 Clear 20 1013 72 10000 4 240 00:39 18.06.2019
6212 Clear 20 1013 72 10000 4 250 00:21 18.06.2019
6213 Clear 20 1013 68 10000 4 260 23:38 17.06.2019
6214 Clear 20 1013 68 10000 5 260 23:19 17.06.2019
6215 Clear 21 1013 64 10000 5 250 22:41 17.06.2019
6216 Clear 21 1013 60 10000 5 240 22:21 17.06.2019
6217 Clear 21 1013 60 10000 5 250 21:55 17.06.2019
6218 Clear 21 1013 60 10000 5 250 21:36 17.06.2019
6219 Clear 21 1013 56 10000 5 250 21:18 17.06.2019
6220 Clear 22 1013 56 10000 5 260 20:36 17.06.2019
6221 Clear 22 1013 60 10000 5 260 20:18 17.06.2019
6222 Clear 22 1013 53 10000 5 260 19:41 17.06.2019
6223 Clear 24 1013 49 10000 7 260 19:22 17.06.2019
6224 Clear 24 1013 49 10000 6 250 18:57 17.06.2019
6225 Clear 24 1013 49 10000 6 250 18:37 17.06.2019
6226 Clear 25 1013 44 10000 6 260 18:18 17.06.2019
6227 Clear 25 1013 44 10000 6 260 17:42 17.06.2019
6228 Clear 25 1013 41 10000 6 270 17:24 17.06.2019
6229 Clear 26 1013 38 10000 6 290 16:46 17.06.2019
6230 Clear 26 1013 41 10000 5 280 16:28 17.06.2019
6231 Clear 26 1013 36 10000 5 260 15:56 17.06.2019
6232 Clear 26 1013 36 10000 5 260 15:38 17.06.2019
6233 Clear 26 1013 34 10000 6 290 15:18 17.06.2019
6234 Clear 26 1013 36 10000 5 280 14:48 17.06.2019
6235 Clear 26 1013 39 10000 5 270 14:30 17.06.2019
6236 Clear 25 1014 36 10000 6 270 13:50 17.06.2019
6237 Clear 25 1014 39 10000 5 280 13:24 17.06.2019
6238 Clear 25 1014 44 10000 4 300 12:52 17.06.2019
6239 Clear 25 1014 44 10000 4 300 12:31 17.06.2019
6240 Clear 24 1014 46 10000 4 230 11:49 17.06.2019
6241 Clouds 23 1014 49 10000 4 290 11:26 17.06.2019
6242 Clouds 23 1015 53 10000 6 260 10:59 17.06.2019
6243 Clouds 23 1015 53 10000 6 260 10:41 17.06.2019
6244 Clouds 23 1015 53 10000 5 260 10:22 17.06.2019
6245 Clouds 22 1015 56 10000 4 250 09:55 17.06.2019
6246 Clouds 22 1015 56 10000 4 250 09:55 17.06.2019
6247 Clouds 22 1015 56 10000 4 260 09:30 17.06.2019
6248 Clouds 21 1015 64 10000 3 260 08:43 17.06.2019
6249 Clear 21 1015 64 10000 4 260 08:23 17.06.2019
6250 Clear 20 1015 68 10000 3 250 07:51 17.06.2019
6251 Clear 20 1015 68 10000 3 250 07:32 17.06.2019
6252 Clear 18 1015 72 10000 2 260 06:48 17.06.2019
6253 Clear 16 1015 82 10000 2 250 05:53 17.06.2019
6254 Clear 14 1015 93 10000 2 250 04:59 17.06.2019
6255 Clear 14 1015 93 10000 2 260 03:52 17.06.2019
6256 Clear 14 1015 93 10000 2 260 03:25 17.06.2019
6257 Clear 13 1015 93 10000 2 250 02:42 17.06.2019
6258 Clear 14 1015 93 10000 2 260 02:24 17.06.2019
6259 Clear 14 1015 93 10000 2.04 276.815 01:35 17.06.2019
6260 Clear 15 1015 87 10000 2 280 00:57 17.06.2019
6261 Clear 15 1015 87 10000 2 280 00:36 17.06.2019
6262 Clear 15 1015 82 10000 3 270 00:18 17.06.2019
6263 Clear 15 1015 77 10000 2 280 23:39 16.06.2019
6264 Clear 16 1015 77 10000 1 0 23:19 16.06.2019
6265 Clear 17 1015 72 10000 2 320 22:44 16.06.2019
6266 Clear 17 1015 67 10000 2 320 22:20 16.06.2019
6267 Clear 18 1015 63 10000 3 310 21:57 16.06.2019
6268 Clear 18 1015 63 10000 3 310 21:39 16.06.2019
6269 Clear 18 1015 59 10000 2 320 21:20 16.06.2019
6270 Clear 20 1015 59 10000 2 320 20:40 16.06.2019
6271 Clear 20 1015 56 10000 3 330 20:19 16.06.2019
6272 Clear 20 1015 56 10000 3 330 19:58 16.06.2019
6273 Clear 21 1014 56 10000 4 310 19:39 16.06.2019
6274 Clear 21 1014 49 10000 2 350 19:21 16.06.2019
6275 Clear 21 1014 52 10000 3 310 18:42 16.06.2019
6276 Clear 22 1014 46 10000 4 300 18:21 16.06.2019
6277 Clear 22 1014 46 10000 4 280 17:58 16.06.2019
6278 Clear 22 1014 46 10000 4 280 17:40 16.06.2019
6279 Clear 22 1014 46 10000 3 300 17:21 16.06.2019
6280 Clear 22 1014 46 10000 3 300 16:55 16.06.2019
6281 Clear 22 1014 52 10000 4 350 16:37 16.06.2019
6282 Clouds 22 1014 49 10000 3 10 16:18 16.06.2019
6283 Clouds 22 1015 49 10000 4 300 15:41 16.06.2019
6284 Clouds 22 1015 56 10000 4 330 15:23 16.06.2019
6285 Clouds 21 1015 52 10000 4 320 14:42 16.06.2019
6286 Clouds 21 1015 56 10000 3 310 14:23 16.06.2019
6287 Clouds 21 1015 60 10000 4 360 13:51 16.06.2019
6288 Clouds 21 1015 60 10000 4 360 13:26 16.06.2019
6289 Clouds 20 1015 63 10000 5 320 12:57 16.06.2019
6290 Clouds 20 1015 63 10000 5 320 12:57 16.06.2019
6291 Clouds 20 1015 63 10000 5 320 12:38 16.06.2019
6292 Clouds 20 1015 82 10000 3 340 12:18 16.06.2019
6293 Clouds 21 1014 64 10000 4 350 11:40 16.06.2019
6294 Clouds 20 1015 77 10000 4 340 11:19 16.06.2019
6295 Clouds 20 1015 87 10000 4 330 10:45 16.06.2019
6296 Rain 19 1015 87 10000 4 340 10:21 16.06.2019
6297 Clouds 18 1015 87 10000 5 330 09:48 16.06.2019
6298 Clouds 18 1014 87 10000 4 330 09:26 16.06.2019
6299 Clouds 17 1014 87 10000 4 330 08:57 16.06.2019
6300 Clouds 17 1014 82 10000 3 330 08:38 16.06.2019
6301 Clouds 17 1014 87 10000 4 320 08:18 16.06.2019
6302 Clouds 17 1014 87 10000 3 330 07:42 16.06.2019
6303 Mist 16 1014 100 10000 3 330 06:57 16.06.2019
6304 Mist 16 1014 100 10000 3 330 06:30 16.06.2019
6305 Rain 15 1013 93 9000 2 350 05:40 16.06.2019
6306 Rain 14 1013 93 9000 2 290 04:36 16.06.2019
6307 Rain 14 1013 93 10000 2 270 03:54 16.06.2019
6308 Rain 14 1013 93 10000 2 270 03:31 16.06.2019
6309 Rain 14 1013 100 10000 2 350 02:26 16.06.2019
6310 Fog 14 1013 93 10000 2 270 01:42 16.06.2019
6311 Fog 14 1013 93 10000 1 250 01:24 16.06.2019
6312 Fog 14 1014 93 10000 1 290 00:40 16.06.2019
6313 Fog 15 1014 93 10000 1 0 00:20 16.06.2019
6314 Fog 15 1014 87 10000 2.25 320.511 23:43 15.06.2019
6315 Mist 15 1014 93 10000 1 320 23:25 15.06.2019
6316 Clear 15 1014 87 10000 1 0 22:50 15.06.2019
6317 Clear 16 1014 87 10000 1 0 22:27 15.06.2019
6318 Clear 16 1014 87 10000 2 350 21:50 15.06.2019
6319 Clear 17 1014 82 10000 2 340 21:29 15.06.2019
6320 Clear 17 1014 72 10000 1 0 20:59 15.06.2019
6321 Clear 17 1014 72 10000 1 0 20:41 15.06.2019
6322 Clear 18 1014 72 10000 1 0 20:22 15.06.2019
6323 Clear 18 1014 77 10000 2 360 19:42 15.06.2019
6324 Clouds 19 1014 77 10000 2 360 19:23 15.06.2019
6325 Clouds 20 1014 77 10000 3 10 18:41 15.06.2019
6326 Clouds 19 1014 82 10000 4 330 18:21 15.06.2019
6327 Clouds 19 1014 82 10000 4 310 17:43 15.06.2019
6328 Clouds 19 1014 72 10000 4 320 17:23 15.06.2019
6329 Clouds 19 1014 77 10000 4 310 16:48 15.06.2019
6330 Clouds 20 1014 72 10000 4 330 16:20 15.06.2019
6331 Clouds 19 1014 72 10000 4 300 15:44 15.06.2019
6332 Clouds 19 1014 72 10000 3 300 15:24 15.06.2019
6333 Clouds 19 1014 72 10000 3 280 14:44 15.06.2019
6334 Clouds 19 1015 72 10000 3 260 14:19 15.06.2019
6335 Clouds 19 1015 72 10000 3 260 13:58 15.06.2019
6336 Clouds 18 1015 72 10000 3 260 13:40 15.06.2019
6337 Clouds 19 1015 68 10000 2 250 13:19 15.06.2019
6338 Clouds 18 1015 68 10000 3 190 12:51 15.06.2019
6339 Clouds 17 1015 77 10000 2 310 12:26 15.06.2019
6340 Clouds 17 1015 68 10000 3 140 11:53 15.06.2019
6341 Clouds 17 1015 68 10000 3 140 11:53 15.06.2019
6342 Clouds 17 1015 68 10000 3 140 11:33 15.06.2019
6343 Clouds 17 1015 77 10000 2 210 10:55 15.06.2019
6344 Clouds 16 1015 77 10000 2 110 10:37 15.06.2019
6345 Clouds 16 1015 72 10000 2 120 10:18 15.06.2019
6346 Clouds 16 1015 77 10000 2 0 09:43 15.06.2019
6347 Clouds 15 1015 82 10000 2 140 09:21 15.06.2019
6348 Clouds 15 1015 77 10000 3 110 08:48 15.06.2019
6349 Clouds 15 1015 77 10000 3 110 08:29 15.06.2019
6350 Clouds 14 1015 82 10000 3 70 07:49 15.06.2019
6351 Clouds 14 1015 87 10000 4 90 07:21 15.06.2019
6352 Clouds 14 1015 87 10000 4 100 06:39 15.06.2019
6353 Clouds 14 1015 87 10000 4 100 06:39 15.06.2019
6354 Clouds 14 1015 93 10000 2 120 05:56 15.06.2019
6355 Clouds 14 1015 93 10000 4 130 05:23 15.06.2019
6356 Clouds 14 1015 93 10000 4 90 04:37 15.06.2019
6357 Clouds 14 1015 93 10000 4 70 03:42 15.06.2019
6358 Clouds 14 1015 93 10000 4 60 02:49 15.06.2019
6359 Clouds 14 1015 93 10000 4 80 02:20 15.06.2019
6360 Clouds 14 1015 100 10000 4 50 01:42 15.06.2019
6361 Clouds 15 1015 93 10000 4 20 00:47 15.06.2019
6362 Clouds 16 1015 93 10000 4 20 00:28 15.06.2019
6363 Clouds 17 1015 93 10000 4 10 23:53 14.06.2019
6364 Clouds 17 1015 93 10000 4 10 23:25 14.06.2019
6365 Clouds 19 1014 93 10000 2 30 22:43 14.06.2019
6366 Clouds 19 1014 100 10000 4 30 22:23 14.06.2019
6367 Clouds 19 1014 100 10000 4 30 22:23 14.06.2019
6368 Clouds 19 1014 100 10000 4 30 21:59 14.06.2019
6369 Rain 20 1014 100 10000 1 0 21:40 14.06.2019
6370 Rain 20 1014 94 10000 2 360 21:21 14.06.2019
6371 Rain 20 1014 100 10000 1 0 20:42 14.06.2019
6372 Rain 20 1013 88 10000 3 10 20:18 14.06.2019
6373 Clouds 21 1013 94 10000 3.63 7.545 19:53 14.06.2019
6374 Clouds 21 1014 88 10000 3 340 19:23 14.06.2019
6375 Clouds 21 1014 88 10000 3 340 18:59 14.06.2019
6376 Clouds 21 1014 82 10000 3 340 18:41 14.06.2019
6377 Clouds 21 1013 83 10000 3 350 18:22 14.06.2019
6378 Clouds 22 1014 88 10000 3 300 17:48 14.06.2019
6379 Clouds 21 1014 83 10000 4 290 17:30 14.06.2019
6380 Clouds 21 1014 83 10000 4 290 16:58 14.06.2019
6381 Clouds 21 1014 83 10000 6 280 16:40 14.06.2019
6382 Clear 20 1014 82 10000 5 270 16:19 14.06.2019
6383 Rain 19 1014 88 10000 5 230 15:41 14.06.2019
6384 Rain 17 1015 93 10000 6 230 15:23 14.06.2019
6385 Rain 16 1016 100 10000 5 220 14:58 14.06.2019
6386 Rain 16 1016 100 10000 5 220 14:39 14.06.2019
6387 Rain 16 1016 100 10000 5 220 14:38 14.06.2019
6388 Thunderstorm 16 1016 93 10000 5 240 14:19 14.06.2019
6389 Thunderstorm 16 1016 93 10000 5 240 14:19 14.06.2019
6390 Rain 16 1017 93 10000 4 210 13:42 14.06.2019
6391 Rain 16 1016 93 10000 7 200 13:24 14.06.2019
6392 Rain 17 1017 93 8000 5 210 12:43 14.06.2019
6393 Rain 19 1018 77 8000 7 220 12:25 14.06.2019
6394 Rain 19 1018 77 8000 7 220 12:25 14.06.2019
6395 Rain 20 1018 63 10000 5 210 11:58 14.06.2019
6396 Rain 20 1018 63 10000 5 210 11:39 14.06.2019
6397 Clear 20 1018 63 10000 6 210 11:20 14.06.2019
6398 Rain 19 1019 63 10000 6 210 10:43 14.06.2019
6399 Rain 20 1019 67 10000 4 200 10:20 14.06.2019
6400 Clear 20 1021 40 10000 4 250 09:46 14.06.2019
6401 Clear 20 1021 40 10000 4 250 09:46 14.06.2019
6402 Clear 20 1021 42 10000 4 260 09:24 14.06.2019
6403 Clear 19 1022 45 10000 5 260 08:47 14.06.2019
6404 Clear 19 1021 45 10000 5 210 08:19 14.06.2019
6405 Clear 18 1021 42 10000 5 220 07:51 14.06.2019
6406 Clear 17 1021 48 10000 5 210 07:22 14.06.2019
6407 Clear 16 1022 44 10000 5 220 06:39 14.06.2019
6408 Clear 13 1022 54 10000 2 210 05:58 14.06.2019
6409 Clear 13 1022 54 10000 2 210 05:26 14.06.2019
6410 Clear 11 1023 71 10000 2.12 200.781 04:48 14.06.2019
6411 Clear 10 1023 71 10000 1 0 03:56 14.06.2019
6412 Clear 11 1023 71 10000 1 0 03:26 14.06.2019
6413 Clear 10 1023 76 10000 1 0 02:56 14.06.2019
6414 Clear 10 1024 71 10000 1 0 02:27 14.06.2019
6415 Clear 11 1024 62 10000 1 0 02:27 14.06.2019
6416 Clear 12 1024 66 10000 3 110 00:59 14.06.2019
6417 Clear 12 1024 66 10000 3 110 00:36 14.06.2019
6418 Clear 12 1025 62 10000 2 130 00:18 14.06.2019
6419 Clear 12 1025 62 10000 2 110 23:41 13.06.2019
6420 Clear 12 1025 62 10000 2 160 23:22 13.06.2019
6421 Clear 13 1025 58 10000 2 150 22:40 13.06.2019
6422 Clear 14 1024 54 10000 4 130 22:22 13.06.2019
6423 Clear 15 1024 47 10000 4 120 21:41 13.06.2019
6424 Clear 15 1024 38 10000 4 110 21:20 13.06.2019
6425 Clear 16 1024 38 10000 4 110 20:59 13.06.2019
6426 Clear 17 1024 36 10000 4 100 20:40 13.06.2019
6427 Clear 18 1024 34 10000 4 110 20:19 13.06.2019
6428 Clear 18 1024 34 10000 4 100 19:43 13.06.2019
6429 Clear 19 1024 32 10000 4 90 19:23 13.06.2019
6430 Clear 19 1025 34 10000 3 80 18:58 13.06.2019
6431 Clear 19 1025 34 10000 3 80 18:40 13.06.2019
6432 Clear 19 1025 34 10000 3 80 18:21 13.06.2019
6433 Clear 20 1025 28 10000 4 90 17:44 13.06.2019
6434 Clear 20 1026 29 10000 2 0 17:21 13.06.2019
6435 Clear 20 1026 32 10000 3 60 16:56 13.06.2019
6436 Clear 20 1026 32 10000 3 60 16:36 13.06.2019
6437 Clear 20 1026 34 10000 3 60 16:18 13.06.2019
6438 Clear 20 1026 29 10000 3 80 15:40 13.06.2019
6439 Clear 19 1027 29 10000 4 60 15:22 13.06.2019
6440 Clear 19 1027 31 10000 4 70 14:49 13.06.2019
6441 Clear 19 1027 29 10000 5 80 14:31 13.06.2019
6442 Clear 19 1027 34 10000 5 60 13:54 13.06.2019
6443 Clear 19 1027 34 10000 5 60 13:36 13.06.2019
6444 Clear 18 1027 33 10000 3 70 13:18 13.06.2019
6445 Clear 18 1027 33 10000 5 70 12:39 13.06.2019
6446 Clear 17 1028 33 10000 5 60 12:21 13.06.2019
6447 Clear 17 1028 36 10000 5 70 11:44 13.06.2019
6448 Clear 16 1028 41 10000 4 90 11:25 13.06.2019
6449 Clear 15 1028 44 10000 5 90 10:49 13.06.2019
6450 Clear 15 1028 47 10000 4 90 10:30 13.06.2019
6451 Clear 15 1028 47 10000 5 100 09:55 13.06.2019
6452 Clear 15 1028 47 10000 5 100 09:55 13.06.2019
6453 Clear 15 1028 47 10000 5 100 09:55 13.06.2019
6454 Clear 14 1028 47 10000 5 100 09:36 13.06.2019
6455 Clear 14 1028 50 10000 6 70 09:18 13.06.2019
6456 Clear 13 1028 46 10000 6 80 08:43 13.06.2019
6457 Clear 13 1027 50 10000 6 100 08:22 13.06.2019
6458 Clear 12 1027 53 10000 6 70 07:41 13.06.2019
6459 Clear 12 1027 57 10000 6 80 07:22 13.06.2019
6460 Clear 11 1027 57 10000 7 70 06:45 13.06.2019
6461 Clear 11 1027 57 10000 7 70 06:22 13.06.2019
6462 Clear 11 1027 61 10000 7 80 05:52 13.06.2019
6463 Clear 11 1027 61 10000 7 80 05:34 13.06.2019
6464 Clear 11 1026 66 10000 5 70 03:57 13.06.2019
6465 Clear 13 1024 58 10000 6 70 02:22 13.06.2019
6466 Clear 15 1023 66 10000 5 40 00:46 13.06.2019
6467 Clear 16 1022 63 10000 7 60 23:47 12.06.2019
6468 Clouds 16 1023 72 10000 6 20 23:21 12.06.2019
6469 Clear 17 1023 72 10000 6 40 22:42 12.06.2019
6470 Clear 17 1023 72 10000 6 40 22:24 12.06.2019
6471 Clouds 18 1022 67 10000 6 50 21:48 12.06.2019
6472 Clouds 18 1022 67 10000 6 50 21:29 12.06.2019
6473 Clear 19 1020 63 10000 4 70 20:57 12.06.2019
6474 Clear 19 1020 63 10000 4 70 20:37 12.06.2019
6475 Clear 19 1020 63 10000 5 80 20:19 12.06.2019
6476 Clear 19 1020 63 10000 6 40 19:42 12.06.2019
6477 Clear 20 1020 59 10000 7 30 19:22 12.06.2019
6478 Clear 20 1020 59 10000 6 40 18:55 12.06.2019
6479 Clear 20 1020 59 10000 6 40 18:37 12.06.2019
6480 Clear 20 1019 60 10000 4 60 18:18 12.06.2019
6481 Clear 20 1018 60 10000 5 50 17:43 12.06.2019
6482 Clear 20 1019 63 10000 5 50 17:20 12.06.2019
6483 Clear 21 1019 63 10000 5 50 16:42 12.06.2019
6484 Rain 21 1018 60 10000 6 60 16:23 12.06.2019
6485 Clear 21 1018 56 10000 5 60 15:52 12.06.2019
6486 Clear 22 1018 53 10000 4 40 15:32 12.06.2019
6487 Clear 22 1018 56 10000 5 50 14:46 12.06.2019
6488 Clear 22 1018 56 10000 5 50 14:27 12.06.2019
6489 Rain 23 1018 49 10000 2 340 13:43 12.06.2019
6490 Clear 24 1018 56 10000 2 320 13:20 12.06.2019
6491 Rain 24 1018 47 10000 1 0 12:59 12.06.2019
6492 Rain 25 1018 47 10000 1 0 12:38 12.06.2019
6493 Rain 25 1018 47 10000 1 0 12:38 12.06.2019
6494 Clear 25 1018 41 10000 1 0 12:19 12.06.2019
6495 -273 0 0 0 0 0 12:19 12.06.2019
6496 Clear 25 1018 41 10000 1 0 12:19 12.06.2019
6497 Clouds 25 1018 49 10000 2 360 11:46 12.06.2019
6498 Clouds 25 1018 49 10000 2 360 11:28 12.06.2019
6499 Clear 25 1019 46 10000 2 300 10:51 12.06.2019
6500 Clear 25 1019 46 10000 2 300 10:31 12.06.2019
6501 Clear 25 1019 46 10000 3 270 09:45 12.06.2019
6502 Clear 25 1019 43 10000 2 260 09:23 12.06.2019
6503 Clear 24 1019 46 10000 2 270 08:58 12.06.2019
6504 Clear 24 1019 46 10000 2 280 08:24 12.06.2019
6505 Clear 23 1019 43 10000 2 270 07:48 12.06.2019
6506 Clear 21 1019 56 10000 1 330 06:55 12.06.2019
6507 Clear 18 1020 63 10000 1 320 05:52 12.06.2019
6508 Clear 17 1020 67 10000 1 0 05:23 12.06.2019
6509 Clear 16 1020 72 10000 1 10 02:19 12.06.2019
6510 Clear 18 1020 59 10000 2 320 00:41 12.06.2019
6511 Clear 19 1020 52 10000 1.04 24.28 23:53 11.06.2019
6512 Clear 19 1020 52 10000 1.04 24.28 23:34 11.06.2019
6513 Clear 21 1020 52 10000 1 0 22:45 11.06.2019
6514 Clear 22 1020 46 10000 1 0 22:24 11.06.2019
6515 Clear 22 1020 46 10000 1 0 21:58 11.06.2019
6516 Clear 22 1021 43 10000 2 360 21:40 11.06.2019
6517 Clear 23 1021 43 10000 2 330 21:21 11.06.2019
6518 Clear 24 1021 40 10000 2 340 20:50 11.06.2019
6519 Clear 25 1021 38 10000 3 340 20:27 11.06.2019
6520 Clear 26 1021 38 10000 3 350 19:58 11.06.2019
6521 -273 0 0 0 0 0 19:40 11.06.2019
6522 Clear 26 1021 33 10000 5 350 19:22 11.06.2019
6523 Clear 27 1021 34 10000 5 350 18:41 11.06.2019
6524 Clear 27 1021 34 10000 5 350 18:19 11.06.2019
6525 Clear 27 1021 34 10000 5 350 17:41 11.06.2019
6526 Clear 28 1021 36 10000 5 340 17:20 11.06.2019
6527 Clear 28 1021 34 10000 5 320 16:43 11.06.2019
6528 Clear 28 1021 34 10000 5 340 16:23 11.06.2019
6529 Clear 28 1021 34 10000 4 300 15:43 11.06.2019
6530 Clear 29 1021 32 10000 4 290 15:25 11.06.2019
6531 Clear 29 1021 32 10000 4 290 14:56 11.06.2019
6532 Clear 28 1021 32 10000 4 290 14:38 11.06.2019
6533 Clear 28 1021 34 10000 4 270 14:19 11.06.2019
6534 Clear 28 1021 39 10000 4 310 13:42 11.06.2019
6535 Clear 28 1022 42 10000 5 290 13:21 11.06.2019
6536 Clear 28 1022 36 10000 4 250 12:42 11.06.2019
6537 Clear 27 1022 39 10000 3 250 12:22 11.06.2019
6538 Clear 27 1022 39 10000 4 270 11:54 11.06.2019
6539 Clear 27 1022 39 10000 4 270 11:32 11.06.2019
6540 Clear 26 1023 39 10000 4 250 10:51 11.06.2019
6541 Clear 26 1023 39 10000 4 250 10:27 11.06.2019
6542 Clear 26 1023 39 10000 4 250 10:27 11.06.2019
6543 Clouds 25 1022 50 10000 4 260 09:52 11.06.2019
6544 Clouds 25 1022 50 10000 4 260 09:28 11.06.2019
6545 Clear 25 1023 53 10000 4 230 08:59 11.06.2019
6546 Clear 25 1023 53 10000 4 230 08:40 11.06.2019
6547 Clear 24 1023 50 10000 3 230 08:20 11.06.2019
6548 Clear 23 1023 56 10000 3 220 07:34 11.06.2019
6549 Clear 22 1023 64 10000 1 0 06:54 11.06.2019
6550 Clear 19 1023 77 10000 2 330 05:56 11.06.2019
6551 Fog 17 1022 82 10000 1 0 04:40 11.06.2019
6552 Clear 19 1022 82 10000 0.4 321.385 02:27 11.06.2019
6553 Clear 20 1022 77 10000 1 0 00:53 11.06.2019
6554 Clear 20 1022 77 10000 1 0 00:31 11.06.2019
6555 Clear 21 1022 68 10000 1 340 23:46 10.06.2019
6556 Clear 22 1022 68 10000 2 330 23:21 10.06.2019
6557 Clear 22 1022 68 10000 2 330 22:46 10.06.2019
6558 Clear 22 1022 68 10000 2 330 22:46 10.06.2019
6559 Clear 22 1022 68 10000 2 330 22:27 10.06.2019
6560 Clear 22 1022 64 10000 2 350 21:58 10.06.2019
6561 Clear 23 1021 64 10000 2 340 21:38 10.06.2019
6562 Clear 23 1021 64 10000 2 350 21:20 10.06.2019
6563 Clear 24 1021 64 10000 3 350 20:44 10.06.2019
6564 Clear 24 1021 60 10000 4 330 20:21 10.06.2019
6565 Clear 25 1021 60 10000 4 350 19:48 10.06.2019
6566 Clear 26 1021 60 10000 4 360 19:26 10.06.2019
6567 Clear 26 1021 60 10000 4 360 18:58 10.06.2019
6568 Clear 26 1021 60 10000 4 340 18:40 10.06.2019
6569 Clouds 26 1021 57 10000 4 340 18:20 10.06.2019
6570 Clouds 27 1021 53 10000 4 320 17:44 10.06.2019
6571 Clear 27 1021 53 10000 3 360 17:24 10.06.2019
6572 Clear 27 1021 50 10000 2 330 16:56 10.06.2019
6573 Clear 27 1021 50 10000 2 330 16:38 10.06.2019
6574 Clouds 27 1021 50 10000 4 330 16:18 10.06.2019
6575 Clouds 27 1022 54 10000 5 330 15:41 10.06.2019
6576 Clouds 27 1022 57 10000 5 340 15:23 10.06.2019
6577 Clouds 27 1022 54 10000 4 320 14:49 10.06.2019
6578 Clouds 27 1022 54 10000 4 320 14:30 10.06.2019
6579 Clouds 27 1022 57 10000 5 330 13:58 10.06.2019
6580 Clouds 27 1022 54 10000 5 300 13:39 10.06.2019
6581 Clouds 27 1023 50 10000 4 330 13:20 10.06.2019
6582 Clouds 27 1023 57 10000 5 300 12:40 10.06.2019
6583 Clouds 27 1023 57 10000 5 310 12:22 10.06.2019
6584 Clouds 27 1023 57 10000 5 300 11:43 10.06.2019
6585 Clouds 26 1023 60 10000 4 310 11:19 10.06.2019
6586 Clouds 26 1022 64 10000 5 270 10:42 10.06.2019
6587 Clouds 26 1022 60 10000 4 300 10:20 10.06.2019
6588 Clouds 25 1022 64 10000 5 300 09:55 10.06.2019
6589 Clouds 25 1022 64 10000 5 300 09:32 10.06.2019
6590 Clear 24 1022 64 10000 4 270 08:50 10.06.2019
6591 Clear 24 1022 64 10000 4 270 08:27 10.06.2019
6592 Clear 23 1022 73 10000 3 290 07:59 10.06.2019
6593 Clear 21 1022 77 10000 3 260 06:33 10.06.2019
6594 Clear 18 1022 93 10000 3 270 03:59 10.06.2019
6595 Clear 20 1022 77 10000 3 200 01:57 10.06.2019
6596 Clear 21 1022 72 10000 3 230 01:23 10.06.2019
6597 Clear 21 1021 72 10000 2 260 00:54 10.06.2019
6598 Clear 22 1021 72 10000 1 320 23:59 09.06.2019
6599 Clear 23 1022 68 10000 4 290 23:40 09.06.2019
6600 Clear 23 1022 64 10000 5 290 23:18 09.06.2019
6601 Clear 24 1022 64 10000 4 260 22:42 09.06.2019
6602 Clear 24 1022 64 10000 4 220 22:24 09.06.2019
6603 Clear 24 1022 64 10000 4 260 22:24 09.06.2019
6604 Clear 24 1022 60 10000 4 210 21:41 09.06.2019
6605 Clear 24 1021 53 10000 4 230 21:22 09.06.2019
6606 Clear 25 1021 53 10000 5 250 20:42 09.06.2019
6607 Clear 25 1021 53 10000 4 260 20:23 09.06.2019
6608 Clear 26 1021 47 10000 6 230 19:47 09.06.2019
6609 Clouds 27 1021 42 10000 5 240 19:19 09.06.2019
6610 Clouds 27 1021 42 10000 5 240 19:19 09.06.2019
6611 Clouds 27 1021 42 10000 6 220 18:58 09.06.2019
6612 Clouds 27 1021 42 10000 6 220 18:40 09.06.2019
6613 Clouds 27 1021 42 10000 6 210 18:22 09.06.2019
6614 Clouds 28 1021 37 10000 5 180 17:46 09.06.2019
6615 -273 0 0 0 0 0 17:27 09.06.2019
6616 Clouds 30 1021 35 10000 4 210 16:54 09.06.2019
6617 Clouds 30 1021 35 10000 4 210 16:36 09.06.2019
6618 Clouds 30 1021 35 10000 4 200 16:18 09.06.2019
6619 Clouds 31 1021 37 10000 5 190 15:44 09.06.2019
6620 Clear 31 1022 37 10000 4 200 15:24 09.06.2019
6621 Clear 30 1022 37 10000 3 180 14:45 09.06.2019
6622 Clear 31 1023 37 10000 4 210 14:22 09.06.2019
6623 Clouds 30 1023 42 10000 4 210 13:52 09.06.2019
6624 Clear 30 1023 40 10000 2 240 13:26 09.06.2019
6625 Clouds 30 1023 40 10000 3 180 12:42 09.06.2019
6626 Clouds 31 1023 37 10000 4 230 12:23 09.06.2019
6627 Clear 30 1024 40 10000 4 270 11:40 09.06.2019
6628 Clear 29 1024 42 10000 3 230 11:22 09.06.2019
6629 Clear 29 1024 42 10000 3 200 10:46 09.06.2019
6630 Clear 29 1024 48 10000 4 220 10:23 09.06.2019
6631 Clear 29 1024 45 10000 4 210 09:41 09.06.2019
6632 Clear 28 1024 51 10000 3 210 09:23 09.06.2019
6633 Clear 27 1024 51 10000 3 210 08:55 09.06.2019
6634 Clear 27 1024 54 10000 4 210 08:36 09.06.2019
6635 Clear 25 1024 57 10000 3 230 07:46 09.06.2019
6636 Mist 23 1024 64 10000 2 290 06:30 09.06.2019
6637 Mist 20 1023 68 10000 1 250 05:34 09.06.2019
6638 Mist 18 1023 77 10000 2 240 01:58 09.06.2019
6639 Mist 19 1023 72 10000 2 90 01:36 09.06.2019
6640 Mist 19 1023 72 10000 2 90 01:36 09.06.2019
6641 Clear 19 1023 60 10000 2 140 01:18 09.06.2019
6642 Clear 20 1023 60 10000 1 140 00:22 09.06.2019
6643 Clear 21 1023 60 10000 1 0 23:40 08.06.2019
6644 Haze 21 1023 56 10000 2 170 23:21 08.06.2019
6645 Clear 21 1023 60 10000 2 190 22:44 08.06.2019
6646 Clear 22 1023 56 10000 3 260 22:25 08.06.2019
6647 Clouds 22 1023 53 10000 4 260 21:54 08.06.2019
6648 Clouds 23 1023 53 10000 4 260 21:35 08.06.2019
6649 Clouds 23 1023 53 10000 4 260 21:35 08.06.2019
6650 Clouds 23 1023 53 10000 4 260 21:35 08.06.2019
6651 Clouds 23 1023 56 10000 7 250 20:59 08.06.2019
6652 Clouds 24 1023 50 10000 6 230 20:40 08.06.2019
6653 Clouds 24 1022 53 10000 3 250 20:21 08.06.2019
6654 Thunderstorm 24 1022 47 10000 3 300 19:42 08.06.2019
6655 Clouds 26 1022 37 10000 3 260 19:23 08.06.2019
6656 Clouds 26 1022 51 10000 3 240 18:58 08.06.2019
6657 Clouds 26 1022 51 10000 3 240 18:39 08.06.2019
6658 Clear 27 1022 37 10000 2 170 18:18 08.06.2019
6659 Clear 29 1022 37 10000 2 200 17:42 08.06.2019
6660 Clear 30 1022 37 10000 3 210 17:19 08.06.2019
6661 Clear 30 1022 42 10000 3 180 16:45 08.06.2019
6662 Clear 30 1023 42 10000 3 110 16:24 08.06.2019
6663 Clear 30 1023 37 10000 2 180 15:40 08.06.2019
6664 Clear 30 1023 37 10000 2 180 15:40 08.06.2019
6665 Clear 30 1023 37 10000 2 180 15:40 08.06.2019
6666 Clear 30 1023 35 10000 3 160 15:21 08.06.2019
6667 Clear 30 1023 30 10000 2 70 14:42 08.06.2019
6668 Clear 30 1023 35 10000 3 180 14:24 08.06.2019
6669 Clear 31 1023 33 10000 3 170 13:40 08.06.2019
6670 Clear 30 1024 33 10000 2 110 12:52 08.06.2019
6671 Clear 30 1024 33 10000 2 110 12:32 08.06.2019
6672 Clear 30 1024 35 10000 3 120 11:44 08.06.2019
6673 Clear 30 1024 35 10000 3 120 11:44 08.06.2019
6674 Clear 30 1024 37 10000 3 80 11:25 08.06.2019
6675 Clear 29 1024 37 10000 3 120 10:46 08.06.2019
6676 Clear 29 1024 37 10000 3 130 10:24 08.06.2019
6677 Clear 28 1024 34 10000 4 80 09:52 08.06.2019
6678 Clear 28 1024 42 10000 2 100 09:28 08.06.2019
6679 Clear 27 1024 47 10000 3 110 08:39 08.06.2019
6680 Clear 27 1024 54 10000 3 90 08:18 08.06.2019
6681 Clear 23 1024 60 10000 1 0 06:51 08.06.2019
6682 Clear 20 1024 77 10000 0.11 206.114 05:56 08.06.2019
6683 Clear 18 1023 87 10000 1 80 03:34 08.06.2019
6684 Clear 19 1024 72 10000 1 350 01:59 08.06.2019
6685 Clear 20 1024 60 10000 1 0 00:29 08.06.2019
6686 Clear 20 1023 52 10000 1 0 23:52 07.06.2019
6687 Clear 21 1023 53 10000 1 0 23:21 07.06.2019
6688 Clear 21 1023 53 10000 1 110 22:50 07.06.2019
6689 Clear 22 1023 53 10000 1 110 22:31 07.06.2019
6690 Clear 23 1023 41 10000 2 200 21:54 07.06.2019
6691 Clear 23 1023 41 10000 2 200 21:31 07.06.2019
6692 Clear 24 1023 38 10000 2 230 20:59 07.06.2019
6693 Clear 26 1023 32 10000 2 230 20:41 07.06.2019
6694 Clear 27 1022 36 10000 1 260 20:22 07.06.2019
6695 Clouds 29 1022 30 10000 3 210 19:38 07.06.2019
6696 Clouds 29 1022 30 10000 3 210 19:19 07.06.2019
6697 Clouds 29 1022 30 10000 2 210 18:38 07.06.2019
6698 Clouds 29 1022 30 10000 2 210 18:38 07.06.2019
6699 Clear 29 1022 35 10000 1 0 18:20 07.06.2019
6700 Clear 29 1022 28 10000 2 50 17:42 07.06.2019
6701 Clear 30 1022 30 10000 2 0 17:20 07.06.2019
6702 Clear 30 1023 30 10000 3 170 16:41 07.06.2019
6703 Clear 30 1023 32 10000 3 80 16:18 07.06.2019
6704 Clear 30 1023 30 10000 2 190 15:40 07.06.2019
6705 Clear 30 1023 32 10000 2 0 15:19 07.06.2019
6706 Clear 30 1023 28 10000 3 140 14:39 07.06.2019
6707 Clear 31 1023 28 10000 3 140 14:39 07.06.2019
6708 Clear 30 1023 28 10000 3 90 14:20 07.06.2019
6709 Clear 30 1023 30 10000 4 110 13:28 07.06.2019
6710 Clear 29 1024 28 10000 3 130 12:54 07.06.2019
6711 Clear 29 1024 28 10000 3 130 12:29 07.06.2019
6712 Clear 29 1024 32 10000 3 90 11:57 07.06.2019
6713 Clear 28 1024 32 10000 3 90 11:38 07.06.2019
6714 Clear 28 1024 34 10000 3 120 11:20 07.06.2019
6715 Clear 28 1024 32 10000 3 40 10:42 07.06.2019
6716 Clear 29 1024 36 10000 4 70 10:21 07.06.2019
6717 Clear 28 1024 34 10000 2 0 09:48 07.06.2019
6718 Clear 27 1024 42 10000 2 0 09:24 07.06.2019
6719 Clear 27 1024 41 10000 1 0 08:48 07.06.2019
6720 Clear 26 1024 47 10000 1 0 08:27 07.06.2019
6721 Clear 25 1024 50 10000 1 0 07:51 07.06.2019
6722 Clear 23 1024 50 10000 1 40 07:22 07.06.2019
6723 Clear 22 1024 53 10000 1 0 06:48 07.06.2019
6724 Clear 20 1024 56 10000 0.35 229.541 06:27 07.06.2019
6725 Clear 19 1024 68 10000 1 50 05:45 07.06.2019
6726 Clear 16 1023 72 10000 1 0 02:46 07.06.2019
6727 Clear 17 1023 63 10000 3 260 01:39 07.06.2019
6728 Clear 18 1023 63 10000 2 90 00:48 07.06.2019
6729 Clear 18 1023 68 10000 3 80 00:20 07.06.2019
6730 Clear 19 1023 52 10000 1 0 23:41 06.06.2019
6731 Clear 20 1023 56 10000 2 250 23:19 06.06.2019
6732 Clear 20 1023 52 10000 3 210 22:38 06.06.2019
6733 Clear 20 1022 56 10000 2 160 22:19 06.06.2019
6734 Clear 21 1022 49 10000 3 90 21:55 06.06.2019
6735 Clear 21 1022 49 10000 3 90 21:37 06.06.2019
6736 Clear 22 1022 56 10000 2 50 21:18 06.06.2019
6737 Clear 23 1022 43 10000 3 70 20:40 06.06.2019
6738 Clear 25 1022 38 10000 3 70 20:21 06.06.2019
6739 Clear 25 1022 38 10000 3 50 19:38 06.06.2019
6740 Clear 26 1022 36 10000 3 50 19:19 06.06.2019
6741 Clear 27 1022 30 10000 3 70 18:52 06.06.2019
6742 Clear 27 1022 30 10000 3 70 18:32 06.06.2019
6743 Clear 27 1022 28 10000 4 70 17:57 06.06.2019
6744 Clear 28 1022 28 10000 3 70 17:38 06.06.2019
6745 Clear 28 1022 36 10000 4 80 17:20 06.06.2019
6746 Clear 28 1022 36 10000 4 80 17:20 06.06.2019
6747 Clear 28 1022 32 10000 3 60 16:43 06.06.2019
6748 Clear 28 1023 32 10000 3 140 16:22 06.06.2019
6749 Clear 28 1023 32 10000 2 80 15:47 06.06.2019
6750 Clear 29 1023 32 10000 2 0 15:26 06.06.2019
6751 Clear 28 1023 32 10000 3 90 14:46 06.06.2019
6752 Clear 28 1023 32 10000 3 230 14:20 06.06.2019
6753 Clear 28 1023 34 10000 4 220 13:55 06.06.2019
6754 Clear 28 1023 34 10000 4 220 13:37 06.06.2019
6755 Clear 28 1023 32 10000 3 210 13:18 06.06.2019
6756 Clear 28 1024 36 10000 3 210 12:43 06.06.2019
6757 Clear 27 1024 36 10000 2 280 12:21 06.06.2019
6758 Clear 27 1024 39 10000 3 0 11:49 06.06.2019
6759 Clear 26 1024 39 10000 3 240 11:28 06.06.2019
6760 Clear 26 1024 39 10000 3 210 10:50 06.06.2019
6761 Clear 26 1024 41 10000 2 170 10:29 06.06.2019
6762 Clear 26 1024 39 10000 2 170 09:49 06.06.2019
6763 Clear 25 1024 47 10000 2 270 09:30 06.06.2019
6764 Clear 25 1024 47 10000 2 270 08:54 06.06.2019
6765 Clear 24 1024 44 10000 2 280 08:28 06.06.2019
6766 Clear 23 1024 49 10000 2 0 07:55 06.06.2019
6767 Clear 22 1024 53 10000 2 270 07:37 06.06.2019
6768 Clear 19 1024 59 10000 2 270 06:52 06.06.2019
6769 Clear 18 1024 59 10000 2 260 06:34 06.06.2019
6770 Clear 14 1024 71 10000 1.56 246.175 04:40 06.06.2019
6771 Clear 14 1024 71 10000 1 260 03:58 06.06.2019
6772 Clear 15 1024 67 10000 1.82 244.282 02:19 06.06.2019
6773 Clear 15 1024 67 10000 1.82 244.282 01:26 06.06.2019
6774 Clear 16 1023 63 10000 1 190 00:33 06.06.2019
6775 Clear 17 1023 52 10000 2 250 23:55 05.06.2019
6776 Clear 17 1023 52 10000 2 250 23:31 05.06.2019
6777 Clear 18 1023 48 10000 1 160 22:56 05.06.2019
6778 Clear 18 1023 48 10000 1 160 22:37 05.06.2019
6779 Clear 18 1023 52 10000 2 190 22:19 05.06.2019
6780 Clear 19 1023 40 10000 3 250 21:43 05.06.2019
6781 Clear 20 1022 35 10000 3 220 21:24 05.06.2019
6782 Clear 22 1022 33 10000 4 220 20:48 05.06.2019
6783 Clear 23 1022 33